<?xml version="1.0" encoding="UTF-8"?>
<gpx version="1.1" creator=" " xmlns="http://www.topografix.com/GPX/1/1" xmlns:xsi="http://www.w3.org/2001/XMLSchema-instance" xsi:schemaLocation="http://www.topografix.com/GPX/1/1 http://www.topografix.com/GPX/1/1/gpx.xsd">
<metadata>
<name>TL 2019 Anfahrt Otto</name>
<desc></desc>
<link href="">
<text>  </text>
</link>
<time>2019-05-29T08:42:50Z</time>
</metadata>
<trk>
<trkseg>
<trkpt lat="48.754037" lon="9.986658">
<ele>648</ele>
</trkpt>
<trkpt lat="48.754037" lon="9.986658">
<ele>648</ele>
<time>2019-05-29T08:42:50Z</time>
</trkpt>
<trkpt lat="48.754043" lon="9.986602">
<ele>648</ele>
<time>2019-05-29T08:43:00Z</time>
</trkpt>
<trkpt lat="48.754037" lon="9.986608">
<ele>648</ele>
<time>2019-05-29T08:43:05Z</time>
</trkpt>
<trkpt lat="48.754043" lon="9.986603">
<ele>648</ele>
<time>2019-05-29T08:43:10Z</time>
</trkpt>
<trkpt lat="48.754045" lon="9.986605">
<ele>648</ele>
<time>2019-05-29T08:43:15Z</time>
</trkpt>
<trkpt lat="48.754047" lon="9.986605">
<ele>648</ele>
<time>2019-05-29T08:43:20Z</time>
</trkpt>
<trkpt lat="48.754048" lon="9.986615">
<ele>648</ele>
<time>2019-05-29T08:43:25Z</time>
</trkpt>
<trkpt lat="48.754047" lon="9.98662">
<ele>648</ele>
<time>2019-05-29T08:43:30Z</time>
</trkpt>
<trkpt lat="48.754048" lon="9.986622">
<ele>648</ele>
<time>2019-05-29T08:43:35Z</time>
</trkpt>
<trkpt lat="48.754047" lon="9.986625">
<ele>648</ele>
<time>2019-05-29T08:43:45Z</time>
</trkpt>
<trkpt lat="48.754048" lon="9.986625">
<ele>648</ele>
<time>2019-05-29T08:43:50Z</time>
</trkpt>
<trkpt lat="48.75405" lon="9.986628">
<ele>648</ele>
<time>2019-05-29T08:43:55Z</time>
</trkpt>
<trkpt lat="48.754057" lon="9.986635">
<ele>648</ele>
<time>2019-05-29T08:44:00Z</time>
</trkpt>
<trkpt lat="48.754048" lon="9.986657">
<ele>648</ele>
<time>2019-05-29T08:44:05Z</time>
</trkpt>
<trkpt lat="48.754045" lon="9.986678">
<ele>648</ele>
<time>2019-05-29T08:44:10Z</time>
</trkpt>
<trkpt lat="48.754048" lon="9.986683">
<ele>648</ele>
<time>2019-05-29T08:44:15Z</time>
</trkpt>
<trkpt lat="48.754047" lon="9.9867">
<ele>648</ele>
<time>2019-05-29T08:44:20Z</time>
</trkpt>
<trkpt lat="48.754003" lon="9.98683">
<ele>648</ele>
<time>2019-05-29T08:44:25Z</time>
</trkpt>
<trkpt lat="48.753925" lon="9.987008">
<ele>647</ele>
<time>2019-05-29T08:44:30Z</time>
</trkpt>
<trkpt lat="48.753865" lon="9.987183">
<ele>647</ele>
<time>2019-05-29T08:44:35Z</time>
</trkpt>
<trkpt lat="48.753905" lon="9.987347">
<ele>646</ele>
<time>2019-05-29T08:44:40Z</time>
</trkpt>
<trkpt lat="48.754067" lon="9.98735">
<ele>646</ele>
<time>2019-05-29T08:44:45Z</time>
</trkpt>
<trkpt lat="48.75422" lon="9.987353">
<ele>646</ele>
<time>2019-05-29T08:44:50Z</time>
</trkpt>
<trkpt lat="48.754397" lon="9.987373">
<ele>646</ele>
<time>2019-05-29T08:44:55Z</time>
</trkpt>
<trkpt lat="48.754563" lon="9.987417">
<ele>647</ele>
<time>2019-05-29T08:45:00Z</time>
</trkpt>
<trkpt lat="48.75474" lon="9.987453">
<ele>647</ele>
<time>2019-05-29T08:45:05Z</time>
</trkpt>
<trkpt lat="48.754947" lon="9.98751">
<ele>647</ele>
<time>2019-05-29T08:45:10Z</time>
</trkpt>
<trkpt lat="48.755202" lon="9.987587">
<ele>647</ele>
<time>2019-05-29T08:45:15Z</time>
</trkpt>
<trkpt lat="48.75545" lon="9.987673">
<ele>647</ele>
<time>2019-05-29T08:45:20Z</time>
</trkpt>
<trkpt lat="48.755725" lon="9.987717">
<ele>647</ele>
<time>2019-05-29T08:45:25Z</time>
</trkpt>
<trkpt lat="48.75596" lon="9.987703">
<ele>647</ele>
<time>2019-05-29T08:45:30Z</time>
</trkpt>
<trkpt lat="48.756192" lon="9.987687">
<ele>647</ele>
<time>2019-05-29T08:45:35Z</time>
</trkpt>
<trkpt lat="48.756453" lon="9.987648">
<ele>647</ele>
<time>2019-05-29T08:45:40Z</time>
</trkpt>
<trkpt lat="48.756722" lon="9.987598">
<ele>647</ele>
<time>2019-05-29T08:45:45Z</time>
</trkpt>
<trkpt lat="48.756985" lon="9.987598">
<ele>647</ele>
<time>2019-05-29T08:45:50Z</time>
</trkpt>
<trkpt lat="48.757235" lon="9.98766">
<ele>647</ele>
<time>2019-05-29T08:45:55Z</time>
</trkpt>
<trkpt lat="48.757462" lon="9.987745">
<ele>648</ele>
<time>2019-05-29T08:46:00Z</time>
</trkpt>
<trkpt lat="48.757683" lon="9.987862">
<ele>649</ele>
<time>2019-05-29T08:46:05Z</time>
</trkpt>
<trkpt lat="48.757895" lon="9.987985">
<ele>649</ele>
<time>2019-05-29T08:46:10Z</time>
</trkpt>
<trkpt lat="48.758082" lon="9.988118">
<ele>650</ele>
<time>2019-05-29T08:46:15Z</time>
</trkpt>
<trkpt lat="48.758282" lon="9.988263">
<ele>651</ele>
<time>2019-05-29T08:46:20Z</time>
</trkpt>
<trkpt lat="48.758503" lon="9.98847">
<ele>651</ele>
<time>2019-05-29T08:46:25Z</time>
</trkpt>
<trkpt lat="48.75873" lon="9.988693">
<ele>651</ele>
<time>2019-05-29T08:46:30Z</time>
</trkpt>
<trkpt lat="48.758963" lon="9.988963">
<ele>652</ele>
<time>2019-05-29T08:46:35Z</time>
</trkpt>
<trkpt lat="48.759193" lon="9.989248">
<ele>652</ele>
<time>2019-05-29T08:46:40Z</time>
</trkpt>
<trkpt lat="48.75945" lon="9.989543">
<ele>652</ele>
<time>2019-05-29T08:46:45Z</time>
</trkpt>
<trkpt lat="48.75971" lon="9.989815">
<ele>652</ele>
<time>2019-05-29T08:46:50Z</time>
</trkpt>
<trkpt lat="48.759963" lon="9.990055">
<ele>651</ele>
<time>2019-05-29T08:46:55Z</time>
</trkpt>
<trkpt lat="48.760237" lon="9.99026">
<ele>651</ele>
<time>2019-05-29T08:47:00Z</time>
</trkpt>
<trkpt lat="48.760522" lon="9.990428">
<ele>651</ele>
<time>2019-05-29T08:47:05Z</time>
</trkpt>
<trkpt lat="48.760822" lon="9.990562">
<ele>650</ele>
<time>2019-05-29T08:47:10Z</time>
</trkpt>
<trkpt lat="48.761125" lon="9.990643">
<ele>649</ele>
<time>2019-05-29T08:47:15Z</time>
</trkpt>
<trkpt lat="48.761448" lon="9.990685">
<ele>649</ele>
<time>2019-05-29T08:47:20Z</time>
</trkpt>
<trkpt lat="48.761772" lon="9.990698">
<ele>648</ele>
<time>2019-05-29T08:47:25Z</time>
</trkpt>
<trkpt lat="48.762067" lon="9.990695">
<ele>648</ele>
<time>2019-05-29T08:47:30Z</time>
</trkpt>
<trkpt lat="48.762352" lon="9.990678">
<ele>648</ele>
<time>2019-05-29T08:47:35Z</time>
</trkpt>
<trkpt lat="48.762603" lon="9.990653">
<ele>648</ele>
<time>2019-05-29T08:47:40Z</time>
</trkpt>
<trkpt lat="48.762835" lon="9.990625">
<ele>650</ele>
<time>2019-05-29T08:47:45Z</time>
</trkpt>
<trkpt lat="48.763028" lon="9.990592">
<ele>650</ele>
<time>2019-05-29T08:47:50Z</time>
</trkpt>
<trkpt lat="48.763223" lon="9.990555">
<ele>651</ele>
<time>2019-05-29T08:47:55Z</time>
</trkpt>
<trkpt lat="48.763413" lon="9.990522">
<ele>653</ele>
<time>2019-05-29T08:48:00Z</time>
</trkpt>
<trkpt lat="48.763597" lon="9.99049">
<ele>654</ele>
<time>2019-05-29T08:48:05Z</time>
</trkpt>
<trkpt lat="48.763795" lon="9.990447">
<ele>655</ele>
<time>2019-05-29T08:48:10Z</time>
</trkpt>
<trkpt lat="48.763978" lon="9.990392">
<ele>656</ele>
<time>2019-05-29T08:48:15Z</time>
</trkpt>
<trkpt lat="48.764168" lon="9.990338">
<ele>657</ele>
<time>2019-05-29T08:48:20Z</time>
</trkpt>
<trkpt lat="48.764367" lon="9.990283">
<ele>658</ele>
<time>2019-05-29T08:48:25Z</time>
</trkpt>
<trkpt lat="48.764593" lon="9.990188">
<ele>658</ele>
<time>2019-05-29T08:48:30Z</time>
</trkpt>
<trkpt lat="48.764835" lon="9.990093">
<ele>659</ele>
<time>2019-05-29T08:48:35Z</time>
</trkpt>
<trkpt lat="48.76508" lon="9.989965">
<ele>659</ele>
<time>2019-05-29T08:48:40Z</time>
</trkpt>
<trkpt lat="48.765302" lon="9.989823">
<ele>659</ele>
<time>2019-05-29T08:48:45Z</time>
</trkpt>
<trkpt lat="48.765582" lon="9.989647">
<ele>658</ele>
<time>2019-05-29T08:48:50Z</time>
</trkpt>
<trkpt lat="48.765865" lon="9.989443">
<ele>658</ele>
<time>2019-05-29T08:48:55Z</time>
</trkpt>
<trkpt lat="48.766118" lon="9.989257">
<ele>657</ele>
<time>2019-05-29T08:49:00Z</time>
</trkpt>
<trkpt lat="48.766367" lon="9.989073">
<ele>657</ele>
<time>2019-05-29T08:49:05Z</time>
</trkpt>
<trkpt lat="48.76662" lon="9.988898">
<ele>657</ele>
<time>2019-05-29T08:49:10Z</time>
</trkpt>
<trkpt lat="48.766853" lon="9.988757">
<ele>657</ele>
<time>2019-05-29T08:49:15Z</time>
</trkpt>
<trkpt lat="48.767053" lon="9.988648">
<ele>658</ele>
<time>2019-05-29T08:49:20Z</time>
</trkpt>
<trkpt lat="48.767232" lon="9.988568">
<ele>659</ele>
<time>2019-05-29T08:49:25Z</time>
</trkpt>
<trkpt lat="48.767422" lon="9.988492">
<ele>660</ele>
<time>2019-05-29T08:49:30Z</time>
</trkpt>
<trkpt lat="48.767593" lon="9.988428">
<ele>660</ele>
<time>2019-05-29T08:49:35Z</time>
</trkpt>
<trkpt lat="48.76776" lon="9.988362">
<ele>661</ele>
<time>2019-05-29T08:49:40Z</time>
</trkpt>
<trkpt lat="48.767908" lon="9.988327">
<ele>662</ele>
<time>2019-05-29T08:49:45Z</time>
</trkpt>
<trkpt lat="48.768043" lon="9.988317">
<ele>663</ele>
<time>2019-05-29T08:49:50Z</time>
</trkpt>
<trkpt lat="48.7682" lon="9.988293">
<ele>664</ele>
<time>2019-05-29T08:49:55Z</time>
</trkpt>
<trkpt lat="48.768333" lon="9.988308">
<ele>665</ele>
<time>2019-05-29T08:50:00Z</time>
</trkpt>
<trkpt lat="48.76846" lon="9.98832">
<ele>666</ele>
<time>2019-05-29T08:50:05Z</time>
</trkpt>
<trkpt lat="48.768588" lon="9.988322">
<ele>667</ele>
<time>2019-05-29T08:50:10Z</time>
</trkpt>
<trkpt lat="48.768722" lon="9.988337">
<ele>669</ele>
<time>2019-05-29T08:50:15Z</time>
</trkpt>
<trkpt lat="48.768845" lon="9.988355">
<ele>670</ele>
<time>2019-05-29T08:50:20Z</time>
</trkpt>
<trkpt lat="48.768963" lon="9.988372">
<ele>671</ele>
<time>2019-05-29T08:50:25Z</time>
</trkpt>
<trkpt lat="48.769093" lon="9.98838">
<ele>672</ele>
<time>2019-05-29T08:50:30Z</time>
</trkpt>
<trkpt lat="48.76922" lon="9.988395">
<ele>673</ele>
<time>2019-05-29T08:50:35Z</time>
</trkpt>
<trkpt lat="48.769335" lon="9.988405">
<ele>674</ele>
<time>2019-05-29T08:50:40Z</time>
</trkpt>
<trkpt lat="48.769462" lon="9.988423">
<ele>675</ele>
<time>2019-05-29T08:50:45Z</time>
</trkpt>
<trkpt lat="48.76959" lon="9.988427">
<ele>676</ele>
<time>2019-05-29T08:50:50Z</time>
</trkpt>
<trkpt lat="48.769742" lon="9.988425">
<ele>677</ele>
<time>2019-05-29T08:50:55Z</time>
</trkpt>
<trkpt lat="48.769867" lon="9.988408">
<ele>677</ele>
<time>2019-05-29T08:51:00Z</time>
</trkpt>
<trkpt lat="48.770013" lon="9.988392">
<ele>678</ele>
<time>2019-05-29T08:51:05Z</time>
</trkpt>
<trkpt lat="48.770178" lon="9.988357">
<ele>678</ele>
<time>2019-05-29T08:51:10Z</time>
</trkpt>
<trkpt lat="48.770347" lon="9.98831">
<ele>679</ele>
<time>2019-05-29T08:51:15Z</time>
</trkpt>
<trkpt lat="48.770522" lon="9.988242">
<ele>679</ele>
<time>2019-05-29T08:51:20Z</time>
</trkpt>
<trkpt lat="48.770727" lon="9.988162">
<ele>679</ele>
<time>2019-05-29T08:51:25Z</time>
</trkpt>
<trkpt lat="48.770948" lon="9.98808">
<ele>679</ele>
<time>2019-05-29T08:51:30Z</time>
</trkpt>
<trkpt lat="48.771187" lon="9.987972">
<ele>679</ele>
<time>2019-05-29T08:51:35Z</time>
</trkpt>
<trkpt lat="48.771473" lon="9.987837">
<ele>677</ele>
<time>2019-05-29T08:51:40Z</time>
</trkpt>
<trkpt lat="48.771828" lon="9.98769">
<ele>674</ele>
<time>2019-05-29T08:51:45Z</time>
</trkpt>
<trkpt lat="48.772237" lon="9.987577">
<ele>672</ele>
<time>2019-05-29T08:51:50Z</time>
</trkpt>
<trkpt lat="48.772657" lon="9.987535">
<ele>672</ele>
<time>2019-05-29T08:51:55Z</time>
</trkpt>
<trkpt lat="48.77302" lon="9.987567">
<ele>670</ele>
<time>2019-05-29T08:52:00Z</time>
</trkpt>
<trkpt lat="48.773313" lon="9.987602">
<ele>670</ele>
<time>2019-05-29T08:52:05Z</time>
</trkpt>
<trkpt lat="48.773568" lon="9.987632">
<ele>671</ele>
<time>2019-05-29T08:52:10Z</time>
</trkpt>
<trkpt lat="48.773792" lon="9.987663">
<ele>673</ele>
<time>2019-05-29T08:52:15Z</time>
</trkpt>
<trkpt lat="48.773948" lon="9.987675">
<ele>674</ele>
<time>2019-05-29T08:52:20Z</time>
</trkpt>
<trkpt lat="48.774092" lon="9.987682">
<ele>675</ele>
<time>2019-05-29T08:52:25Z</time>
</trkpt>
<trkpt lat="48.774203" lon="9.987675">
<ele>676</ele>
<time>2019-05-29T08:52:30Z</time>
</trkpt>
<trkpt lat="48.774317" lon="9.987745">
<ele>678</ele>
<time>2019-05-29T08:52:35Z</time>
</trkpt>
<trkpt lat="48.77446" lon="9.987768">
<ele>679</ele>
<time>2019-05-29T08:52:40Z</time>
</trkpt>
<trkpt lat="48.774582" lon="9.987745">
<ele>679</ele>
<time>2019-05-29T08:52:45Z</time>
</trkpt>
<trkpt lat="48.774695" lon="9.987728">
<ele>680</ele>
<time>2019-05-29T08:52:50Z</time>
</trkpt>
<trkpt lat="48.774797" lon="9.987703">
<ele>682</ele>
<time>2019-05-29T08:52:55Z</time>
</trkpt>
<trkpt lat="48.7749" lon="9.987658">
<ele>683</ele>
<time>2019-05-29T08:53:00Z</time>
</trkpt>
<trkpt lat="48.775007" lon="9.987633">
<ele>684</ele>
<time>2019-05-29T08:53:05Z</time>
</trkpt>
<trkpt lat="48.775103" lon="9.98759">
<ele>685</ele>
<time>2019-05-29T08:53:10Z</time>
</trkpt>
<trkpt lat="48.775195" lon="9.987537">
<ele>686</ele>
<time>2019-05-29T08:53:15Z</time>
</trkpt>
<trkpt lat="48.7753" lon="9.987485">
<ele>687</ele>
<time>2019-05-29T08:53:20Z</time>
</trkpt>
<trkpt lat="48.775407" lon="9.987423">
<ele>688</ele>
<time>2019-05-29T08:53:25Z</time>
</trkpt>
<trkpt lat="48.775517" lon="9.987362">
<ele>689</ele>
<time>2019-05-29T08:53:30Z</time>
</trkpt>
<trkpt lat="48.775617" lon="9.987298">
<ele>690</ele>
<time>2019-05-29T08:53:35Z</time>
</trkpt>
<trkpt lat="48.775717" lon="9.987222">
<ele>691</ele>
<time>2019-05-29T08:53:40Z</time>
</trkpt>
<trkpt lat="48.77582" lon="9.987153">
<ele>692</ele>
<time>2019-05-29T08:53:45Z</time>
</trkpt>
<trkpt lat="48.775917" lon="9.987075">
<ele>693</ele>
<time>2019-05-29T08:53:50Z</time>
</trkpt>
<trkpt lat="48.776013" lon="9.986988">
<ele>694</ele>
<time>2019-05-29T08:53:55Z</time>
</trkpt>
<trkpt lat="48.776108" lon="9.986902">
<ele>695</ele>
<time>2019-05-29T08:54:00Z</time>
</trkpt>
<trkpt lat="48.776218" lon="9.986807">
<ele>696</ele>
<time>2019-05-29T08:54:05Z</time>
</trkpt>
<trkpt lat="48.776315" lon="9.986712">
<ele>697</ele>
<time>2019-05-29T08:54:10Z</time>
</trkpt>
<trkpt lat="48.776412" lon="9.986613">
<ele>697</ele>
<time>2019-05-29T08:54:15Z</time>
</trkpt>
<trkpt lat="48.776498" lon="9.986517">
<ele>698</ele>
<time>2019-05-29T08:54:20Z</time>
</trkpt>
<trkpt lat="48.77658" lon="9.986413">
<ele>699</ele>
<time>2019-05-29T08:54:25Z</time>
</trkpt>
<trkpt lat="48.776675" lon="9.986295">
<ele>700</ele>
<time>2019-05-29T08:54:30Z</time>
</trkpt>
<trkpt lat="48.776767" lon="9.986148">
<ele>701</ele>
<time>2019-05-29T08:54:35Z</time>
</trkpt>
<trkpt lat="48.776872" lon="9.98601">
<ele>701</ele>
<time>2019-05-29T08:54:40Z</time>
</trkpt>
<trkpt lat="48.776978" lon="9.985875">
<ele>702</ele>
<time>2019-05-29T08:54:45Z</time>
</trkpt>
<trkpt lat="48.777093" lon="9.98574">
<ele>702</ele>
<time>2019-05-29T08:54:50Z</time>
</trkpt>
<trkpt lat="48.777215" lon="9.985573">
<ele>703</ele>
<time>2019-05-29T08:54:55Z</time>
</trkpt>
<trkpt lat="48.777343" lon="9.985433">
<ele>703</ele>
<time>2019-05-29T08:55:00Z</time>
</trkpt>
<trkpt lat="48.777477" lon="9.985285">
<ele>703</ele>
<time>2019-05-29T08:55:05Z</time>
</trkpt>
<trkpt lat="48.777612" lon="9.985127">
<ele>704</ele>
<time>2019-05-29T08:55:10Z</time>
</trkpt>
<trkpt lat="48.777742" lon="9.984965">
<ele>704</ele>
<time>2019-05-29T08:55:15Z</time>
</trkpt>
<trkpt lat="48.777878" lon="9.984805">
<ele>704</ele>
<time>2019-05-29T08:55:20Z</time>
</trkpt>
<trkpt lat="48.77802" lon="9.984648">
<ele>704</ele>
<time>2019-05-29T08:55:25Z</time>
</trkpt>
<trkpt lat="48.778162" lon="9.984483">
<ele>705</ele>
<time>2019-05-29T08:55:30Z</time>
</trkpt>
<trkpt lat="48.778298" lon="9.98433">
<ele>705</ele>
<time>2019-05-29T08:55:35Z</time>
</trkpt>
<trkpt lat="48.778442" lon="9.98416">
<ele>705</ele>
<time>2019-05-29T08:55:40Z</time>
</trkpt>
<trkpt lat="48.778582" lon="9.984007">
<ele>706</ele>
<time>2019-05-29T08:55:45Z</time>
</trkpt>
<trkpt lat="48.778728" lon="9.983855">
<ele>706</ele>
<time>2019-05-29T08:55:50Z</time>
</trkpt>
<trkpt lat="48.77888" lon="9.983697">
<ele>707</ele>
<time>2019-05-29T08:55:55Z</time>
</trkpt>
<trkpt lat="48.779023" lon="9.983537">
<ele>707</ele>
<time>2019-05-29T08:56:00Z</time>
</trkpt>
<trkpt lat="48.779175" lon="9.983377">
<ele>708</ele>
<time>2019-05-29T08:56:05Z</time>
</trkpt>
<trkpt lat="48.779322" lon="9.983225">
<ele>708</ele>
<time>2019-05-29T08:56:10Z</time>
</trkpt>
<trkpt lat="48.779472" lon="9.98307">
<ele>708</ele>
<time>2019-05-29T08:56:15Z</time>
</trkpt>
<trkpt lat="48.77962" lon="9.982925">
<ele>709</ele>
<time>2019-05-29T08:56:20Z</time>
</trkpt>
<trkpt lat="48.779758" lon="9.982808">
<ele>709</ele>
<time>2019-05-29T08:56:25Z</time>
</trkpt>
<trkpt lat="48.779868" lon="9.982658">
<ele>710</ele>
<time>2019-05-29T08:56:30Z</time>
</trkpt>
<trkpt lat="48.779968" lon="9.98248">
<ele>710</ele>
<time>2019-05-29T08:56:35Z</time>
</trkpt>
<trkpt lat="48.780097" lon="9.982342">
<ele>710</ele>
<time>2019-05-29T08:56:40Z</time>
</trkpt>
<trkpt lat="48.780243" lon="9.982228">
<ele>710</ele>
<time>2019-05-29T08:56:45Z</time>
</trkpt>
<trkpt lat="48.780497" lon="9.982107">
<ele>710</ele>
<time>2019-05-29T08:56:50Z</time>
</trkpt>
<trkpt lat="48.780832" lon="9.98199">
<ele>709</ele>
<time>2019-05-29T08:56:55Z</time>
</trkpt>
<trkpt lat="48.781203" lon="9.981803">
<ele>707</ele>
<time>2019-05-29T08:57:00Z</time>
</trkpt>
<trkpt lat="48.781477" lon="9.981328">
<ele>703</ele>
<time>2019-05-29T08:57:05Z</time>
</trkpt>
<trkpt lat="48.781653" lon="9.980723">
<ele>701</ele>
<time>2019-05-29T08:57:10Z</time>
</trkpt>
<trkpt lat="48.781765" lon="9.980138">
<ele>698</ele>
<time>2019-05-29T08:57:15Z</time>
</trkpt>
<trkpt lat="48.781832" lon="9.979533">
<ele>695</ele>
<time>2019-05-29T08:57:20Z</time>
</trkpt>
<trkpt lat="48.781893" lon="9.979047">
<ele>693</ele>
<time>2019-05-29T08:57:25Z</time>
</trkpt>
<trkpt lat="48.781942" lon="9.97859">
<ele>691</ele>
<time>2019-05-29T08:57:30Z</time>
</trkpt>
<trkpt lat="48.78221" lon="9.978535">
<ele>688</ele>
<time>2019-05-29T08:57:35Z</time>
</trkpt>
<trkpt lat="48.782472" lon="9.978963">
<ele>686</ele>
<time>2019-05-29T08:57:40Z</time>
</trkpt>
<trkpt lat="48.782815" lon="9.979425">
<ele>683</ele>
<time>2019-05-29T08:57:45Z</time>
</trkpt>
<trkpt lat="48.783182" lon="9.979977">
<ele>677</ele>
<time>2019-05-29T08:57:50Z</time>
</trkpt>
<trkpt lat="48.783347" lon="9.980767">
<ele>675</ele>
<time>2019-05-29T08:57:55Z</time>
</trkpt>
<trkpt lat="48.783387" lon="9.981525">
<ele>674</ele>
<time>2019-05-29T08:58:00Z</time>
</trkpt>
<trkpt lat="48.783415" lon="9.982195">
<ele>673</ele>
<time>2019-05-29T08:58:05Z</time>
</trkpt>
<trkpt lat="48.783453" lon="9.982827">
<ele>673</ele>
<time>2019-05-29T08:58:10Z</time>
</trkpt>
<trkpt lat="48.783508" lon="9.983417">
<ele>673</ele>
<time>2019-05-29T08:58:15Z</time>
</trkpt>
<trkpt lat="48.783602" lon="9.98388">
<ele>673</ele>
<time>2019-05-29T08:58:20Z</time>
</trkpt>
<trkpt lat="48.783823" lon="9.9841">
<ele>673</ele>
<time>2019-05-29T08:58:25Z</time>
</trkpt>
<trkpt lat="48.784075" lon="9.983928">
<ele>673</ele>
<time>2019-05-29T08:58:30Z</time>
</trkpt>
<trkpt lat="48.78429" lon="9.983715">
<ele>674</ele>
<time>2019-05-29T08:58:35Z</time>
</trkpt>
<trkpt lat="48.784492" lon="9.983562">
<ele>675</ele>
<time>2019-05-29T08:58:40Z</time>
</trkpt>
<trkpt lat="48.784722" lon="9.98344">
<ele>677</ele>
<time>2019-05-29T08:58:45Z</time>
</trkpt>
<trkpt lat="48.784953" lon="9.983313">
<ele>678</ele>
<time>2019-05-29T08:58:50Z</time>
</trkpt>
<trkpt lat="48.785172" lon="9.983227">
<ele>679</ele>
<time>2019-05-29T08:58:55Z</time>
</trkpt>
<trkpt lat="48.785385" lon="9.983242">
<ele>680</ele>
<time>2019-05-29T08:59:00Z</time>
</trkpt>
<trkpt lat="48.785583" lon="9.983302">
<ele>681</ele>
<time>2019-05-29T08:59:05Z</time>
</trkpt>
<trkpt lat="48.785802" lon="9.98335">
<ele>682</ele>
<time>2019-05-29T08:59:10Z</time>
</trkpt>
<trkpt lat="48.785985" lon="9.98341">
<ele>683</ele>
<time>2019-05-29T08:59:15Z</time>
</trkpt>
<trkpt lat="48.78613" lon="9.983482">
<ele>683</ele>
<time>2019-05-29T08:59:20Z</time>
</trkpt>
<trkpt lat="48.786332" lon="9.983545">
<ele>683</ele>
<time>2019-05-29T08:59:25Z</time>
</trkpt>
<trkpt lat="48.786573" lon="9.983632">
<ele>683</ele>
<time>2019-05-29T08:59:30Z</time>
</trkpt>
<trkpt lat="48.786827" lon="9.983712">
<ele>683</ele>
<time>2019-05-29T08:59:35Z</time>
</trkpt>
<trkpt lat="48.787153" lon="9.983727">
<ele>682</ele>
<time>2019-05-29T08:59:40Z</time>
</trkpt>
<trkpt lat="48.787453" lon="9.98326">
<ele>680</ele>
<time>2019-05-29T08:59:45Z</time>
</trkpt>
<trkpt lat="48.787682" lon="9.982558">
<ele>676</ele>
<time>2019-05-29T08:59:50Z</time>
</trkpt>
<trkpt lat="48.788032" lon="9.981852">
<ele>670</ele>
<time>2019-05-29T08:59:56Z</time>
</trkpt>
<trkpt lat="48.788458" lon="9.981422">
<ele>667</ele>
<time>2019-05-29T09:00:01Z</time>
</trkpt>
<trkpt lat="48.788982" lon="9.98117">
<ele>663</ele>
<time>2019-05-29T09:00:06Z</time>
</trkpt>
<trkpt lat="48.789537" lon="9.98118">
<ele>659</ele>
<time>2019-05-29T09:00:11Z</time>
</trkpt>
<trkpt lat="48.790048" lon="9.981458">
<ele>655</ele>
<time>2019-05-29T09:00:16Z</time>
</trkpt>
<trkpt lat="48.790465" lon="9.981937">
<ele>653</ele>
<time>2019-05-29T09:00:21Z</time>
</trkpt>
<trkpt lat="48.79081" lon="9.982592">
<ele>649</ele>
<time>2019-05-29T09:00:26Z</time>
</trkpt>
<trkpt lat="48.791073" lon="9.983263">
<ele>645</ele>
<time>2019-05-29T09:00:31Z</time>
</trkpt>
<trkpt lat="48.791332" lon="9.98399">
<ele>640</ele>
<time>2019-05-29T09:00:36Z</time>
</trkpt>
<trkpt lat="48.7916" lon="9.984753">
<ele>634</ele>
<time>2019-05-29T09:00:41Z</time>
</trkpt>
<trkpt lat="48.791797" lon="9.985527">
<ele>628</ele>
<time>2019-05-29T09:00:46Z</time>
</trkpt>
<trkpt lat="48.791892" lon="9.986285">
<ele>621</ele>
<time>2019-05-29T09:00:51Z</time>
</trkpt>
<trkpt lat="48.791953" lon="9.987022">
<ele>616</ele>
<time>2019-05-29T09:00:56Z</time>
</trkpt>
<trkpt lat="48.792008" lon="9.987768">
<ele>610</ele>
<time>2019-05-29T09:01:01Z</time>
</trkpt>
<trkpt lat="48.792065" lon="9.9885">
<ele>605</ele>
<time>2019-05-29T09:01:06Z</time>
</trkpt>
<trkpt lat="48.792123" lon="9.989252">
<ele>599</ele>
<time>2019-05-29T09:01:11Z</time>
</trkpt>
<trkpt lat="48.792278" lon="9.989993">
<ele>593</ele>
<time>2019-05-29T09:01:16Z</time>
</trkpt>
<trkpt lat="48.792517" lon="9.990792">
<ele>587</ele>
<time>2019-05-29T09:01:21Z</time>
</trkpt>
<trkpt lat="48.79278" lon="9.991648">
<ele>579</ele>
<time>2019-05-29T09:01:26Z</time>
</trkpt>
<trkpt lat="48.792963" lon="9.992518">
<ele>573</ele>
<time>2019-05-29T09:01:31Z</time>
</trkpt>
<trkpt lat="48.792942" lon="9.993568">
<ele>565</ele>
<time>2019-05-29T09:01:36Z</time>
</trkpt>
<trkpt lat="48.792945" lon="9.994707">
<ele>559</ele>
<time>2019-05-29T09:01:41Z</time>
</trkpt>
<trkpt lat="48.792977" lon="9.995883">
<ele>553</ele>
<time>2019-05-29T09:01:46Z</time>
</trkpt>
<trkpt lat="48.792995" lon="9.996982">
<ele>551</ele>
<time>2019-05-29T09:01:51Z</time>
</trkpt>
<trkpt lat="48.793027" lon="9.998">
<ele>549</ele>
<time>2019-05-29T09:01:56Z</time>
</trkpt>
<trkpt lat="48.793095" lon="9.99895">
<ele>546</ele>
<time>2019-05-29T09:02:01Z</time>
</trkpt>
<trkpt lat="48.793187" lon="9.99989">
<ele>543</ele>
<time>2019-05-29T09:02:06Z</time>
</trkpt>
<trkpt lat="48.793295" lon="10.000802">
<ele>541</ele>
<time>2019-05-29T09:02:11Z</time>
</trkpt>
<trkpt lat="48.793525" lon="10.001573">
<ele>537</ele>
<time>2019-05-29T09:02:16Z</time>
</trkpt>
<trkpt lat="48.793845" lon="10.002167">
<ele>536</ele>
<time>2019-05-29T09:02:21Z</time>
</trkpt>
<trkpt lat="48.794182" lon="10.00269">
<ele>534</ele>
<time>2019-05-29T09:02:26Z</time>
</trkpt>
<trkpt lat="48.79453" lon="10.003218">
<ele>533</ele>
<time>2019-05-29T09:02:31Z</time>
</trkpt>
<trkpt lat="48.794862" lon="10.003818">
<ele>531</ele>
<time>2019-05-29T09:02:36Z</time>
</trkpt>
<trkpt lat="48.795153" lon="10.004412">
<ele>528</ele>
<time>2019-05-29T09:02:41Z</time>
</trkpt>
<trkpt lat="48.79544" lon="10.004992">
<ele>528</ele>
<time>2019-05-29T09:02:46Z</time>
</trkpt>
<trkpt lat="48.79573" lon="10.005568">
<ele>526</ele>
<time>2019-05-29T09:02:51Z</time>
</trkpt>
<trkpt lat="48.795935" lon="10.006195">
<ele>525</ele>
<time>2019-05-29T09:02:56Z</time>
</trkpt>
<trkpt lat="48.796063" lon="10.00686">
<ele>523</ele>
<time>2019-05-29T09:03:01Z</time>
</trkpt>
<trkpt lat="48.796208" lon="10.00755">
<ele>522</ele>
<time>2019-05-29T09:03:06Z</time>
</trkpt>
<trkpt lat="48.796342" lon="10.008277">
<ele>521</ele>
<time>2019-05-29T09:03:11Z</time>
</trkpt>
<trkpt lat="48.796458" lon="10.009028">
<ele>519</ele>
<time>2019-05-29T09:03:16Z</time>
</trkpt>
<trkpt lat="48.796583" lon="10.009762">
<ele>518</ele>
<time>2019-05-29T09:03:21Z</time>
</trkpt>
<trkpt lat="48.796795" lon="10.010415">
<ele>517</ele>
<time>2019-05-29T09:03:26Z</time>
</trkpt>
<trkpt lat="48.797095" lon="10.010888">
<ele>517</ele>
<time>2019-05-29T09:03:31Z</time>
</trkpt>
<trkpt lat="48.797392" lon="10.011288">
<ele>517</ele>
<time>2019-05-29T09:03:36Z</time>
</trkpt>
<trkpt lat="48.797657" lon="10.011673">
<ele>517</ele>
<time>2019-05-29T09:03:41Z</time>
</trkpt>
<trkpt lat="48.79789" lon="10.012073">
<ele>518</ele>
<time>2019-05-29T09:03:46Z</time>
</trkpt>
<trkpt lat="48.79805" lon="10.012535">
<ele>518</ele>
<time>2019-05-29T09:03:51Z</time>
</trkpt>
<trkpt lat="48.798207" lon="10.012993">
<ele>518</ele>
<time>2019-05-29T09:03:56Z</time>
</trkpt>
<trkpt lat="48.798348" lon="10.013452">
<ele>519</ele>
<time>2019-05-29T09:04:01Z</time>
</trkpt>
<trkpt lat="48.798498" lon="10.013857">
<ele>519</ele>
<time>2019-05-29T09:04:06Z</time>
</trkpt>
<trkpt lat="48.798645" lon="10.014278">
<ele>519</ele>
<time>2019-05-29T09:04:11Z</time>
</trkpt>
<trkpt lat="48.798788" lon="10.014768">
<ele>519</ele>
<time>2019-05-29T09:04:16Z</time>
</trkpt>
<trkpt lat="48.798953" lon="10.015303">
<ele>518</ele>
<time>2019-05-29T09:04:21Z</time>
</trkpt>
<trkpt lat="48.79921" lon="10.015787">
<ele>516</ele>
<time>2019-05-29T09:04:26Z</time>
</trkpt>
<trkpt lat="48.799638" lon="10.016295">
<ele>512</ele>
<time>2019-05-29T09:04:32Z</time>
</trkpt>
<trkpt lat="48.800068" lon="10.016623">
<ele>509</ele>
<time>2019-05-29T09:04:37Z</time>
</trkpt>
<trkpt lat="48.80055" lon="10.016933">
<ele>507</ele>
<time>2019-05-29T09:04:42Z</time>
</trkpt>
<trkpt lat="48.801055" lon="10.017173">
<ele>505</ele>
<time>2019-05-29T09:04:47Z</time>
</trkpt>
<trkpt lat="48.801548" lon="10.017403">
<ele>503</ele>
<time>2019-05-29T09:04:52Z</time>
</trkpt>
<trkpt lat="48.802037" lon="10.017632">
<ele>502</ele>
<time>2019-05-29T09:04:57Z</time>
</trkpt>
<trkpt lat="48.802473" lon="10.017953">
<ele>499</ele>
<time>2019-05-29T09:05:02Z</time>
</trkpt>
<trkpt lat="48.802853" lon="10.01835">
<ele>498</ele>
<time>2019-05-29T09:05:07Z</time>
</trkpt>
<trkpt lat="48.803233" lon="10.018728">
<ele>497</ele>
<time>2019-05-29T09:05:12Z</time>
</trkpt>
<trkpt lat="48.803648" lon="10.019082">
<ele>496</ele>
<time>2019-05-29T09:05:17Z</time>
</trkpt>
<trkpt lat="48.804087" lon="10.019405">
<ele>494</ele>
<time>2019-05-29T09:05:22Z</time>
</trkpt>
<trkpt lat="48.804523" lon="10.019583">
<ele>492</ele>
<time>2019-05-29T09:05:27Z</time>
</trkpt>
<trkpt lat="48.804938" lon="10.019613">
<ele>492</ele>
<time>2019-05-29T09:05:32Z</time>
</trkpt>
<trkpt lat="48.805315" lon="10.01959">
<ele>492</ele>
<time>2019-05-29T09:05:37Z</time>
</trkpt>
<trkpt lat="48.805673" lon="10.019573">
<ele>492</ele>
<time>2019-05-29T09:05:42Z</time>
</trkpt>
<trkpt lat="48.806002" lon="10.019483">
<ele>492</ele>
<time>2019-05-29T09:05:47Z</time>
</trkpt>
<trkpt lat="48.806332" lon="10.019338">
<ele>492</ele>
<time>2019-05-29T09:05:52Z</time>
</trkpt>
<trkpt lat="48.806637" lon="10.019212">
<ele>492</ele>
<time>2019-05-29T09:05:57Z</time>
</trkpt>
<trkpt lat="48.80692" lon="10.019307">
<ele>492</ele>
<time>2019-05-29T09:06:02Z</time>
</trkpt>
<trkpt lat="48.807128" lon="10.01981">
<ele>488</ele>
<time>2019-05-29T09:06:07Z</time>
</trkpt>
<trkpt lat="48.80726" lon="10.020557">
<ele>485</ele>
<time>2019-05-29T09:06:12Z</time>
</trkpt>
<trkpt lat="48.80735" lon="10.0213">
<ele>482</ele>
<time>2019-05-29T09:06:17Z</time>
</trkpt>
<trkpt lat="48.80755" lon="10.021985">
<ele>480</ele>
<time>2019-05-29T09:06:22Z</time>
</trkpt>
<trkpt lat="48.80752" lon="10.022638">
<ele>478</ele>
<time>2019-05-29T09:06:27Z</time>
</trkpt>
<trkpt lat="48.80745" lon="10.023205">
<ele>479</ele>
<time>2019-05-29T09:06:32Z</time>
</trkpt>
<trkpt lat="48.80741" lon="10.023662">
<ele>479</ele>
<time>2019-05-29T09:06:37Z</time>
</trkpt>
<trkpt lat="48.807343" lon="10.024002">
<ele>481</ele>
<time>2019-05-29T09:06:42Z</time>
</trkpt>
<trkpt lat="48.80734" lon="10.024247">
<ele>482</ele>
<time>2019-05-29T09:06:47Z</time>
</trkpt>
<trkpt lat="48.807412" lon="10.024495">
<ele>484</ele>
<time>2019-05-29T09:06:52Z</time>
</trkpt>
<trkpt lat="48.807583" lon="10.024645">
<ele>485</ele>
<time>2019-05-29T09:06:57Z</time>
</trkpt>
<trkpt lat="48.807743" lon="10.024715">
<ele>486</ele>
<time>2019-05-29T09:07:02Z</time>
</trkpt>
<trkpt lat="48.807922" lon="10.024828">
<ele>487</ele>
<time>2019-05-29T09:07:07Z</time>
</trkpt>
<trkpt lat="48.808093" lon="10.024975">
<ele>488</ele>
<time>2019-05-29T09:07:12Z</time>
</trkpt>
<trkpt lat="48.808222" lon="10.025232">
<ele>489</ele>
<time>2019-05-29T09:07:18Z</time>
</trkpt>
<trkpt lat="48.808253" lon="10.025552">
<ele>490</ele>
<time>2019-05-29T09:07:24Z</time>
</trkpt>
<trkpt lat="48.80821" lon="10.025837">
<ele>491</ele>
<time>2019-05-29T09:07:30Z</time>
</trkpt>
<trkpt lat="48.808172" lon="10.026118">
<ele>492</ele>
<time>2019-05-29T09:07:36Z</time>
</trkpt>
<trkpt lat="48.80818" lon="10.026368">
<ele>493</ele>
<time>2019-05-29T09:07:41Z</time>
</trkpt>
<trkpt lat="48.808188" lon="10.026602">
<ele>494</ele>
<time>2019-05-29T09:07:46Z</time>
</trkpt>
<trkpt lat="48.808217" lon="10.026873">
<ele>495</ele>
<time>2019-05-29T09:07:51Z</time>
</trkpt>
<trkpt lat="48.808297" lon="10.02707">
<ele>496</ele>
<time>2019-05-29T09:07:56Z</time>
</trkpt>
<trkpt lat="48.808393" lon="10.027195">
<ele>498</ele>
<time>2019-05-29T09:08:01Z</time>
</trkpt>
<trkpt lat="48.808477" lon="10.027342">
<ele>499</ele>
<time>2019-05-29T09:08:06Z</time>
</trkpt>
<trkpt lat="48.808553" lon="10.027495">
<ele>500</ele>
<time>2019-05-29T09:08:11Z</time>
</trkpt>
<trkpt lat="48.80864" lon="10.027632">
<ele>501</ele>
<time>2019-05-29T09:08:16Z</time>
</trkpt>
<trkpt lat="48.808782" lon="10.027673">
<ele>502</ele>
<time>2019-05-29T09:08:21Z</time>
</trkpt>
<trkpt lat="48.80891" lon="10.027593">
<ele>502</ele>
<time>2019-05-29T09:08:26Z</time>
</trkpt>
<trkpt lat="48.809095" lon="10.027442">
<ele>503</ele>
<time>2019-05-29T09:08:32Z</time>
</trkpt>
<trkpt lat="48.80928" lon="10.027363">
<ele>503</ele>
<time>2019-05-29T09:08:37Z</time>
</trkpt>
<trkpt lat="48.809467" lon="10.027448">
<ele>503</ele>
<time>2019-05-29T09:08:42Z</time>
</trkpt>
<trkpt lat="48.809565" lon="10.027755">
<ele>504</ele>
<time>2019-05-29T09:08:47Z</time>
</trkpt>
<trkpt lat="48.809652" lon="10.028137">
<ele>504</ele>
<time>2019-05-29T09:08:53Z</time>
</trkpt>
<trkpt lat="48.809715" lon="10.028423">
<ele>504</ele>
<time>2019-05-29T09:08:58Z</time>
</trkpt>
<trkpt lat="48.809762" lon="10.028703">
<ele>504</ele>
<time>2019-05-29T09:09:03Z</time>
</trkpt>
<trkpt lat="48.809837" lon="10.02899">
<ele>504</ele>
<time>2019-05-29T09:09:08Z</time>
</trkpt>
<trkpt lat="48.80993" lon="10.029225">
<ele>505</ele>
<time>2019-05-29T09:09:13Z</time>
</trkpt>
<trkpt lat="48.809993" lon="10.029492">
<ele>505</ele>
<time>2019-05-29T09:09:18Z</time>
</trkpt>
<trkpt lat="48.81005" lon="10.02984">
<ele>504</ele>
<time>2019-05-29T09:09:23Z</time>
</trkpt>
<trkpt lat="48.810143" lon="10.03023">
<ele>504</ele>
<time>2019-05-29T09:09:28Z</time>
</trkpt>
<trkpt lat="48.810307" lon="10.030617">
<ele>503</ele>
<time>2019-05-29T09:09:33Z</time>
</trkpt>
<trkpt lat="48.81046" lon="10.031053">
<ele>502</ele>
<time>2019-05-29T09:09:38Z</time>
</trkpt>
<trkpt lat="48.810417" lon="10.031545">
<ele>501</ele>
<time>2019-05-29T09:09:43Z</time>
</trkpt>
<trkpt lat="48.810223" lon="10.03202">
<ele>500</ele>
<time>2019-05-29T09:09:48Z</time>
</trkpt>
<trkpt lat="48.810032" lon="10.032473">
<ele>500</ele>
<time>2019-05-29T09:09:53Z</time>
</trkpt>
<trkpt lat="48.809922" lon="10.032847">
<ele>500</ele>
<time>2019-05-29T09:09:58Z</time>
</trkpt>
<trkpt lat="48.809898" lon="10.033217">
<ele>500</ele>
<time>2019-05-29T09:10:03Z</time>
</trkpt>
<trkpt lat="48.809977" lon="10.033593">
<ele>500</ele>
<time>2019-05-29T09:10:08Z</time>
</trkpt>
<trkpt lat="48.810138" lon="10.033918">
<ele>501</ele>
<time>2019-05-29T09:10:13Z</time>
</trkpt>
<trkpt lat="48.810335" lon="10.034225">
<ele>501</ele>
<time>2019-05-29T09:10:18Z</time>
</trkpt>
<trkpt lat="48.810473" lon="10.034588">
<ele>501</ele>
<time>2019-05-29T09:10:23Z</time>
</trkpt>
<trkpt lat="48.81061" lon="10.034943">
<ele>501</ele>
<time>2019-05-29T09:10:28Z</time>
</trkpt>
<trkpt lat="48.810767" lon="10.035258">
<ele>501</ele>
<time>2019-05-29T09:10:33Z</time>
</trkpt>
<trkpt lat="48.810967" lon="10.035533">
<ele>501</ele>
<time>2019-05-29T09:10:38Z</time>
</trkpt>
<trkpt lat="48.811222" lon="10.035783">
<ele>500</ele>
<time>2019-05-29T09:10:43Z</time>
</trkpt>
<trkpt lat="48.811538" lon="10.035948">
<ele>499</ele>
<time>2019-05-29T09:10:48Z</time>
</trkpt>
<trkpt lat="48.811912" lon="10.036062">
<ele>497</ele>
<time>2019-05-29T09:10:53Z</time>
</trkpt>
<trkpt lat="48.81222" lon="10.036355">
<ele>497</ele>
<time>2019-05-29T09:10:58Z</time>
</trkpt>
<trkpt lat="48.812427" lon="10.036735">
<ele>497</ele>
<time>2019-05-29T09:11:03Z</time>
</trkpt>
<trkpt lat="48.812615" lon="10.037077">
<ele>497</ele>
<time>2019-05-29T09:11:08Z</time>
</trkpt>
<trkpt lat="48.812773" lon="10.037385">
<ele>498</ele>
<time>2019-05-29T09:11:13Z</time>
</trkpt>
<trkpt lat="48.812962" lon="10.03771">
<ele>499</ele>
<time>2019-05-29T09:11:18Z</time>
</trkpt>
<trkpt lat="48.813177" lon="10.038063">
<ele>499</ele>
<time>2019-05-29T09:11:23Z</time>
</trkpt>
<trkpt lat="48.813405" lon="10.038422">
<ele>498</ele>
<time>2019-05-29T09:11:28Z</time>
</trkpt>
<trkpt lat="48.81367" lon="10.038837">
<ele>496</ele>
<time>2019-05-29T09:11:33Z</time>
</trkpt>
<trkpt lat="48.813992" lon="10.039347">
<ele>494</ele>
<time>2019-05-29T09:11:38Z</time>
</trkpt>
<trkpt lat="48.814343" lon="10.039942">
<ele>490</ele>
<time>2019-05-29T09:11:43Z</time>
</trkpt>
<trkpt lat="48.81462" lon="10.04056">
<ele>488</ele>
<time>2019-05-29T09:11:48Z</time>
</trkpt>
<trkpt lat="48.814807" lon="10.041097">
<ele>488</ele>
<time>2019-05-29T09:11:53Z</time>
</trkpt>
<trkpt lat="48.814935" lon="10.041597">
<ele>488</ele>
<time>2019-05-29T09:11:58Z</time>
</trkpt>
<trkpt lat="48.815037" lon="10.042097">
<ele>488</ele>
<time>2019-05-29T09:12:03Z</time>
</trkpt>
<trkpt lat="48.815113" lon="10.042548">
<ele>488</ele>
<time>2019-05-29T09:12:08Z</time>
</trkpt>
<trkpt lat="48.815182" lon="10.042992">
<ele>488</ele>
<time>2019-05-29T09:12:13Z</time>
</trkpt>
<trkpt lat="48.81526" lon="10.043462">
<ele>488</ele>
<time>2019-05-29T09:12:18Z</time>
</trkpt>
<trkpt lat="48.815337" lon="10.04393">
<ele>488</ele>
<time>2019-05-29T09:12:23Z</time>
</trkpt>
<trkpt lat="48.81541" lon="10.044433">
<ele>488</ele>
<time>2019-05-29T09:12:28Z</time>
</trkpt>
<trkpt lat="48.815473" lon="10.044928">
<ele>488</ele>
<time>2019-05-29T09:12:33Z</time>
</trkpt>
<trkpt lat="48.815542" lon="10.04546">
<ele>488</ele>
<time>2019-05-29T09:12:38Z</time>
</trkpt>
<trkpt lat="48.815638" lon="10.045968">
<ele>487</ele>
<time>2019-05-29T09:12:43Z</time>
</trkpt>
<trkpt lat="48.815745" lon="10.046455">
<ele>487</ele>
<time>2019-05-29T09:12:48Z</time>
</trkpt>
<trkpt lat="48.815852" lon="10.04695">
<ele>486</ele>
<time>2019-05-29T09:12:53Z</time>
</trkpt>
<trkpt lat="48.815953" lon="10.047482">
<ele>486</ele>
<time>2019-05-29T09:12:58Z</time>
</trkpt>
<trkpt lat="48.81604" lon="10.048018">
<ele>485</ele>
<time>2019-05-29T09:13:03Z</time>
</trkpt>
<trkpt lat="48.816118" lon="10.04854">
<ele>484</ele>
<time>2019-05-29T09:13:08Z</time>
</trkpt>
<trkpt lat="48.816245" lon="10.049053">
<ele>484</ele>
<time>2019-05-29T09:13:13Z</time>
</trkpt>
<trkpt lat="48.816417" lon="10.049525">
<ele>483</ele>
<time>2019-05-29T09:13:18Z</time>
</trkpt>
<trkpt lat="48.816618" lon="10.049975">
<ele>482</ele>
<time>2019-05-29T09:13:23Z</time>
</trkpt>
<trkpt lat="48.816813" lon="10.05041">
<ele>482</ele>
<time>2019-05-29T09:13:28Z</time>
</trkpt>
<trkpt lat="48.817007" lon="10.050835">
<ele>482</ele>
<time>2019-05-29T09:13:33Z</time>
</trkpt>
<trkpt lat="48.81716" lon="10.05129">
<ele>482</ele>
<time>2019-05-29T09:13:38Z</time>
</trkpt>
<trkpt lat="48.8172" lon="10.051795">
<ele>482</ele>
<time>2019-05-29T09:13:43Z</time>
</trkpt>
<trkpt lat="48.817178" lon="10.052282">
<ele>481</ele>
<time>2019-05-29T09:13:48Z</time>
</trkpt>
<trkpt lat="48.817203" lon="10.052745">
<ele>481</ele>
<time>2019-05-29T09:13:53Z</time>
</trkpt>
<trkpt lat="48.81732" lon="10.053178">
<ele>481</ele>
<time>2019-05-29T09:13:58Z</time>
</trkpt>
<trkpt lat="48.817515" lon="10.053527">
<ele>481</ele>
<time>2019-05-29T09:14:03Z</time>
</trkpt>
<trkpt lat="48.817745" lon="10.053792">
<ele>480</ele>
<time>2019-05-29T09:14:08Z</time>
</trkpt>
<trkpt lat="48.817958" lon="10.05402">
<ele>480</ele>
<time>2019-05-29T09:14:13Z</time>
</trkpt>
<trkpt lat="48.818178" lon="10.053972">
<ele>479</ele>
<time>2019-05-29T09:14:18Z</time>
</trkpt>
<trkpt lat="48.818457" lon="10.053708">
<ele>478</ele>
<time>2019-05-29T09:14:23Z</time>
</trkpt>
<trkpt lat="48.818753" lon="10.053397">
<ele>477</ele>
<time>2019-05-29T09:14:28Z</time>
</trkpt>
<trkpt lat="48.819042" lon="10.053103">
<ele>475</ele>
<time>2019-05-29T09:14:33Z</time>
</trkpt>
<trkpt lat="48.819347" lon="10.052803">
<ele>473</ele>
<time>2019-05-29T09:14:38Z</time>
</trkpt>
<trkpt lat="48.819693" lon="10.052492">
<ele>469</ele>
<time>2019-05-29T09:14:43Z</time>
</trkpt>
<trkpt lat="48.820025" lon="10.052248">
<ele>467</ele>
<time>2019-05-29T09:14:48Z</time>
</trkpt>
<trkpt lat="48.82039" lon="10.052105">
<ele>465</ele>
<time>2019-05-29T09:14:53Z</time>
</trkpt>
<trkpt lat="48.820767" lon="10.052205">
<ele>465</ele>
<time>2019-05-29T09:14:58Z</time>
</trkpt>
<trkpt lat="48.821068" lon="10.052537">
<ele>463</ele>
<time>2019-05-29T09:15:03Z</time>
</trkpt>
<trkpt lat="48.821272" lon="10.052828">
<ele>461</ele>
<time>2019-05-29T09:15:08Z</time>
</trkpt>
<trkpt lat="48.821297" lon="10.053047">
<ele>460</ele>
<time>2019-05-29T09:15:13Z</time>
</trkpt>
<trkpt lat="48.821288" lon="10.053382">
<ele>460</ele>
<time>2019-05-29T09:15:18Z</time>
</trkpt>
<trkpt lat="48.821305" lon="10.053755">
<ele>460</ele>
<time>2019-05-29T09:15:23Z</time>
</trkpt>
<trkpt lat="48.821342" lon="10.054142">
<ele>460</ele>
<time>2019-05-29T09:15:28Z</time>
</trkpt>
<trkpt lat="48.82138" lon="10.054533">
<ele>460</ele>
<time>2019-05-29T09:15:33Z</time>
</trkpt>
<trkpt lat="48.8214" lon="10.054933">
<ele>461</ele>
<time>2019-05-29T09:15:38Z</time>
</trkpt>
<trkpt lat="48.821432" lon="10.055297">
<ele>461</ele>
<time>2019-05-29T09:15:43Z</time>
</trkpt>
<trkpt lat="48.821522" lon="10.0557">
<ele>461</ele>
<time>2019-05-29T09:15:48Z</time>
</trkpt>
<trkpt lat="48.821642" lon="10.05594">
<ele>459</ele>
<time>2019-05-29T09:15:53Z</time>
</trkpt>
<trkpt lat="48.82168" lon="10.056173">
<ele>459</ele>
<time>2019-05-29T09:15:58Z</time>
</trkpt>
<trkpt lat="48.82168" lon="10.056572">
<ele>459</ele>
<time>2019-05-29T09:16:03Z</time>
</trkpt>
<trkpt lat="48.821695" lon="10.057008">
<ele>459</ele>
<time>2019-05-29T09:16:08Z</time>
</trkpt>
<trkpt lat="48.821707" lon="10.057457">
<ele>459</ele>
<time>2019-05-29T09:16:13Z</time>
</trkpt>
<trkpt lat="48.821725" lon="10.05791">
<ele>459</ele>
<time>2019-05-29T09:16:18Z</time>
</trkpt>
<trkpt lat="48.82176" lon="10.058368">
<ele>459</ele>
<time>2019-05-29T09:16:23Z</time>
</trkpt>
<trkpt lat="48.821847" lon="10.058765">
<ele>460</ele>
<time>2019-05-29T09:16:28Z</time>
</trkpt>
<trkpt lat="48.82193" lon="10.059123">
<ele>460</ele>
<time>2019-05-29T09:16:33Z</time>
</trkpt>
<trkpt lat="48.822015" lon="10.059455">
<ele>461</ele>
<time>2019-05-29T09:16:38Z</time>
</trkpt>
<trkpt lat="48.82208" lon="10.059813">
<ele>461</ele>
<time>2019-05-29T09:16:43Z</time>
</trkpt>
<trkpt lat="48.822175" lon="10.06014">
<ele>462</ele>
<time>2019-05-29T09:16:48Z</time>
</trkpt>
<trkpt lat="48.822277" lon="10.060477">
<ele>462</ele>
<time>2019-05-29T09:16:53Z</time>
</trkpt>
<trkpt lat="48.822363" lon="10.060875">
<ele>461</ele>
<time>2019-05-29T09:16:58Z</time>
</trkpt>
<trkpt lat="48.82244" lon="10.06133">
<ele>461</ele>
<time>2019-05-29T09:17:03Z</time>
</trkpt>
<trkpt lat="48.822498" lon="10.06174">
<ele>461</ele>
<time>2019-05-29T09:17:08Z</time>
</trkpt>
<trkpt lat="48.822535" lon="10.062112">
<ele>461</ele>
<time>2019-05-29T09:17:13Z</time>
</trkpt>
<trkpt lat="48.822565" lon="10.062452">
<ele>463</ele>
<time>2019-05-29T09:17:18Z</time>
</trkpt>
<trkpt lat="48.822592" lon="10.06279">
<ele>464</ele>
<time>2019-05-29T09:17:23Z</time>
</trkpt>
<trkpt lat="48.822595" lon="10.063138">
<ele>464</ele>
<time>2019-05-29T09:17:28Z</time>
</trkpt>
<trkpt lat="48.82261" lon="10.063522">
<ele>464</ele>
<time>2019-05-29T09:17:33Z</time>
</trkpt>
<trkpt lat="48.822645" lon="10.063923">
<ele>465</ele>
<time>2019-05-29T09:17:38Z</time>
</trkpt>
<trkpt lat="48.822682" lon="10.064325">
<ele>465</ele>
<time>2019-05-29T09:17:43Z</time>
</trkpt>
<trkpt lat="48.822708" lon="10.064725">
<ele>465</ele>
<time>2019-05-29T09:17:48Z</time>
</trkpt>
<trkpt lat="48.822768" lon="10.0651">
<ele>465</ele>
<time>2019-05-29T09:17:53Z</time>
</trkpt>
<trkpt lat="48.82284" lon="10.065468">
<ele>465</ele>
<time>2019-05-29T09:17:58Z</time>
</trkpt>
<trkpt lat="48.822973" lon="10.065848">
<ele>465</ele>
<time>2019-05-29T09:18:03Z</time>
</trkpt>
<trkpt lat="48.823168" lon="10.066223">
<ele>465</ele>
<time>2019-05-29T09:18:08Z</time>
</trkpt>
<trkpt lat="48.823372" lon="10.066545">
<ele>464</ele>
<time>2019-05-29T09:18:13Z</time>
</trkpt>
<trkpt lat="48.823548" lon="10.066848">
<ele>464</ele>
<time>2019-05-29T09:18:18Z</time>
</trkpt>
<trkpt lat="48.823693" lon="10.067192">
<ele>465</ele>
<time>2019-05-29T09:18:23Z</time>
</trkpt>
<trkpt lat="48.823822" lon="10.067495">
<ele>466</ele>
<time>2019-05-29T09:18:28Z</time>
</trkpt>
<trkpt lat="48.82389" lon="10.06783">
<ele>466</ele>
<time>2019-05-29T09:18:33Z</time>
</trkpt>
<trkpt lat="48.823927" lon="10.068237">
<ele>467</ele>
<time>2019-05-29T09:18:38Z</time>
</trkpt>
<trkpt lat="48.823918" lon="10.068668">
<ele>467</ele>
<time>2019-05-29T09:18:43Z</time>
</trkpt>
<trkpt lat="48.823895" lon="10.069138">
<ele>467</ele>
<time>2019-05-29T09:18:48Z</time>
</trkpt>
<trkpt lat="48.823888" lon="10.06962">
<ele>467</ele>
<time>2019-05-29T09:18:53Z</time>
</trkpt>
<trkpt lat="48.823912" lon="10.070085">
<ele>467</ele>
<time>2019-05-29T09:18:58Z</time>
</trkpt>
<trkpt lat="48.823965" lon="10.070553">
<ele>467</ele>
<time>2019-05-29T09:19:03Z</time>
</trkpt>
<trkpt lat="48.824027" lon="10.070977">
<ele>467</ele>
<time>2019-05-29T09:19:08Z</time>
</trkpt>
<trkpt lat="48.824072" lon="10.071347">
<ele>467</ele>
<time>2019-05-29T09:19:13Z</time>
</trkpt>
<trkpt lat="48.824143" lon="10.071702">
<ele>468</ele>
<time>2019-05-29T09:19:18Z</time>
</trkpt>
<trkpt lat="48.82423" lon="10.072095">
<ele>468</ele>
<time>2019-05-29T09:19:23Z</time>
</trkpt>
<trkpt lat="48.824342" lon="10.072607">
<ele>466</ele>
<time>2019-05-29T09:19:28Z</time>
</trkpt>
<trkpt lat="48.824492" lon="10.07317">
<ele>463</ele>
<time>2019-05-29T09:19:33Z</time>
</trkpt>
<trkpt lat="48.824592" lon="10.073658">
<ele>460</ele>
<time>2019-05-29T09:19:38Z</time>
</trkpt>
<trkpt lat="48.824743" lon="10.07421">
<ele>460</ele>
<time>2019-05-29T09:19:43Z</time>
</trkpt>
<trkpt lat="48.824882" lon="10.074742">
<ele>456</ele>
<time>2019-05-29T09:19:48Z</time>
</trkpt>
<trkpt lat="48.825013" lon="10.075303">
<ele>454</ele>
<time>2019-05-29T09:19:53Z</time>
</trkpt>
<trkpt lat="48.825207" lon="10.075873">
<ele>452</ele>
<time>2019-05-29T09:19:58Z</time>
</trkpt>
<trkpt lat="48.825457" lon="10.076448">
<ele>451</ele>
<time>2019-05-29T09:20:03Z</time>
</trkpt>
<trkpt lat="48.825677" lon="10.076883">
<ele>449</ele>
<time>2019-05-29T09:20:08Z</time>
</trkpt>
<trkpt lat="48.825933" lon="10.077225">
<ele>447</ele>
<time>2019-05-29T09:20:13Z</time>
</trkpt>
<trkpt lat="48.826257" lon="10.077558">
<ele>446</ele>
<time>2019-05-29T09:20:18Z</time>
</trkpt>
<trkpt lat="48.826618" lon="10.077855">
<ele>444</ele>
<time>2019-05-29T09:20:23Z</time>
</trkpt>
<trkpt lat="48.827057" lon="10.078005">
<ele>443</ele>
<time>2019-05-29T09:20:28Z</time>
</trkpt>
<trkpt lat="48.827437" lon="10.077938">
<ele>441</ele>
<time>2019-05-29T09:20:33Z</time>
</trkpt>
<trkpt lat="48.82774" lon="10.077843">
<ele>441</ele>
<time>2019-05-29T09:20:38Z</time>
</trkpt>
<trkpt lat="48.827987" lon="10.078183">
<ele>440</ele>
<time>2019-05-29T09:20:43Z</time>
</trkpt>
<trkpt lat="48.828212" lon="10.07854">
<ele>439</ele>
<time>2019-05-29T09:20:48Z</time>
</trkpt>
<trkpt lat="48.82842" lon="10.078932">
<ele>438</ele>
<time>2019-05-29T09:20:53Z</time>
</trkpt>
<trkpt lat="48.828622" lon="10.079345">
<ele>437</ele>
<time>2019-05-29T09:20:58Z</time>
</trkpt>
<trkpt lat="48.8288" lon="10.079823">
<ele>436</ele>
<time>2019-05-29T09:21:03Z</time>
</trkpt>
<trkpt lat="48.828913" lon="10.080352">
<ele>436</ele>
<time>2019-05-29T09:21:08Z</time>
</trkpt>
<trkpt lat="48.828973" lon="10.080885">
<ele>434</ele>
<time>2019-05-29T09:21:13Z</time>
</trkpt>
<trkpt lat="48.829018" lon="10.081433">
<ele>434</ele>
<time>2019-05-29T09:21:18Z</time>
</trkpt>
<trkpt lat="48.82911" lon="10.081955">
<ele>434</ele>
<time>2019-05-29T09:21:23Z</time>
</trkpt>
<trkpt lat="48.829257" lon="10.08243">
<ele>433</ele>
<time>2019-05-29T09:21:28Z</time>
</trkpt>
<trkpt lat="48.829445" lon="10.082862">
<ele>433</ele>
<time>2019-05-29T09:21:33Z</time>
</trkpt>
<trkpt lat="48.829652" lon="10.083242">
<ele>432</ele>
<time>2019-05-29T09:21:38Z</time>
</trkpt>
<trkpt lat="48.829878" lon="10.083598">
<ele>432</ele>
<time>2019-05-29T09:21:43Z</time>
</trkpt>
<trkpt lat="48.830098" lon="10.083952">
<ele>432</ele>
<time>2019-05-29T09:21:48Z</time>
</trkpt>
<trkpt lat="48.830302" lon="10.084313">
<ele>431</ele>
<time>2019-05-29T09:21:53Z</time>
</trkpt>
<trkpt lat="48.830505" lon="10.084665">
<ele>431</ele>
<time>2019-05-29T09:21:58Z</time>
</trkpt>
<trkpt lat="48.830692" lon="10.08501">
<ele>431</ele>
<time>2019-05-29T09:22:03Z</time>
</trkpt>
<trkpt lat="48.830872" lon="10.085388">
<ele>431</ele>
<time>2019-05-29T09:22:08Z</time>
</trkpt>
<trkpt lat="48.831027" lon="10.085827">
<ele>431</ele>
<time>2019-05-29T09:22:13Z</time>
</trkpt>
<trkpt lat="48.831172" lon="10.086308">
<ele>431</ele>
<time>2019-05-29T09:22:18Z</time>
</trkpt>
<trkpt lat="48.83133" lon="10.086802">
<ele>431</ele>
<time>2019-05-29T09:22:23Z</time>
</trkpt>
<trkpt lat="48.831482" lon="10.087273">
<ele>431</ele>
<time>2019-05-29T09:22:28Z</time>
</trkpt>
<trkpt lat="48.831627" lon="10.087737">
<ele>431</ele>
<time>2019-05-29T09:22:33Z</time>
</trkpt>
<trkpt lat="48.831773" lon="10.08819">
<ele>431</ele>
<time>2019-05-29T09:22:38Z</time>
</trkpt>
<trkpt lat="48.831912" lon="10.08866">
<ele>431</ele>
<time>2019-05-29T09:22:43Z</time>
</trkpt>
<trkpt lat="48.832057" lon="10.089123">
<ele>431</ele>
<time>2019-05-29T09:22:48Z</time>
</trkpt>
<trkpt lat="48.83218" lon="10.089535">
<ele>431</ele>
<time>2019-05-29T09:22:53Z</time>
</trkpt>
<trkpt lat="48.832288" lon="10.089933">
<ele>431</ele>
<time>2019-05-29T09:22:58Z</time>
</trkpt>
<trkpt lat="48.832382" lon="10.090293">
<ele>431</ele>
<time>2019-05-29T09:23:03Z</time>
</trkpt>
<trkpt lat="48.832493" lon="10.090617">
<ele>431</ele>
<time>2019-05-29T09:23:08Z</time>
</trkpt>
<trkpt lat="48.832612" lon="10.090967">
<ele>431</ele>
<time>2019-05-29T09:23:13Z</time>
</trkpt>
<trkpt lat="48.832725" lon="10.091337">
<ele>431</ele>
<time>2019-05-29T09:23:18Z</time>
</trkpt>
<trkpt lat="48.832847" lon="10.091722">
<ele>431</ele>
<time>2019-05-29T09:23:23Z</time>
</trkpt>
<trkpt lat="48.832972" lon="10.092088">
<ele>431</ele>
<time>2019-05-29T09:23:28Z</time>
</trkpt>
<trkpt lat="48.833117" lon="10.092497">
<ele>431</ele>
<time>2019-05-29T09:23:33Z</time>
</trkpt>
<trkpt lat="48.833268" lon="10.092975">
<ele>429</ele>
<time>2019-05-29T09:23:38Z</time>
</trkpt>
<trkpt lat="48.833345" lon="10.09343">
<ele>427</ele>
<time>2019-05-29T09:23:43Z</time>
</trkpt>
<trkpt lat="48.833345" lon="10.093638">
<ele>427</ele>
<time>2019-05-29T09:23:48Z</time>
</trkpt>
<trkpt lat="48.833327" lon="10.093748">
<ele>426</ele>
<time>2019-05-29T09:23:53Z</time>
</trkpt>
<trkpt lat="48.833313" lon="10.093767">
<ele>426</ele>
<time>2019-05-29T09:23:58Z</time>
</trkpt>
<trkpt lat="48.833272" lon="10.093848">
<ele>426</ele>
<time>2019-05-29T09:24:28Z</time>
</trkpt>
<trkpt lat="48.833385" lon="10.094045">
<ele>426</ele>
<time>2019-05-29T09:24:33Z</time>
</trkpt>
<trkpt lat="48.833718" lon="10.093808">
<ele>424</ele>
<time>2019-05-29T09:24:38Z</time>
</trkpt>
<trkpt lat="48.833985" lon="10.093502">
<ele>424</ele>
<time>2019-05-29T09:24:43Z</time>
</trkpt>
<trkpt lat="48.834202" lon="10.093297">
<ele>424</ele>
<time>2019-05-29T09:24:48Z</time>
</trkpt>
<trkpt lat="48.834382" lon="10.093102">
<ele>424</ele>
<time>2019-05-29T09:24:53Z</time>
</trkpt>
<trkpt lat="48.834532" lon="10.092963">
<ele>424</ele>
<time>2019-05-29T09:24:58Z</time>
</trkpt>
<trkpt lat="48.834652" lon="10.092853">
<ele>425</ele>
<time>2019-05-29T09:25:03Z</time>
</trkpt>
<trkpt lat="48.834743" lon="10.092793">
<ele>425</ele>
<time>2019-05-29T09:25:08Z</time>
</trkpt>
<trkpt lat="48.83477" lon="10.092777">
<ele>425</ele>
<time>2019-05-29T09:25:13Z</time>
</trkpt>
<trkpt lat="48.83477" lon="10.092778">
<ele>425</ele>
<time>2019-05-29T09:25:18Z</time>
</trkpt>
<trkpt lat="48.834885" lon="10.092663">
<ele>425</ele>
<time>2019-05-29T09:26:03Z</time>
</trkpt>
<trkpt lat="48.835033" lon="10.092553">
<ele>425</ele>
<time>2019-05-29T09:26:08Z</time>
</trkpt>
<trkpt lat="48.83522" lon="10.0927">
<ele>425</ele>
<time>2019-05-29T09:26:13Z</time>
</trkpt>
<trkpt lat="48.835367" lon="10.093012">
<ele>425</ele>
<time>2019-05-29T09:26:18Z</time>
</trkpt>
<trkpt lat="48.835537" lon="10.093365">
<ele>425</ele>
<time>2019-05-29T09:26:23Z</time>
</trkpt>
<trkpt lat="48.835648" lon="10.093598">
<ele>425</ele>
<time>2019-05-29T09:26:28Z</time>
</trkpt>
<trkpt lat="48.835677" lon="10.093708">
<ele>425</ele>
<time>2019-05-29T09:26:33Z</time>
</trkpt>
<trkpt lat="48.835678" lon="10.093722">
<ele>425</ele>
<time>2019-05-29T09:26:38Z</time>
</trkpt>
<trkpt lat="48.835702" lon="10.093822">
<ele>425</ele>
<time>2019-05-29T09:26:53Z</time>
</trkpt>
<trkpt lat="48.835803" lon="10.094005">
<ele>425</ele>
<time>2019-05-29T09:26:58Z</time>
</trkpt>
<trkpt lat="48.835915" lon="10.094222">
<ele>425</ele>
<time>2019-05-29T09:27:03Z</time>
</trkpt>
<trkpt lat="48.836085" lon="10.094525">
<ele>425</ele>
<time>2019-05-29T09:27:08Z</time>
</trkpt>
<trkpt lat="48.836262" lon="10.094797">
<ele>425</ele>
<time>2019-05-29T09:27:13Z</time>
</trkpt>
<trkpt lat="48.836407" lon="10.094988">
<ele>425</ele>
<time>2019-05-29T09:27:18Z</time>
</trkpt>
<trkpt lat="48.836503" lon="10.095287">
<ele>425</ele>
<time>2019-05-29T09:27:23Z</time>
</trkpt>
<trkpt lat="48.836605" lon="10.09567">
<ele>426</ele>
<time>2019-05-29T09:27:28Z</time>
</trkpt>
<trkpt lat="48.836718" lon="10.096012">
<ele>426</ele>
<time>2019-05-29T09:27:33Z</time>
</trkpt>
<trkpt lat="48.836807" lon="10.096378">
<ele>426</ele>
<time>2019-05-29T09:27:38Z</time>
</trkpt>
<trkpt lat="48.83703" lon="10.096588">
<ele>426</ele>
<time>2019-05-29T09:27:43Z</time>
</trkpt>
<trkpt lat="48.837283" lon="10.096612">
<ele>426</ele>
<time>2019-05-29T09:27:48Z</time>
</trkpt>
<trkpt lat="48.837553" lon="10.096658">
<ele>426</ele>
<time>2019-05-29T09:27:53Z</time>
</trkpt>
<trkpt lat="48.837887" lon="10.096652">
<ele>426</ele>
<time>2019-05-29T09:27:58Z</time>
</trkpt>
<trkpt lat="48.83818" lon="10.096635">
<ele>426</ele>
<time>2019-05-29T09:28:03Z</time>
</trkpt>
<trkpt lat="48.838407" lon="10.096543">
<ele>426</ele>
<time>2019-05-29T09:28:08Z</time>
</trkpt>
<trkpt lat="48.838635" lon="10.096422">
<ele>426</ele>
<time>2019-05-29T09:28:14Z</time>
</trkpt>
<trkpt lat="48.838547" lon="10.096158">
<ele>426</ele>
<time>2019-05-29T09:28:19Z</time>
</trkpt>
<trkpt lat="48.838283" lon="10.096045">
<ele>426</ele>
<time>2019-05-29T09:28:24Z</time>
</trkpt>
<trkpt lat="48.837988" lon="10.096108">
<ele>428</ele>
<time>2019-05-29T09:28:30Z</time>
</trkpt>
<trkpt lat="48.837753" lon="10.096208">
<ele>428</ele>
<time>2019-05-29T09:28:35Z</time>
</trkpt>
<trkpt lat="48.837517" lon="10.09632">
<ele>430</ele>
<time>2019-05-29T09:28:40Z</time>
</trkpt>
<trkpt lat="48.837308" lon="10.096432">
<ele>432</ele>
<time>2019-05-29T09:28:45Z</time>
</trkpt>
<trkpt lat="48.837072" lon="10.09658">
<ele>433</ele>
<time>2019-05-29T09:28:51Z</time>
</trkpt>
<trkpt lat="48.836895" lon="10.096758">
<ele>434</ele>
<time>2019-05-29T09:28:56Z</time>
</trkpt>
<trkpt lat="48.836735" lon="10.09695">
<ele>434</ele>
<time>2019-05-29T09:29:01Z</time>
</trkpt>
<trkpt lat="48.836752" lon="10.097227">
<ele>434</ele>
<time>2019-05-29T09:29:06Z</time>
</trkpt>
<trkpt lat="48.836955" lon="10.09756">
<ele>434</ele>
<time>2019-05-29T09:29:12Z</time>
</trkpt>
<trkpt lat="48.837103" lon="10.097935">
<ele>434</ele>
<time>2019-05-29T09:29:18Z</time>
</trkpt>
<trkpt lat="48.837178" lon="10.0982">
<ele>432</ele>
<time>2019-05-29T09:29:24Z</time>
</trkpt>
<trkpt lat="48.8372" lon="10.098273">
<ele>431</ele>
<time>2019-05-29T09:29:29Z</time>
</trkpt>
<trkpt lat="48.8372" lon="10.098277">
<ele>431</ele>
<time>2019-05-29T09:29:34Z</time>
</trkpt>
<trkpt lat="48.837198" lon="10.098277">
<ele>431</ele>
<time>2019-05-29T09:29:39Z</time>
</trkpt>
<trkpt lat="48.8372" lon="10.098277">
<ele>431</ele>
<time>2019-05-29T09:29:50Z</time>
</trkpt>
<trkpt lat="48.8372" lon="10.098278">
<ele>431</ele>
<time>2019-05-29T09:30:15Z</time>
</trkpt>
<trkpt lat="48.837223" lon="10.098397">
<ele>431</ele>
<time>2019-05-29T09:30:20Z</time>
</trkpt>
<trkpt lat="48.837388" lon="10.09853">
<ele>431</ele>
<time>2019-05-29T09:30:25Z</time>
</trkpt>
<trkpt lat="48.8377" lon="10.09846">
<ele>429</ele>
<time>2019-05-29T09:30:31Z</time>
</trkpt>
<trkpt lat="48.83791" lon="10.098188">
<ele>429</ele>
<time>2019-05-29T09:30:36Z</time>
</trkpt>
<trkpt lat="48.838087" lon="10.09778">
<ele>428</ele>
<time>2019-05-29T09:30:42Z</time>
</trkpt>
<trkpt lat="48.838303" lon="10.097563">
<ele>428</ele>
<time>2019-05-29T09:30:47Z</time>
</trkpt>
<trkpt lat="48.838592" lon="10.0974">
<ele>428</ele>
<time>2019-05-29T09:30:52Z</time>
</trkpt>
<trkpt lat="48.838882" lon="10.097278">
<ele>428</ele>
<time>2019-05-29T09:30:57Z</time>
</trkpt>
<trkpt lat="48.839182" lon="10.097288">
<ele>428</ele>
<time>2019-05-29T09:31:02Z</time>
</trkpt>
<trkpt lat="48.839477" lon="10.097372">
<ele>427</ele>
<time>2019-05-29T09:31:07Z</time>
</trkpt>
<trkpt lat="48.839757" lon="10.09745">
<ele>427</ele>
<time>2019-05-29T09:31:12Z</time>
</trkpt>
<trkpt lat="48.840028" lon="10.09752">
<ele>427</ele>
<time>2019-05-29T09:31:17Z</time>
</trkpt>
<trkpt lat="48.840307" lon="10.097538">
<ele>427</ele>
<time>2019-05-29T09:31:22Z</time>
</trkpt>
<trkpt lat="48.840585" lon="10.09751">
<ele>427</ele>
<time>2019-05-29T09:31:27Z</time>
</trkpt>
<trkpt lat="48.84088" lon="10.097498">
<ele>427</ele>
<time>2019-05-29T09:31:32Z</time>
</trkpt>
<trkpt lat="48.84115" lon="10.097592">
<ele>427</ele>
<time>2019-05-29T09:31:37Z</time>
</trkpt>
<trkpt lat="48.841395" lon="10.097782">
<ele>427</ele>
<time>2019-05-29T09:31:42Z</time>
</trkpt>
<trkpt lat="48.841615" lon="10.09804">
<ele>427</ele>
<time>2019-05-29T09:31:47Z</time>
</trkpt>
<trkpt lat="48.841795" lon="10.098465">
<ele>427</ele>
<time>2019-05-29T09:31:53Z</time>
</trkpt>
<trkpt lat="48.841937" lon="10.098812">
<ele>428</ele>
<time>2019-05-29T09:31:58Z</time>
</trkpt>
<trkpt lat="48.842163" lon="10.099038">
<ele>428</ele>
<time>2019-05-29T09:32:03Z</time>
</trkpt>
<trkpt lat="48.842397" lon="10.099208">
<ele>428</ele>
<time>2019-05-29T09:32:08Z</time>
</trkpt>
<trkpt lat="48.842598" lon="10.09946">
<ele>428</ele>
<time>2019-05-29T09:32:13Z</time>
</trkpt>
<trkpt lat="48.842777" lon="10.099768">
<ele>429</ele>
<time>2019-05-29T09:32:18Z</time>
</trkpt>
<trkpt lat="48.843035" lon="10.099883">
<ele>430</ele>
<time>2019-05-29T09:32:23Z</time>
</trkpt>
<trkpt lat="48.843302" lon="10.09989">
<ele>430</ele>
<time>2019-05-29T09:32:28Z</time>
</trkpt>
<trkpt lat="48.84361" lon="10.099858">
<ele>430</ele>
<time>2019-05-29T09:32:34Z</time>
</trkpt>
<trkpt lat="48.843857" lon="10.09978">
<ele>432</ele>
<time>2019-05-29T09:32:39Z</time>
</trkpt>
<trkpt lat="48.844108" lon="10.09972">
<ele>432</ele>
<time>2019-05-29T09:32:44Z</time>
</trkpt>
<trkpt lat="48.844327" lon="10.09953">
<ele>433</ele>
<time>2019-05-29T09:32:49Z</time>
</trkpt>
<trkpt lat="48.844427" lon="10.099118">
<ele>433</ele>
<time>2019-05-29T09:32:54Z</time>
</trkpt>
<trkpt lat="48.844483" lon="10.09861">
<ele>431</ele>
<time>2019-05-29T09:32:59Z</time>
</trkpt>
<trkpt lat="48.844592" lon="10.098077">
<ele>429</ele>
<time>2019-05-29T09:33:04Z</time>
</trkpt>
<trkpt lat="48.844838" lon="10.097743">
<ele>429</ele>
<time>2019-05-29T09:33:09Z</time>
</trkpt>
<trkpt lat="48.845142" lon="10.097542">
<ele>432</ele>
<time>2019-05-29T09:33:15Z</time>
</trkpt>
<trkpt lat="48.845418" lon="10.097438">
<ele>432</ele>
<time>2019-05-29T09:33:20Z</time>
</trkpt>
<trkpt lat="48.845733" lon="10.097403">
<ele>432</ele>
<time>2019-05-29T09:33:25Z</time>
</trkpt>
<trkpt lat="48.846065" lon="10.097455">
<ele>432</ele>
<time>2019-05-29T09:33:30Z</time>
</trkpt>
<trkpt lat="48.846362" lon="10.097573">
<ele>432</ele>
<time>2019-05-29T09:33:35Z</time>
</trkpt>
<trkpt lat="48.846655" lon="10.09772">
<ele>432</ele>
<time>2019-05-29T09:33:40Z</time>
</trkpt>
<trkpt lat="48.846927" lon="10.097862">
<ele>432</ele>
<time>2019-05-29T09:33:45Z</time>
</trkpt>
<trkpt lat="48.847153" lon="10.098008">
<ele>432</ele>
<time>2019-05-29T09:33:50Z</time>
</trkpt>
<trkpt lat="48.8474" lon="10.098172">
<ele>432</ele>
<time>2019-05-29T09:33:56Z</time>
</trkpt>
<trkpt lat="48.847658" lon="10.098283">
<ele>432</ele>
<time>2019-05-29T09:34:01Z</time>
</trkpt>
<trkpt lat="48.847935" lon="10.09845">
<ele>432</ele>
<time>2019-05-29T09:34:06Z</time>
</trkpt>
<trkpt lat="48.848225" lon="10.098623">
<ele>432</ele>
<time>2019-05-29T09:34:11Z</time>
</trkpt>
<trkpt lat="48.848507" lon="10.098822">
<ele>432</ele>
<time>2019-05-29T09:34:16Z</time>
</trkpt>
<trkpt lat="48.848782" lon="10.099003">
<ele>432</ele>
<time>2019-05-29T09:34:21Z</time>
</trkpt>
<trkpt lat="48.849098" lon="10.099197">
<ele>430</ele>
<time>2019-05-29T09:34:26Z</time>
</trkpt>
<trkpt lat="48.84948" lon="10.099405">
<ele>429</ele>
<time>2019-05-29T09:34:31Z</time>
</trkpt>
<trkpt lat="48.849973" lon="10.099718">
<ele>427</ele>
<time>2019-05-29T09:34:37Z</time>
</trkpt>
<trkpt lat="48.850347" lon="10.100022">
<ele>427</ele>
<time>2019-05-29T09:34:42Z</time>
</trkpt>
<trkpt lat="48.850642" lon="10.10029">
<ele>427</ele>
<time>2019-05-29T09:34:47Z</time>
</trkpt>
<trkpt lat="48.850882" lon="10.100523">
<ele>428</ele>
<time>2019-05-29T09:34:52Z</time>
</trkpt>
<trkpt lat="48.851105" lon="10.100727">
<ele>430</ele>
<time>2019-05-29T09:34:57Z</time>
</trkpt>
<trkpt lat="48.851333" lon="10.100933">
<ele>431</ele>
<time>2019-05-29T09:35:02Z</time>
</trkpt>
<trkpt lat="48.851562" lon="10.101132">
<ele>431</ele>
<time>2019-05-29T09:35:07Z</time>
</trkpt>
<trkpt lat="48.851798" lon="10.101303">
<ele>432</ele>
<time>2019-05-29T09:35:12Z</time>
</trkpt>
<trkpt lat="48.852083" lon="10.101517">
<ele>433</ele>
<time>2019-05-29T09:35:18Z</time>
</trkpt>
<trkpt lat="48.852352" lon="10.10166">
<ele>433</ele>
<time>2019-05-29T09:35:23Z</time>
</trkpt>
<trkpt lat="48.852615" lon="10.101805">
<ele>433</ele>
<time>2019-05-29T09:35:28Z</time>
</trkpt>
<trkpt lat="48.852878" lon="10.101908">
<ele>433</ele>
<time>2019-05-29T09:35:33Z</time>
</trkpt>
<trkpt lat="48.853153" lon="10.101968">
<ele>433</ele>
<time>2019-05-29T09:35:38Z</time>
</trkpt>
<trkpt lat="48.853433" lon="10.101972">
<ele>433</ele>
<time>2019-05-29T09:35:43Z</time>
</trkpt>
<trkpt lat="48.853813" lon="10.10193">
<ele>431</ele>
<time>2019-05-29T09:35:48Z</time>
</trkpt>
<trkpt lat="48.854247" lon="10.101983">
<ele>429</ele>
<time>2019-05-29T09:35:53Z</time>
</trkpt>
<trkpt lat="48.85479" lon="10.102148">
<ele>426</ele>
<time>2019-05-29T09:35:59Z</time>
</trkpt>
<trkpt lat="48.85517" lon="10.102288">
<ele>426</ele>
<time>2019-05-29T09:36:04Z</time>
</trkpt>
<trkpt lat="48.855545" lon="10.102465">
<ele>425</ele>
<time>2019-05-29T09:36:09Z</time>
</trkpt>
<trkpt lat="48.855877" lon="10.102648">
<ele>424</ele>
<time>2019-05-29T09:36:14Z</time>
</trkpt>
<trkpt lat="48.85623" lon="10.102842">
<ele>421</ele>
<time>2019-05-29T09:36:19Z</time>
</trkpt>
<trkpt lat="48.85657" lon="10.103068">
<ele>419</ele>
<time>2019-05-29T09:36:24Z</time>
</trkpt>
<trkpt lat="48.85681" lon="10.103425">
<ele>419</ele>
<time>2019-05-29T09:36:29Z</time>
</trkpt>
<trkpt lat="48.857062" lon="10.103507">
<ele>419</ele>
<time>2019-05-29T09:36:34Z</time>
</trkpt>
<trkpt lat="48.857402" lon="10.103518">
<ele>419</ele>
<time>2019-05-29T09:36:40Z</time>
</trkpt>
<trkpt lat="48.857623" lon="10.103528">
<ele>421</ele>
<time>2019-05-29T09:36:45Z</time>
</trkpt>
<trkpt lat="48.857822" lon="10.103547">
<ele>422</ele>
<time>2019-05-29T09:36:50Z</time>
</trkpt>
<trkpt lat="48.857998" lon="10.103632">
<ele>423</ele>
<time>2019-05-29T09:36:55Z</time>
</trkpt>
<trkpt lat="48.858178" lon="10.10375">
<ele>424</ele>
<time>2019-05-29T09:37:00Z</time>
</trkpt>
<trkpt lat="48.858357" lon="10.103885">
<ele>424</ele>
<time>2019-05-29T09:37:05Z</time>
</trkpt>
<trkpt lat="48.858612" lon="10.104017">
<ele>425</ele>
<time>2019-05-29T09:37:10Z</time>
</trkpt>
<trkpt lat="48.85887" lon="10.104147">
<ele>425</ele>
<time>2019-05-29T09:37:15Z</time>
</trkpt>
<trkpt lat="48.85917" lon="10.104295">
<ele>425</ele>
<time>2019-05-29T09:37:21Z</time>
</trkpt>
<trkpt lat="48.859423" lon="10.104437">
<ele>425</ele>
<time>2019-05-29T09:37:26Z</time>
</trkpt>
<trkpt lat="48.859663" lon="10.104593">
<ele>425</ele>
<time>2019-05-29T09:37:31Z</time>
</trkpt>
<trkpt lat="48.859947" lon="10.104795">
<ele>423</ele>
<time>2019-05-29T09:37:36Z</time>
</trkpt>
<trkpt lat="48.860217" lon="10.104947">
<ele>422</ele>
<time>2019-05-29T09:37:41Z</time>
</trkpt>
<trkpt lat="48.86049" lon="10.105117">
<ele>420</ele>
<time>2019-05-29T09:37:46Z</time>
</trkpt>
<trkpt lat="48.860783" lon="10.105273">
<ele>420</ele>
<time>2019-05-29T09:37:51Z</time>
</trkpt>
<trkpt lat="48.861048" lon="10.105392">
<ele>420</ele>
<time>2019-05-29T09:37:56Z</time>
</trkpt>
<trkpt lat="48.861303" lon="10.105488">
<ele>421</ele>
<time>2019-05-29T09:38:02Z</time>
</trkpt>
<trkpt lat="48.861502" lon="10.105558">
<ele>422</ele>
<time>2019-05-29T09:38:07Z</time>
</trkpt>
<trkpt lat="48.861683" lon="10.105647">
<ele>423</ele>
<time>2019-05-29T09:38:12Z</time>
</trkpt>
<trkpt lat="48.86185" lon="10.10572">
<ele>424</ele>
<time>2019-05-29T09:38:17Z</time>
</trkpt>
<trkpt lat="48.861998" lon="10.105787">
<ele>424</ele>
<time>2019-05-29T09:38:22Z</time>
</trkpt>
<trkpt lat="48.862127" lon="10.105825">
<ele>425</ele>
<time>2019-05-29T09:38:27Z</time>
</trkpt>
<trkpt lat="48.862233" lon="10.105847">
<ele>426</ele>
<time>2019-05-29T09:38:32Z</time>
</trkpt>
<trkpt lat="48.862373" lon="10.105943">
<ele>427</ele>
<time>2019-05-29T09:38:37Z</time>
</trkpt>
<trkpt lat="48.862522" lon="10.106042">
<ele>429</ele>
<time>2019-05-29T09:38:43Z</time>
</trkpt>
<trkpt lat="48.86265" lon="10.106123">
<ele>430</ele>
<time>2019-05-29T09:38:48Z</time>
</trkpt>
<trkpt lat="48.862775" lon="10.106212">
<ele>431</ele>
<time>2019-05-29T09:38:53Z</time>
</trkpt>
<trkpt lat="48.862938" lon="10.106288">
<ele>431</ele>
<time>2019-05-29T09:38:58Z</time>
</trkpt>
<trkpt lat="48.863135" lon="10.10636">
<ele>431</ele>
<time>2019-05-29T09:39:03Z</time>
</trkpt>
<trkpt lat="48.863307" lon="10.10643">
<ele>429</ele>
<time>2019-05-29T09:39:08Z</time>
</trkpt>
<trkpt lat="48.863507" lon="10.106483">
<ele>428</ele>
<time>2019-05-29T09:39:13Z</time>
</trkpt>
<trkpt lat="48.863742" lon="10.10662">
<ele>426</ele>
<time>2019-05-29T09:39:18Z</time>
</trkpt>
<trkpt lat="48.864008" lon="10.10679">
<ele>426</ele>
<time>2019-05-29T09:39:24Z</time>
</trkpt>
<trkpt lat="48.864238" lon="10.106933">
<ele>426</ele>
<time>2019-05-29T09:39:29Z</time>
</trkpt>
<trkpt lat="48.864408" lon="10.107047">
<ele>425</ele>
<time>2019-05-29T09:39:34Z</time>
</trkpt>
<trkpt lat="48.864537" lon="10.107158">
<ele>425</ele>
<time>2019-05-29T09:39:39Z</time>
</trkpt>
<trkpt lat="48.864707" lon="10.107213">
<ele>425</ele>
<time>2019-05-29T09:39:44Z</time>
</trkpt>
<trkpt lat="48.864852" lon="10.107242">
<ele>425</ele>
<time>2019-05-29T09:39:49Z</time>
</trkpt>
<trkpt lat="48.86494" lon="10.107285">
<ele>425</ele>
<time>2019-05-29T09:39:54Z</time>
</trkpt>
<trkpt lat="48.865033" lon="10.107327">
<ele>425</ele>
<time>2019-05-29T09:39:59Z</time>
</trkpt>
<trkpt lat="48.865108" lon="10.107407">
<ele>423</ele>
<time>2019-05-29T09:40:05Z</time>
</trkpt>
<trkpt lat="48.865113" lon="10.107392">
<ele>423</ele>
<time>2019-05-29T09:40:10Z</time>
</trkpt>
<trkpt lat="48.865123" lon="10.107402">
<ele>423</ele>
<time>2019-05-29T09:40:15Z</time>
</trkpt>
<trkpt lat="48.865128" lon="10.1074">
<ele>423</ele>
<time>2019-05-29T09:40:20Z</time>
</trkpt>
<trkpt lat="48.865135" lon="10.107405">
<ele>423</ele>
<time>2019-05-29T09:40:30Z</time>
</trkpt>
<trkpt lat="48.86514" lon="10.107407">
<ele>424</ele>
<time>2019-05-29T09:40:35Z</time>
</trkpt>
<trkpt lat="48.865147" lon="10.107415">
<ele>424</ele>
<time>2019-05-29T09:40:40Z</time>
</trkpt>
<trkpt lat="48.865165" lon="10.107427">
<ele>424</ele>
<time>2019-05-29T09:40:46Z</time>
</trkpt>
<trkpt lat="48.865232" lon="10.107468">
<ele>424</ele>
<time>2019-05-29T09:40:51Z</time>
</trkpt>
<trkpt lat="48.865527" lon="10.107605">
<ele>425</ele>
<time>2019-05-29T09:40:56Z</time>
</trkpt>
<trkpt lat="48.865763" lon="10.107712">
<ele>425</ele>
<time>2019-05-29T09:41:01Z</time>
</trkpt>
<trkpt lat="48.86596" lon="10.107823">
<ele>427</ele>
<time>2019-05-29T09:41:06Z</time>
</trkpt>
<trkpt lat="48.866142" lon="10.107943">
<ele>428</ele>
<time>2019-05-29T09:41:11Z</time>
</trkpt>
<trkpt lat="48.866302" lon="10.108062">
<ele>428</ele>
<time>2019-05-29T09:41:16Z</time>
</trkpt>
<trkpt lat="48.866448" lon="10.108178">
<ele>429</ele>
<time>2019-05-29T09:41:21Z</time>
</trkpt>
<trkpt lat="48.866675" lon="10.108263">
<ele>429</ele>
<time>2019-05-29T09:41:27Z</time>
</trkpt>
<trkpt lat="48.866888" lon="10.108365">
<ele>429</ele>
<time>2019-05-29T09:41:32Z</time>
</trkpt>
<trkpt lat="48.867075" lon="10.108495">
<ele>429</ele>
<time>2019-05-29T09:41:37Z</time>
</trkpt>
<trkpt lat="48.86728" lon="10.10861">
<ele>429</ele>
<time>2019-05-29T09:41:42Z</time>
</trkpt>
<trkpt lat="48.867482" lon="10.108727">
<ele>429</ele>
<time>2019-05-29T09:41:47Z</time>
</trkpt>
<trkpt lat="48.86771" lon="10.108865">
<ele>429</ele>
<time>2019-05-29T09:41:52Z</time>
</trkpt>
<trkpt lat="48.867935" lon="10.108993">
<ele>429</ele>
<time>2019-05-29T09:41:57Z</time>
</trkpt>
<trkpt lat="48.868145" lon="10.109135">
<ele>430</ele>
<time>2019-05-29T09:42:02Z</time>
</trkpt>
<trkpt lat="48.868388" lon="10.109348">
<ele>431</ele>
<time>2019-05-29T09:42:08Z</time>
</trkpt>
<trkpt lat="48.868577" lon="10.109498">
<ele>431</ele>
<time>2019-05-29T09:42:13Z</time>
</trkpt>
<trkpt lat="48.868753" lon="10.109663">
<ele>432</ele>
<time>2019-05-29T09:42:18Z</time>
</trkpt>
<trkpt lat="48.868912" lon="10.10982">
<ele>433</ele>
<time>2019-05-29T09:42:23Z</time>
</trkpt>
<trkpt lat="48.869037" lon="10.109982">
<ele>434</ele>
<time>2019-05-29T09:42:28Z</time>
</trkpt>
<trkpt lat="48.869168" lon="10.110137">
<ele>435</ele>
<time>2019-05-29T09:42:33Z</time>
</trkpt>
<trkpt lat="48.869328" lon="10.110285">
<ele>435</ele>
<time>2019-05-29T09:42:38Z</time>
</trkpt>
<trkpt lat="48.86951" lon="10.110473">
<ele>435</ele>
<time>2019-05-29T09:42:43Z</time>
</trkpt>
<trkpt lat="48.869757" lon="10.110735">
<ele>435</ele>
<time>2019-05-29T09:42:49Z</time>
</trkpt>
<trkpt lat="48.869963" lon="10.11099">
<ele>434</ele>
<time>2019-05-29T09:42:54Z</time>
</trkpt>
<trkpt lat="48.870178" lon="10.111283">
<ele>434</ele>
<time>2019-05-29T09:42:59Z</time>
</trkpt>
<trkpt lat="48.870402" lon="10.11156">
<ele>434</ele>
<time>2019-05-29T09:43:04Z</time>
</trkpt>
<trkpt lat="48.87059" lon="10.111847">
<ele>434</ele>
<time>2019-05-29T09:43:09Z</time>
</trkpt>
<trkpt lat="48.870753" lon="10.112108">
<ele>434</ele>
<time>2019-05-29T09:43:14Z</time>
</trkpt>
<trkpt lat="48.870938" lon="10.112345">
<ele>434</ele>
<time>2019-05-29T09:43:19Z</time>
</trkpt>
<trkpt lat="48.871097" lon="10.112583">
<ele>434</ele>
<time>2019-05-29T09:43:24Z</time>
</trkpt>
<trkpt lat="48.871312" lon="10.11289">
<ele>434</ele>
<time>2019-05-29T09:43:30Z</time>
</trkpt>
<trkpt lat="48.871502" lon="10.113223">
<ele>433</ele>
<time>2019-05-29T09:43:35Z</time>
</trkpt>
<trkpt lat="48.871775" lon="10.113517">
<ele>432</ele>
<time>2019-05-29T09:43:40Z</time>
</trkpt>
<trkpt lat="48.872007" lon="10.113758">
<ele>432</ele>
<time>2019-05-29T09:43:45Z</time>
</trkpt>
<trkpt lat="48.872212" lon="10.11395">
<ele>432</ele>
<time>2019-05-29T09:43:50Z</time>
</trkpt>
<trkpt lat="48.872382" lon="10.114142">
<ele>433</ele>
<time>2019-05-29T09:43:55Z</time>
</trkpt>
<trkpt lat="48.872477" lon="10.114322">
<ele>435</ele>
<time>2019-05-29T09:44:00Z</time>
</trkpt>
<trkpt lat="48.872585" lon="10.114528">
<ele>436</ele>
<time>2019-05-29T09:44:05Z</time>
</trkpt>
<trkpt lat="48.872743" lon="10.114833">
<ele>437</ele>
<time>2019-05-29T09:44:11Z</time>
</trkpt>
<trkpt lat="48.872888" lon="10.115072">
<ele>437</ele>
<time>2019-05-29T09:44:16Z</time>
</trkpt>
<trkpt lat="48.873047" lon="10.11528">
<ele>438</ele>
<time>2019-05-29T09:44:21Z</time>
</trkpt>
<trkpt lat="48.8732" lon="10.115472">
<ele>439</ele>
<time>2019-05-29T09:44:26Z</time>
</trkpt>
<trkpt lat="48.873335" lon="10.115642">
<ele>440</ele>
<time>2019-05-29T09:44:31Z</time>
</trkpt>
<trkpt lat="48.873422" lon="10.115837">
<ele>441</ele>
<time>2019-05-29T09:44:36Z</time>
</trkpt>
<trkpt lat="48.873462" lon="10.115997">
<ele>442</ele>
<time>2019-05-29T09:44:41Z</time>
</trkpt>
<trkpt lat="48.873553" lon="10.116153">
<ele>443</ele>
<time>2019-05-29T09:44:46Z</time>
</trkpt>
<trkpt lat="48.87365" lon="10.116342">
<ele>443</ele>
<time>2019-05-29T09:44:52Z</time>
</trkpt>
<trkpt lat="48.873657" lon="10.116368">
<ele>443</ele>
<time>2019-05-29T09:44:57Z</time>
</trkpt>
<trkpt lat="48.873707" lon="10.116465">
<ele>443</ele>
<time>2019-05-29T09:45:02Z</time>
</trkpt>
<trkpt lat="48.87382" lon="10.116728">
<ele>444</ele>
<time>2019-05-29T09:45:07Z</time>
</trkpt>
<trkpt lat="48.87396" lon="10.117027">
<ele>445</ele>
<time>2019-05-29T09:45:12Z</time>
</trkpt>
<trkpt lat="48.874098" lon="10.11731">
<ele>445</ele>
<time>2019-05-29T09:45:17Z</time>
</trkpt>
<trkpt lat="48.874213" lon="10.117568">
<ele>445</ele>
<time>2019-05-29T09:45:22Z</time>
</trkpt>
<trkpt lat="48.874368" lon="10.11786">
<ele>445</ele>
<time>2019-05-29T09:45:27Z</time>
</trkpt>
<trkpt lat="48.874528" lon="10.118205">
<ele>445</ele>
<time>2019-05-29T09:45:33Z</time>
</trkpt>
<trkpt lat="48.874672" lon="10.118495">
<ele>445</ele>
<time>2019-05-29T09:45:38Z</time>
</trkpt>
<trkpt lat="48.874807" lon="10.118783">
<ele>445</ele>
<time>2019-05-29T09:45:43Z</time>
</trkpt>
<trkpt lat="48.874967" lon="10.119075">
<ele>446</ele>
<time>2019-05-29T09:45:48Z</time>
</trkpt>
<trkpt lat="48.8751" lon="10.119325">
<ele>446</ele>
<time>2019-05-29T09:45:53Z</time>
</trkpt>
<trkpt lat="48.875202" lon="10.11955">
<ele>446</ele>
<time>2019-05-29T09:45:58Z</time>
</trkpt>
<trkpt lat="48.875237" lon="10.11965">
<ele>446</ele>
<time>2019-05-29T09:46:03Z</time>
</trkpt>
<trkpt lat="48.875275" lon="10.11971">
<ele>446</ele>
<time>2019-05-29T09:46:08Z</time>
</trkpt>
<trkpt lat="48.875308" lon="10.119783">
<ele>446</ele>
<time>2019-05-29T09:46:14Z</time>
</trkpt>
<trkpt lat="48.875312" lon="10.119818">
<ele>446</ele>
<time>2019-05-29T09:46:19Z</time>
</trkpt>
<trkpt lat="48.875315" lon="10.119862">
<ele>446</ele>
<time>2019-05-29T09:46:24Z</time>
</trkpt>
<trkpt lat="48.875315" lon="10.119867">
<ele>446</ele>
<time>2019-05-29T09:46:29Z</time>
</trkpt>
<trkpt lat="48.875312" lon="10.119872">
<ele>446</ele>
<time>2019-05-29T09:46:39Z</time>
</trkpt>
<trkpt lat="48.875312" lon="10.119875">
<ele>446</ele>
<time>2019-05-29T09:46:44Z</time>
</trkpt>
<trkpt lat="48.87531" lon="10.119877">
<ele>446</ele>
<time>2019-05-29T09:46:49Z</time>
</trkpt>
<trkpt lat="48.87531" lon="10.119878">
<ele>446</ele>
<time>2019-05-29T09:47:05Z</time>
</trkpt>
<trkpt lat="48.875317" lon="10.119853">
<ele>446</ele>
<time>2019-05-29T09:47:10Z</time>
</trkpt>
<trkpt lat="48.875312" lon="10.119842">
<ele>446</ele>
<time>2019-05-29T09:47:15Z</time>
</trkpt>
<trkpt lat="48.87531" lon="10.119842">
<ele>446</ele>
<time>2019-05-29T09:47:20Z</time>
</trkpt>
<trkpt lat="48.875308" lon="10.119835">
<ele>446</ele>
<time>2019-05-29T09:47:25Z</time>
</trkpt>
<trkpt lat="48.875308" lon="10.119837">
<ele>446</ele>
<time>2019-05-29T09:47:30Z</time>
</trkpt>
<trkpt lat="48.875307" lon="10.119837">
<ele>446</ele>
<time>2019-05-29T09:47:36Z</time>
</trkpt>
<trkpt lat="48.875308" lon="10.119837">
<ele>446</ele>
<time>2019-05-29T09:47:41Z</time>
</trkpt>
<trkpt lat="48.875308" lon="10.119835">
<ele>446</ele>
<time>2019-05-29T09:47:46Z</time>
</trkpt>
<trkpt lat="48.87531" lon="10.119822">
<ele>446</ele>
<time>2019-05-29T09:47:51Z</time>
</trkpt>
<trkpt lat="48.875312" lon="10.119812">
<ele>446</ele>
<time>2019-05-29T09:47:56Z</time>
</trkpt>
<trkpt lat="48.875315" lon="10.119805">
<ele>446</ele>
<time>2019-05-29T09:48:01Z</time>
</trkpt>
<trkpt lat="48.875315" lon="10.119803">
<ele>446</ele>
<time>2019-05-29T09:48:11Z</time>
</trkpt>
<trkpt lat="48.875313" lon="10.119792">
<ele>446</ele>
<time>2019-05-29T09:48:17Z</time>
</trkpt>
<trkpt lat="48.875313" lon="10.119793">
<ele>446</ele>
<time>2019-05-29T09:48:22Z</time>
</trkpt>
<trkpt lat="48.875313" lon="10.11979">
<ele>446</ele>
<time>2019-05-29T09:48:27Z</time>
</trkpt>
<trkpt lat="48.875313" lon="10.119788">
<ele>446</ele>
<time>2019-05-29T09:49:03Z</time>
</trkpt>
<trkpt lat="48.875315" lon="10.119788">
<ele>446</ele>
<time>2019-05-29T09:50:04Z</time>
</trkpt>
<trkpt lat="48.875333" lon="10.119805">
<ele>446</ele>
<time>2019-05-29T09:50:09Z</time>
</trkpt>
<trkpt lat="48.875327" lon="10.119795">
<ele>446</ele>
<time>2019-05-29T09:50:14Z</time>
</trkpt>
<trkpt lat="48.875322" lon="10.119808">
<ele>446</ele>
<time>2019-05-29T09:50:20Z</time>
</trkpt>
<trkpt lat="48.875325" lon="10.119812">
<ele>446</ele>
<time>2019-05-29T09:50:40Z</time>
</trkpt>
<trkpt lat="48.875323" lon="10.11981">
<ele>446</ele>
<time>2019-05-29T09:51:16Z</time>
</trkpt>
<trkpt lat="48.875323" lon="10.119812">
<ele>446</ele>
<time>2019-05-29T09:51:42Z</time>
</trkpt>
<trkpt lat="48.87532" lon="10.119813">
<ele>446</ele>
<time>2019-05-29T09:51:47Z</time>
</trkpt>
<trkpt lat="48.875322" lon="10.119813">
<ele>446</ele>
<time>2019-05-29T09:51:57Z</time>
</trkpt>
<trkpt lat="48.875397" lon="10.119943">
<ele>446</ele>
<time>2019-05-29T09:52:02Z</time>
</trkpt>
<trkpt lat="48.875547" lon="10.12019">
<ele>446</ele>
<time>2019-05-29T09:52:07Z</time>
</trkpt>
<trkpt lat="48.87576" lon="10.120375">
<ele>446</ele>
<time>2019-05-29T09:52:12Z</time>
</trkpt>
<trkpt lat="48.876002" lon="10.120518">
<ele>446</ele>
<time>2019-05-29T09:52:17Z</time>
</trkpt>
<trkpt lat="48.876245" lon="10.120887">
<ele>446</ele>
<time>2019-05-29T09:52:23Z</time>
</trkpt>
<trkpt lat="48.876435" lon="10.121202">
<ele>446</ele>
<time>2019-05-29T09:52:28Z</time>
</trkpt>
<trkpt lat="48.87661" lon="10.121507">
<ele>446</ele>
<time>2019-05-29T09:52:33Z</time>
</trkpt>
<trkpt lat="48.876765" lon="10.121792">
<ele>447</ele>
<time>2019-05-29T09:52:38Z</time>
</trkpt>
<trkpt lat="48.876903" lon="10.122062">
<ele>448</ele>
<time>2019-05-29T09:52:43Z</time>
</trkpt>
<trkpt lat="48.877078" lon="10.122348">
<ele>448</ele>
<time>2019-05-29T09:52:48Z</time>
</trkpt>
<trkpt lat="48.877278" lon="10.122698">
<ele>448</ele>
<time>2019-05-29T09:52:53Z</time>
</trkpt>
<trkpt lat="48.877465" lon="10.123058">
<ele>448</ele>
<time>2019-05-29T09:52:58Z</time>
</trkpt>
<trkpt lat="48.877617" lon="10.123415">
<ele>449</ele>
<time>2019-05-29T09:53:04Z</time>
</trkpt>
<trkpt lat="48.87771" lon="10.123642">
<ele>450</ele>
<time>2019-05-29T09:53:09Z</time>
</trkpt>
<trkpt lat="48.877825" lon="10.123822">
<ele>451</ele>
<time>2019-05-29T09:53:14Z</time>
</trkpt>
<trkpt lat="48.87794" lon="10.124032">
<ele>452</ele>
<time>2019-05-29T09:53:19Z</time>
</trkpt>
<trkpt lat="48.87808" lon="10.12426">
<ele>452</ele>
<time>2019-05-29T09:53:24Z</time>
</trkpt>
<trkpt lat="48.87822" lon="10.124503">
<ele>453</ele>
<time>2019-05-29T09:53:29Z</time>
</trkpt>
<trkpt lat="48.87836" lon="10.124745">
<ele>453</ele>
<time>2019-05-29T09:53:34Z</time>
</trkpt>
<trkpt lat="48.878532" lon="10.125033">
<ele>453</ele>
<time>2019-05-29T09:53:39Z</time>
</trkpt>
<trkpt lat="48.878765" lon="10.125413">
<ele>452</ele>
<time>2019-05-29T09:53:45Z</time>
</trkpt>
<trkpt lat="48.87897" lon="10.125742">
<ele>452</ele>
<time>2019-05-29T09:53:50Z</time>
</trkpt>
<trkpt lat="48.879172" lon="10.126043">
<ele>451</ele>
<time>2019-05-29T09:53:55Z</time>
</trkpt>
<trkpt lat="48.879343" lon="10.126373">
<ele>451</ele>
<time>2019-05-29T09:54:00Z</time>
</trkpt>
<trkpt lat="48.879477" lon="10.126747">
<ele>451</ele>
<time>2019-05-29T09:54:05Z</time>
</trkpt>
<trkpt lat="48.879568" lon="10.127123">
<ele>450</ele>
<time>2019-05-29T09:54:10Z</time>
</trkpt>
<trkpt lat="48.879707" lon="10.127497">
<ele>450</ele>
<time>2019-05-29T09:54:15Z</time>
</trkpt>
<trkpt lat="48.87989" lon="10.127828">
<ele>449</ele>
<time>2019-05-29T09:54:20Z</time>
</trkpt>
<trkpt lat="48.880128" lon="10.128233">
<ele>449</ele>
<time>2019-05-29T09:54:26Z</time>
</trkpt>
<trkpt lat="48.880307" lon="10.12853">
<ele>449</ele>
<time>2019-05-29T09:54:31Z</time>
</trkpt>
<trkpt lat="48.880468" lon="10.128793">
<ele>449</ele>
<time>2019-05-29T09:54:36Z</time>
</trkpt>
<trkpt lat="48.880605" lon="10.12904">
<ele>449</ele>
<time>2019-05-29T09:54:41Z</time>
</trkpt>
<trkpt lat="48.880723" lon="10.129243">
<ele>451</ele>
<time>2019-05-29T09:54:46Z</time>
</trkpt>
<trkpt lat="48.880828" lon="10.129425">
<ele>452</ele>
<time>2019-05-29T09:54:51Z</time>
</trkpt>
<trkpt lat="48.880928" lon="10.129593">
<ele>453</ele>
<time>2019-05-29T09:54:56Z</time>
</trkpt>
<trkpt lat="48.881018" lon="10.129758">
<ele>454</ele>
<time>2019-05-29T09:55:01Z</time>
</trkpt>
<trkpt lat="48.88114" lon="10.129905">
<ele>456</ele>
<time>2019-05-29T09:55:07Z</time>
</trkpt>
<trkpt lat="48.881283" lon="10.129873">
<ele>457</ele>
<time>2019-05-29T09:55:12Z</time>
</trkpt>
<trkpt lat="48.881417" lon="10.129972">
<ele>457</ele>
<time>2019-05-29T09:55:17Z</time>
</trkpt>
<trkpt lat="48.881505" lon="10.130148">
<ele>458</ele>
<time>2019-05-29T09:55:22Z</time>
</trkpt>
<trkpt lat="48.881598" lon="10.130313">
<ele>459</ele>
<time>2019-05-29T09:55:27Z</time>
</trkpt>
<trkpt lat="48.881693" lon="10.130472">
<ele>460</ele>
<time>2019-05-29T09:55:32Z</time>
</trkpt>
<trkpt lat="48.881787" lon="10.130627">
<ele>460</ele>
<time>2019-05-29T09:55:37Z</time>
</trkpt>
<trkpt lat="48.881885" lon="10.130793">
<ele>461</ele>
<time>2019-05-29T09:55:42Z</time>
</trkpt>
<trkpt lat="48.881995" lon="10.130993">
<ele>462</ele>
<time>2019-05-29T09:55:48Z</time>
</trkpt>
<trkpt lat="48.882082" lon="10.131165">
<ele>463</ele>
<time>2019-05-29T09:55:53Z</time>
</trkpt>
<trkpt lat="48.882177" lon="10.131347">
<ele>464</ele>
<time>2019-05-29T09:55:58Z</time>
</trkpt>
<trkpt lat="48.882263" lon="10.131533">
<ele>465</ele>
<time>2019-05-29T09:56:03Z</time>
</trkpt>
<trkpt lat="48.882342" lon="10.13173">
<ele>465</ele>
<time>2019-05-29T09:56:08Z</time>
</trkpt>
<trkpt lat="48.88241" lon="10.131945">
<ele>466</ele>
<time>2019-05-29T09:56:13Z</time>
</trkpt>
<trkpt lat="48.882452" lon="10.132173">
<ele>466</ele>
<time>2019-05-29T09:56:18Z</time>
</trkpt>
<trkpt lat="48.882522" lon="10.132367">
<ele>467</ele>
<time>2019-05-29T09:56:23Z</time>
</trkpt>
<trkpt lat="48.882612" lon="10.132615">
<ele>467</ele>
<time>2019-05-29T09:56:29Z</time>
</trkpt>
<trkpt lat="48.882695" lon="10.13281">
<ele>468</ele>
<time>2019-05-29T09:56:34Z</time>
</trkpt>
<trkpt lat="48.882798" lon="10.132985">
<ele>468</ele>
<time>2019-05-29T09:56:39Z</time>
</trkpt>
<trkpt lat="48.882893" lon="10.133178">
<ele>468</ele>
<time>2019-05-29T09:56:44Z</time>
</trkpt>
<trkpt lat="48.882982" lon="10.133402">
<ele>468</ele>
<time>2019-05-29T09:56:49Z</time>
</trkpt>
<trkpt lat="48.883065" lon="10.133622">
<ele>468</ele>
<time>2019-05-29T09:56:54Z</time>
</trkpt>
<trkpt lat="48.883142" lon="10.133813">
<ele>468</ele>
<time>2019-05-29T09:56:59Z</time>
</trkpt>
<trkpt lat="48.883218" lon="10.13402">
<ele>468</ele>
<time>2019-05-29T09:57:04Z</time>
</trkpt>
<trkpt lat="48.883313" lon="10.134288">
<ele>468</ele>
<time>2019-05-29T09:57:10Z</time>
</trkpt>
<trkpt lat="48.883398" lon="10.134517">
<ele>468</ele>
<time>2019-05-29T09:57:15Z</time>
</trkpt>
<trkpt lat="48.883467" lon="10.134788">
<ele>468</ele>
<time>2019-05-29T09:57:20Z</time>
</trkpt>
<trkpt lat="48.883492" lon="10.13503">
<ele>468</ele>
<time>2019-05-29T09:57:25Z</time>
</trkpt>
<trkpt lat="48.883635" lon="10.135133">
<ele>467</ele>
<time>2019-05-29T09:57:30Z</time>
</trkpt>
<trkpt lat="48.88375" lon="10.135443">
<ele>466</ele>
<time>2019-05-29T09:57:35Z</time>
</trkpt>
<trkpt lat="48.883882" lon="10.135823">
<ele>466</ele>
<time>2019-05-29T09:57:40Z</time>
</trkpt>
<trkpt lat="48.884062" lon="10.136282">
<ele>464</ele>
<time>2019-05-29T09:57:45Z</time>
</trkpt>
<trkpt lat="48.8843" lon="10.136873">
<ele>463</ele>
<time>2019-05-29T09:57:51Z</time>
</trkpt>
<trkpt lat="48.8845" lon="10.13737">
<ele>462</ele>
<time>2019-05-29T09:57:56Z</time>
</trkpt>
<trkpt lat="48.884685" lon="10.13784">
<ele>462</ele>
<time>2019-05-29T09:58:01Z</time>
</trkpt>
<trkpt lat="48.88484" lon="10.13824">
<ele>462</ele>
<time>2019-05-29T09:58:06Z</time>
</trkpt>
<trkpt lat="48.884988" lon="10.138627">
<ele>462</ele>
<time>2019-05-29T09:58:11Z</time>
</trkpt>
<trkpt lat="48.885142" lon="10.13901">
<ele>462</ele>
<time>2019-05-29T09:58:16Z</time>
</trkpt>
<trkpt lat="48.885283" lon="10.139393">
<ele>463</ele>
<time>2019-05-29T09:58:21Z</time>
</trkpt>
<trkpt lat="48.885418" lon="10.13976">
<ele>464</ele>
<time>2019-05-29T09:58:26Z</time>
</trkpt>
<trkpt lat="48.885537" lon="10.140105">
<ele>464</ele>
<time>2019-05-29T09:58:32Z</time>
</trkpt>
<trkpt lat="48.88563" lon="10.140373">
<ele>465</ele>
<time>2019-05-29T09:58:37Z</time>
</trkpt>
<trkpt lat="48.885713" lon="10.140627">
<ele>466</ele>
<time>2019-05-29T09:58:42Z</time>
</trkpt>
<trkpt lat="48.885798" lon="10.140855">
<ele>468</ele>
<time>2019-05-29T09:58:47Z</time>
</trkpt>
<trkpt lat="48.885877" lon="10.141088">
<ele>468</ele>
<time>2019-05-29T09:58:52Z</time>
</trkpt>
<trkpt lat="48.885948" lon="10.141327">
<ele>469</ele>
<time>2019-05-29T09:58:57Z</time>
</trkpt>
<trkpt lat="48.886027" lon="10.141548">
<ele>470</ele>
<time>2019-05-29T09:59:02Z</time>
</trkpt>
<trkpt lat="48.886102" lon="10.141797">
<ele>471</ele>
<time>2019-05-29T09:59:07Z</time>
</trkpt>
<trkpt lat="48.886185" lon="10.14213">
<ele>471</ele>
<time>2019-05-29T09:59:13Z</time>
</trkpt>
<trkpt lat="48.886257" lon="10.142417">
<ele>472</ele>
<time>2019-05-29T09:59:18Z</time>
</trkpt>
<trkpt lat="48.88633" lon="10.14271">
<ele>472</ele>
<time>2019-05-29T09:59:23Z</time>
</trkpt>
<trkpt lat="48.886407" lon="10.143">
<ele>472</ele>
<time>2019-05-29T09:59:28Z</time>
</trkpt>
<trkpt lat="48.886483" lon="10.143303">
<ele>473</ele>
<time>2019-05-29T09:59:33Z</time>
</trkpt>
<trkpt lat="48.886552" lon="10.1436">
<ele>473</ele>
<time>2019-05-29T09:59:38Z</time>
</trkpt>
<trkpt lat="48.886615" lon="10.143873">
<ele>473</ele>
<time>2019-05-29T09:59:43Z</time>
</trkpt>
<trkpt lat="48.88667" lon="10.144103">
<ele>474</ele>
<time>2019-05-29T09:59:48Z</time>
</trkpt>
<trkpt lat="48.886737" lon="10.144375">
<ele>476</ele>
<time>2019-05-29T09:59:54Z</time>
</trkpt>
<trkpt lat="48.886785" lon="10.144577">
<ele>477</ele>
<time>2019-05-29T09:59:59Z</time>
</trkpt>
<trkpt lat="48.886832" lon="10.144767">
<ele>478</ele>
<time>2019-05-29T10:00:04Z</time>
</trkpt>
<trkpt lat="48.886883" lon="10.144965">
<ele>479</ele>
<time>2019-05-29T10:00:09Z</time>
</trkpt>
<trkpt lat="48.886942" lon="10.145153">
<ele>480</ele>
<time>2019-05-29T10:00:14Z</time>
</trkpt>
<trkpt lat="48.886988" lon="10.145343">
<ele>481</ele>
<time>2019-05-29T10:00:19Z</time>
</trkpt>
<trkpt lat="48.887038" lon="10.145542">
<ele>481</ele>
<time>2019-05-29T10:00:24Z</time>
</trkpt>
<trkpt lat="48.88709" lon="10.14575">
<ele>482</ele>
<time>2019-05-29T10:00:29Z</time>
</trkpt>
<trkpt lat="48.887147" lon="10.146002">
<ele>483</ele>
<time>2019-05-29T10:00:35Z</time>
</trkpt>
<trkpt lat="48.887198" lon="10.146207">
<ele>484</ele>
<time>2019-05-29T10:00:40Z</time>
</trkpt>
<trkpt lat="48.887237" lon="10.146387">
<ele>485</ele>
<time>2019-05-29T10:00:45Z</time>
</trkpt>
<trkpt lat="48.88724" lon="10.146407">
<ele>485</ele>
<time>2019-05-29T10:00:50Z</time>
</trkpt>
<trkpt lat="48.887242" lon="10.146407">
<ele>485</ele>
<time>2019-05-29T10:00:55Z</time>
</trkpt>
<trkpt lat="48.887243" lon="10.146408">
<ele>485</ele>
<time>2019-05-29T10:01:10Z</time>
</trkpt>
<trkpt lat="48.88729" lon="10.146522">
<ele>485</ele>
<time>2019-05-29T10:01:16Z</time>
</trkpt>
<trkpt lat="48.887357" lon="10.14679">
<ele>486</ele>
<time>2019-05-29T10:01:21Z</time>
</trkpt>
<trkpt lat="48.88743" lon="10.14708">
<ele>487</ele>
<time>2019-05-29T10:01:26Z</time>
</trkpt>
<trkpt lat="48.887512" lon="10.147398">
<ele>488</ele>
<time>2019-05-29T10:01:31Z</time>
</trkpt>
<trkpt lat="48.887602" lon="10.147757">
<ele>488</ele>
<time>2019-05-29T10:01:36Z</time>
</trkpt>
<trkpt lat="48.887707" lon="10.14815">
<ele>488</ele>
<time>2019-05-29T10:01:41Z</time>
</trkpt>
<trkpt lat="48.887807" lon="10.148567">
<ele>488</ele>
<time>2019-05-29T10:01:46Z</time>
</trkpt>
<trkpt lat="48.887898" lon="10.148995">
<ele>488</ele>
<time>2019-05-29T10:01:51Z</time>
</trkpt>
<trkpt lat="48.887963" lon="10.149558">
<ele>488</ele>
<time>2019-05-29T10:01:57Z</time>
</trkpt>
<trkpt lat="48.888003" lon="10.150035">
<ele>489</ele>
<time>2019-05-29T10:02:02Z</time>
</trkpt>
<trkpt lat="48.888008" lon="10.150553">
<ele>489</ele>
<time>2019-05-29T10:02:07Z</time>
</trkpt>
<trkpt lat="48.887995" lon="10.151108">
<ele>489</ele>
<time>2019-05-29T10:02:12Z</time>
</trkpt>
<trkpt lat="48.887943" lon="10.15164">
<ele>490</ele>
<time>2019-05-29T10:02:17Z</time>
</trkpt>
<trkpt lat="48.887885" lon="10.152043">
<ele>490</ele>
<time>2019-05-29T10:02:22Z</time>
</trkpt>
<trkpt lat="48.887832" lon="10.15237">
<ele>490</ele>
<time>2019-05-29T10:02:27Z</time>
</trkpt>
<trkpt lat="48.887742" lon="10.152653">
<ele>491</ele>
<time>2019-05-29T10:02:32Z</time>
</trkpt>
<trkpt lat="48.887637" lon="10.153008">
<ele>491</ele>
<time>2019-05-29T10:02:38Z</time>
</trkpt>
<trkpt lat="48.887535" lon="10.153342">
<ele>491</ele>
<time>2019-05-29T10:02:43Z</time>
</trkpt>
<trkpt lat="48.88757" lon="10.153692">
<ele>489</ele>
<time>2019-05-29T10:02:48Z</time>
</trkpt>
<trkpt lat="48.887815" lon="10.153853">
<ele>489</ele>
<time>2019-05-29T10:02:53Z</time>
</trkpt>
<trkpt lat="48.888122" lon="10.153953">
<ele>489</ele>
<time>2019-05-29T10:02:58Z</time>
</trkpt>
<trkpt lat="48.88841" lon="10.154008">
<ele>489</ele>
<time>2019-05-29T10:03:03Z</time>
</trkpt>
<trkpt lat="48.888702" lon="10.153962">
<ele>489</ele>
<time>2019-05-29T10:03:08Z</time>
</trkpt>
<trkpt lat="48.888988" lon="10.153923">
<ele>489</ele>
<time>2019-05-29T10:03:13Z</time>
</trkpt>
<trkpt lat="48.88931" lon="10.154058">
<ele>489</ele>
<time>2019-05-29T10:03:19Z</time>
</trkpt>
<trkpt lat="48.88957" lon="10.154205">
<ele>489</ele>
<time>2019-05-29T10:03:24Z</time>
</trkpt>
<trkpt lat="48.889798" lon="10.154385">
<ele>489</ele>
<time>2019-05-29T10:03:29Z</time>
</trkpt>
<trkpt lat="48.890008" lon="10.154592">
<ele>490</ele>
<time>2019-05-29T10:03:34Z</time>
</trkpt>
<trkpt lat="48.890207" lon="10.154828">
<ele>491</ele>
<time>2019-05-29T10:03:39Z</time>
</trkpt>
<trkpt lat="48.890383" lon="10.15507">
<ele>491</ele>
<time>2019-05-29T10:03:44Z</time>
</trkpt>
<trkpt lat="48.890525" lon="10.155323">
<ele>492</ele>
<time>2019-05-29T10:03:49Z</time>
</trkpt>
<trkpt lat="48.890665" lon="10.155608">
<ele>492</ele>
<time>2019-05-29T10:03:54Z</time>
</trkpt>
<trkpt lat="48.89083" lon="10.155985">
<ele>492</ele>
<time>2019-05-29T10:04:00Z</time>
</trkpt>
<trkpt lat="48.890973" lon="10.15632">
<ele>492</ele>
<time>2019-05-29T10:04:05Z</time>
</trkpt>
<trkpt lat="48.891093" lon="10.156628">
<ele>492</ele>
<time>2019-05-29T10:04:10Z</time>
</trkpt>
<trkpt lat="48.891255" lon="10.156947">
<ele>491</ele>
<time>2019-05-29T10:04:15Z</time>
</trkpt>
<trkpt lat="48.89143" lon="10.157332">
<ele>489</ele>
<time>2019-05-29T10:04:20Z</time>
</trkpt>
<trkpt lat="48.891658" lon="10.157755">
<ele>489</ele>
<time>2019-05-29T10:04:25Z</time>
</trkpt>
<trkpt lat="48.891938" lon="10.1582">
<ele>488</ele>
<time>2019-05-29T10:04:30Z</time>
</trkpt>
<trkpt lat="48.892253" lon="10.158598">
<ele>486</ele>
<time>2019-05-29T10:04:35Z</time>
</trkpt>
<trkpt lat="48.892665" lon="10.159018">
<ele>484</ele>
<time>2019-05-29T10:04:41Z</time>
</trkpt>
<trkpt lat="48.893105" lon="10.159377">
<ele>482</ele>
<time>2019-05-29T10:04:47Z</time>
</trkpt>
<trkpt lat="48.893472" lon="10.159632">
<ele>481</ele>
<time>2019-05-29T10:04:52Z</time>
</trkpt>
<trkpt lat="48.893817" lon="10.159853">
<ele>480</ele>
<time>2019-05-29T10:04:57Z</time>
</trkpt>
<trkpt lat="48.894148" lon="10.160042">
<ele>480</ele>
<time>2019-05-29T10:05:02Z</time>
</trkpt>
<trkpt lat="48.894445" lon="10.160205">
<ele>479</ele>
<time>2019-05-29T10:05:07Z</time>
</trkpt>
<trkpt lat="48.894733" lon="10.160342">
<ele>479</ele>
<time>2019-05-29T10:05:12Z</time>
</trkpt>
<trkpt lat="48.895038" lon="10.160475">
<ele>478</ele>
<time>2019-05-29T10:05:17Z</time>
</trkpt>
<trkpt lat="48.895303" lon="10.160595">
<ele>477</ele>
<time>2019-05-29T10:05:22Z</time>
</trkpt>
<trkpt lat="48.89553" lon="10.160473">
<ele>476</ele>
<time>2019-05-29T10:05:27Z</time>
</trkpt>
<trkpt lat="48.89568" lon="10.160118">
<ele>475</ele>
<time>2019-05-29T10:05:32Z</time>
</trkpt>
<trkpt lat="48.895798" lon="10.15977">
<ele>472</ele>
<time>2019-05-29T10:05:37Z</time>
</trkpt>
<trkpt lat="48.895907" lon="10.15943">
<ele>470</ele>
<time>2019-05-29T10:05:42Z</time>
</trkpt>
<trkpt lat="48.895848" lon="10.159103">
<ele>468</ele>
<time>2019-05-29T10:05:47Z</time>
</trkpt>
<trkpt lat="48.89588" lon="10.158805">
<ele>468</ele>
<time>2019-05-29T10:05:52Z</time>
</trkpt>
<trkpt lat="48.896048" lon="10.158693">
<ele>468</ele>
<time>2019-05-29T10:05:57Z</time>
</trkpt>
<trkpt lat="48.896293" lon="10.159038">
<ele>466</ele>
<time>2019-05-29T10:06:03Z</time>
</trkpt>
<trkpt lat="48.89662" lon="10.159247">
<ele>466</ele>
<time>2019-05-29T10:06:08Z</time>
</trkpt>
<trkpt lat="48.89694" lon="10.159397">
<ele>465</ele>
<time>2019-05-29T10:06:13Z</time>
</trkpt>
<trkpt lat="48.897282" lon="10.159453">
<ele>464</ele>
<time>2019-05-29T10:06:18Z</time>
</trkpt>
<trkpt lat="48.897707" lon="10.159607">
<ele>462</ele>
<time>2019-05-29T10:06:24Z</time>
</trkpt>
<trkpt lat="48.897987" lon="10.159707">
<ele>461</ele>
<time>2019-05-29T10:06:29Z</time>
</trkpt>
<trkpt lat="48.898232" lon="10.159727">
<ele>461</ele>
<time>2019-05-29T10:06:34Z</time>
</trkpt>
<trkpt lat="48.898452" lon="10.15983">
<ele>460</ele>
<time>2019-05-29T10:06:39Z</time>
</trkpt>
<trkpt lat="48.898735" lon="10.160107">
<ele>460</ele>
<time>2019-05-29T10:06:44Z</time>
</trkpt>
<trkpt lat="48.89906" lon="10.160373">
<ele>459</ele>
<time>2019-05-29T10:06:49Z</time>
</trkpt>
<trkpt lat="48.899353" lon="10.160667">
<ele>458</ele>
<time>2019-05-29T10:06:54Z</time>
</trkpt>
<trkpt lat="48.89959" lon="10.160995">
<ele>458</ele>
<time>2019-05-29T10:06:59Z</time>
</trkpt>
<trkpt lat="48.899795" lon="10.16129">
<ele>459</ele>
<time>2019-05-29T10:07:04Z</time>
</trkpt>
<trkpt lat="48.899968" lon="10.161555">
<ele>460</ele>
<time>2019-05-29T10:07:09Z</time>
</trkpt>
<trkpt lat="48.900117" lon="10.161815">
<ele>460</ele>
<time>2019-05-29T10:07:14Z</time>
</trkpt>
<trkpt lat="48.900242" lon="10.162093">
<ele>460</ele>
<time>2019-05-29T10:07:19Z</time>
</trkpt>
<trkpt lat="48.900367" lon="10.16245">
<ele>460</ele>
<time>2019-05-29T10:07:25Z</time>
</trkpt>
<trkpt lat="48.900467" lon="10.162782">
<ele>460</ele>
<time>2019-05-29T10:07:30Z</time>
</trkpt>
<trkpt lat="48.900545" lon="10.163162">
<ele>460</ele>
<time>2019-05-29T10:07:35Z</time>
</trkpt>
<trkpt lat="48.900608" lon="10.163615">
<ele>458</ele>
<time>2019-05-29T10:07:40Z</time>
</trkpt>
<trkpt lat="48.900637" lon="10.164117">
<ele>456</ele>
<time>2019-05-29T10:07:45Z</time>
</trkpt>
<trkpt lat="48.900667" lon="10.164625">
<ele>453</ele>
<time>2019-05-29T10:07:50Z</time>
</trkpt>
<trkpt lat="48.90073" lon="10.165097">
<ele>452</ele>
<time>2019-05-29T10:07:55Z</time>
</trkpt>
<trkpt lat="48.900648" lon="10.16561">
<ele>451</ele>
<time>2019-05-29T10:08:00Z</time>
</trkpt>
<trkpt lat="48.900567" lon="10.166272">
<ele>450</ele>
<time>2019-05-29T10:08:06Z</time>
</trkpt>
<trkpt lat="48.900512" lon="10.166827">
<ele>450</ele>
<time>2019-05-29T10:08:11Z</time>
</trkpt>
<trkpt lat="48.90047" lon="10.167372">
<ele>450</ele>
<time>2019-05-29T10:08:16Z</time>
</trkpt>
<trkpt lat="48.900467" lon="10.167895">
<ele>449</ele>
<time>2019-05-29T10:08:21Z</time>
</trkpt>
<trkpt lat="48.900495" lon="10.16843">
<ele>449</ele>
<time>2019-05-29T10:08:26Z</time>
</trkpt>
<trkpt lat="48.900597" lon="10.168938">
<ele>449</ele>
<time>2019-05-29T10:08:31Z</time>
</trkpt>
<trkpt lat="48.900763" lon="10.169362">
<ele>448</ele>
<time>2019-05-29T10:08:36Z</time>
</trkpt>
<trkpt lat="48.900843" lon="10.16976">
<ele>447</ele>
<time>2019-05-29T10:08:41Z</time>
</trkpt>
<trkpt lat="48.901007" lon="10.17013">
<ele>447</ele>
<time>2019-05-29T10:08:47Z</time>
</trkpt>
<trkpt lat="48.901198" lon="10.170438">
<ele>447</ele>
<time>2019-05-29T10:08:52Z</time>
</trkpt>
<trkpt lat="48.901417" lon="10.170693">
<ele>447</ele>
<time>2019-05-29T10:08:57Z</time>
</trkpt>
<trkpt lat="48.901615" lon="10.170883">
<ele>447</ele>
<time>2019-05-29T10:09:02Z</time>
</trkpt>
<trkpt lat="48.901808" lon="10.170938">
<ele>447</ele>
<time>2019-05-29T10:09:07Z</time>
</trkpt>
<trkpt lat="48.901918" lon="10.1706">
<ele>447</ele>
<time>2019-05-29T10:09:12Z</time>
</trkpt>
<trkpt lat="48.902008" lon="10.170113">
<ele>447</ele>
<time>2019-05-29T10:09:17Z</time>
</trkpt>
<trkpt lat="48.90211" lon="10.169608">
<ele>446</ele>
<time>2019-05-29T10:09:22Z</time>
</trkpt>
<trkpt lat="48.90222" lon="10.169035">
<ele>446</ele>
<time>2019-05-29T10:09:28Z</time>
</trkpt>
<trkpt lat="48.90231" lon="10.168557">
<ele>446</ele>
<time>2019-05-29T10:09:33Z</time>
</trkpt>
<trkpt lat="48.902408" lon="10.168097">
<ele>446</ele>
<time>2019-05-29T10:09:38Z</time>
</trkpt>
<trkpt lat="48.90253" lon="10.167685">
<ele>446</ele>
<time>2019-05-29T10:09:43Z</time>
</trkpt>
<trkpt lat="48.902768" lon="10.167393">
<ele>445</ele>
<time>2019-05-29T10:09:48Z</time>
</trkpt>
<trkpt lat="48.903005" lon="10.16711">
<ele>445</ele>
<time>2019-05-29T10:09:53Z</time>
</trkpt>
<trkpt lat="48.90324" lon="10.166837">
<ele>445</ele>
<time>2019-05-29T10:09:58Z</time>
</trkpt>
<trkpt lat="48.903478" lon="10.166598">
<ele>445</ele>
<time>2019-05-29T10:10:03Z</time>
</trkpt>
<trkpt lat="48.90374" lon="10.166308">
<ele>445</ele>
<time>2019-05-29T10:10:09Z</time>
</trkpt>
<trkpt lat="48.903893" lon="10.165947">
<ele>445</ele>
<time>2019-05-29T10:10:14Z</time>
</trkpt>
<trkpt lat="48.904018" lon="10.165538">
<ele>445</ele>
<time>2019-05-29T10:10:19Z</time>
</trkpt>
<trkpt lat="48.904128" lon="10.16513">
<ele>444</ele>
<time>2019-05-29T10:10:24Z</time>
</trkpt>
<trkpt lat="48.904275" lon="10.164772">
<ele>444</ele>
<time>2019-05-29T10:10:29Z</time>
</trkpt>
<trkpt lat="48.904468" lon="10.164432">
<ele>444</ele>
<time>2019-05-29T10:10:34Z</time>
</trkpt>
<trkpt lat="48.904653" lon="10.164107">
<ele>444</ele>
<time>2019-05-29T10:10:39Z</time>
</trkpt>
<trkpt lat="48.90481" lon="10.163772">
<ele>444</ele>
<time>2019-05-29T10:10:44Z</time>
</trkpt>
<trkpt lat="48.904953" lon="10.163285">
<ele>444</ele>
<time>2019-05-29T10:10:50Z</time>
</trkpt>
<trkpt lat="48.905022" lon="10.162865">
<ele>444</ele>
<time>2019-05-29T10:10:55Z</time>
</trkpt>
<trkpt lat="48.905182" lon="10.162522">
<ele>444</ele>
<time>2019-05-29T10:11:00Z</time>
</trkpt>
<trkpt lat="48.90544" lon="10.162283">
<ele>444</ele>
<time>2019-05-29T10:11:05Z</time>
</trkpt>
<trkpt lat="48.905692" lon="10.162062">
<ele>444</ele>
<time>2019-05-29T10:11:10Z</time>
</trkpt>
<trkpt lat="48.905917" lon="10.16187">
<ele>444</ele>
<time>2019-05-29T10:11:15Z</time>
</trkpt>
<trkpt lat="48.906118" lon="10.16167">
<ele>445</ele>
<time>2019-05-29T10:11:20Z</time>
</trkpt>
<trkpt lat="48.906312" lon="10.161478">
<ele>445</ele>
<time>2019-05-29T10:11:25Z</time>
</trkpt>
<trkpt lat="48.906492" lon="10.161215">
<ele>446</ele>
<time>2019-05-29T10:11:31Z</time>
</trkpt>
<trkpt lat="48.906635" lon="10.160972">
<ele>446</ele>
<time>2019-05-29T10:11:36Z</time>
</trkpt>
<trkpt lat="48.906792" lon="10.160687">
<ele>446</ele>
<time>2019-05-29T10:11:41Z</time>
</trkpt>
<trkpt lat="48.906963" lon="10.160377">
<ele>446</ele>
<time>2019-05-29T10:11:46Z</time>
</trkpt>
<trkpt lat="48.907158" lon="10.160053">
<ele>446</ele>
<time>2019-05-29T10:11:51Z</time>
</trkpt>
<trkpt lat="48.907343" lon="10.159707">
<ele>446</ele>
<time>2019-05-29T10:11:56Z</time>
</trkpt>
<trkpt lat="48.90752" lon="10.159332">
<ele>446</ele>
<time>2019-05-29T10:12:01Z</time>
</trkpt>
<trkpt lat="48.907702" lon="10.158938">
<ele>445</ele>
<time>2019-05-29T10:12:06Z</time>
</trkpt>
<trkpt lat="48.907945" lon="10.158492">
<ele>445</ele>
<time>2019-05-29T10:12:12Z</time>
</trkpt>
<trkpt lat="48.908147" lon="10.158132">
<ele>445</ele>
<time>2019-05-29T10:12:17Z</time>
</trkpt>
<trkpt lat="48.908363" lon="10.157772">
<ele>445</ele>
<time>2019-05-29T10:12:22Z</time>
</trkpt>
<trkpt lat="48.908583" lon="10.157432">
<ele>445</ele>
<time>2019-05-29T10:12:27Z</time>
</trkpt>
<trkpt lat="48.9088" lon="10.157118">
<ele>445</ele>
<time>2019-05-29T10:12:32Z</time>
</trkpt>
<trkpt lat="48.909028" lon="10.156795">
<ele>445</ele>
<time>2019-05-29T10:12:37Z</time>
</trkpt>
<trkpt lat="48.909257" lon="10.156457">
<ele>445</ele>
<time>2019-05-29T10:12:42Z</time>
</trkpt>
<trkpt lat="48.909448" lon="10.156132">
<ele>445</ele>
<time>2019-05-29T10:12:47Z</time>
</trkpt>
<trkpt lat="48.909675" lon="10.155747">
<ele>445</ele>
<time>2019-05-29T10:12:53Z</time>
</trkpt>
<trkpt lat="48.90986" lon="10.15541">
<ele>445</ele>
<time>2019-05-29T10:12:58Z</time>
</trkpt>
<trkpt lat="48.910035" lon="10.155045">
<ele>445</ele>
<time>2019-05-29T10:13:03Z</time>
</trkpt>
<trkpt lat="48.91019" lon="10.154648">
<ele>445</ele>
<time>2019-05-29T10:13:08Z</time>
</trkpt>
<trkpt lat="48.91027" lon="10.154237">
<ele>445</ele>
<time>2019-05-29T10:13:13Z</time>
</trkpt>
<trkpt lat="48.91034" lon="10.153813">
<ele>445</ele>
<time>2019-05-29T10:13:18Z</time>
</trkpt>
<trkpt lat="48.91042" lon="10.153428">
<ele>444</ele>
<time>2019-05-29T10:13:23Z</time>
</trkpt>
<trkpt lat="48.910542" lon="10.153027">
<ele>444</ele>
<time>2019-05-29T10:13:28Z</time>
</trkpt>
<trkpt lat="48.910735" lon="10.152533">
<ele>444</ele>
<time>2019-05-29T10:13:34Z</time>
</trkpt>
<trkpt lat="48.910915" lon="10.152098">
<ele>444</ele>
<time>2019-05-29T10:13:39Z</time>
</trkpt>
<trkpt lat="48.911092" lon="10.151638">
<ele>444</ele>
<time>2019-05-29T10:13:44Z</time>
</trkpt>
<trkpt lat="48.911207" lon="10.151203">
<ele>444</ele>
<time>2019-05-29T10:13:49Z</time>
</trkpt>
<trkpt lat="48.911347" lon="10.15078">
<ele>444</ele>
<time>2019-05-29T10:13:54Z</time>
</trkpt>
<trkpt lat="48.911482" lon="10.150335">
<ele>444</ele>
<time>2019-05-29T10:13:59Z</time>
</trkpt>
<trkpt lat="48.911683" lon="10.149942">
<ele>444</ele>
<time>2019-05-29T10:14:04Z</time>
</trkpt>
<trkpt lat="48.911955" lon="10.149722">
<ele>444</ele>
<time>2019-05-29T10:14:09Z</time>
</trkpt>
<trkpt lat="48.912312" lon="10.149607">
<ele>444</ele>
<time>2019-05-29T10:14:15Z</time>
</trkpt>
<trkpt lat="48.912637" lon="10.149592">
<ele>444</ele>
<time>2019-05-29T10:14:20Z</time>
</trkpt>
<trkpt lat="48.912963" lon="10.149593">
<ele>444</ele>
<time>2019-05-29T10:14:25Z</time>
</trkpt>
<trkpt lat="48.91328" lon="10.14955">
<ele>444</ele>
<time>2019-05-29T10:14:30Z</time>
</trkpt>
<trkpt lat="48.913592" lon="10.149447">
<ele>443</ele>
<time>2019-05-29T10:14:35Z</time>
</trkpt>
<trkpt lat="48.91385" lon="10.149357">
<ele>443</ele>
<time>2019-05-29T10:14:40Z</time>
</trkpt>
<trkpt lat="48.914083" lon="10.14924">
<ele>443</ele>
<time>2019-05-29T10:14:45Z</time>
</trkpt>
<trkpt lat="48.914298" lon="10.14905">
<ele>443</ele>
<time>2019-05-29T10:14:50Z</time>
</trkpt>
<trkpt lat="48.914598" lon="10.14877">
<ele>443</ele>
<time>2019-05-29T10:14:56Z</time>
</trkpt>
<trkpt lat="48.91485" lon="10.148502">
<ele>443</ele>
<time>2019-05-29T10:15:01Z</time>
</trkpt>
<trkpt lat="48.915043" lon="10.148148">
<ele>443</ele>
<time>2019-05-29T10:15:06Z</time>
</trkpt>
<trkpt lat="48.915195" lon="10.1478">
<ele>443</ele>
<time>2019-05-29T10:15:11Z</time>
</trkpt>
<trkpt lat="48.915342" lon="10.147445">
<ele>443</ele>
<time>2019-05-29T10:15:16Z</time>
</trkpt>
<trkpt lat="48.915487" lon="10.147095">
<ele>443</ele>
<time>2019-05-29T10:15:21Z</time>
</trkpt>
<trkpt lat="48.915623" lon="10.146805">
<ele>443</ele>
<time>2019-05-29T10:15:26Z</time>
</trkpt>
<trkpt lat="48.915703" lon="10.14649">
<ele>443</ele>
<time>2019-05-29T10:15:31Z</time>
</trkpt>
<trkpt lat="48.915507" lon="10.146238">
<ele>443</ele>
<time>2019-05-29T10:15:37Z</time>
</trkpt>
<trkpt lat="48.915247" lon="10.146065">
<ele>443</ele>
<time>2019-05-29T10:15:42Z</time>
</trkpt>
<trkpt lat="48.915007" lon="10.145867">
<ele>444</ele>
<time>2019-05-29T10:15:47Z</time>
</trkpt>
<trkpt lat="48.914787" lon="10.14567">
<ele>444</ele>
<time>2019-05-29T10:15:52Z</time>
</trkpt>
<trkpt lat="48.914592" lon="10.145455">
<ele>444</ele>
<time>2019-05-29T10:15:57Z</time>
</trkpt>
<trkpt lat="48.91441" lon="10.145242">
<ele>444</ele>
<time>2019-05-29T10:16:02Z</time>
</trkpt>
<trkpt lat="48.91427" lon="10.145038">
<ele>445</ele>
<time>2019-05-29T10:16:07Z</time>
</trkpt>
<trkpt lat="48.914165" lon="10.14485">
<ele>446</ele>
<time>2019-05-29T10:16:12Z</time>
</trkpt>
<trkpt lat="48.91412" lon="10.144618">
<ele>447</ele>
<time>2019-05-29T10:16:18Z</time>
</trkpt>
<trkpt lat="48.914252" lon="10.144375">
<ele>447</ele>
<time>2019-05-29T10:16:23Z</time>
</trkpt>
<trkpt lat="48.91449" lon="10.144067">
<ele>447</ele>
<time>2019-05-29T10:16:28Z</time>
</trkpt>
<trkpt lat="48.914815" lon="10.143762">
<ele>445</ele>
<time>2019-05-29T10:16:33Z</time>
</trkpt>
<trkpt lat="48.915183" lon="10.1435">
<ele>443</ele>
<time>2019-05-29T10:16:38Z</time>
</trkpt>
<trkpt lat="48.915577" lon="10.143245">
<ele>442</ele>
<time>2019-05-29T10:16:43Z</time>
</trkpt>
<trkpt lat="48.915963" lon="10.142982">
<ele>441</ele>
<time>2019-05-29T10:16:48Z</time>
</trkpt>
<trkpt lat="48.916293" lon="10.14275">
<ele>441</ele>
<time>2019-05-29T10:16:53Z</time>
</trkpt>
<trkpt lat="48.916618" lon="10.142543">
<ele>441</ele>
<time>2019-05-29T10:16:59Z</time>
</trkpt>
<trkpt lat="48.916865" lon="10.14242">
<ele>441</ele>
<time>2019-05-29T10:17:04Z</time>
</trkpt>
<trkpt lat="48.917117" lon="10.14231">
<ele>442</ele>
<time>2019-05-29T10:17:09Z</time>
</trkpt>
<trkpt lat="48.91738" lon="10.142208">
<ele>442</ele>
<time>2019-05-29T10:17:14Z</time>
</trkpt>
<trkpt lat="48.91765" lon="10.142117">
<ele>442</ele>
<time>2019-05-29T10:17:19Z</time>
</trkpt>
<trkpt lat="48.917923" lon="10.142058">
<ele>442</ele>
<time>2019-05-29T10:17:24Z</time>
</trkpt>
<trkpt lat="48.91821" lon="10.142008">
<ele>442</ele>
<time>2019-05-29T10:17:29Z</time>
</trkpt>
<trkpt lat="48.918502" lon="10.141985">
<ele>442</ele>
<time>2019-05-29T10:17:34Z</time>
</trkpt>
<trkpt lat="48.918865" lon="10.141968">
<ele>442</ele>
<time>2019-05-29T10:17:40Z</time>
</trkpt>
<trkpt lat="48.919155" lon="10.141968">
<ele>442</ele>
<time>2019-05-29T10:17:45Z</time>
</trkpt>
<trkpt lat="48.919488" lon="10.142005">
<ele>442</ele>
<time>2019-05-29T10:17:51Z</time>
</trkpt>
<trkpt lat="48.91977" lon="10.142058">
<ele>441</ele>
<time>2019-05-29T10:17:56Z</time>
</trkpt>
<trkpt lat="48.920037" lon="10.142133">
<ele>439</ele>
<time>2019-05-29T10:18:01Z</time>
</trkpt>
<trkpt lat="48.920287" lon="10.142247">
<ele>439</ele>
<time>2019-05-29T10:18:06Z</time>
</trkpt>
<trkpt lat="48.92064" lon="10.142235">
<ele>438</ele>
<time>2019-05-29T10:18:11Z</time>
</trkpt>
<trkpt lat="48.921028" lon="10.141983">
<ele>436</ele>
<time>2019-05-29T10:18:17Z</time>
</trkpt>
<trkpt lat="48.921243" lon="10.142107">
<ele>436</ele>
<time>2019-05-29T10:18:22Z</time>
</trkpt>
<trkpt lat="48.92145" lon="10.142298">
<ele>436</ele>
<time>2019-05-29T10:18:27Z</time>
</trkpt>
<trkpt lat="48.921692" lon="10.14243">
<ele>436</ele>
<time>2019-05-29T10:18:32Z</time>
</trkpt>
<trkpt lat="48.922032" lon="10.142647">
<ele>436</ele>
<time>2019-05-29T10:18:38Z</time>
</trkpt>
<trkpt lat="48.922342" lon="10.142885">
<ele>435</ele>
<time>2019-05-29T10:18:43Z</time>
</trkpt>
<trkpt lat="48.922628" lon="10.143178">
<ele>434</ele>
<time>2019-05-29T10:18:48Z</time>
</trkpt>
<trkpt lat="48.922925" lon="10.143528">
<ele>434</ele>
<time>2019-05-29T10:18:54Z</time>
</trkpt>
<trkpt lat="48.923162" lon="10.143828">
<ele>434</ele>
<time>2019-05-29T10:18:59Z</time>
</trkpt>
<trkpt lat="48.923383" lon="10.14411">
<ele>434</ele>
<time>2019-05-29T10:19:04Z</time>
</trkpt>
<trkpt lat="48.92363" lon="10.14443">
<ele>434</ele>
<time>2019-05-29T10:19:10Z</time>
</trkpt>
<trkpt lat="48.923817" lon="10.144678">
<ele>434</ele>
<time>2019-05-29T10:19:16Z</time>
</trkpt>
<trkpt lat="48.92398" lon="10.14471">
<ele>434</ele>
<time>2019-05-29T10:19:21Z</time>
</trkpt>
<trkpt lat="48.92419" lon="10.144382">
<ele>434</ele>
<time>2019-05-29T10:19:26Z</time>
</trkpt>
<trkpt lat="48.924465" lon="10.1442">
<ele>433</ele>
<time>2019-05-29T10:19:31Z</time>
</trkpt>
<trkpt lat="48.924777" lon="10.144175">
<ele>432</ele>
<time>2019-05-29T10:19:36Z</time>
</trkpt>
<trkpt lat="48.925085" lon="10.14429">
<ele>432</ele>
<time>2019-05-29T10:19:41Z</time>
</trkpt>
<trkpt lat="48.925345" lon="10.144438">
<ele>432</ele>
<time>2019-05-29T10:19:46Z</time>
</trkpt>
<trkpt lat="48.925582" lon="10.144565">
<ele>432</ele>
<time>2019-05-29T10:19:51Z</time>
</trkpt>
<trkpt lat="48.925905" lon="10.144732">
<ele>432</ele>
<time>2019-05-29T10:19:57Z</time>
</trkpt>
<trkpt lat="48.926185" lon="10.144887">
<ele>432</ele>
<time>2019-05-29T10:20:02Z</time>
</trkpt>
<trkpt lat="48.926463" lon="10.145035">
<ele>432</ele>
<time>2019-05-29T10:20:07Z</time>
</trkpt>
<trkpt lat="48.926767" lon="10.145163">
<ele>432</ele>
<time>2019-05-29T10:20:12Z</time>
</trkpt>
<trkpt lat="48.92708" lon="10.145277">
<ele>432</ele>
<time>2019-05-29T10:20:17Z</time>
</trkpt>
<trkpt lat="48.927398" lon="10.145373">
<ele>432</ele>
<time>2019-05-29T10:20:22Z</time>
</trkpt>
<trkpt lat="48.927702" lon="10.14544">
<ele>432</ele>
<time>2019-05-29T10:20:27Z</time>
</trkpt>
<trkpt lat="48.927993" lon="10.145473">
<ele>431</ele>
<time>2019-05-29T10:20:32Z</time>
</trkpt>
<trkpt lat="48.928295" lon="10.145483">
<ele>430</ele>
<time>2019-05-29T10:20:37Z</time>
</trkpt>
<trkpt lat="48.928588" lon="10.145472">
<ele>430</ele>
<time>2019-05-29T10:20:42Z</time>
</trkpt>
<trkpt lat="48.928848" lon="10.145517">
<ele>430</ele>
<time>2019-05-29T10:20:48Z</time>
</trkpt>
<trkpt lat="48.92896" lon="10.145473">
<ele>431</ele>
<time>2019-05-29T10:20:53Z</time>
</trkpt>
<trkpt lat="48.929132" lon="10.14536">
<ele>431</ele>
<time>2019-05-29T10:20:58Z</time>
</trkpt>
<trkpt lat="48.929388" lon="10.145153">
<ele>431</ele>
<time>2019-05-29T10:21:03Z</time>
</trkpt>
<trkpt lat="48.929745" lon="10.144895">
<ele>431</ele>
<time>2019-05-29T10:21:09Z</time>
</trkpt>
<trkpt lat="48.930015" lon="10.14462">
<ele>430</ele>
<time>2019-05-29T10:21:14Z</time>
</trkpt>
<trkpt lat="48.930295" lon="10.144258">
<ele>430</ele>
<time>2019-05-29T10:21:20Z</time>
</trkpt>
<trkpt lat="48.930503" lon="10.143932">
<ele>430</ele>
<time>2019-05-29T10:21:25Z</time>
</trkpt>
<trkpt lat="48.930687" lon="10.143582">
<ele>430</ele>
<time>2019-05-29T10:21:30Z</time>
</trkpt>
<trkpt lat="48.930848" lon="10.143213">
<ele>430</ele>
<time>2019-05-29T10:21:35Z</time>
</trkpt>
<trkpt lat="48.93099" lon="10.142832">
<ele>430</ele>
<time>2019-05-29T10:21:40Z</time>
</trkpt>
<trkpt lat="48.931142" lon="10.142378">
<ele>430</ele>
<time>2019-05-29T10:21:46Z</time>
</trkpt>
<trkpt lat="48.93128" lon="10.142003">
<ele>430</ele>
<time>2019-05-29T10:21:51Z</time>
</trkpt>
<trkpt lat="48.931428" lon="10.141653">
<ele>430</ele>
<time>2019-05-29T10:21:56Z</time>
</trkpt>
<trkpt lat="48.931587" lon="10.141308">
<ele>430</ele>
<time>2019-05-29T10:22:01Z</time>
</trkpt>
<trkpt lat="48.931768" lon="10.140957">
<ele>430</ele>
<time>2019-05-29T10:22:06Z</time>
</trkpt>
<trkpt lat="48.932013" lon="10.140587">
<ele>430</ele>
<time>2019-05-29T10:22:12Z</time>
</trkpt>
<trkpt lat="48.93223" lon="10.140282">
<ele>430</ele>
<time>2019-05-29T10:22:17Z</time>
</trkpt>
<trkpt lat="48.932447" lon="10.140008">
<ele>430</ele>
<time>2019-05-29T10:22:22Z</time>
</trkpt>
<trkpt lat="48.932665" lon="10.13976">
<ele>430</ele>
<time>2019-05-29T10:22:27Z</time>
</trkpt>
<trkpt lat="48.93295" lon="10.139433">
<ele>430</ele>
<time>2019-05-29T10:22:33Z</time>
</trkpt>
<trkpt lat="48.93318" lon="10.139167">
<ele>429</ele>
<time>2019-05-29T10:22:38Z</time>
</trkpt>
<trkpt lat="48.933408" lon="10.138895">
<ele>429</ele>
<time>2019-05-29T10:22:43Z</time>
</trkpt>
<trkpt lat="48.933632" lon="10.138607">
<ele>429</ele>
<time>2019-05-29T10:22:48Z</time>
</trkpt>
<trkpt lat="48.933838" lon="10.138313">
<ele>429</ele>
<time>2019-05-29T10:22:53Z</time>
</trkpt>
<trkpt lat="48.934028" lon="10.13799">
<ele>429</ele>
<time>2019-05-29T10:22:58Z</time>
</trkpt>
<trkpt lat="48.934193" lon="10.13765">
<ele>429</ele>
<time>2019-05-29T10:23:03Z</time>
</trkpt>
<trkpt lat="48.934362" lon="10.137207">
<ele>429</ele>
<time>2019-05-29T10:23:09Z</time>
</trkpt>
<trkpt lat="48.934497" lon="10.136718">
<ele>429</ele>
<time>2019-05-29T10:23:15Z</time>
</trkpt>
<trkpt lat="48.934603" lon="10.136322">
<ele>429</ele>
<time>2019-05-29T10:23:20Z</time>
</trkpt>
<trkpt lat="48.934703" lon="10.135928">
<ele>429</ele>
<time>2019-05-29T10:23:25Z</time>
</trkpt>
<trkpt lat="48.934837" lon="10.135548">
<ele>429</ele>
<time>2019-05-29T10:23:30Z</time>
</trkpt>
<trkpt lat="48.935008" lon="10.135202">
<ele>429</ele>
<time>2019-05-29T10:23:35Z</time>
</trkpt>
<trkpt lat="48.935177" lon="10.134875">
<ele>429</ele>
<time>2019-05-29T10:23:40Z</time>
</trkpt>
<trkpt lat="48.935408" lon="10.134507">
<ele>429</ele>
<time>2019-05-29T10:23:46Z</time>
</trkpt>
<trkpt lat="48.935642" lon="10.134287">
<ele>429</ele>
<time>2019-05-29T10:23:51Z</time>
</trkpt>
<trkpt lat="48.935927" lon="10.134008">
<ele>429</ele>
<time>2019-05-29T10:23:57Z</time>
</trkpt>
<trkpt lat="48.936203" lon="10.133698">
<ele>429</ele>
<time>2019-05-29T10:24:03Z</time>
</trkpt>
<trkpt lat="48.936388" lon="10.133407">
<ele>429</ele>
<time>2019-05-29T10:24:08Z</time>
</trkpt>
<trkpt lat="48.936562" lon="10.133078">
<ele>429</ele>
<time>2019-05-29T10:24:13Z</time>
</trkpt>
<trkpt lat="48.93675" lon="10.132745">
<ele>428</ele>
<time>2019-05-29T10:24:18Z</time>
</trkpt>
<trkpt lat="48.936973" lon="10.132342">
<ele>428</ele>
<time>2019-05-29T10:24:24Z</time>
</trkpt>
<trkpt lat="48.937185" lon="10.131933">
<ele>428</ele>
<time>2019-05-29T10:24:30Z</time>
</trkpt>
<trkpt lat="48.937377" lon="10.131603">
<ele>428</ele>
<time>2019-05-29T10:24:35Z</time>
</trkpt>
<trkpt lat="48.937627" lon="10.13123">
<ele>428</ele>
<time>2019-05-29T10:24:41Z</time>
</trkpt>
<trkpt lat="48.937853" lon="10.130953">
<ele>428</ele>
<time>2019-05-29T10:24:46Z</time>
</trkpt>
<trkpt lat="48.93807" lon="10.130692">
<ele>428</ele>
<time>2019-05-29T10:24:51Z</time>
</trkpt>
<trkpt lat="48.938293" lon="10.130447">
<ele>428</ele>
<time>2019-05-29T10:24:56Z</time>
</trkpt>
<trkpt lat="48.938542" lon="10.13026">
<ele>428</ele>
<time>2019-05-29T10:25:01Z</time>
</trkpt>
<trkpt lat="48.938795" lon="10.130118">
<ele>428</ele>
<time>2019-05-29T10:25:06Z</time>
</trkpt>
<trkpt lat="48.939097" lon="10.129942">
<ele>427</ele>
<time>2019-05-29T10:25:12Z</time>
</trkpt>
<trkpt lat="48.939405" lon="10.129737">
<ele>427</ele>
<time>2019-05-29T10:25:18Z</time>
</trkpt>
<trkpt lat="48.939705" lon="10.129532">
<ele>427</ele>
<time>2019-05-29T10:25:24Z</time>
</trkpt>
<trkpt lat="48.939948" lon="10.129372">
<ele>427</ele>
<time>2019-05-29T10:25:29Z</time>
</trkpt>
<trkpt lat="48.940187" lon="10.129237">
<ele>427</ele>
<time>2019-05-29T10:25:34Z</time>
</trkpt>
<trkpt lat="48.940492" lon="10.129112">
<ele>427</ele>
<time>2019-05-29T10:25:40Z</time>
</trkpt>
<trkpt lat="48.940717" lon="10.129108">
<ele>427</ele>
<time>2019-05-29T10:25:45Z</time>
</trkpt>
<trkpt lat="48.940787" lon="10.128958">
<ele>427</ele>
<time>2019-05-29T10:25:50Z</time>
</trkpt>
<trkpt lat="48.940687" lon="10.128752">
<ele>427</ele>
<time>2019-05-29T10:25:55Z</time>
</trkpt>
<trkpt lat="48.940707" lon="10.1286">
<ele>427</ele>
<time>2019-05-29T10:26:00Z</time>
</trkpt>
<trkpt lat="48.940995" lon="10.128573">
<ele>427</ele>
<time>2019-05-29T10:26:06Z</time>
</trkpt>
<trkpt lat="48.941282" lon="10.128497">
<ele>427</ele>
<time>2019-05-29T10:26:11Z</time>
</trkpt>
<trkpt lat="48.941567" lon="10.128433">
<ele>427</ele>
<time>2019-05-29T10:26:16Z</time>
</trkpt>
<trkpt lat="48.941842" lon="10.128382">
<ele>427</ele>
<time>2019-05-29T10:26:21Z</time>
</trkpt>
<trkpt lat="48.942128" lon="10.128318">
<ele>427</ele>
<time>2019-05-29T10:26:26Z</time>
</trkpt>
<trkpt lat="48.942408" lon="10.12824">
<ele>427</ele>
<time>2019-05-29T10:26:31Z</time>
</trkpt>
<trkpt lat="48.942687" lon="10.128137">
<ele>427</ele>
<time>2019-05-29T10:26:36Z</time>
</trkpt>
<trkpt lat="48.943015" lon="10.12794">
<ele>427</ele>
<time>2019-05-29T10:26:42Z</time>
</trkpt>
<trkpt lat="48.943333" lon="10.127705">
<ele>427</ele>
<time>2019-05-29T10:26:48Z</time>
</trkpt>
<trkpt lat="48.943655" lon="10.127473">
<ele>427</ele>
<time>2019-05-29T10:26:54Z</time>
</trkpt>
<trkpt lat="48.943978" lon="10.127265">
<ele>427</ele>
<time>2019-05-29T10:27:00Z</time>
</trkpt>
<trkpt lat="48.944308" lon="10.127028">
<ele>427</ele>
<time>2019-05-29T10:27:06Z</time>
</trkpt>
<trkpt lat="48.944618" lon="10.126715">
<ele>427</ele>
<time>2019-05-29T10:27:12Z</time>
</trkpt>
<trkpt lat="48.944897" lon="10.126367">
<ele>427</ele>
<time>2019-05-29T10:27:18Z</time>
</trkpt>
<trkpt lat="48.945157" lon="10.125993">
<ele>427</ele>
<time>2019-05-29T10:27:24Z</time>
</trkpt>
<trkpt lat="48.945363" lon="10.125692">
<ele>427</ele>
<time>2019-05-29T10:27:29Z</time>
</trkpt>
<trkpt lat="48.945577" lon="10.125382">
<ele>427</ele>
<time>2019-05-29T10:27:34Z</time>
</trkpt>
<trkpt lat="48.945792" lon="10.125065">
<ele>427</ele>
<time>2019-05-29T10:27:39Z</time>
</trkpt>
<trkpt lat="48.946022" lon="10.124797">
<ele>427</ele>
<time>2019-05-29T10:27:44Z</time>
</trkpt>
<trkpt lat="48.946248" lon="10.124535">
<ele>427</ele>
<time>2019-05-29T10:27:49Z</time>
</trkpt>
<trkpt lat="48.946478" lon="10.124278">
<ele>426</ele>
<time>2019-05-29T10:27:54Z</time>
</trkpt>
<trkpt lat="48.946762" lon="10.124042">
<ele>426</ele>
<time>2019-05-29T10:28:00Z</time>
</trkpt>
<trkpt lat="48.947007" lon="10.123858">
<ele>426</ele>
<time>2019-05-29T10:28:05Z</time>
</trkpt>
<trkpt lat="48.94724" lon="10.123737">
<ele>426</ele>
<time>2019-05-29T10:28:10Z</time>
</trkpt>
<trkpt lat="48.947397" lon="10.123573">
<ele>426</ele>
<time>2019-05-29T10:28:15Z</time>
</trkpt>
<trkpt lat="48.947297" lon="10.123288">
<ele>426</ele>
<time>2019-05-29T10:28:20Z</time>
</trkpt>
<trkpt lat="48.947202" lon="10.123007">
<ele>426</ele>
<time>2019-05-29T10:28:25Z</time>
</trkpt>
<trkpt lat="48.947385" lon="10.122755">
<ele>426</ele>
<time>2019-05-29T10:28:30Z</time>
</trkpt>
<trkpt lat="48.947627" lon="10.12243">
<ele>426</ele>
<time>2019-05-29T10:28:36Z</time>
</trkpt>
<trkpt lat="48.947887" lon="10.122073">
<ele>426</ele>
<time>2019-05-29T10:28:42Z</time>
</trkpt>
<trkpt lat="48.94811" lon="10.121777">
<ele>426</ele>
<time>2019-05-29T10:28:47Z</time>
</trkpt>
<trkpt lat="48.94833" lon="10.121463">
<ele>426</ele>
<time>2019-05-29T10:28:52Z</time>
</trkpt>
<trkpt lat="48.94855" lon="10.121147">
<ele>426</ele>
<time>2019-05-29T10:28:57Z</time>
</trkpt>
<trkpt lat="48.948782" lon="10.120823">
<ele>426</ele>
<time>2019-05-29T10:29:02Z</time>
</trkpt>
<trkpt lat="48.948995" lon="10.120523">
<ele>426</ele>
<time>2019-05-29T10:29:07Z</time>
</trkpt>
<trkpt lat="48.949228" lon="10.120318">
<ele>426</ele>
<time>2019-05-29T10:29:12Z</time>
</trkpt>
<trkpt lat="48.949463" lon="10.120022">
<ele>427</ele>
<time>2019-05-29T10:29:18Z</time>
</trkpt>
<trkpt lat="48.94968" lon="10.119727">
<ele>427</ele>
<time>2019-05-29T10:29:24Z</time>
</trkpt>
<trkpt lat="48.94991" lon="10.119447">
<ele>427</ele>
<time>2019-05-29T10:29:30Z</time>
</trkpt>
<trkpt lat="48.950122" lon="10.119223">
<ele>427</ele>
<time>2019-05-29T10:29:36Z</time>
</trkpt>
<trkpt lat="48.95025" lon="10.11908">
<ele>427</ele>
<time>2019-05-29T10:29:42Z</time>
</trkpt>
<trkpt lat="48.95048" lon="10.119135">
<ele>427</ele>
<time>2019-05-29T10:29:47Z</time>
</trkpt>
<trkpt lat="48.950787" lon="10.119147">
<ele>427</ele>
<time>2019-05-29T10:29:52Z</time>
</trkpt>
<trkpt lat="48.95107" lon="10.11898">
<ele>427</ele>
<time>2019-05-29T10:29:57Z</time>
</trkpt>
<trkpt lat="48.951327" lon="10.118793">
<ele>427</ele>
<time>2019-05-29T10:30:02Z</time>
</trkpt>
<trkpt lat="48.951558" lon="10.118602">
<ele>427</ele>
<time>2019-05-29T10:30:07Z</time>
</trkpt>
<trkpt lat="48.95174" lon="10.118402">
<ele>427</ele>
<time>2019-05-29T10:30:12Z</time>
</trkpt>
<trkpt lat="48.951885" lon="10.118218">
<ele>427</ele>
<time>2019-05-29T10:30:17Z</time>
</trkpt>
<trkpt lat="48.951992" lon="10.118148">
<ele>427</ele>
<time>2019-05-29T10:30:22Z</time>
</trkpt>
<trkpt lat="48.952187" lon="10.11815">
<ele>426</ele>
<time>2019-05-29T10:30:27Z</time>
</trkpt>
<trkpt lat="48.952467" lon="10.118137">
<ele>425</ele>
<time>2019-05-29T10:30:32Z</time>
</trkpt>
<trkpt lat="48.952737" lon="10.1181">
<ele>425</ele>
<time>2019-05-29T10:30:37Z</time>
</trkpt>
<trkpt lat="48.95288" lon="10.117813">
<ele>425</ele>
<time>2019-05-29T10:30:42Z</time>
</trkpt>
<trkpt lat="48.952927" lon="10.117427">
<ele>425</ele>
<time>2019-05-29T10:30:47Z</time>
</trkpt>
<trkpt lat="48.952873" lon="10.117102">
<ele>425</ele>
<time>2019-05-29T10:30:52Z</time>
</trkpt>
<trkpt lat="48.952718" lon="10.117068">
<ele>425</ele>
<time>2019-05-29T10:30:57Z</time>
</trkpt>
<trkpt lat="48.952787" lon="10.11697">
<ele>425</ele>
<time>2019-05-29T10:31:02Z</time>
</trkpt>
<trkpt lat="48.952967" lon="10.116975">
<ele>425</ele>
<time>2019-05-29T10:31:07Z</time>
</trkpt>
<trkpt lat="48.953173" lon="10.116962">
<ele>426</ele>
<time>2019-05-29T10:31:12Z</time>
</trkpt>
<trkpt lat="48.953567" lon="10.116965">
<ele>426</ele>
<time>2019-05-29T10:31:18Z</time>
</trkpt>
<trkpt lat="48.953982" lon="10.117008">
<ele>424</ele>
<time>2019-05-29T10:31:24Z</time>
</trkpt>
<trkpt lat="48.954375" lon="10.11711">
<ele>424</ele>
<time>2019-05-29T10:31:30Z</time>
</trkpt>
<trkpt lat="48.954687" lon="10.117243">
<ele>424</ele>
<time>2019-05-29T10:31:35Z</time>
</trkpt>
<trkpt lat="48.954987" lon="10.117388">
<ele>424</ele>
<time>2019-05-29T10:31:40Z</time>
</trkpt>
<trkpt lat="48.955312" lon="10.117452">
<ele>424</ele>
<time>2019-05-29T10:31:45Z</time>
</trkpt>
<trkpt lat="48.955602" lon="10.11757">
<ele>424</ele>
<time>2019-05-29T10:31:50Z</time>
</trkpt>
<trkpt lat="48.955818" lon="10.117833">
<ele>424</ele>
<time>2019-05-29T10:31:55Z</time>
</trkpt>
<trkpt lat="48.955995" lon="10.118125">
<ele>424</ele>
<time>2019-05-29T10:32:00Z</time>
</trkpt>
<trkpt lat="48.956187" lon="10.118192">
<ele>424</ele>
<time>2019-05-29T10:32:05Z</time>
</trkpt>
<trkpt lat="48.956413" lon="10.117917">
<ele>424</ele>
<time>2019-05-29T10:32:10Z</time>
</trkpt>
<trkpt lat="48.956697" lon="10.117703">
<ele>424</ele>
<time>2019-05-29T10:32:15Z</time>
</trkpt>
<trkpt lat="48.956993" lon="10.117455">
<ele>424</ele>
<time>2019-05-29T10:32:20Z</time>
</trkpt>
<trkpt lat="48.957312" lon="10.117307">
<ele>424</ele>
<time>2019-05-29T10:32:25Z</time>
</trkpt>
<trkpt lat="48.957635" lon="10.117222">
<ele>424</ele>
<time>2019-05-29T10:32:30Z</time>
</trkpt>
<trkpt lat="48.95795" lon="10.117173">
<ele>424</ele>
<time>2019-05-29T10:32:35Z</time>
</trkpt>
<trkpt lat="48.958213" lon="10.117087">
<ele>424</ele>
<time>2019-05-29T10:32:40Z</time>
</trkpt>
<trkpt lat="48.958365" lon="10.117078">
<ele>424</ele>
<time>2019-05-29T10:32:45Z</time>
</trkpt>
<trkpt lat="48.958505" lon="10.117358">
<ele>423</ele>
<time>2019-05-29T10:32:50Z</time>
</trkpt>
<trkpt lat="48.958618" lon="10.117683">
<ele>423</ele>
<time>2019-05-29T10:32:55Z</time>
</trkpt>
<trkpt lat="48.958733" lon="10.11804">
<ele>423</ele>
<time>2019-05-29T10:33:00Z</time>
</trkpt>
<trkpt lat="48.95881" lon="10.118565">
<ele>423</ele>
<time>2019-05-29T10:33:06Z</time>
</trkpt>
<trkpt lat="48.95884" lon="10.119023">
<ele>423</ele>
<time>2019-05-29T10:33:11Z</time>
</trkpt>
<trkpt lat="48.958825" lon="10.119473">
<ele>423</ele>
<time>2019-05-29T10:33:16Z</time>
</trkpt>
<trkpt lat="48.958768" lon="10.119933">
<ele>423</ele>
<time>2019-05-29T10:33:21Z</time>
</trkpt>
<trkpt lat="48.958692" lon="10.120353">
<ele>423</ele>
<time>2019-05-29T10:33:26Z</time>
</trkpt>
<trkpt lat="48.958658" lon="10.12075">
<ele>423</ele>
<time>2019-05-29T10:33:31Z</time>
</trkpt>
<trkpt lat="48.958623" lon="10.121135">
<ele>423</ele>
<time>2019-05-29T10:33:36Z</time>
</trkpt>
<trkpt lat="48.958615" lon="10.121537">
<ele>423</ele>
<time>2019-05-29T10:33:41Z</time>
</trkpt>
<trkpt lat="48.958625" lon="10.12198">
<ele>423</ele>
<time>2019-05-29T10:33:46Z</time>
</trkpt>
<trkpt lat="48.958667" lon="10.122418">
<ele>423</ele>
<time>2019-05-29T10:33:51Z</time>
</trkpt>
<trkpt lat="48.958722" lon="10.122835">
<ele>423</ele>
<time>2019-05-29T10:33:56Z</time>
</trkpt>
<trkpt lat="48.958805" lon="10.123228">
<ele>423</ele>
<time>2019-05-29T10:34:01Z</time>
</trkpt>
<trkpt lat="48.958903" lon="10.123622">
<ele>423</ele>
<time>2019-05-29T10:34:06Z</time>
</trkpt>
<trkpt lat="48.959027" lon="10.12394">
<ele>423</ele>
<time>2019-05-29T10:34:11Z</time>
</trkpt>
<trkpt lat="48.959113" lon="10.124232">
<ele>423</ele>
<time>2019-05-29T10:34:16Z</time>
</trkpt>
<trkpt lat="48.959175" lon="10.12439">
<ele>423</ele>
<time>2019-05-29T10:34:21Z</time>
</trkpt>
<trkpt lat="48.959285" lon="10.124317">
<ele>423</ele>
<time>2019-05-29T10:34:26Z</time>
</trkpt>
<trkpt lat="48.95945" lon="10.124375">
<ele>423</ele>
<time>2019-05-29T10:34:31Z</time>
</trkpt>
<trkpt lat="48.95958" lon="10.124745">
<ele>423</ele>
<time>2019-05-29T10:34:36Z</time>
</trkpt>
<trkpt lat="48.959758" lon="10.125088">
<ele>423</ele>
<time>2019-05-29T10:34:41Z</time>
</trkpt>
<trkpt lat="48.960018" lon="10.125192">
<ele>423</ele>
<time>2019-05-29T10:34:46Z</time>
</trkpt>
<trkpt lat="48.96028" lon="10.125187">
<ele>423</ele>
<time>2019-05-29T10:34:51Z</time>
</trkpt>
<trkpt lat="48.96052" lon="10.125093">
<ele>423</ele>
<time>2019-05-29T10:34:56Z</time>
</trkpt>
<trkpt lat="48.96075" lon="10.125003">
<ele>423</ele>
<time>2019-05-29T10:35:01Z</time>
</trkpt>
<trkpt lat="48.960965" lon="10.1249">
<ele>423</ele>
<time>2019-05-29T10:35:06Z</time>
</trkpt>
<trkpt lat="48.961122" lon="10.125038">
<ele>423</ele>
<time>2019-05-29T10:35:11Z</time>
</trkpt>
<trkpt lat="48.961223" lon="10.125343">
<ele>423</ele>
<time>2019-05-29T10:35:16Z</time>
</trkpt>
<trkpt lat="48.96133" lon="10.125643">
<ele>423</ele>
<time>2019-05-29T10:35:21Z</time>
</trkpt>
<trkpt lat="48.961453" lon="10.12592">
<ele>423</ele>
<time>2019-05-29T10:35:26Z</time>
</trkpt>
<trkpt lat="48.961615" lon="10.12607">
<ele>423</ele>
<time>2019-05-29T10:35:31Z</time>
</trkpt>
<trkpt lat="48.96175" lon="10.126245">
<ele>423</ele>
<time>2019-05-29T10:35:36Z</time>
</trkpt>
<trkpt lat="48.961903" lon="10.126492">
<ele>423</ele>
<time>2019-05-29T10:35:41Z</time>
</trkpt>
<trkpt lat="48.96216" lon="10.126547">
<ele>423</ele>
<time>2019-05-29T10:35:46Z</time>
</trkpt>
<trkpt lat="48.962398" lon="10.126663">
<ele>423</ele>
<time>2019-05-29T10:35:51Z</time>
</trkpt>
<trkpt lat="48.96254" lon="10.12695">
<ele>423</ele>
<time>2019-05-29T10:35:56Z</time>
</trkpt>
<trkpt lat="48.962673" lon="10.127283">
<ele>423</ele>
<time>2019-05-29T10:36:01Z</time>
</trkpt>
<trkpt lat="48.962755" lon="10.127622">
<ele>423</ele>
<time>2019-05-29T10:36:06Z</time>
</trkpt>
<trkpt lat="48.962775" lon="10.12788">
<ele>423</ele>
<time>2019-05-29T10:36:11Z</time>
</trkpt>
<trkpt lat="48.962757" lon="10.127982">
<ele>423</ele>
<time>2019-05-29T10:36:16Z</time>
</trkpt>
<trkpt lat="48.962753" lon="10.127985">
<ele>423</ele>
<time>2019-05-29T10:36:21Z</time>
</trkpt>
<trkpt lat="48.962753" lon="10.127987">
<ele>423</ele>
<time>2019-05-29T10:36:36Z</time>
</trkpt>
<trkpt lat="48.962753" lon="10.127988">
<ele>423</ele>
<time>2019-05-29T10:36:46Z</time>
</trkpt>
<trkpt lat="48.962727" lon="10.128158">
<ele>423</ele>
<time>2019-05-29T10:36:51Z</time>
</trkpt>
<trkpt lat="48.962838" lon="10.12835">
<ele>423</ele>
<time>2019-05-29T10:36:56Z</time>
</trkpt>
<trkpt lat="48.963062" lon="10.128398">
<ele>423</ele>
<time>2019-05-29T10:37:01Z</time>
</trkpt>
<trkpt lat="48.963307" lon="10.12844">
<ele>423</ele>
<time>2019-05-29T10:37:06Z</time>
</trkpt>
<trkpt lat="48.963572" lon="10.128445">
<ele>423</ele>
<time>2019-05-29T10:37:11Z</time>
</trkpt>
<trkpt lat="48.963857" lon="10.128373">
<ele>423</ele>
<time>2019-05-29T10:37:16Z</time>
</trkpt>
<trkpt lat="48.964148" lon="10.128235">
<ele>423</ele>
<time>2019-05-29T10:37:21Z</time>
</trkpt>
<trkpt lat="48.96443" lon="10.128058">
<ele>423</ele>
<time>2019-05-29T10:37:26Z</time>
</trkpt>
<trkpt lat="48.964698" lon="10.127853">
<ele>423</ele>
<time>2019-05-29T10:37:31Z</time>
</trkpt>
<trkpt lat="48.964972" lon="10.127618">
<ele>423</ele>
<time>2019-05-29T10:37:36Z</time>
</trkpt>
<trkpt lat="48.965255" lon="10.127355">
<ele>423</ele>
<time>2019-05-29T10:37:41Z</time>
</trkpt>
<trkpt lat="48.965518" lon="10.12709">
<ele>423</ele>
<time>2019-05-29T10:37:46Z</time>
</trkpt>
<trkpt lat="48.965758" lon="10.12677">
<ele>423</ele>
<time>2019-05-29T10:37:51Z</time>
</trkpt>
<trkpt lat="48.965995" lon="10.126465">
<ele>423</ele>
<time>2019-05-29T10:37:56Z</time>
</trkpt>
<trkpt lat="48.96623" lon="10.126193">
<ele>423</ele>
<time>2019-05-29T10:38:01Z</time>
</trkpt>
<trkpt lat="48.96645" lon="10.125923">
<ele>423</ele>
<time>2019-05-29T10:38:06Z</time>
</trkpt>
<trkpt lat="48.966673" lon="10.125647">
<ele>423</ele>
<time>2019-05-29T10:38:11Z</time>
</trkpt>
<trkpt lat="48.966893" lon="10.125345">
<ele>423</ele>
<time>2019-05-29T10:38:16Z</time>
</trkpt>
<trkpt lat="48.967125" lon="10.125038">
<ele>423</ele>
<time>2019-05-29T10:38:21Z</time>
</trkpt>
<trkpt lat="48.967347" lon="10.124758">
<ele>423</ele>
<time>2019-05-29T10:38:26Z</time>
</trkpt>
<trkpt lat="48.967582" lon="10.124563">
<ele>423</ele>
<time>2019-05-29T10:38:31Z</time>
</trkpt>
<trkpt lat="48.967807" lon="10.124397">
<ele>423</ele>
<time>2019-05-29T10:38:36Z</time>
</trkpt>
<trkpt lat="48.968033" lon="10.124215">
<ele>424</ele>
<time>2019-05-29T10:38:41Z</time>
</trkpt>
<trkpt lat="48.96823" lon="10.12409">
<ele>425</ele>
<time>2019-05-29T10:38:46Z</time>
</trkpt>
<trkpt lat="48.968417" lon="10.12416">
<ele>425</ele>
<time>2019-05-29T10:38:51Z</time>
</trkpt>
<trkpt lat="48.96869" lon="10.124373">
<ele>425</ele>
<time>2019-05-29T10:38:56Z</time>
</trkpt>
<trkpt lat="48.969035" lon="10.124533">
<ele>425</ele>
<time>2019-05-29T10:39:01Z</time>
</trkpt>
<trkpt lat="48.969372" lon="10.124678">
<ele>424</ele>
<time>2019-05-29T10:39:06Z</time>
</trkpt>
<trkpt lat="48.969668" lon="10.124797">
<ele>424</ele>
<time>2019-05-29T10:39:11Z</time>
</trkpt>
<trkpt lat="48.969942" lon="10.124927">
<ele>424</ele>
<time>2019-05-29T10:39:16Z</time>
</trkpt>
<trkpt lat="48.970217" lon="10.125047">
<ele>424</ele>
<time>2019-05-29T10:39:21Z</time>
</trkpt>
<trkpt lat="48.970455" lon="10.12515">
<ele>424</ele>
<time>2019-05-29T10:39:26Z</time>
</trkpt>
<trkpt lat="48.970702" lon="10.125325">
<ele>424</ele>
<time>2019-05-29T10:39:31Z</time>
</trkpt>
<trkpt lat="48.970925" lon="10.125503">
<ele>424</ele>
<time>2019-05-29T10:39:36Z</time>
</trkpt>
<trkpt lat="48.971137" lon="10.125727">
<ele>425</ele>
<time>2019-05-29T10:39:41Z</time>
</trkpt>
<trkpt lat="48.971373" lon="10.1259">
<ele>425</ele>
<time>2019-05-29T10:39:46Z</time>
</trkpt>
<trkpt lat="48.971613" lon="10.125943">
<ele>425</ele>
<time>2019-05-29T10:39:51Z</time>
</trkpt>
<trkpt lat="48.971852" lon="10.125855">
<ele>425</ele>
<time>2019-05-29T10:39:56Z</time>
</trkpt>
<trkpt lat="48.972102" lon="10.125708">
<ele>426</ele>
<time>2019-05-29T10:40:01Z</time>
</trkpt>
<trkpt lat="48.972345" lon="10.125498">
<ele>426</ele>
<time>2019-05-29T10:40:06Z</time>
</trkpt>
<trkpt lat="48.972578" lon="10.12529">
<ele>426</ele>
<time>2019-05-29T10:40:11Z</time>
</trkpt>
<trkpt lat="48.972823" lon="10.125103">
<ele>426</ele>
<time>2019-05-29T10:40:16Z</time>
</trkpt>
<trkpt lat="48.973067" lon="10.124922">
<ele>426</ele>
<time>2019-05-29T10:40:21Z</time>
</trkpt>
<trkpt lat="48.973337" lon="10.124747">
<ele>426</ele>
<time>2019-05-29T10:40:26Z</time>
</trkpt>
<trkpt lat="48.97361" lon="10.124592">
<ele>425</ele>
<time>2019-05-29T10:40:31Z</time>
</trkpt>
<trkpt lat="48.973942" lon="10.124467">
<ele>423</ele>
<time>2019-05-29T10:40:36Z</time>
</trkpt>
<trkpt lat="48.974232" lon="10.124342">
<ele>421</ele>
<time>2019-05-29T10:40:41Z</time>
</trkpt>
<trkpt lat="48.974522" lon="10.124228">
<ele>421</ele>
<time>2019-05-29T10:40:46Z</time>
</trkpt>
<trkpt lat="48.974852" lon="10.124065">
<ele>421</ele>
<time>2019-05-29T10:40:51Z</time>
</trkpt>
<trkpt lat="48.975168" lon="10.123905">
<ele>420</ele>
<time>2019-05-29T10:40:56Z</time>
</trkpt>
<trkpt lat="48.975442" lon="10.123685">
<ele>420</ele>
<time>2019-05-29T10:41:01Z</time>
</trkpt>
<trkpt lat="48.975717" lon="10.123448">
<ele>420</ele>
<time>2019-05-29T10:41:06Z</time>
</trkpt>
<trkpt lat="48.976007" lon="10.123223">
<ele>420</ele>
<time>2019-05-29T10:41:11Z</time>
</trkpt>
<trkpt lat="48.976287" lon="10.123037">
<ele>420</ele>
<time>2019-05-29T10:41:16Z</time>
</trkpt>
<trkpt lat="48.976558" lon="10.122863">
<ele>420</ele>
<time>2019-05-29T10:41:21Z</time>
</trkpt>
<trkpt lat="48.976803" lon="10.122717">
<ele>420</ele>
<time>2019-05-29T10:41:26Z</time>
</trkpt>
<trkpt lat="48.97706" lon="10.12258">
<ele>420</ele>
<time>2019-05-29T10:41:31Z</time>
</trkpt>
<trkpt lat="48.977293" lon="10.12242">
<ele>420</ele>
<time>2019-05-29T10:41:36Z</time>
</trkpt>
<trkpt lat="48.97752" lon="10.12226">
<ele>420</ele>
<time>2019-05-29T10:41:41Z</time>
</trkpt>
<trkpt lat="48.977763" lon="10.122132">
<ele>420</ele>
<time>2019-05-29T10:41:46Z</time>
</trkpt>
<trkpt lat="48.978035" lon="10.122018">
<ele>419</ele>
<time>2019-05-29T10:41:51Z</time>
</trkpt>
<trkpt lat="48.978308" lon="10.121932">
<ele>419</ele>
<time>2019-05-29T10:41:56Z</time>
</trkpt>
<trkpt lat="48.978578" lon="10.121885">
<ele>419</ele>
<time>2019-05-29T10:42:01Z</time>
</trkpt>
<trkpt lat="48.978845" lon="10.12186">
<ele>419</ele>
<time>2019-05-29T10:42:06Z</time>
</trkpt>
<trkpt lat="48.979137" lon="10.121873">
<ele>419</ele>
<time>2019-05-29T10:42:11Z</time>
</trkpt>
<trkpt lat="48.979412" lon="10.12192">
<ele>418</ele>
<time>2019-05-29T10:42:16Z</time>
</trkpt>
<trkpt lat="48.979677" lon="10.121992">
<ele>418</ele>
<time>2019-05-29T10:42:21Z</time>
</trkpt>
<trkpt lat="48.979918" lon="10.122082">
<ele>418</ele>
<time>2019-05-29T10:42:26Z</time>
</trkpt>
<trkpt lat="48.980157" lon="10.122207">
<ele>418</ele>
<time>2019-05-29T10:42:31Z</time>
</trkpt>
<trkpt lat="48.980408" lon="10.122377">
<ele>418</ele>
<time>2019-05-29T10:42:36Z</time>
</trkpt>
<trkpt lat="48.980655" lon="10.12257">
<ele>418</ele>
<time>2019-05-29T10:42:41Z</time>
</trkpt>
<trkpt lat="48.980885" lon="10.122798">
<ele>418</ele>
<time>2019-05-29T10:42:46Z</time>
</trkpt>
<trkpt lat="48.981103" lon="10.12305">
<ele>418</ele>
<time>2019-05-29T10:42:51Z</time>
</trkpt>
<trkpt lat="48.981303" lon="10.123313">
<ele>418</ele>
<time>2019-05-29T10:42:56Z</time>
</trkpt>
<trkpt lat="48.981495" lon="10.123608">
<ele>418</ele>
<time>2019-05-29T10:43:01Z</time>
</trkpt>
<trkpt lat="48.981663" lon="10.123918">
<ele>418</ele>
<time>2019-05-29T10:43:06Z</time>
</trkpt>
<trkpt lat="48.98184" lon="10.124232">
<ele>418</ele>
<time>2019-05-29T10:43:11Z</time>
</trkpt>
<trkpt lat="48.982027" lon="10.12452">
<ele>418</ele>
<time>2019-05-29T10:43:16Z</time>
</trkpt>
<trkpt lat="48.98224" lon="10.124785">
<ele>418</ele>
<time>2019-05-29T10:43:21Z</time>
</trkpt>
<trkpt lat="48.982453" lon="10.125">
<ele>418</ele>
<time>2019-05-29T10:43:26Z</time>
</trkpt>
<trkpt lat="48.982655" lon="10.125102">
<ele>418</ele>
<time>2019-05-29T10:43:31Z</time>
</trkpt>
<trkpt lat="48.982802" lon="10.125148">
<ele>418</ele>
<time>2019-05-29T10:43:36Z</time>
</trkpt>
<trkpt lat="48.982747" lon="10.125362">
<ele>418</ele>
<time>2019-05-29T10:43:41Z</time>
</trkpt>
<trkpt lat="48.98263" lon="10.12563">
<ele>418</ele>
<time>2019-05-29T10:43:46Z</time>
</trkpt>
<trkpt lat="48.982663" lon="10.125857">
<ele>418</ele>
<time>2019-05-29T10:43:51Z</time>
</trkpt>
<trkpt lat="48.982642" lon="10.126165">
<ele>418</ele>
<time>2019-05-29T10:43:56Z</time>
</trkpt>
<trkpt lat="48.982543" lon="10.12651">
<ele>418</ele>
<time>2019-05-29T10:44:01Z</time>
</trkpt>
<trkpt lat="48.982562" lon="10.126863">
<ele>417</ele>
<time>2019-05-29T10:44:06Z</time>
</trkpt>
<trkpt lat="48.982788" lon="10.127067">
<ele>417</ele>
<time>2019-05-29T10:44:11Z</time>
</trkpt>
<trkpt lat="48.983045" lon="10.127245">
<ele>417</ele>
<time>2019-05-29T10:44:16Z</time>
</trkpt>
<trkpt lat="48.983315" lon="10.127412">
<ele>417</ele>
<time>2019-05-29T10:44:21Z</time>
</trkpt>
<trkpt lat="48.983578" lon="10.127538">
<ele>417</ele>
<time>2019-05-29T10:44:26Z</time>
</trkpt>
<trkpt lat="48.98382" lon="10.127625">
<ele>417</ele>
<time>2019-05-29T10:44:31Z</time>
</trkpt>
<trkpt lat="48.9841" lon="10.127682">
<ele>417</ele>
<time>2019-05-29T10:44:36Z</time>
</trkpt>
<trkpt lat="48.984385" lon="10.127713">
<ele>417</ele>
<time>2019-05-29T10:44:41Z</time>
</trkpt>
<trkpt lat="48.984668" lon="10.127715">
<ele>417</ele>
<time>2019-05-29T10:44:46Z</time>
</trkpt>
<trkpt lat="48.984937" lon="10.127702">
<ele>417</ele>
<time>2019-05-29T10:44:51Z</time>
</trkpt>
<trkpt lat="48.985198" lon="10.12767">
<ele>417</ele>
<time>2019-05-29T10:44:56Z</time>
</trkpt>
<trkpt lat="48.985452" lon="10.127602">
<ele>417</ele>
<time>2019-05-29T10:45:01Z</time>
</trkpt>
<trkpt lat="48.985693" lon="10.12753">
<ele>417</ele>
<time>2019-05-29T10:45:06Z</time>
</trkpt>
<trkpt lat="48.985915" lon="10.127438">
<ele>417</ele>
<time>2019-05-29T10:45:11Z</time>
</trkpt>
<trkpt lat="48.986135" lon="10.127305">
<ele>417</ele>
<time>2019-05-29T10:45:16Z</time>
</trkpt>
<trkpt lat="48.98636" lon="10.127142">
<ele>417</ele>
<time>2019-05-29T10:45:21Z</time>
</trkpt>
<trkpt lat="48.986583" lon="10.126938">
<ele>417</ele>
<time>2019-05-29T10:45:26Z</time>
</trkpt>
<trkpt lat="48.986802" lon="10.126725">
<ele>417</ele>
<time>2019-05-29T10:45:31Z</time>
</trkpt>
<trkpt lat="48.987003" lon="10.126487">
<ele>417</ele>
<time>2019-05-29T10:45:36Z</time>
</trkpt>
<trkpt lat="48.987197" lon="10.126232">
<ele>417</ele>
<time>2019-05-29T10:45:41Z</time>
</trkpt>
<trkpt lat="48.987397" lon="10.125975">
<ele>417</ele>
<time>2019-05-29T10:45:46Z</time>
</trkpt>
<trkpt lat="48.987573" lon="10.125685">
<ele>417</ele>
<time>2019-05-29T10:45:51Z</time>
</trkpt>
<trkpt lat="48.987728" lon="10.125423">
<ele>417</ele>
<time>2019-05-29T10:45:56Z</time>
</trkpt>
<trkpt lat="48.987822" lon="10.125227">
<ele>418</ele>
<time>2019-05-29T10:46:01Z</time>
</trkpt>
<trkpt lat="48.987945" lon="10.124952">
<ele>419</ele>
<time>2019-05-29T10:46:06Z</time>
</trkpt>
<trkpt lat="48.988125" lon="10.12457">
<ele>419</ele>
<time>2019-05-29T10:46:11Z</time>
</trkpt>
<trkpt lat="48.988273" lon="10.12414">
<ele>417</ele>
<time>2019-05-29T10:46:16Z</time>
</trkpt>
<trkpt lat="48.988385" lon="10.123735">
<ele>417</ele>
<time>2019-05-29T10:46:21Z</time>
</trkpt>
<trkpt lat="48.98848" lon="10.123327">
<ele>417</ele>
<time>2019-05-29T10:46:26Z</time>
</trkpt>
<trkpt lat="48.988568" lon="10.122912">
<ele>417</ele>
<time>2019-05-29T10:46:31Z</time>
</trkpt>
<trkpt lat="48.988652" lon="10.122512">
<ele>417</ele>
<time>2019-05-29T10:46:36Z</time>
</trkpt>
<trkpt lat="48.988743" lon="10.122128">
<ele>417</ele>
<time>2019-05-29T10:46:41Z</time>
</trkpt>
<trkpt lat="48.988833" lon="10.121735">
<ele>417</ele>
<time>2019-05-29T10:46:46Z</time>
</trkpt>
<trkpt lat="48.988927" lon="10.121347">
<ele>417</ele>
<time>2019-05-29T10:46:51Z</time>
</trkpt>
<trkpt lat="48.989037" lon="10.120957">
<ele>417</ele>
<time>2019-05-29T10:46:56Z</time>
</trkpt>
<trkpt lat="48.98916" lon="10.12058">
<ele>417</ele>
<time>2019-05-29T10:47:01Z</time>
</trkpt>
<trkpt lat="48.98929" lon="10.120228">
<ele>417</ele>
<time>2019-05-29T10:47:06Z</time>
</trkpt>
<trkpt lat="48.989435" lon="10.119875">
<ele>417</ele>
<time>2019-05-29T10:47:11Z</time>
</trkpt>
<trkpt lat="48.989583" lon="10.119555">
<ele>417</ele>
<time>2019-05-29T10:47:16Z</time>
</trkpt>
<trkpt lat="48.989762" lon="10.119272">
<ele>416</ele>
<time>2019-05-29T10:47:21Z</time>
</trkpt>
<trkpt lat="48.98993" lon="10.119012">
<ele>416</ele>
<time>2019-05-29T10:47:26Z</time>
</trkpt>
<trkpt lat="48.989967" lon="10.118687">
<ele>416</ele>
<time>2019-05-29T10:47:31Z</time>
</trkpt>
<trkpt lat="48.989827" lon="10.118435">
<ele>417</ele>
<time>2019-05-29T10:47:36Z</time>
</trkpt>
<trkpt lat="48.98963" lon="10.118182">
<ele>417</ele>
<time>2019-05-29T10:47:41Z</time>
</trkpt>
<trkpt lat="48.989435" lon="10.117927">
<ele>417</ele>
<time>2019-05-29T10:47:46Z</time>
</trkpt>
<trkpt lat="48.989278" lon="10.117635">
<ele>417</ele>
<time>2019-05-29T10:47:51Z</time>
</trkpt>
<trkpt lat="48.989313" lon="10.117255">
<ele>417</ele>
<time>2019-05-29T10:47:56Z</time>
</trkpt>
<trkpt lat="48.989528" lon="10.116997">
<ele>416</ele>
<time>2019-05-29T10:48:01Z</time>
</trkpt>
<trkpt lat="48.98977" lon="10.116748">
<ele>416</ele>
<time>2019-05-29T10:48:06Z</time>
</trkpt>
<trkpt lat="48.990048" lon="10.116537">
<ele>416</ele>
<time>2019-05-29T10:48:11Z</time>
</trkpt>
<trkpt lat="48.990322" lon="10.116373">
<ele>416</ele>
<time>2019-05-29T10:48:16Z</time>
</trkpt>
<trkpt lat="48.990613" lon="10.116222">
<ele>416</ele>
<time>2019-05-29T10:48:21Z</time>
</trkpt>
<trkpt lat="48.990903" lon="10.116087">
<ele>415</ele>
<time>2019-05-29T10:48:26Z</time>
</trkpt>
<trkpt lat="48.991215" lon="10.115983">
<ele>415</ele>
<time>2019-05-29T10:48:31Z</time>
</trkpt>
<trkpt lat="48.991527" lon="10.115917">
<ele>415</ele>
<time>2019-05-29T10:48:36Z</time>
</trkpt>
<trkpt lat="48.991825" lon="10.115882">
<ele>415</ele>
<time>2019-05-29T10:48:41Z</time>
</trkpt>
<trkpt lat="48.992138" lon="10.115908">
<ele>415</ele>
<time>2019-05-29T10:48:46Z</time>
</trkpt>
<trkpt lat="48.99244" lon="10.115952">
<ele>415</ele>
<time>2019-05-29T10:48:51Z</time>
</trkpt>
<trkpt lat="48.992723" lon="10.116023">
<ele>415</ele>
<time>2019-05-29T10:48:56Z</time>
</trkpt>
<trkpt lat="48.993003" lon="10.116118">
<ele>415</ele>
<time>2019-05-29T10:49:01Z</time>
</trkpt>
<trkpt lat="48.993278" lon="10.116228">
<ele>415</ele>
<time>2019-05-29T10:49:06Z</time>
</trkpt>
<trkpt lat="48.993538" lon="10.11637">
<ele>415</ele>
<time>2019-05-29T10:49:11Z</time>
</trkpt>
<trkpt lat="48.993785" lon="10.116552">
<ele>415</ele>
<time>2019-05-29T10:49:16Z</time>
</trkpt>
<trkpt lat="48.993985" lon="10.116718">
<ele>415</ele>
<time>2019-05-29T10:49:21Z</time>
</trkpt>
<trkpt lat="48.994128" lon="10.116952">
<ele>415</ele>
<time>2019-05-29T10:49:26Z</time>
</trkpt>
<trkpt lat="48.994195" lon="10.11725">
<ele>415</ele>
<time>2019-05-29T10:49:31Z</time>
</trkpt>
<trkpt lat="48.99411" lon="10.117515">
<ele>415</ele>
<time>2019-05-29T10:49:36Z</time>
</trkpt>
<trkpt lat="48.99407" lon="10.117688">
<ele>417</ele>
<time>2019-05-29T10:49:41Z</time>
</trkpt>
<trkpt lat="48.994012" lon="10.117937">
<ele>417</ele>
<time>2019-05-29T10:49:46Z</time>
</trkpt>
<trkpt lat="48.99401" lon="10.118232">
<ele>417</ele>
<time>2019-05-29T10:49:51Z</time>
</trkpt>
<trkpt lat="48.994225" lon="10.118435">
<ele>417</ele>
<time>2019-05-29T10:49:56Z</time>
</trkpt>
<trkpt lat="48.994485" lon="10.11859">
<ele>417</ele>
<time>2019-05-29T10:50:01Z</time>
</trkpt>
<trkpt lat="48.99475" lon="10.118763">
<ele>418</ele>
<time>2019-05-29T10:50:06Z</time>
</trkpt>
<trkpt lat="48.994978" lon="10.118983">
<ele>418</ele>
<time>2019-05-29T10:50:11Z</time>
</trkpt>
<trkpt lat="48.995165" lon="10.119282">
<ele>419</ele>
<time>2019-05-29T10:50:16Z</time>
</trkpt>
<trkpt lat="48.995293" lon="10.11963">
<ele>419</ele>
<time>2019-05-29T10:50:21Z</time>
</trkpt>
<trkpt lat="48.99539" lon="10.120003">
<ele>419</ele>
<time>2019-05-29T10:50:26Z</time>
</trkpt>
<trkpt lat="48.995532" lon="10.120353">
<ele>419</ele>
<time>2019-05-29T10:50:31Z</time>
</trkpt>
<trkpt lat="48.99573" lon="10.12062">
<ele>420</ele>
<time>2019-05-29T10:50:36Z</time>
</trkpt>
<trkpt lat="48.99596" lon="10.120817">
<ele>420</ele>
<time>2019-05-29T10:50:41Z</time>
</trkpt>
<trkpt lat="48.996145" lon="10.120972">
<ele>420</ele>
<time>2019-05-29T10:50:46Z</time>
</trkpt>
<trkpt lat="48.996388" lon="10.121158">
<ele>420</ele>
<time>2019-05-29T10:50:51Z</time>
</trkpt>
<trkpt lat="48.996692" lon="10.121442">
<ele>419</ele>
<time>2019-05-29T10:50:56Z</time>
</trkpt>
<trkpt lat="48.997015" lon="10.12164">
<ele>418</ele>
<time>2019-05-29T10:51:01Z</time>
</trkpt>
<trkpt lat="48.997362" lon="10.121697">
<ele>416</ele>
<time>2019-05-29T10:51:06Z</time>
</trkpt>
<trkpt lat="48.997673" lon="10.121713">
<ele>416</ele>
<time>2019-05-29T10:51:11Z</time>
</trkpt>
<trkpt lat="48.997983" lon="10.121695">
<ele>416</ele>
<time>2019-05-29T10:51:16Z</time>
</trkpt>
<trkpt lat="48.998268" lon="10.12158">
<ele>416</ele>
<time>2019-05-29T10:51:21Z</time>
</trkpt>
<trkpt lat="48.998552" lon="10.121472">
<ele>416</ele>
<time>2019-05-29T10:51:26Z</time>
</trkpt>
<trkpt lat="48.998845" lon="10.121417">
<ele>416</ele>
<time>2019-05-29T10:51:31Z</time>
</trkpt>
<trkpt lat="48.999122" lon="10.12131">
<ele>416</ele>
<time>2019-05-29T10:51:36Z</time>
</trkpt>
<trkpt lat="48.999387" lon="10.121155">
<ele>416</ele>
<time>2019-05-29T10:51:41Z</time>
</trkpt>
<trkpt lat="48.999673" lon="10.120988">
<ele>416</ele>
<time>2019-05-29T10:51:46Z</time>
</trkpt>
<trkpt lat="48.999952" lon="10.120818">
<ele>416</ele>
<time>2019-05-29T10:51:51Z</time>
</trkpt>
<trkpt lat="49.000187" lon="10.120638">
<ele>416</ele>
<time>2019-05-29T10:51:56Z</time>
</trkpt>
<trkpt lat="49.000365" lon="10.120493">
<ele>417</ele>
<time>2019-05-29T10:52:01Z</time>
</trkpt>
<trkpt lat="49.000547" lon="10.120318">
<ele>419</ele>
<time>2019-05-29T10:52:06Z</time>
</trkpt>
<trkpt lat="49.000722" lon="10.120187">
<ele>420</ele>
<time>2019-05-29T10:52:11Z</time>
</trkpt>
<trkpt lat="49.00089" lon="10.120075">
<ele>422</ele>
<time>2019-05-29T10:52:16Z</time>
</trkpt>
<trkpt lat="49.001055" lon="10.11996">
<ele>423</ele>
<time>2019-05-29T10:52:21Z</time>
</trkpt>
<trkpt lat="49.001203" lon="10.119842">
<ele>424</ele>
<time>2019-05-29T10:52:26Z</time>
</trkpt>
<trkpt lat="49.001353" lon="10.119707">
<ele>425</ele>
<time>2019-05-29T10:52:31Z</time>
</trkpt>
<trkpt lat="49.001533" lon="10.119568">
<ele>425</ele>
<time>2019-05-29T10:52:36Z</time>
</trkpt>
<trkpt lat="49.001725" lon="10.119383">
<ele>425</ele>
<time>2019-05-29T10:52:41Z</time>
</trkpt>
<trkpt lat="49.001968" lon="10.119137">
<ele>424</ele>
<time>2019-05-29T10:52:46Z</time>
</trkpt>
<trkpt lat="49.002313" lon="10.119012">
<ele>422</ele>
<time>2019-05-29T10:52:51Z</time>
</trkpt>
<trkpt lat="49.002685" lon="10.1191">
<ele>421</ele>
<time>2019-05-29T10:52:56Z</time>
</trkpt>
<trkpt lat="49.003015" lon="10.118963">
<ele>419</ele>
<time>2019-05-29T10:53:01Z</time>
</trkpt>
<trkpt lat="49.003293" lon="10.118648">
<ele>419</ele>
<time>2019-05-29T10:53:06Z</time>
</trkpt>
<trkpt lat="49.003533" lon="10.118277">
<ele>417</ele>
<time>2019-05-29T10:53:11Z</time>
</trkpt>
<trkpt lat="49.003757" lon="10.117958">
<ele>417</ele>
<time>2019-05-29T10:53:16Z</time>
</trkpt>
<trkpt lat="49.003993" lon="10.11794">
<ele>417</ele>
<time>2019-05-29T10:53:21Z</time>
</trkpt>
<trkpt lat="49.004193" lon="10.117857">
<ele>417</ele>
<time>2019-05-29T10:53:26Z</time>
</trkpt>
<trkpt lat="49.004357" lon="10.117737">
<ele>417</ele>
<time>2019-05-29T10:53:31Z</time>
</trkpt>
<trkpt lat="49.004493" lon="10.117572">
<ele>419</ele>
<time>2019-05-29T10:53:36Z</time>
</trkpt>
<trkpt lat="49.004598" lon="10.117398">
<ele>420</ele>
<time>2019-05-29T10:53:41Z</time>
</trkpt>
<trkpt lat="49.004685" lon="10.117217">
<ele>421</ele>
<time>2019-05-29T10:53:46Z</time>
</trkpt>
<trkpt lat="49.004767" lon="10.117033">
<ele>422</ele>
<time>2019-05-29T10:53:51Z</time>
</trkpt>
<trkpt lat="49.004835" lon="10.116828">
<ele>423</ele>
<time>2019-05-29T10:53:56Z</time>
</trkpt>
<trkpt lat="49.004902" lon="10.116612">
<ele>424</ele>
<time>2019-05-29T10:54:01Z</time>
</trkpt>
<trkpt lat="49.004958" lon="10.1164">
<ele>425</ele>
<time>2019-05-29T10:54:06Z</time>
</trkpt>
<trkpt lat="49.004993" lon="10.116188">
<ele>426</ele>
<time>2019-05-29T10:54:11Z</time>
</trkpt>
<trkpt lat="49.005005" lon="10.115978">
<ele>427</ele>
<time>2019-05-29T10:54:16Z</time>
</trkpt>
<trkpt lat="49.005012" lon="10.115797">
<ele>427</ele>
<time>2019-05-29T10:54:21Z</time>
</trkpt>
<trkpt lat="49.005002" lon="10.1156">
<ele>428</ele>
<time>2019-05-29T10:54:26Z</time>
</trkpt>
<trkpt lat="49.005018" lon="10.115372">
<ele>429</ele>
<time>2019-05-29T10:54:31Z</time>
</trkpt>
<trkpt lat="49.005037" lon="10.11514">
<ele>430</ele>
<time>2019-05-29T10:54:36Z</time>
</trkpt>
<trkpt lat="49.005023" lon="10.11493">
<ele>430</ele>
<time>2019-05-29T10:54:41Z</time>
</trkpt>
<trkpt lat="49.005022" lon="10.114725">
<ele>431</ele>
<time>2019-05-29T10:54:46Z</time>
</trkpt>
<trkpt lat="49.00505" lon="10.114492">
<ele>431</ele>
<time>2019-05-29T10:54:51Z</time>
</trkpt>
<trkpt lat="49.005072" lon="10.114177">
<ele>431</ele>
<time>2019-05-29T10:54:56Z</time>
</trkpt>
<trkpt lat="49.005103" lon="10.11377">
<ele>431</ele>
<time>2019-05-29T10:55:01Z</time>
</trkpt>
<trkpt lat="49.005172" lon="10.11334">
<ele>430</ele>
<time>2019-05-29T10:55:06Z</time>
</trkpt>
<trkpt lat="49.00532" lon="10.112838">
<ele>429</ele>
<time>2019-05-29T10:55:11Z</time>
</trkpt>
<trkpt lat="49.005513" lon="10.112358">
<ele>427</ele>
<time>2019-05-29T10:55:16Z</time>
</trkpt>
<trkpt lat="49.005748" lon="10.111833">
<ele>426</ele>
<time>2019-05-29T10:55:21Z</time>
</trkpt>
<trkpt lat="49.006102" lon="10.111368">
<ele>424</ele>
<time>2019-05-29T10:55:26Z</time>
</trkpt>
<trkpt lat="49.006537" lon="10.111147">
<ele>421</ele>
<time>2019-05-29T10:55:31Z</time>
</trkpt>
<trkpt lat="49.007012" lon="10.110973">
<ele>419</ele>
<time>2019-05-29T10:55:36Z</time>
</trkpt>
<trkpt lat="49.007487" lon="10.110853">
<ele>417</ele>
<time>2019-05-29T10:55:41Z</time>
</trkpt>
<trkpt lat="49.007913" lon="10.110513">
<ele>414</ele>
<time>2019-05-29T10:55:46Z</time>
</trkpt>
<trkpt lat="49.008167" lon="10.110015">
<ele>414</ele>
<time>2019-05-29T10:55:51Z</time>
</trkpt>
<trkpt lat="49.008353" lon="10.109612">
<ele>413</ele>
<time>2019-05-29T10:55:56Z</time>
</trkpt>
<trkpt lat="49.00856" lon="10.10943">
<ele>415</ele>
<time>2019-05-29T10:56:01Z</time>
</trkpt>
<trkpt lat="49.008748" lon="10.109297">
<ele>417</ele>
<time>2019-05-29T10:56:06Z</time>
</trkpt>
<trkpt lat="49.008852" lon="10.109223">
<ele>418</ele>
<time>2019-05-29T10:56:11Z</time>
</trkpt>
<trkpt lat="49.008982" lon="10.109103">
<ele>419</ele>
<time>2019-05-29T10:56:16Z</time>
</trkpt>
<trkpt lat="49.009108" lon="10.108967">
<ele>420</ele>
<time>2019-05-29T10:56:21Z</time>
</trkpt>
<trkpt lat="49.009222" lon="10.108795">
<ele>421</ele>
<time>2019-05-29T10:56:26Z</time>
</trkpt>
<trkpt lat="49.009357" lon="10.108622">
<ele>422</ele>
<time>2019-05-29T10:56:31Z</time>
</trkpt>
<trkpt lat="49.00945" lon="10.108453">
<ele>423</ele>
<time>2019-05-29T10:56:36Z</time>
</trkpt>
<trkpt lat="49.009565" lon="10.108293">
<ele>424</ele>
<time>2019-05-29T10:56:41Z</time>
</trkpt>
<trkpt lat="49.009667" lon="10.108085">
<ele>425</ele>
<time>2019-05-29T10:56:46Z</time>
</trkpt>
<trkpt lat="49.009788" lon="10.107822">
<ele>426</ele>
<time>2019-05-29T10:56:52Z</time>
</trkpt>
<trkpt lat="49.009837" lon="10.107542">
<ele>426</ele>
<time>2019-05-29T10:56:57Z</time>
</trkpt>
<trkpt lat="49.009882" lon="10.107255">
<ele>426</ele>
<time>2019-05-29T10:57:02Z</time>
</trkpt>
<trkpt lat="49.009908" lon="10.106957">
<ele>426</ele>
<time>2019-05-29T10:57:07Z</time>
</trkpt>
<trkpt lat="49.009983" lon="10.106655">
<ele>427</ele>
<time>2019-05-29T10:57:12Z</time>
</trkpt>
<trkpt lat="49.010132" lon="10.106445">
<ele>428</ele>
<time>2019-05-29T10:57:17Z</time>
</trkpt>
<trkpt lat="49.010267" lon="10.106267">
<ele>429</ele>
<time>2019-05-29T10:57:22Z</time>
</trkpt>
<trkpt lat="49.010477" lon="10.10607">
<ele>429</ele>
<time>2019-05-29T10:57:27Z</time>
</trkpt>
<trkpt lat="49.010783" lon="10.105802">
<ele>428</ele>
<time>2019-05-29T10:57:32Z</time>
</trkpt>
<trkpt lat="49.011187" lon="10.105587">
<ele>424</ele>
<time>2019-05-29T10:57:37Z</time>
</trkpt>
<trkpt lat="49.011552" lon="10.105738">
<ele>422</ele>
<time>2019-05-29T10:57:42Z</time>
</trkpt>
<trkpt lat="49.011918" lon="10.106173">
<ele>420</ele>
<time>2019-05-29T10:57:47Z</time>
</trkpt>
<trkpt lat="49.01227" lon="10.106693">
<ele>418</ele>
<time>2019-05-29T10:57:52Z</time>
</trkpt>
<trkpt lat="49.012648" lon="10.107137">
<ele>416</ele>
<time>2019-05-29T10:57:57Z</time>
</trkpt>
<trkpt lat="49.013087" lon="10.107557">
<ele>413</ele>
<time>2019-05-29T10:58:02Z</time>
</trkpt>
<trkpt lat="49.013432" lon="10.107967">
<ele>413</ele>
<time>2019-05-29T10:58:07Z</time>
</trkpt>
<trkpt lat="49.013782" lon="10.108193">
<ele>413</ele>
<time>2019-05-29T10:58:12Z</time>
</trkpt>
<trkpt lat="49.014162" lon="10.1082">
<ele>413</ele>
<time>2019-05-29T10:58:17Z</time>
</trkpt>
<trkpt lat="49.014555" lon="10.108152">
<ele>412</ele>
<time>2019-05-29T10:58:23Z</time>
</trkpt>
<trkpt lat="49.014842" lon="10.108128">
<ele>412</ele>
<time>2019-05-29T10:58:28Z</time>
</trkpt>
<trkpt lat="49.015038" lon="10.108112">
<ele>412</ele>
<time>2019-05-29T10:58:33Z</time>
</trkpt>
<trkpt lat="49.015267" lon="10.108177">
<ele>412</ele>
<time>2019-05-29T10:58:39Z</time>
</trkpt>
<trkpt lat="49.015485" lon="10.10821">
<ele>412</ele>
<time>2019-05-29T10:58:44Z</time>
</trkpt>
<trkpt lat="49.015617" lon="10.108443">
<ele>412</ele>
<time>2019-05-29T10:58:49Z</time>
</trkpt>
<trkpt lat="49.01571" lon="10.10879">
<ele>412</ele>
<time>2019-05-29T10:58:54Z</time>
</trkpt>
<trkpt lat="49.015807" lon="10.109147">
<ele>412</ele>
<time>2019-05-29T10:58:59Z</time>
</trkpt>
<trkpt lat="49.015835" lon="10.109542">
<ele>412</ele>
<time>2019-05-29T10:59:04Z</time>
</trkpt>
<trkpt lat="49.015783" lon="10.109935">
<ele>412</ele>
<time>2019-05-29T10:59:09Z</time>
</trkpt>
<trkpt lat="49.015688" lon="10.110353">
<ele>412</ele>
<time>2019-05-29T10:59:14Z</time>
</trkpt>
<trkpt lat="49.015643" lon="10.110772">
<ele>412</ele>
<time>2019-05-29T10:59:19Z</time>
</trkpt>
<trkpt lat="49.015693" lon="10.111192">
<ele>412</ele>
<time>2019-05-29T10:59:24Z</time>
</trkpt>
<trkpt lat="49.015807" lon="10.111585">
<ele>412</ele>
<time>2019-05-29T10:59:29Z</time>
</trkpt>
<trkpt lat="49.015932" lon="10.111932">
<ele>412</ele>
<time>2019-05-29T10:59:34Z</time>
</trkpt>
<trkpt lat="49.016118" lon="10.11221">
<ele>412</ele>
<time>2019-05-29T10:59:39Z</time>
</trkpt>
<trkpt lat="49.016453" lon="10.112465">
<ele>412</ele>
<time>2019-05-29T10:59:45Z</time>
</trkpt>
<trkpt lat="49.016718" lon="10.112712">
<ele>412</ele>
<time>2019-05-29T10:59:50Z</time>
</trkpt>
<trkpt lat="49.017008" lon="10.11306">
<ele>412</ele>
<time>2019-05-29T10:59:56Z</time>
</trkpt>
<trkpt lat="49.017265" lon="10.113418">
<ele>412</ele>
<time>2019-05-29T11:00:01Z</time>
</trkpt>
<trkpt lat="49.017397" lon="10.113702">
<ele>412</ele>
<time>2019-05-29T11:00:07Z</time>
</trkpt>
<trkpt lat="49.017595" lon="10.11394">
<ele>412</ele>
<time>2019-05-29T11:00:12Z</time>
</trkpt>
<trkpt lat="49.01791" lon="10.114105">
<ele>412</ele>
<time>2019-05-29T11:00:18Z</time>
</trkpt>
<trkpt lat="49.018235" lon="10.114155">
<ele>412</ele>
<time>2019-05-29T11:00:23Z</time>
</trkpt>
<trkpt lat="49.018507" lon="10.114187">
<ele>412</ele>
<time>2019-05-29T11:00:29Z</time>
</trkpt>
<trkpt lat="49.018748" lon="10.114378">
<ele>412</ele>
<time>2019-05-29T11:00:34Z</time>
</trkpt>
<trkpt lat="49.018973" lon="10.114712">
<ele>412</ele>
<time>2019-05-29T11:00:39Z</time>
</trkpt>
<trkpt lat="49.019208" lon="10.114995">
<ele>412</ele>
<time>2019-05-29T11:00:44Z</time>
</trkpt>
<trkpt lat="49.019525" lon="10.115242">
<ele>413</ele>
<time>2019-05-29T11:00:49Z</time>
</trkpt>
<trkpt lat="49.019738" lon="10.115467">
<ele>413</ele>
<time>2019-05-29T11:00:54Z</time>
</trkpt>
<trkpt lat="49.019925" lon="10.115742">
<ele>413</ele>
<time>2019-05-29T11:01:00Z</time>
</trkpt>
<trkpt lat="49.020083" lon="10.11604">
<ele>413</ele>
<time>2019-05-29T11:01:05Z</time>
</trkpt>
<trkpt lat="49.020308" lon="10.11629">
<ele>413</ele>
<time>2019-05-29T11:01:10Z</time>
</trkpt>
<trkpt lat="49.020538" lon="10.11641">
<ele>413</ele>
<time>2019-05-29T11:01:15Z</time>
</trkpt>
<trkpt lat="49.02082" lon="10.116435">
<ele>413</ele>
<time>2019-05-29T11:01:20Z</time>
</trkpt>
<trkpt lat="49.021078" lon="10.11647">
<ele>414</ele>
<time>2019-05-29T11:01:25Z</time>
</trkpt>
<trkpt lat="49.021323" lon="10.116568">
<ele>414</ele>
<time>2019-05-29T11:01:30Z</time>
</trkpt>
<trkpt lat="49.021635" lon="10.116717">
<ele>414</ele>
<time>2019-05-29T11:01:36Z</time>
</trkpt>
<trkpt lat="49.021868" lon="10.116835">
<ele>414</ele>
<time>2019-05-29T11:01:41Z</time>
</trkpt>
<trkpt lat="49.022107" lon="10.117043">
<ele>414</ele>
<time>2019-05-29T11:01:46Z</time>
</trkpt>
<trkpt lat="49.02235" lon="10.11736">
<ele>414</ele>
<time>2019-05-29T11:01:51Z</time>
</trkpt>
<trkpt lat="49.022485" lon="10.11784">
<ele>415</ele>
<time>2019-05-29T11:01:57Z</time>
</trkpt>
<trkpt lat="49.022622" lon="10.118277">
<ele>415</ele>
<time>2019-05-29T11:02:02Z</time>
</trkpt>
<trkpt lat="49.022763" lon="10.118607">
<ele>415</ele>
<time>2019-05-29T11:02:07Z</time>
</trkpt>
<trkpt lat="49.022962" lon="10.118862">
<ele>415</ele>
<time>2019-05-29T11:02:12Z</time>
</trkpt>
<trkpt lat="49.023147" lon="10.11908">
<ele>415</ele>
<time>2019-05-29T11:02:18Z</time>
</trkpt>
<trkpt lat="49.02337" lon="10.119268">
<ele>415</ele>
<time>2019-05-29T11:02:23Z</time>
</trkpt>
<trkpt lat="49.023643" lon="10.11952">
<ele>415</ele>
<time>2019-05-29T11:02:29Z</time>
</trkpt>
<trkpt lat="49.023913" lon="10.1197">
<ele>415</ele>
<time>2019-05-29T11:02:34Z</time>
</trkpt>
<trkpt lat="49.024263" lon="10.119647">
<ele>416</ele>
<time>2019-05-29T11:02:40Z</time>
</trkpt>
<trkpt lat="49.024518" lon="10.119485">
<ele>416</ele>
<time>2019-05-29T11:02:45Z</time>
</trkpt>
<trkpt lat="49.024747" lon="10.119343">
<ele>416</ele>
<time>2019-05-29T11:02:50Z</time>
</trkpt>
<trkpt lat="49.024988" lon="10.11923">
<ele>416</ele>
<time>2019-05-29T11:02:55Z</time>
</trkpt>
<trkpt lat="49.025247" lon="10.119132">
<ele>416</ele>
<time>2019-05-29T11:03:00Z</time>
</trkpt>
<trkpt lat="49.025527" lon="10.119108">
<ele>416</ele>
<time>2019-05-29T11:03:05Z</time>
</trkpt>
<trkpt lat="49.025777" lon="10.119268">
<ele>416</ele>
<time>2019-05-29T11:03:10Z</time>
</trkpt>
<trkpt lat="49.026045" lon="10.119593">
<ele>416</ele>
<time>2019-05-29T11:03:16Z</time>
</trkpt>
<trkpt lat="49.026258" lon="10.119988">
<ele>416</ele>
<time>2019-05-29T11:03:22Z</time>
</trkpt>
<trkpt lat="49.026425" lon="10.120382">
<ele>416</ele>
<time>2019-05-29T11:03:28Z</time>
</trkpt>
<trkpt lat="49.026558" lon="10.120715">
<ele>417</ele>
<time>2019-05-29T11:03:33Z</time>
</trkpt>
<trkpt lat="49.026685" lon="10.121083">
<ele>417</ele>
<time>2019-05-29T11:03:38Z</time>
</trkpt>
<trkpt lat="49.026768" lon="10.121493">
<ele>417</ele>
<time>2019-05-29T11:03:43Z</time>
</trkpt>
<trkpt lat="49.026835" lon="10.121875">
<ele>417</ele>
<time>2019-05-29T11:03:48Z</time>
</trkpt>
<trkpt lat="49.026937" lon="10.122185">
<ele>417</ele>
<time>2019-05-29T11:03:53Z</time>
</trkpt>
<trkpt lat="49.027068" lon="10.122488">
<ele>417</ele>
<time>2019-05-29T11:03:58Z</time>
</trkpt>
<trkpt lat="49.02731" lon="10.122707">
<ele>417</ele>
<time>2019-05-29T11:04:04Z</time>
</trkpt>
<trkpt lat="49.027557" lon="10.122637">
<ele>418</ele>
<time>2019-05-29T11:04:09Z</time>
</trkpt>
<trkpt lat="49.027803" lon="10.122373">
<ele>418</ele>
<time>2019-05-29T11:04:14Z</time>
</trkpt>
<trkpt lat="49.028047" lon="10.12214">
<ele>418</ele>
<time>2019-05-29T11:04:19Z</time>
</trkpt>
<trkpt lat="49.028342" lon="10.122102">
<ele>418</ele>
<time>2019-05-29T11:04:24Z</time>
</trkpt>
<trkpt lat="49.028675" lon="10.122172">
<ele>418</ele>
<time>2019-05-29T11:04:29Z</time>
</trkpt>
<trkpt lat="49.028917" lon="10.122267">
<ele>418</ele>
<time>2019-05-29T11:04:35Z</time>
</trkpt>
<trkpt lat="49.029212" lon="10.122508">
<ele>418</ele>
<time>2019-05-29T11:04:41Z</time>
</trkpt>
<trkpt lat="49.029392" lon="10.122848">
<ele>418</ele>
<time>2019-05-29T11:04:47Z</time>
</trkpt>
<trkpt lat="49.029537" lon="10.123237">
<ele>419</ele>
<time>2019-05-29T11:04:52Z</time>
</trkpt>
<trkpt lat="49.029683" lon="10.123612">
<ele>419</ele>
<time>2019-05-29T11:04:57Z</time>
</trkpt>
<trkpt lat="49.02982" lon="10.124002">
<ele>419</ele>
<time>2019-05-29T11:05:02Z</time>
</trkpt>
<trkpt lat="49.029998" lon="10.12443">
<ele>419</ele>
<time>2019-05-29T11:05:08Z</time>
</trkpt>
<trkpt lat="49.030142" lon="10.124783">
<ele>419</ele>
<time>2019-05-29T11:05:13Z</time>
</trkpt>
<trkpt lat="49.030272" lon="10.12508">
<ele>419</ele>
<time>2019-05-29T11:05:18Z</time>
</trkpt>
<trkpt lat="49.030402" lon="10.12535">
<ele>420</ele>
<time>2019-05-29T11:05:23Z</time>
</trkpt>
<trkpt lat="49.030537" lon="10.125635">
<ele>421</ele>
<time>2019-05-29T11:05:28Z</time>
</trkpt>
<trkpt lat="49.030708" lon="10.125842">
<ele>421</ele>
<time>2019-05-29T11:05:33Z</time>
</trkpt>
<trkpt lat="49.03087" lon="10.126085">
<ele>421</ele>
<time>2019-05-29T11:05:39Z</time>
</trkpt>
<trkpt lat="49.03115" lon="10.126382">
<ele>421</ele>
<time>2019-05-29T11:05:44Z</time>
</trkpt>
<trkpt lat="49.031415" lon="10.126633">
<ele>421</ele>
<time>2019-05-29T11:05:50Z</time>
</trkpt>
<trkpt lat="49.031713" lon="10.126947">
<ele>421</ele>
<time>2019-05-29T11:05:56Z</time>
</trkpt>
<trkpt lat="49.031938" lon="10.127217">
<ele>421</ele>
<time>2019-05-29T11:06:01Z</time>
</trkpt>
<trkpt lat="49.032233" lon="10.127397">
<ele>421</ele>
<time>2019-05-29T11:06:06Z</time>
</trkpt>
<trkpt lat="49.03248" lon="10.127473">
<ele>421</ele>
<time>2019-05-29T11:06:11Z</time>
</trkpt>
<trkpt lat="49.032738" lon="10.127563">
<ele>421</ele>
<time>2019-05-29T11:06:16Z</time>
</trkpt>
<trkpt lat="49.033007" lon="10.127705">
<ele>421</ele>
<time>2019-05-29T11:06:21Z</time>
</trkpt>
<trkpt lat="49.033202" lon="10.12794">
<ele>421</ele>
<time>2019-05-29T11:06:26Z</time>
</trkpt>
<trkpt lat="49.03345" lon="10.128127">
<ele>421</ele>
<time>2019-05-29T11:06:31Z</time>
</trkpt>
<trkpt lat="49.033713" lon="10.128117">
<ele>421</ele>
<time>2019-05-29T11:06:36Z</time>
</trkpt>
<trkpt lat="49.03399" lon="10.12803">
<ele>422</ele>
<time>2019-05-29T11:06:41Z</time>
</trkpt>
<trkpt lat="49.034243" lon="10.127913">
<ele>422</ele>
<time>2019-05-29T11:06:46Z</time>
</trkpt>
<trkpt lat="49.034478" lon="10.127795">
<ele>422</ele>
<time>2019-05-29T11:06:51Z</time>
</trkpt>
<trkpt lat="49.034738" lon="10.127668">
<ele>422</ele>
<time>2019-05-29T11:06:56Z</time>
</trkpt>
<trkpt lat="49.034997" lon="10.127593">
<ele>423</ele>
<time>2019-05-29T11:07:01Z</time>
</trkpt>
<trkpt lat="49.035262" lon="10.127567">
<ele>423</ele>
<time>2019-05-29T11:07:06Z</time>
</trkpt>
<trkpt lat="49.035535" lon="10.127592">
<ele>423</ele>
<time>2019-05-29T11:07:11Z</time>
</trkpt>
<trkpt lat="49.03581" lon="10.127672">
<ele>423</ele>
<time>2019-05-29T11:07:16Z</time>
</trkpt>
<trkpt lat="49.036075" lon="10.127795">
<ele>423</ele>
<time>2019-05-29T11:07:21Z</time>
</trkpt>
<trkpt lat="49.03634" lon="10.127957">
<ele>423</ele>
<time>2019-05-29T11:07:26Z</time>
</trkpt>
<trkpt lat="49.036593" lon="10.128143">
<ele>423</ele>
<time>2019-05-29T11:07:31Z</time>
</trkpt>
<trkpt lat="49.03682" lon="10.128352">
<ele>423</ele>
<time>2019-05-29T11:07:36Z</time>
</trkpt>
<trkpt lat="49.037023" lon="10.128587">
<ele>423</ele>
<time>2019-05-29T11:07:42Z</time>
</trkpt>
<trkpt lat="49.037248" lon="10.128905">
<ele>423</ele>
<time>2019-05-29T11:07:47Z</time>
</trkpt>
<trkpt lat="49.037438" lon="10.129178">
<ele>423</ele>
<time>2019-05-29T11:07:52Z</time>
</trkpt>
<trkpt lat="49.03762" lon="10.129463">
<ele>423</ele>
<time>2019-05-29T11:07:57Z</time>
</trkpt>
<trkpt lat="49.037787" lon="10.12973">
<ele>424</ele>
<time>2019-05-29T11:08:02Z</time>
</trkpt>
<trkpt lat="49.037962" lon="10.129988">
<ele>424</ele>
<time>2019-05-29T11:08:07Z</time>
</trkpt>
<trkpt lat="49.038117" lon="10.130268">
<ele>424</ele>
<time>2019-05-29T11:08:12Z</time>
</trkpt>
<trkpt lat="49.038242" lon="10.130587">
<ele>424</ele>
<time>2019-05-29T11:08:17Z</time>
</trkpt>
<trkpt lat="49.038392" lon="10.130917">
<ele>424</ele>
<time>2019-05-29T11:08:22Z</time>
</trkpt>
<trkpt lat="49.038575" lon="10.131205">
<ele>424</ele>
<time>2019-05-29T11:08:28Z</time>
</trkpt>
<trkpt lat="49.038838" lon="10.131392">
<ele>424</ele>
<time>2019-05-29T11:08:33Z</time>
</trkpt>
<trkpt lat="49.039063" lon="10.13148">
<ele>425</ele>
<time>2019-05-29T11:08:38Z</time>
</trkpt>
<trkpt lat="49.039282" lon="10.13158">
<ele>426</ele>
<time>2019-05-29T11:08:43Z</time>
</trkpt>
<trkpt lat="49.03948" lon="10.131707">
<ele>426</ele>
<time>2019-05-29T11:08:48Z</time>
</trkpt>
<trkpt lat="49.039668" lon="10.131847">
<ele>427</ele>
<time>2019-05-29T11:08:53Z</time>
</trkpt>
<trkpt lat="49.039867" lon="10.131953">
<ele>428</ele>
<time>2019-05-29T11:08:58Z</time>
</trkpt>
<trkpt lat="49.040095" lon="10.13201">
<ele>428</ele>
<time>2019-05-29T11:09:03Z</time>
</trkpt>
<trkpt lat="49.040333" lon="10.132073">
<ele>428</ele>
<time>2019-05-29T11:09:08Z</time>
</trkpt>
<trkpt lat="49.040573" lon="10.132095">
<ele>428</ele>
<time>2019-05-29T11:09:13Z</time>
</trkpt>
<trkpt lat="49.040778" lon="10.132038">
<ele>428</ele>
<time>2019-05-29T11:09:18Z</time>
</trkpt>
<trkpt lat="49.040932" lon="10.132003">
<ele>430</ele>
<time>2019-05-29T11:09:24Z</time>
</trkpt>
<trkpt lat="49.041123" lon="10.131982">
<ele>432</ele>
<time>2019-05-29T11:09:30Z</time>
</trkpt>
<trkpt lat="49.041315" lon="10.131987">
<ele>433</ele>
<time>2019-05-29T11:09:36Z</time>
</trkpt>
<trkpt lat="49.041565" lon="10.132097">
<ele>433</ele>
<time>2019-05-29T11:09:41Z</time>
</trkpt>
<trkpt lat="49.041798" lon="10.132237">
<ele>433</ele>
<time>2019-05-29T11:09:46Z</time>
</trkpt>
<trkpt lat="49.042108" lon="10.132373">
<ele>433</ele>
<time>2019-05-29T11:09:51Z</time>
</trkpt>
<trkpt lat="49.04245" lon="10.132442">
<ele>431</ele>
<time>2019-05-29T11:09:56Z</time>
</trkpt>
<trkpt lat="49.042788" lon="10.132517">
<ele>430</ele>
<time>2019-05-29T11:10:01Z</time>
</trkpt>
<trkpt lat="49.043067" lon="10.13262">
<ele>430</ele>
<time>2019-05-29T11:10:06Z</time>
</trkpt>
<trkpt lat="49.04333" lon="10.132748">
<ele>430</ele>
<time>2019-05-29T11:10:12Z</time>
</trkpt>
<trkpt lat="49.043605" lon="10.133092">
<ele>430</ele>
<time>2019-05-29T11:10:17Z</time>
</trkpt>
<trkpt lat="49.043687" lon="10.13358">
<ele>429</ele>
<time>2019-05-29T11:10:22Z</time>
</trkpt>
<trkpt lat="49.043773" lon="10.134047">
<ele>429</ele>
<time>2019-05-29T11:10:27Z</time>
</trkpt>
<trkpt lat="49.043962" lon="10.134393">
<ele>427</ele>
<time>2019-05-29T11:10:32Z</time>
</trkpt>
<trkpt lat="49.044142" lon="10.134582">
<ele>427</ele>
<time>2019-05-29T11:10:38Z</time>
</trkpt>
<trkpt lat="49.04428" lon="10.134753">
<ele>429</ele>
<time>2019-05-29T11:10:43Z</time>
</trkpt>
<trkpt lat="49.044373" lon="10.134882">
<ele>431</ele>
<time>2019-05-29T11:10:48Z</time>
</trkpt>
<trkpt lat="49.044453" lon="10.135033">
<ele>431</ele>
<time>2019-05-29T11:10:53Z</time>
</trkpt>
<trkpt lat="49.04453" lon="10.135187">
<ele>433</ele>
<time>2019-05-29T11:10:58Z</time>
</trkpt>
<trkpt lat="49.044608" lon="10.135342">
<ele>434</ele>
<time>2019-05-29T11:11:03Z</time>
</trkpt>
<trkpt lat="49.04468" lon="10.135488">
<ele>435</ele>
<time>2019-05-29T11:11:08Z</time>
</trkpt>
<trkpt lat="49.044758" lon="10.135652">
<ele>436</ele>
<time>2019-05-29T11:11:13Z</time>
</trkpt>
<trkpt lat="49.044822" lon="10.135815">
<ele>436</ele>
<time>2019-05-29T11:11:18Z</time>
</trkpt>
<trkpt lat="49.044897" lon="10.135963">
<ele>437</ele>
<time>2019-05-29T11:11:23Z</time>
</trkpt>
<trkpt lat="49.044973" lon="10.136112">
<ele>438</ele>
<time>2019-05-29T11:11:28Z</time>
</trkpt>
<trkpt lat="49.045057" lon="10.136242">
<ele>439</ele>
<time>2019-05-29T11:11:33Z</time>
</trkpt>
<trkpt lat="49.045122" lon="10.136372">
<ele>440</ele>
<time>2019-05-29T11:11:38Z</time>
</trkpt>
<trkpt lat="49.045193" lon="10.13651">
<ele>442</ele>
<time>2019-05-29T11:11:44Z</time>
</trkpt>
<trkpt lat="49.045302" lon="10.136652">
<ele>443</ele>
<time>2019-05-29T11:11:49Z</time>
</trkpt>
<trkpt lat="49.045383" lon="10.13676">
<ele>444</ele>
<time>2019-05-29T11:11:54Z</time>
</trkpt>
<trkpt lat="49.045462" lon="10.136873">
<ele>445</ele>
<time>2019-05-29T11:11:59Z</time>
</trkpt>
<trkpt lat="49.045533" lon="10.13699">
<ele>446</ele>
<time>2019-05-29T11:12:04Z</time>
</trkpt>
<trkpt lat="49.045602" lon="10.137097">
<ele>447</ele>
<time>2019-05-29T11:12:09Z</time>
</trkpt>
<trkpt lat="49.045678" lon="10.13721">
<ele>448</ele>
<time>2019-05-29T11:12:14Z</time>
</trkpt>
<trkpt lat="49.04575" lon="10.137327">
<ele>450</ele>
<time>2019-05-29T11:12:19Z</time>
</trkpt>
<trkpt lat="49.045827" lon="10.137452">
<ele>451</ele>
<time>2019-05-29T11:12:24Z</time>
</trkpt>
<trkpt lat="49.045885" lon="10.137585">
<ele>452</ele>
<time>2019-05-29T11:12:29Z</time>
</trkpt>
<trkpt lat="49.045947" lon="10.137735">
<ele>453</ele>
<time>2019-05-29T11:12:34Z</time>
</trkpt>
<trkpt lat="49.04602" lon="10.137885">
<ele>453</ele>
<time>2019-05-29T11:12:39Z</time>
</trkpt>
<trkpt lat="49.046102" lon="10.138052">
<ele>454</ele>
<time>2019-05-29T11:12:44Z</time>
</trkpt>
<trkpt lat="49.046188" lon="10.138233">
<ele>454</ele>
<time>2019-05-29T11:12:49Z</time>
</trkpt>
<trkpt lat="49.04628" lon="10.138423">
<ele>455</ele>
<time>2019-05-29T11:12:54Z</time>
</trkpt>
<trkpt lat="49.046372" lon="10.138623">
<ele>455</ele>
<time>2019-05-29T11:12:59Z</time>
</trkpt>
<trkpt lat="49.046435" lon="10.138822">
<ele>456</ele>
<time>2019-05-29T11:13:04Z</time>
</trkpt>
<trkpt lat="49.046495" lon="10.139017">
<ele>456</ele>
<time>2019-05-29T11:13:09Z</time>
</trkpt>
<trkpt lat="49.046565" lon="10.139217">
<ele>457</ele>
<time>2019-05-29T11:13:14Z</time>
</trkpt>
<trkpt lat="49.046635" lon="10.139417">
<ele>458</ele>
<time>2019-05-29T11:13:19Z</time>
</trkpt>
<trkpt lat="49.046697" lon="10.139647">
<ele>458</ele>
<time>2019-05-29T11:13:24Z</time>
</trkpt>
<trkpt lat="49.046758" lon="10.139903">
<ele>458</ele>
<time>2019-05-29T11:13:29Z</time>
</trkpt>
<trkpt lat="49.04683" lon="10.14021">
<ele>458</ele>
<time>2019-05-29T11:13:34Z</time>
</trkpt>
<trkpt lat="49.04694" lon="10.140567">
<ele>458</ele>
<time>2019-05-29T11:13:39Z</time>
</trkpt>
<trkpt lat="49.04708" lon="10.14084">
<ele>458</ele>
<time>2019-05-29T11:13:44Z</time>
</trkpt>
<trkpt lat="49.047267" lon="10.141013">
<ele>458</ele>
<time>2019-05-29T11:13:49Z</time>
</trkpt>
<trkpt lat="49.04742" lon="10.14107">
<ele>458</ele>
<time>2019-05-29T11:13:54Z</time>
</trkpt>
<trkpt lat="49.04751" lon="10.141102">
<ele>458</ele>
<time>2019-05-29T11:13:59Z</time>
</trkpt>
<trkpt lat="49.047642" lon="10.141197">
<ele>458</ele>
<time>2019-05-29T11:14:04Z</time>
</trkpt>
<trkpt lat="49.047845" lon="10.141412">
<ele>458</ele>
<time>2019-05-29T11:14:09Z</time>
</trkpt>
<trkpt lat="49.048075" lon="10.141712">
<ele>458</ele>
<time>2019-05-29T11:14:14Z</time>
</trkpt>
<trkpt lat="49.048303" lon="10.142012">
<ele>457</ele>
<time>2019-05-29T11:14:19Z</time>
</trkpt>
<trkpt lat="49.048527" lon="10.142312">
<ele>456</ele>
<time>2019-05-29T11:14:24Z</time>
</trkpt>
<trkpt lat="49.048752" lon="10.142613">
<ele>455</ele>
<time>2019-05-29T11:14:29Z</time>
</trkpt>
<trkpt lat="49.04898" lon="10.142927">
<ele>455</ele>
<time>2019-05-29T11:14:34Z</time>
</trkpt>
<trkpt lat="49.049222" lon="10.143257">
<ele>455</ele>
<time>2019-05-29T11:14:39Z</time>
</trkpt>
<trkpt lat="49.049428" lon="10.143532">
<ele>455</ele>
<time>2019-05-29T11:14:44Z</time>
</trkpt>
<trkpt lat="49.049595" lon="10.14375">
<ele>457</ele>
<time>2019-05-29T11:14:49Z</time>
</trkpt>
<trkpt lat="49.04973" lon="10.14393">
<ele>459</ele>
<time>2019-05-29T11:14:54Z</time>
</trkpt>
<trkpt lat="49.049868" lon="10.144113">
<ele>460</ele>
<time>2019-05-29T11:14:59Z</time>
</trkpt>
<trkpt lat="49.050005" lon="10.144285">
<ele>461</ele>
<time>2019-05-29T11:15:04Z</time>
</trkpt>
<trkpt lat="49.050147" lon="10.144432">
<ele>461</ele>
<time>2019-05-29T11:15:09Z</time>
</trkpt>
<trkpt lat="49.050312" lon="10.144592">
<ele>461</ele>
<time>2019-05-29T11:15:14Z</time>
</trkpt>
<trkpt lat="49.050533" lon="10.144837">
<ele>461</ele>
<time>2019-05-29T11:15:19Z</time>
</trkpt>
<trkpt lat="49.05081" lon="10.145193">
<ele>458</ele>
<time>2019-05-29T11:15:24Z</time>
</trkpt>
<trkpt lat="49.051107" lon="10.145602">
<ele>455</ele>
<time>2019-05-29T11:15:29Z</time>
</trkpt>
<trkpt lat="49.051468" lon="10.145997">
<ele>452</ele>
<time>2019-05-29T11:15:34Z</time>
</trkpt>
<trkpt lat="49.051885" lon="10.146508">
<ele>450</ele>
<time>2019-05-29T11:15:39Z</time>
</trkpt>
<trkpt lat="49.052238" lon="10.147193">
<ele>444</ele>
<time>2019-05-29T11:15:44Z</time>
</trkpt>
<trkpt lat="49.052563" lon="10.147822">
<ele>442</ele>
<time>2019-05-29T11:15:49Z</time>
</trkpt>
<trkpt lat="49.052767" lon="10.14849">
<ele>440</ele>
<time>2019-05-29T11:15:54Z</time>
</trkpt>
<trkpt lat="49.052818" lon="10.149145">
<ele>439</ele>
<time>2019-05-29T11:15:59Z</time>
</trkpt>
<trkpt lat="49.052882" lon="10.149675">
<ele>439</ele>
<time>2019-05-29T11:16:04Z</time>
</trkpt>
<trkpt lat="49.053012" lon="10.150137">
<ele>439</ele>
<time>2019-05-29T11:16:09Z</time>
</trkpt>
<trkpt lat="49.053193" lon="10.150577">
<ele>440</ele>
<time>2019-05-29T11:16:14Z</time>
</trkpt>
<trkpt lat="49.053387" lon="10.151028">
<ele>440</ele>
<time>2019-05-29T11:16:19Z</time>
</trkpt>
<trkpt lat="49.053547" lon="10.151553">
<ele>438</ele>
<time>2019-05-29T11:16:24Z</time>
</trkpt>
<trkpt lat="49.053638" lon="10.152102">
<ele>438</ele>
<time>2019-05-29T11:16:29Z</time>
</trkpt>
<trkpt lat="49.05369" lon="10.15263">
<ele>438</ele>
<time>2019-05-29T11:16:34Z</time>
</trkpt>
<trkpt lat="49.053727" lon="10.153178">
<ele>438</ele>
<time>2019-05-29T11:16:39Z</time>
</trkpt>
<trkpt lat="49.05373" lon="10.153712">
<ele>438</ele>
<time>2019-05-29T11:16:44Z</time>
</trkpt>
<trkpt lat="49.053708" lon="10.154272">
<ele>437</ele>
<time>2019-05-29T11:16:49Z</time>
</trkpt>
<trkpt lat="49.053662" lon="10.154842">
<ele>437</ele>
<time>2019-05-29T11:16:54Z</time>
</trkpt>
<trkpt lat="49.053615" lon="10.15536">
<ele>437</ele>
<time>2019-05-29T11:16:59Z</time>
</trkpt>
<trkpt lat="49.053565" lon="10.155877">
<ele>437</ele>
<time>2019-05-29T11:17:04Z</time>
</trkpt>
<trkpt lat="49.053538" lon="10.156387">
<ele>437</ele>
<time>2019-05-29T11:17:09Z</time>
</trkpt>
<trkpt lat="49.053537" lon="10.156848">
<ele>437</ele>
<time>2019-05-29T11:17:14Z</time>
</trkpt>
<trkpt lat="49.053562" lon="10.157323">
<ele>437</ele>
<time>2019-05-29T11:17:19Z</time>
</trkpt>
<trkpt lat="49.053613" lon="10.157807">
<ele>438</ele>
<time>2019-05-29T11:17:24Z</time>
</trkpt>
<trkpt lat="49.05368" lon="10.158243">
<ele>438</ele>
<time>2019-05-29T11:17:29Z</time>
</trkpt>
<trkpt lat="49.053772" lon="10.15867">
<ele>438</ele>
<time>2019-05-29T11:17:34Z</time>
</trkpt>
<trkpt lat="49.053885" lon="10.15908">
<ele>438</ele>
<time>2019-05-29T11:17:39Z</time>
</trkpt>
<trkpt lat="49.054" lon="10.159495">
<ele>438</ele>
<time>2019-05-29T11:17:44Z</time>
</trkpt>
<trkpt lat="49.054143" lon="10.159875">
<ele>438</ele>
<time>2019-05-29T11:17:49Z</time>
</trkpt>
<trkpt lat="49.054295" lon="10.160173">
<ele>438</ele>
<time>2019-05-29T11:17:54Z</time>
</trkpt>
<trkpt lat="49.054352" lon="10.160247">
<ele>437</ele>
<time>2019-05-29T11:17:59Z</time>
</trkpt>
<trkpt lat="49.054347" lon="10.16025">
<ele>437</ele>
<time>2019-05-29T11:18:04Z</time>
</trkpt>
<trkpt lat="49.054367" lon="10.16032">
<ele>437</ele>
<time>2019-05-29T11:18:09Z</time>
</trkpt>
<trkpt lat="49.054392" lon="10.160385">
<ele>437</ele>
<time>2019-05-29T11:18:14Z</time>
</trkpt>
<trkpt lat="49.054387" lon="10.16038">
<ele>437</ele>
<time>2019-05-29T11:18:19Z</time>
</trkpt>
<trkpt lat="49.054387" lon="10.160378">
<ele>436</ele>
<time>2019-05-29T11:19:04Z</time>
</trkpt>
<trkpt lat="49.054385" lon="10.160378">
<ele>436</ele>
<time>2019-05-29T11:19:44Z</time>
</trkpt>
<trkpt lat="49.054385" lon="10.160377">
<ele>436</ele>
<time>2019-05-29T11:20:34Z</time>
</trkpt>
<trkpt lat="49.054385" lon="10.160378">
<ele>436</ele>
<time>2019-05-29T11:20:49Z</time>
</trkpt>
<trkpt lat="49.054385" lon="10.160377">
<ele>436</ele>
<time>2019-05-29T11:21:54Z</time>
</trkpt>
<trkpt lat="49.054385" lon="10.160375">
<ele>436</ele>
<time>2019-05-29T11:22:44Z</time>
</trkpt>
<trkpt lat="49.054385" lon="10.160373">
<ele>436</ele>
<time>2019-05-29T11:24:31Z</time>
</trkpt>
<trkpt lat="49.054383" lon="10.160373">
<ele>436</ele>
<time>2019-05-29T11:24:41Z</time>
</trkpt>
<trkpt lat="49.054375" lon="10.16037">
<ele>436</ele>
<time>2019-05-29T11:25:21Z</time>
</trkpt>
<trkpt lat="49.054367" lon="10.160375">
<ele>436</ele>
<time>2019-05-29T11:25:26Z</time>
</trkpt>
<trkpt lat="49.054368" lon="10.160373">
<ele>436</ele>
<time>2019-05-29T11:25:31Z</time>
</trkpt>
<trkpt lat="49.05437" lon="10.160377">
<ele>436</ele>
<time>2019-05-29T11:25:36Z</time>
</trkpt>
<trkpt lat="49.054372" lon="10.160375">
<ele>436</ele>
<time>2019-05-29T11:25:41Z</time>
</trkpt>
<trkpt lat="49.054372" lon="10.160382">
<ele>436</ele>
<time>2019-05-29T11:25:56Z</time>
</trkpt>
<trkpt lat="49.054378" lon="10.160508">
<ele>436</ele>
<time>2019-05-29T11:26:01Z</time>
</trkpt>
<trkpt lat="49.054438" lon="10.160712">
<ele>436</ele>
<time>2019-05-29T11:26:06Z</time>
</trkpt>
<trkpt lat="49.054505" lon="10.160943">
<ele>436</ele>
<time>2019-05-29T11:26:11Z</time>
</trkpt>
<trkpt lat="49.054558" lon="10.161195">
<ele>436</ele>
<time>2019-05-29T11:26:16Z</time>
</trkpt>
<trkpt lat="49.054602" lon="10.161433">
<ele>438</ele>
<time>2019-05-29T11:26:21Z</time>
</trkpt>
<trkpt lat="49.05466" lon="10.161648">
<ele>438</ele>
<time>2019-05-29T11:26:26Z</time>
</trkpt>
<trkpt lat="49.054713" lon="10.161885">
<ele>439</ele>
<time>2019-05-29T11:26:31Z</time>
</trkpt>
<trkpt lat="49.05478" lon="10.162087">
<ele>440</ele>
<time>2019-05-29T11:26:36Z</time>
</trkpt>
<trkpt lat="49.054833" lon="10.1623">
<ele>441</ele>
<time>2019-05-29T11:26:41Z</time>
</trkpt>
<trkpt lat="49.054892" lon="10.162498">
<ele>442</ele>
<time>2019-05-29T11:26:46Z</time>
</trkpt>
<trkpt lat="49.054952" lon="10.162662">
<ele>443</ele>
<time>2019-05-29T11:26:51Z</time>
</trkpt>
<trkpt lat="49.055023" lon="10.16283">
<ele>444</ele>
<time>2019-05-29T11:26:56Z</time>
</trkpt>
<trkpt lat="49.055105" lon="10.163005">
<ele>445</ele>
<time>2019-05-29T11:27:01Z</time>
</trkpt>
<trkpt lat="49.05519" lon="10.163167">
<ele>446</ele>
<time>2019-05-29T11:27:06Z</time>
</trkpt>
<trkpt lat="49.05528" lon="10.16334">
<ele>447</ele>
<time>2019-05-29T11:27:11Z</time>
</trkpt>
<trkpt lat="49.055383" lon="10.163528">
<ele>447</ele>
<time>2019-05-29T11:27:16Z</time>
</trkpt>
<trkpt lat="49.055475" lon="10.163725">
<ele>448</ele>
<time>2019-05-29T11:27:21Z</time>
</trkpt>
<trkpt lat="49.05557" lon="10.163918">
<ele>448</ele>
<time>2019-05-29T11:27:26Z</time>
</trkpt>
<trkpt lat="49.05568" lon="10.164108">
<ele>448</ele>
<time>2019-05-29T11:27:31Z</time>
</trkpt>
<trkpt lat="49.055857" lon="10.164308">
<ele>448</ele>
<time>2019-05-29T11:27:36Z</time>
</trkpt>
<trkpt lat="49.056057" lon="10.164518">
<ele>448</ele>
<time>2019-05-29T11:27:41Z</time>
</trkpt>
<trkpt lat="49.056365" lon="10.164802">
<ele>448</ele>
<time>2019-05-29T11:27:46Z</time>
</trkpt>
<trkpt lat="49.056638" lon="10.165167">
<ele>447</ele>
<time>2019-05-29T11:27:51Z</time>
</trkpt>
<trkpt lat="49.056878" lon="10.165625">
<ele>446</ele>
<time>2019-05-29T11:27:56Z</time>
</trkpt>
<trkpt lat="49.057118" lon="10.1661">
<ele>446</ele>
<time>2019-05-29T11:28:01Z</time>
</trkpt>
<trkpt lat="49.05735" lon="10.166577">
<ele>444</ele>
<time>2019-05-29T11:28:06Z</time>
</trkpt>
<trkpt lat="49.057587" lon="10.167042">
<ele>444</ele>
<time>2019-05-29T11:28:11Z</time>
</trkpt>
<trkpt lat="49.057795" lon="10.167507">
<ele>443</ele>
<time>2019-05-29T11:28:16Z</time>
</trkpt>
<trkpt lat="49.057937" lon="10.167982">
<ele>443</ele>
<time>2019-05-29T11:28:21Z</time>
</trkpt>
<trkpt lat="49.058035" lon="10.168408">
<ele>443</ele>
<time>2019-05-29T11:28:26Z</time>
</trkpt>
<trkpt lat="49.058118" lon="10.168825">
<ele>443</ele>
<time>2019-05-29T11:28:31Z</time>
</trkpt>
<trkpt lat="49.058193" lon="10.169228">
<ele>443</ele>
<time>2019-05-29T11:28:36Z</time>
</trkpt>
<trkpt lat="49.058272" lon="10.169665">
<ele>443</ele>
<time>2019-05-29T11:28:41Z</time>
</trkpt>
<trkpt lat="49.058332" lon="10.170145">
<ele>443</ele>
<time>2019-05-29T11:28:46Z</time>
</trkpt>
<trkpt lat="49.058348" lon="10.170627">
<ele>443</ele>
<time>2019-05-29T11:28:51Z</time>
</trkpt>
<trkpt lat="49.058337" lon="10.171098">
<ele>443</ele>
<time>2019-05-29T11:28:56Z</time>
</trkpt>
<trkpt lat="49.058313" lon="10.17155">
<ele>442</ele>
<time>2019-05-29T11:29:01Z</time>
</trkpt>
<trkpt lat="49.05829" lon="10.172003">
<ele>442</ele>
<time>2019-05-29T11:29:06Z</time>
</trkpt>
<trkpt lat="49.05827" lon="10.172448">
<ele>442</ele>
<time>2019-05-29T11:29:11Z</time>
</trkpt>
<trkpt lat="49.058267" lon="10.172858">
<ele>442</ele>
<time>2019-05-29T11:29:16Z</time>
</trkpt>
<trkpt lat="49.058293" lon="10.173258">
<ele>442</ele>
<time>2019-05-29T11:29:21Z</time>
</trkpt>
<trkpt lat="49.058342" lon="10.173655">
<ele>442</ele>
<time>2019-05-29T11:29:26Z</time>
</trkpt>
<trkpt lat="49.058382" lon="10.174033">
<ele>443</ele>
<time>2019-05-29T11:29:31Z</time>
</trkpt>
<trkpt lat="49.058422" lon="10.174407">
<ele>443</ele>
<time>2019-05-29T11:29:36Z</time>
</trkpt>
<trkpt lat="49.058465" lon="10.174767">
<ele>444</ele>
<time>2019-05-29T11:29:41Z</time>
</trkpt>
<trkpt lat="49.058512" lon="10.175122">
<ele>444</ele>
<time>2019-05-29T11:29:46Z</time>
</trkpt>
<trkpt lat="49.058547" lon="10.175477">
<ele>444</ele>
<time>2019-05-29T11:29:51Z</time>
</trkpt>
<trkpt lat="49.058603" lon="10.175822">
<ele>445</ele>
<time>2019-05-29T11:29:56Z</time>
</trkpt>
<trkpt lat="49.058673" lon="10.176183">
<ele>445</ele>
<time>2019-05-29T11:30:01Z</time>
</trkpt>
<trkpt lat="49.058772" lon="10.176535">
<ele>445</ele>
<time>2019-05-29T11:30:06Z</time>
</trkpt>
<trkpt lat="49.058875" lon="10.176885">
<ele>445</ele>
<time>2019-05-29T11:30:11Z</time>
</trkpt>
<trkpt lat="49.058963" lon="10.177245">
<ele>445</ele>
<time>2019-05-29T11:30:16Z</time>
</trkpt>
<trkpt lat="49.059037" lon="10.177612">
<ele>445</ele>
<time>2019-05-29T11:30:21Z</time>
</trkpt>
<trkpt lat="49.059057" lon="10.177998">
<ele>446</ele>
<time>2019-05-29T11:30:26Z</time>
</trkpt>
<trkpt lat="49.059067" lon="10.178365">
<ele>446</ele>
<time>2019-05-29T11:30:31Z</time>
</trkpt>
<trkpt lat="49.05907" lon="10.17872">
<ele>447</ele>
<time>2019-05-29T11:30:36Z</time>
</trkpt>
<trkpt lat="49.05907" lon="10.179073">
<ele>448</ele>
<time>2019-05-29T11:30:41Z</time>
</trkpt>
<trkpt lat="49.059063" lon="10.179408">
<ele>448</ele>
<time>2019-05-29T11:30:46Z</time>
</trkpt>
<trkpt lat="49.059032" lon="10.179775">
<ele>449</ele>
<time>2019-05-29T11:30:51Z</time>
</trkpt>
<trkpt lat="49.059013" lon="10.180215">
<ele>449</ele>
<time>2019-05-29T11:30:56Z</time>
</trkpt>
<trkpt lat="49.05902" lon="10.180653">
<ele>449</ele>
<time>2019-05-29T11:31:01Z</time>
</trkpt>
<trkpt lat="49.059012" lon="10.181142">
<ele>449</ele>
<time>2019-05-29T11:31:06Z</time>
</trkpt>
<trkpt lat="49.05898" lon="10.181627">
<ele>448</ele>
<time>2019-05-29T11:31:11Z</time>
</trkpt>
<trkpt lat="49.058945" lon="10.182107">
<ele>448</ele>
<time>2019-05-29T11:31:16Z</time>
</trkpt>
<trkpt lat="49.058913" lon="10.182562">
<ele>448</ele>
<time>2019-05-29T11:31:21Z</time>
</trkpt>
<trkpt lat="49.058852" lon="10.18295">
<ele>448</ele>
<time>2019-05-29T11:31:26Z</time>
</trkpt>
<trkpt lat="49.058742" lon="10.183275">
<ele>449</ele>
<time>2019-05-29T11:31:31Z</time>
</trkpt>
<trkpt lat="49.05865" lon="10.18351">
<ele>450</ele>
<time>2019-05-29T11:31:36Z</time>
</trkpt>
<trkpt lat="49.058535" lon="10.183762">
<ele>451</ele>
<time>2019-05-29T11:31:41Z</time>
</trkpt>
<trkpt lat="49.058445" lon="10.18402">
<ele>452</ele>
<time>2019-05-29T11:31:46Z</time>
</trkpt>
<trkpt lat="49.058363" lon="10.18431">
<ele>453</ele>
<time>2019-05-29T11:31:51Z</time>
</trkpt>
<trkpt lat="49.058268" lon="10.184642">
<ele>454</ele>
<time>2019-05-29T11:31:56Z</time>
</trkpt>
<trkpt lat="49.058193" lon="10.184962">
<ele>455</ele>
<time>2019-05-29T11:32:01Z</time>
</trkpt>
<trkpt lat="49.058128" lon="10.18528">
<ele>456</ele>
<time>2019-05-29T11:32:06Z</time>
</trkpt>
<trkpt lat="49.058037" lon="10.185563">
<ele>456</ele>
<time>2019-05-29T11:32:11Z</time>
</trkpt>
<trkpt lat="49.057923" lon="10.185868">
<ele>456</ele>
<time>2019-05-29T11:32:16Z</time>
</trkpt>
<trkpt lat="49.057777" lon="10.18619">
<ele>456</ele>
<time>2019-05-29T11:32:21Z</time>
</trkpt>
<trkpt lat="49.057618" lon="10.186498">
<ele>456</ele>
<time>2019-05-29T11:32:26Z</time>
</trkpt>
<trkpt lat="49.057472" lon="10.186813">
<ele>456</ele>
<time>2019-05-29T11:32:31Z</time>
</trkpt>
<trkpt lat="49.057342" lon="10.187118">
<ele>456</ele>
<time>2019-05-29T11:32:36Z</time>
</trkpt>
<trkpt lat="49.057238" lon="10.187458">
<ele>457</ele>
<time>2019-05-29T11:32:41Z</time>
</trkpt>
<trkpt lat="49.05713" lon="10.187805">
<ele>457</ele>
<time>2019-05-29T11:32:46Z</time>
</trkpt>
<trkpt lat="49.057013" lon="10.188162">
<ele>458</ele>
<time>2019-05-29T11:32:51Z</time>
</trkpt>
<trkpt lat="49.056907" lon="10.188513">
<ele>458</ele>
<time>2019-05-29T11:32:56Z</time>
</trkpt>
<trkpt lat="49.056803" lon="10.188852">
<ele>459</ele>
<time>2019-05-29T11:33:01Z</time>
</trkpt>
<trkpt lat="49.056695" lon="10.189208">
<ele>459</ele>
<time>2019-05-29T11:33:06Z</time>
</trkpt>
<trkpt lat="49.056582" lon="10.189568">
<ele>460</ele>
<time>2019-05-29T11:33:11Z</time>
</trkpt>
<trkpt lat="49.056467" lon="10.189933">
<ele>460</ele>
<time>2019-05-29T11:33:16Z</time>
</trkpt>
<trkpt lat="49.056338" lon="10.190257">
<ele>460</ele>
<time>2019-05-29T11:33:21Z</time>
</trkpt>
<trkpt lat="49.056193" lon="10.190548">
<ele>460</ele>
<time>2019-05-29T11:33:26Z</time>
</trkpt>
<trkpt lat="49.05603" lon="10.190858">
<ele>460</ele>
<time>2019-05-29T11:33:31Z</time>
</trkpt>
<trkpt lat="49.055855" lon="10.191132">
<ele>460</ele>
<time>2019-05-29T11:33:36Z</time>
</trkpt>
<trkpt lat="49.055657" lon="10.19134">
<ele>461</ele>
<time>2019-05-29T11:33:41Z</time>
</trkpt>
<trkpt lat="49.055425" lon="10.191493">
<ele>461</ele>
<time>2019-05-29T11:33:46Z</time>
</trkpt>
<trkpt lat="49.0552" lon="10.191573">
<ele>462</ele>
<time>2019-05-29T11:33:51Z</time>
</trkpt>
<trkpt lat="49.055012" lon="10.191623">
<ele>463</ele>
<time>2019-05-29T11:33:56Z</time>
</trkpt>
<trkpt lat="49.05484" lon="10.191703">
<ele>464</ele>
<time>2019-05-29T11:34:01Z</time>
</trkpt>
<trkpt lat="49.054708" lon="10.19181">
<ele>465</ele>
<time>2019-05-29T11:34:06Z</time>
</trkpt>
<trkpt lat="49.054597" lon="10.191922">
<ele>466</ele>
<time>2019-05-29T11:34:11Z</time>
</trkpt>
<trkpt lat="49.05452" lon="10.192043">
<ele>467</ele>
<time>2019-05-29T11:34:16Z</time>
</trkpt>
<trkpt lat="49.054443" lon="10.19219">
<ele>468</ele>
<time>2019-05-29T11:34:21Z</time>
</trkpt>
<trkpt lat="49.054387" lon="10.192372">
<ele>469</ele>
<time>2019-05-29T11:34:26Z</time>
</trkpt>
<trkpt lat="49.054345" lon="10.192545">
<ele>470</ele>
<time>2019-05-29T11:34:31Z</time>
</trkpt>
<trkpt lat="49.054318" lon="10.1927">
<ele>471</ele>
<time>2019-05-29T11:34:36Z</time>
</trkpt>
<trkpt lat="49.054287" lon="10.19288">
<ele>472</ele>
<time>2019-05-29T11:34:41Z</time>
</trkpt>
<trkpt lat="49.054252" lon="10.193047">
<ele>473</ele>
<time>2019-05-29T11:34:46Z</time>
</trkpt>
<trkpt lat="49.054218" lon="10.193205">
<ele>473</ele>
<time>2019-05-29T11:34:51Z</time>
</trkpt>
<trkpt lat="49.054172" lon="10.19336">
<ele>475</ele>
<time>2019-05-29T11:34:56Z</time>
</trkpt>
<trkpt lat="49.054123" lon="10.193513">
<ele>475</ele>
<time>2019-05-29T11:35:01Z</time>
</trkpt>
<trkpt lat="49.05407" lon="10.193663">
<ele>476</ele>
<time>2019-05-29T11:35:06Z</time>
</trkpt>
<trkpt lat="49.054022" lon="10.193775">
<ele>477</ele>
<time>2019-05-29T11:35:11Z</time>
</trkpt>
<trkpt lat="49.053967" lon="10.193892">
<ele>478</ele>
<time>2019-05-29T11:35:16Z</time>
</trkpt>
<trkpt lat="49.05391" lon="10.194032">
<ele>479</ele>
<time>2019-05-29T11:35:21Z</time>
</trkpt>
<trkpt lat="49.053855" lon="10.194167">
<ele>480</ele>
<time>2019-05-29T11:35:26Z</time>
</trkpt>
<trkpt lat="49.053793" lon="10.19431">
<ele>481</ele>
<time>2019-05-29T11:35:31Z</time>
</trkpt>
<trkpt lat="49.053738" lon="10.194457">
<ele>482</ele>
<time>2019-05-29T11:35:36Z</time>
</trkpt>
<trkpt lat="49.053682" lon="10.194605">
<ele>482</ele>
<time>2019-05-29T11:35:41Z</time>
</trkpt>
<trkpt lat="49.053622" lon="10.194735">
<ele>483</ele>
<time>2019-05-29T11:35:46Z</time>
</trkpt>
<trkpt lat="49.053565" lon="10.19489">
<ele>484</ele>
<time>2019-05-29T11:35:51Z</time>
</trkpt>
<trkpt lat="49.0535" lon="10.19504">
<ele>485</ele>
<time>2019-05-29T11:35:56Z</time>
</trkpt>
<trkpt lat="49.053437" lon="10.195197">
<ele>486</ele>
<time>2019-05-29T11:36:01Z</time>
</trkpt>
<trkpt lat="49.053378" lon="10.195358">
<ele>487</ele>
<time>2019-05-29T11:36:06Z</time>
</trkpt>
<trkpt lat="49.053323" lon="10.19553">
<ele>488</ele>
<time>2019-05-29T11:36:11Z</time>
</trkpt>
<trkpt lat="49.053273" lon="10.195708">
<ele>488</ele>
<time>2019-05-29T11:36:16Z</time>
</trkpt>
<trkpt lat="49.053245" lon="10.195907">
<ele>489</ele>
<time>2019-05-29T11:36:21Z</time>
</trkpt>
<trkpt lat="49.05322" lon="10.19612">
<ele>489</ele>
<time>2019-05-29T11:36:26Z</time>
</trkpt>
<trkpt lat="49.053203" lon="10.196355">
<ele>490</ele>
<time>2019-05-29T11:36:31Z</time>
</trkpt>
<trkpt lat="49.05318" lon="10.196605">
<ele>490</ele>
<time>2019-05-29T11:36:36Z</time>
</trkpt>
<trkpt lat="49.053163" lon="10.196887">
<ele>491</ele>
<time>2019-05-29T11:36:41Z</time>
</trkpt>
<trkpt lat="49.053142" lon="10.197145">
<ele>491</ele>
<time>2019-05-29T11:36:46Z</time>
</trkpt>
<trkpt lat="49.053123" lon="10.197455">
<ele>491</ele>
<time>2019-05-29T11:36:51Z</time>
</trkpt>
<trkpt lat="49.05311" lon="10.19779">
<ele>491</ele>
<time>2019-05-29T11:36:56Z</time>
</trkpt>
<trkpt lat="49.053092" lon="10.198135">
<ele>492</ele>
<time>2019-05-29T11:37:01Z</time>
</trkpt>
<trkpt lat="49.053077" lon="10.198485">
<ele>492</ele>
<time>2019-05-29T11:37:06Z</time>
</trkpt>
<trkpt lat="49.053058" lon="10.19881">
<ele>492</ele>
<time>2019-05-29T11:37:11Z</time>
</trkpt>
<trkpt lat="49.053033" lon="10.19915">
<ele>492</ele>
<time>2019-05-29T11:37:16Z</time>
</trkpt>
<trkpt lat="49.053012" lon="10.199505">
<ele>492</ele>
<time>2019-05-29T11:37:21Z</time>
</trkpt>
<trkpt lat="49.052975" lon="10.199863">
<ele>492</ele>
<time>2019-05-29T11:37:26Z</time>
</trkpt>
<trkpt lat="49.052948" lon="10.200225">
<ele>491</ele>
<time>2019-05-29T11:37:31Z</time>
</trkpt>
<trkpt lat="49.052915" lon="10.200577">
<ele>491</ele>
<time>2019-05-29T11:37:36Z</time>
</trkpt>
<trkpt lat="49.052882" lon="10.20094">
<ele>491</ele>
<time>2019-05-29T11:37:41Z</time>
</trkpt>
<trkpt lat="49.052867" lon="10.2013">
<ele>490</ele>
<time>2019-05-29T11:37:46Z</time>
</trkpt>
<trkpt lat="49.052907" lon="10.201537">
<ele>490</ele>
<time>2019-05-29T11:37:51Z</time>
</trkpt>
<trkpt lat="49.052893" lon="10.20178">
<ele>490</ele>
<time>2019-05-29T11:37:56Z</time>
</trkpt>
<trkpt lat="49.052832" lon="10.202082">
<ele>490</ele>
<time>2019-05-29T11:38:01Z</time>
</trkpt>
<trkpt lat="49.052788" lon="10.202415">
<ele>490</ele>
<time>2019-05-29T11:38:06Z</time>
</trkpt>
<trkpt lat="49.052808" lon="10.202728">
<ele>490</ele>
<time>2019-05-29T11:38:11Z</time>
</trkpt>
<trkpt lat="49.052883" lon="10.203063">
<ele>490</ele>
<time>2019-05-29T11:38:16Z</time>
</trkpt>
<trkpt lat="49.053017" lon="10.203348">
<ele>490</ele>
<time>2019-05-29T11:38:21Z</time>
</trkpt>
<trkpt lat="49.053193" lon="10.203588">
<ele>489</ele>
<time>2019-05-29T11:38:26Z</time>
</trkpt>
<trkpt lat="49.053343" lon="10.203828">
<ele>489</ele>
<time>2019-05-29T11:38:31Z</time>
</trkpt>
<trkpt lat="49.053455" lon="10.204112">
<ele>489</ele>
<time>2019-05-29T11:38:36Z</time>
</trkpt>
<trkpt lat="49.05351" lon="10.204433">
<ele>489</ele>
<time>2019-05-29T11:38:41Z</time>
</trkpt>
<trkpt lat="49.053452" lon="10.204805">
<ele>489</ele>
<time>2019-05-29T11:38:46Z</time>
</trkpt>
<trkpt lat="49.053317" lon="10.20521">
<ele>488</ele>
<time>2019-05-29T11:38:51Z</time>
</trkpt>
<trkpt lat="49.053198" lon="10.205668">
<ele>487</ele>
<time>2019-05-29T11:38:56Z</time>
</trkpt>
<trkpt lat="49.053127" lon="10.206183">
<ele>486</ele>
<time>2019-05-29T11:39:01Z</time>
</trkpt>
<trkpt lat="49.053063" lon="10.20674">
<ele>485</ele>
<time>2019-05-29T11:39:06Z</time>
</trkpt>
<trkpt lat="49.05302" lon="10.207295">
<ele>484</ele>
<time>2019-05-29T11:39:11Z</time>
</trkpt>
<trkpt lat="49.052988" lon="10.207818">
<ele>484</ele>
<time>2019-05-29T11:39:16Z</time>
</trkpt>
<trkpt lat="49.052943" lon="10.208337">
<ele>482</ele>
<time>2019-05-29T11:39:21Z</time>
</trkpt>
<trkpt lat="49.052917" lon="10.208867">
<ele>481</ele>
<time>2019-05-29T11:39:26Z</time>
</trkpt>
<trkpt lat="49.052902" lon="10.209335">
<ele>479</ele>
<time>2019-05-29T11:39:31Z</time>
</trkpt>
<trkpt lat="49.052913" lon="10.209857">
<ele>478</ele>
<time>2019-05-29T11:39:36Z</time>
</trkpt>
<trkpt lat="49.052955" lon="10.210458">
<ele>476</ele>
<time>2019-05-29T11:39:41Z</time>
</trkpt>
<trkpt lat="49.053027" lon="10.211117">
<ele>474</ele>
<time>2019-05-29T11:39:46Z</time>
</trkpt>
<trkpt lat="49.053097" lon="10.211842">
<ele>472</ele>
<time>2019-05-29T11:39:51Z</time>
</trkpt>
<trkpt lat="49.053098" lon="10.212607">
<ele>470</ele>
<time>2019-05-29T11:39:56Z</time>
</trkpt>
<trkpt lat="49.053047" lon="10.213398">
<ele>468</ele>
<time>2019-05-29T11:40:01Z</time>
</trkpt>
<trkpt lat="49.052958" lon="10.214172">
<ele>467</ele>
<time>2019-05-29T11:40:06Z</time>
</trkpt>
<trkpt lat="49.052877" lon="10.214902">
<ele>466</ele>
<time>2019-05-29T11:40:11Z</time>
</trkpt>
<trkpt lat="49.052807" lon="10.215563">
<ele>466</ele>
<time>2019-05-29T11:40:16Z</time>
</trkpt>
<trkpt lat="49.052742" lon="10.216143">
<ele>466</ele>
<time>2019-05-29T11:40:21Z</time>
</trkpt>
<trkpt lat="49.052675" lon="10.21666">
<ele>466</ele>
<time>2019-05-29T11:40:26Z</time>
</trkpt>
<trkpt lat="49.052612" lon="10.217162">
<ele>466</ele>
<time>2019-05-29T11:40:31Z</time>
</trkpt>
<trkpt lat="49.052528" lon="10.217648">
<ele>466</ele>
<time>2019-05-29T11:40:36Z</time>
</trkpt>
<trkpt lat="49.052423" lon="10.218107">
<ele>466</ele>
<time>2019-05-29T11:40:41Z</time>
</trkpt>
<trkpt lat="49.052307" lon="10.218495">
<ele>467</ele>
<time>2019-05-29T11:40:46Z</time>
</trkpt>
<trkpt lat="49.0522" lon="10.218843">
<ele>467</ele>
<time>2019-05-29T11:40:51Z</time>
</trkpt>
<trkpt lat="49.052093" lon="10.219197">
<ele>467</ele>
<time>2019-05-29T11:40:56Z</time>
</trkpt>
<trkpt lat="49.052" lon="10.219565">
<ele>468</ele>
<time>2019-05-29T11:41:01Z</time>
</trkpt>
<trkpt lat="49.051933" lon="10.21993">
<ele>468</ele>
<time>2019-05-29T11:41:06Z</time>
</trkpt>
<trkpt lat="49.051867" lon="10.220285">
<ele>468</ele>
<time>2019-05-29T11:41:11Z</time>
</trkpt>
<trkpt lat="49.051813" lon="10.22065">
<ele>468</ele>
<time>2019-05-29T11:41:16Z</time>
</trkpt>
<trkpt lat="49.051793" lon="10.220978">
<ele>469</ele>
<time>2019-05-29T11:41:21Z</time>
</trkpt>
<trkpt lat="49.051775" lon="10.221285">
<ele>469</ele>
<time>2019-05-29T11:41:26Z</time>
</trkpt>
<trkpt lat="49.051768" lon="10.221643">
<ele>470</ele>
<time>2019-05-29T11:41:31Z</time>
</trkpt>
<trkpt lat="49.051763" lon="10.22199">
<ele>471</ele>
<time>2019-05-29T11:41:36Z</time>
</trkpt>
<trkpt lat="49.051767" lon="10.22233">
<ele>471</ele>
<time>2019-05-29T11:41:41Z</time>
</trkpt>
<trkpt lat="49.051778" lon="10.22265">
<ele>472</ele>
<time>2019-05-29T11:41:46Z</time>
</trkpt>
<trkpt lat="49.051792" lon="10.22297">
<ele>473</ele>
<time>2019-05-29T11:41:51Z</time>
</trkpt>
<trkpt lat="49.051818" lon="10.223278">
<ele>474</ele>
<time>2019-05-29T11:41:56Z</time>
</trkpt>
<trkpt lat="49.051873" lon="10.223542">
<ele>475</ele>
<time>2019-05-29T11:42:01Z</time>
</trkpt>
<trkpt lat="49.051935" lon="10.22382">
<ele>476</ele>
<time>2019-05-29T11:42:06Z</time>
</trkpt>
<trkpt lat="49.052008" lon="10.224092">
<ele>476</ele>
<time>2019-05-29T11:42:11Z</time>
</trkpt>
<trkpt lat="49.052095" lon="10.224355">
<ele>477</ele>
<time>2019-05-29T11:42:16Z</time>
</trkpt>
<trkpt lat="49.052185" lon="10.22462">
<ele>478</ele>
<time>2019-05-29T11:42:21Z</time>
</trkpt>
<trkpt lat="49.052262" lon="10.224905">
<ele>478</ele>
<time>2019-05-29T11:42:26Z</time>
</trkpt>
<trkpt lat="49.05233" lon="10.225193">
<ele>479</ele>
<time>2019-05-29T11:42:31Z</time>
</trkpt>
<trkpt lat="49.052413" lon="10.22549">
<ele>479</ele>
<time>2019-05-29T11:42:36Z</time>
</trkpt>
<trkpt lat="49.052507" lon="10.225822">
<ele>479</ele>
<time>2019-05-29T11:42:41Z</time>
</trkpt>
<trkpt lat="49.052638" lon="10.226193">
<ele>479</ele>
<time>2019-05-29T11:42:46Z</time>
</trkpt>
<trkpt lat="49.052798" lon="10.226567">
<ele>479</ele>
<time>2019-05-29T11:42:51Z</time>
</trkpt>
<trkpt lat="49.052985" lon="10.22689">
<ele>478</ele>
<time>2019-05-29T11:42:56Z</time>
</trkpt>
<trkpt lat="49.053195" lon="10.227165">
<ele>478</ele>
<time>2019-05-29T11:43:01Z</time>
</trkpt>
<trkpt lat="49.053398" lon="10.227312">
<ele>478</ele>
<time>2019-05-29T11:43:06Z</time>
</trkpt>
<trkpt lat="49.053572" lon="10.227473">
<ele>478</ele>
<time>2019-05-29T11:43:11Z</time>
</trkpt>
<trkpt lat="49.053713" lon="10.227812">
<ele>478</ele>
<time>2019-05-29T11:43:16Z</time>
</trkpt>
<trkpt lat="49.053812" lon="10.228265">
<ele>477</ele>
<time>2019-05-29T11:43:21Z</time>
</trkpt>
<trkpt lat="49.053898" lon="10.22876">
<ele>476</ele>
<time>2019-05-29T11:43:26Z</time>
</trkpt>
<trkpt lat="49.053972" lon="10.229288">
<ele>475</ele>
<time>2019-05-29T11:43:31Z</time>
</trkpt>
<trkpt lat="49.054045" lon="10.229825">
<ele>474</ele>
<time>2019-05-29T11:43:36Z</time>
</trkpt>
<trkpt lat="49.054092" lon="10.230438">
<ele>472</ele>
<time>2019-05-29T11:43:41Z</time>
</trkpt>
<trkpt lat="49.054037" lon="10.231058">
<ele>471</ele>
<time>2019-05-29T11:43:46Z</time>
</trkpt>
<trkpt lat="49.053892" lon="10.231428">
<ele>470</ele>
<time>2019-05-29T11:43:51Z</time>
</trkpt>
<trkpt lat="49.053795" lon="10.231595">
<ele>469</ele>
<time>2019-05-29T11:43:56Z</time>
</trkpt>
<trkpt lat="49.053778" lon="10.23188">
<ele>468</ele>
<time>2019-05-29T11:44:01Z</time>
</trkpt>
<trkpt lat="49.053715" lon="10.232175">
<ele>467</ele>
<time>2019-05-29T11:44:06Z</time>
</trkpt>
<trkpt lat="49.05367" lon="10.232383">
<ele>465</ele>
<time>2019-05-29T11:44:11Z</time>
</trkpt>
<trkpt lat="49.05365" lon="10.232755">
<ele>464</ele>
<time>2019-05-29T11:44:16Z</time>
</trkpt>
<trkpt lat="49.053687" lon="10.233177">
<ele>462</ele>
<time>2019-05-29T11:44:21Z</time>
</trkpt>
<trkpt lat="49.053793" lon="10.233508">
<ele>459</ele>
<time>2019-05-29T11:44:26Z</time>
</trkpt>
<trkpt lat="49.054052" lon="10.233742">
<ele>457</ele>
<time>2019-05-29T11:44:31Z</time>
</trkpt>
<trkpt lat="49.054193" lon="10.23383">
<ele>455</ele>
<time>2019-05-29T11:44:36Z</time>
</trkpt>
<trkpt lat="49.054367" lon="10.233938">
<ele>454</ele>
<time>2019-05-29T11:44:41Z</time>
</trkpt>
<trkpt lat="49.054568" lon="10.23421">
<ele>453</ele>
<time>2019-05-29T11:44:46Z</time>
</trkpt>
<trkpt lat="49.054652" lon="10.234718">
<ele>453</ele>
<time>2019-05-29T11:44:51Z</time>
</trkpt>
<trkpt lat="49.054758" lon="10.235238">
<ele>452</ele>
<time>2019-05-29T11:44:56Z</time>
</trkpt>
<trkpt lat="49.054908" lon="10.235543">
<ele>452</ele>
<time>2019-05-29T11:45:01Z</time>
</trkpt>
<trkpt lat="49.055103" lon="10.235618">
<ele>452</ele>
<time>2019-05-29T11:45:06Z</time>
</trkpt>
<trkpt lat="49.05535" lon="10.235603">
<ele>452</ele>
<time>2019-05-29T11:45:11Z</time>
</trkpt>
<trkpt lat="49.05561" lon="10.235645">
<ele>452</ele>
<time>2019-05-29T11:45:16Z</time>
</trkpt>
<trkpt lat="49.05584" lon="10.23573">
<ele>453</ele>
<time>2019-05-29T11:45:21Z</time>
</trkpt>
<trkpt lat="49.056065" lon="10.235848">
<ele>453</ele>
<time>2019-05-29T11:45:26Z</time>
</trkpt>
<trkpt lat="49.056248" lon="10.236055">
<ele>454</ele>
<time>2019-05-29T11:45:31Z</time>
</trkpt>
<trkpt lat="49.056353" lon="10.236265">
<ele>454</ele>
<time>2019-05-29T11:45:36Z</time>
</trkpt>
<trkpt lat="49.056455" lon="10.236447">
<ele>455</ele>
<time>2019-05-29T11:45:41Z</time>
</trkpt>
<trkpt lat="49.056527" lon="10.23663">
<ele>456</ele>
<time>2019-05-29T11:45:46Z</time>
</trkpt>
<trkpt lat="49.056613" lon="10.236808">
<ele>457</ele>
<time>2019-05-29T11:45:51Z</time>
</trkpt>
<trkpt lat="49.056713" lon="10.236948">
<ele>459</ele>
<time>2019-05-29T11:45:56Z</time>
</trkpt>
<trkpt lat="49.056803" lon="10.237092">
<ele>460</ele>
<time>2019-05-29T11:46:01Z</time>
</trkpt>
<trkpt lat="49.056902" lon="10.237235">
<ele>460</ele>
<time>2019-05-29T11:46:06Z</time>
</trkpt>
<trkpt lat="49.056993" lon="10.237378">
<ele>462</ele>
<time>2019-05-29T11:46:11Z</time>
</trkpt>
<trkpt lat="49.057087" lon="10.237518">
<ele>462</ele>
<time>2019-05-29T11:46:16Z</time>
</trkpt>
<trkpt lat="49.057175" lon="10.237657">
<ele>463</ele>
<time>2019-05-29T11:46:21Z</time>
</trkpt>
<trkpt lat="49.057267" lon="10.23779">
<ele>464</ele>
<time>2019-05-29T11:46:26Z</time>
</trkpt>
<trkpt lat="49.057358" lon="10.23793">
<ele>465</ele>
<time>2019-05-29T11:46:31Z</time>
</trkpt>
<trkpt lat="49.05745" lon="10.238062">
<ele>465</ele>
<time>2019-05-29T11:46:36Z</time>
</trkpt>
<trkpt lat="49.057548" lon="10.238192">
<ele>466</ele>
<time>2019-05-29T11:46:41Z</time>
</trkpt>
<trkpt lat="49.05764" lon="10.238332">
<ele>467</ele>
<time>2019-05-29T11:46:46Z</time>
</trkpt>
<trkpt lat="49.057732" lon="10.238467">
<ele>468</ele>
<time>2019-05-29T11:46:51Z</time>
</trkpt>
<trkpt lat="49.057818" lon="10.238603">
<ele>468</ele>
<time>2019-05-29T11:46:56Z</time>
</trkpt>
<trkpt lat="49.057905" lon="10.23874">
<ele>469</ele>
<time>2019-05-29T11:47:01Z</time>
</trkpt>
<trkpt lat="49.057995" lon="10.238878">
<ele>470</ele>
<time>2019-05-29T11:47:06Z</time>
</trkpt>
<trkpt lat="49.058082" lon="10.239015">
<ele>470</ele>
<time>2019-05-29T11:47:11Z</time>
</trkpt>
<trkpt lat="49.058168" lon="10.239163">
<ele>471</ele>
<time>2019-05-29T11:47:16Z</time>
</trkpt>
<trkpt lat="49.058255" lon="10.239297">
<ele>472</ele>
<time>2019-05-29T11:47:21Z</time>
</trkpt>
<trkpt lat="49.058338" lon="10.23944">
<ele>473</ele>
<time>2019-05-29T11:47:26Z</time>
</trkpt>
<trkpt lat="49.058423" lon="10.239583">
<ele>473</ele>
<time>2019-05-29T11:47:31Z</time>
</trkpt>
<trkpt lat="49.058513" lon="10.239728">
<ele>474</ele>
<time>2019-05-29T11:47:36Z</time>
</trkpt>
<trkpt lat="49.058608" lon="10.239858">
<ele>475</ele>
<time>2019-05-29T11:47:41Z</time>
</trkpt>
<trkpt lat="49.058695" lon="10.240007">
<ele>476</ele>
<time>2019-05-29T11:47:46Z</time>
</trkpt>
<trkpt lat="49.058783" lon="10.240157">
<ele>477</ele>
<time>2019-05-29T11:47:51Z</time>
</trkpt>
<trkpt lat="49.05887" lon="10.2403">
<ele>477</ele>
<time>2019-05-29T11:47:56Z</time>
</trkpt>
<trkpt lat="49.058958" lon="10.24044">
<ele>478</ele>
<time>2019-05-29T11:48:01Z</time>
</trkpt>
<trkpt lat="49.059048" lon="10.24059">
<ele>479</ele>
<time>2019-05-29T11:48:06Z</time>
</trkpt>
<trkpt lat="49.059133" lon="10.240735">
<ele>480</ele>
<time>2019-05-29T11:48:11Z</time>
</trkpt>
<trkpt lat="49.059213" lon="10.240887">
<ele>480</ele>
<time>2019-05-29T11:48:16Z</time>
</trkpt>
<trkpt lat="49.059307" lon="10.241025">
<ele>481</ele>
<time>2019-05-29T11:48:21Z</time>
</trkpt>
<trkpt lat="49.0594" lon="10.241158">
<ele>482</ele>
<time>2019-05-29T11:48:26Z</time>
</trkpt>
<trkpt lat="49.059482" lon="10.241317">
<ele>483</ele>
<time>2019-05-29T11:48:31Z</time>
</trkpt>
<trkpt lat="49.059558" lon="10.241483">
<ele>483</ele>
<time>2019-05-29T11:48:36Z</time>
</trkpt>
<trkpt lat="49.059643" lon="10.241635">
<ele>484</ele>
<time>2019-05-29T11:48:41Z</time>
</trkpt>
<trkpt lat="49.059728" lon="10.241788">
<ele>484</ele>
<time>2019-05-29T11:48:46Z</time>
</trkpt>
<trkpt lat="49.059822" lon="10.241938">
<ele>485</ele>
<time>2019-05-29T11:48:51Z</time>
</trkpt>
<trkpt lat="49.059922" lon="10.242093">
<ele>486</ele>
<time>2019-05-29T11:48:56Z</time>
</trkpt>
<trkpt lat="49.060022" lon="10.242243">
<ele>487</ele>
<time>2019-05-29T11:49:01Z</time>
</trkpt>
<trkpt lat="49.060105" lon="10.242405">
<ele>488</ele>
<time>2019-05-29T11:49:06Z</time>
</trkpt>
<trkpt lat="49.060203" lon="10.242562">
<ele>489</ele>
<time>2019-05-29T11:49:11Z</time>
</trkpt>
<trkpt lat="49.060303" lon="10.242712">
<ele>489</ele>
<time>2019-05-29T11:49:16Z</time>
</trkpt>
<trkpt lat="49.060398" lon="10.242868">
<ele>490</ele>
<time>2019-05-29T11:49:21Z</time>
</trkpt>
<trkpt lat="49.06051" lon="10.243027">
<ele>491</ele>
<time>2019-05-29T11:49:26Z</time>
</trkpt>
<trkpt lat="49.060613" lon="10.243203">
<ele>492</ele>
<time>2019-05-29T11:49:32Z</time>
</trkpt>
<trkpt lat="49.060697" lon="10.24331">
<ele>493</ele>
<time>2019-05-29T11:49:37Z</time>
</trkpt>
<trkpt lat="49.060805" lon="10.243432">
<ele>494</ele>
<time>2019-05-29T11:49:42Z</time>
</trkpt>
<trkpt lat="49.060917" lon="10.243533">
<ele>495</ele>
<time>2019-05-29T11:49:47Z</time>
</trkpt>
<trkpt lat="49.061062" lon="10.243645">
<ele>495</ele>
<time>2019-05-29T11:49:52Z</time>
</trkpt>
<trkpt lat="49.061197" lon="10.243723">
<ele>496</ele>
<time>2019-05-29T11:49:57Z</time>
</trkpt>
<trkpt lat="49.061335" lon="10.24377">
<ele>496</ele>
<time>2019-05-29T11:50:02Z</time>
</trkpt>
<trkpt lat="49.061485" lon="10.243798">
<ele>497</ele>
<time>2019-05-29T11:50:07Z</time>
</trkpt>
<trkpt lat="49.061747" lon="10.243773">
<ele>497</ele>
<time>2019-05-29T11:50:13Z</time>
</trkpt>
<trkpt lat="49.061938" lon="10.243768">
<ele>497</ele>
<time>2019-05-29T11:50:18Z</time>
</trkpt>
<trkpt lat="49.062137" lon="10.243778">
<ele>497</ele>
<time>2019-05-29T11:50:23Z</time>
</trkpt>
<trkpt lat="49.062487" lon="10.243862">
<ele>497</ele>
<time>2019-05-29T11:50:29Z</time>
</trkpt>
<trkpt lat="49.062802" lon="10.244137">
<ele>495</ele>
<time>2019-05-29T11:50:34Z</time>
</trkpt>
<trkpt lat="49.063073" lon="10.244645">
<ele>493</ele>
<time>2019-05-29T11:50:39Z</time>
</trkpt>
<trkpt lat="49.063222" lon="10.245485">
<ele>489</ele>
<time>2019-05-29T11:50:45Z</time>
</trkpt>
<trkpt lat="49.06324" lon="10.246198">
<ele>487</ele>
<time>2019-05-29T11:50:50Z</time>
</trkpt>
<trkpt lat="49.06331" lon="10.246873">
<ele>486</ele>
<time>2019-05-29T11:50:55Z</time>
</trkpt>
<trkpt lat="49.063372" lon="10.2475">
<ele>485</ele>
<time>2019-05-29T11:51:00Z</time>
</trkpt>
<trkpt lat="49.063447" lon="10.24815">
<ele>484</ele>
<time>2019-05-29T11:51:06Z</time>
</trkpt>
<trkpt lat="49.063507" lon="10.248687">
<ele>483</ele>
<time>2019-05-29T11:51:11Z</time>
</trkpt>
<trkpt lat="49.063613" lon="10.249353">
<ele>483</ele>
<time>2019-05-29T11:51:17Z</time>
</trkpt>
<trkpt lat="49.063747" lon="10.25005">
<ele>482</ele>
<time>2019-05-29T11:51:23Z</time>
</trkpt>
<trkpt lat="49.063872" lon="10.250623">
<ele>481</ele>
<time>2019-05-29T11:51:28Z</time>
</trkpt>
<trkpt lat="49.063982" lon="10.251218">
<ele>479</ele>
<time>2019-05-29T11:51:33Z</time>
</trkpt>
<trkpt lat="49.064095" lon="10.251825">
<ele>477</ele>
<time>2019-05-29T11:51:38Z</time>
</trkpt>
<trkpt lat="49.06423" lon="10.252437">
<ele>477</ele>
<time>2019-05-29T11:51:43Z</time>
</trkpt>
<trkpt lat="49.064408" lon="10.253133">
<ele>476</ele>
<time>2019-05-29T11:51:49Z</time>
</trkpt>
<trkpt lat="49.06459" lon="10.253723">
<ele>474</ele>
<time>2019-05-29T11:51:55Z</time>
</trkpt>
<trkpt lat="49.064723" lon="10.254012">
<ele>474</ele>
<time>2019-05-29T11:52:00Z</time>
</trkpt>
<trkpt lat="49.064935" lon="10.253888">
<ele>474</ele>
<time>2019-05-29T11:52:05Z</time>
</trkpt>
<trkpt lat="49.065123" lon="10.253595">
<ele>473</ele>
<time>2019-05-29T11:52:10Z</time>
</trkpt>
<trkpt lat="49.065365" lon="10.25316">
<ele>473</ele>
<time>2019-05-29T11:52:16Z</time>
</trkpt>
<trkpt lat="49.06551" lon="10.252767">
<ele>473</ele>
<time>2019-05-29T11:52:21Z</time>
</trkpt>
<trkpt lat="49.065627" lon="10.252382">
<ele>472</ele>
<time>2019-05-29T11:52:26Z</time>
</trkpt>
<trkpt lat="49.065692" lon="10.251988">
<ele>472</ele>
<time>2019-05-29T11:52:31Z</time>
</trkpt>
<trkpt lat="49.065727" lon="10.251575">
<ele>472</ele>
<time>2019-05-29T11:52:36Z</time>
</trkpt>
<trkpt lat="49.065743" lon="10.2512">
<ele>472</ele>
<time>2019-05-29T11:52:41Z</time>
</trkpt>
<trkpt lat="49.065795" lon="10.250833">
<ele>473</ele>
<time>2019-05-29T11:52:46Z</time>
</trkpt>
<trkpt lat="49.065872" lon="10.250478">
<ele>473</ele>
<time>2019-05-29T11:52:51Z</time>
</trkpt>
<trkpt lat="49.065965" lon="10.250085">
<ele>474</ele>
<time>2019-05-29T11:52:57Z</time>
</trkpt>
<trkpt lat="49.066053" lon="10.249742">
<ele>475</ele>
<time>2019-05-29T11:53:03Z</time>
</trkpt>
<trkpt lat="49.066108" lon="10.249467">
<ele>476</ele>
<time>2019-05-29T11:53:08Z</time>
</trkpt>
<trkpt lat="49.066175" lon="10.249215">
<ele>477</ele>
<time>2019-05-29T11:53:13Z</time>
</trkpt>
<trkpt lat="49.066233" lon="10.24894">
<ele>478</ele>
<time>2019-05-29T11:53:18Z</time>
</trkpt>
<trkpt lat="49.066297" lon="10.248688">
<ele>478</ele>
<time>2019-05-29T11:53:23Z</time>
</trkpt>
<trkpt lat="49.066358" lon="10.248425">
<ele>479</ele>
<time>2019-05-29T11:53:28Z</time>
</trkpt>
<trkpt lat="49.066397" lon="10.248132">
<ele>479</ele>
<time>2019-05-29T11:53:33Z</time>
</trkpt>
<trkpt lat="49.066427" lon="10.247815">
<ele>480</ele>
<time>2019-05-29T11:53:38Z</time>
</trkpt>
<trkpt lat="49.066468" lon="10.247488">
<ele>480</ele>
<time>2019-05-29T11:53:43Z</time>
</trkpt>
<trkpt lat="49.066532" lon="10.247105">
<ele>481</ele>
<time>2019-05-29T11:53:49Z</time>
</trkpt>
<trkpt lat="49.066602" lon="10.246793">
<ele>481</ele>
<time>2019-05-29T11:53:54Z</time>
</trkpt>
<trkpt lat="49.066685" lon="10.246483">
<ele>482</ele>
<time>2019-05-29T11:53:59Z</time>
</trkpt>
<trkpt lat="49.06678" lon="10.246158">
<ele>482</ele>
<time>2019-05-29T11:54:04Z</time>
</trkpt>
<trkpt lat="49.066903" lon="10.245777">
<ele>482</ele>
<time>2019-05-29T11:54:10Z</time>
</trkpt>
<trkpt lat="49.067002" lon="10.24546">
<ele>483</ele>
<time>2019-05-29T11:54:15Z</time>
</trkpt>
<trkpt lat="49.067093" lon="10.245152">
<ele>483</ele>
<time>2019-05-29T11:54:20Z</time>
</trkpt>
<trkpt lat="49.067187" lon="10.244847">
<ele>483</ele>
<time>2019-05-29T11:54:25Z</time>
</trkpt>
<trkpt lat="49.067287" lon="10.244527">
<ele>484</ele>
<time>2019-05-29T11:54:31Z</time>
</trkpt>
<trkpt lat="49.067362" lon="10.244225">
<ele>484</ele>
<time>2019-05-29T11:54:36Z</time>
</trkpt>
<trkpt lat="49.067422" lon="10.243878">
<ele>485</ele>
<time>2019-05-29T11:54:41Z</time>
</trkpt>
<trkpt lat="49.067455" lon="10.243518">
<ele>485</ele>
<time>2019-05-29T11:54:46Z</time>
</trkpt>
<trkpt lat="49.067487" lon="10.243082">
<ele>486</ele>
<time>2019-05-29T11:54:52Z</time>
</trkpt>
<trkpt lat="49.067523" lon="10.242717">
<ele>486</ele>
<time>2019-05-29T11:54:57Z</time>
</trkpt>
<trkpt lat="49.06761" lon="10.242255">
<ele>486</ele>
<time>2019-05-29T11:55:03Z</time>
</trkpt>
<trkpt lat="49.06774" lon="10.241778">
<ele>486</ele>
<time>2019-05-29T11:55:09Z</time>
</trkpt>
<trkpt lat="49.067857" lon="10.24137">
<ele>486</ele>
<time>2019-05-29T11:55:14Z</time>
</trkpt>
<trkpt lat="49.067973" lon="10.240977">
<ele>486</ele>
<time>2019-05-29T11:55:19Z</time>
</trkpt>
<trkpt lat="49.0681" lon="10.240622">
<ele>486</ele>
<time>2019-05-29T11:55:24Z</time>
</trkpt>
<trkpt lat="49.068265" lon="10.240295">
<ele>485</ele>
<time>2019-05-29T11:55:29Z</time>
</trkpt>
<trkpt lat="49.068465" lon="10.239982">
<ele>485</ele>
<time>2019-05-29T11:55:34Z</time>
</trkpt>
<trkpt lat="49.068703" lon="10.239565">
<ele>485</ele>
<time>2019-05-29T11:55:40Z</time>
</trkpt>
<trkpt lat="49.068852" lon="10.239155">
<ele>484</ele>
<time>2019-05-29T11:55:45Z</time>
</trkpt>
<trkpt lat="49.068957" lon="10.238715">
<ele>484</ele>
<time>2019-05-29T11:55:50Z</time>
</trkpt>
<trkpt lat="49.069032" lon="10.23823">
<ele>484</ele>
<time>2019-05-29T11:55:55Z</time>
</trkpt>
<trkpt lat="49.069097" lon="10.237735">
<ele>482</ele>
<time>2019-05-29T11:56:00Z</time>
</trkpt>
<trkpt lat="49.06917" lon="10.23718">
<ele>480</ele>
<time>2019-05-29T11:56:05Z</time>
</trkpt>
<trkpt lat="49.069322" lon="10.236418">
<ele>478</ele>
<time>2019-05-29T11:56:11Z</time>
</trkpt>
<trkpt lat="49.06965" lon="10.235747">
<ele>475</ele>
<time>2019-05-29T11:56:17Z</time>
</trkpt>
<trkpt lat="49.069892" lon="10.235178">
<ele>474</ele>
<time>2019-05-29T11:56:22Z</time>
</trkpt>
<trkpt lat="49.070073" lon="10.234477">
<ele>473</ele>
<time>2019-05-29T11:56:28Z</time>
</trkpt>
<trkpt lat="49.070197" lon="10.233963">
<ele>473</ele>
<time>2019-05-29T11:56:33Z</time>
</trkpt>
<trkpt lat="49.070342" lon="10.23345">
<ele>471</ele>
<time>2019-05-29T11:56:38Z</time>
</trkpt>
<trkpt lat="49.070595" lon="10.232898">
<ele>469</ele>
<time>2019-05-29T11:56:43Z</time>
</trkpt>
<trkpt lat="49.070883" lon="10.232377">
<ele>467</ele>
<time>2019-05-29T11:56:48Z</time>
</trkpt>
<trkpt lat="49.071155" lon="10.231922">
<ele>465</ele>
<time>2019-05-29T11:56:53Z</time>
</trkpt>
<trkpt lat="49.071275" lon="10.23125">
<ele>463</ele>
<time>2019-05-29T11:56:59Z</time>
</trkpt>
<trkpt lat="49.071298" lon="10.230618">
<ele>463</ele>
<time>2019-05-29T11:57:05Z</time>
</trkpt>
<trkpt lat="49.071325" lon="10.230173">
<ele>463</ele>
<time>2019-05-29T11:57:10Z</time>
</trkpt>
<trkpt lat="49.071357" lon="10.229853">
<ele>464</ele>
<time>2019-05-29T11:57:15Z</time>
</trkpt>
<trkpt lat="49.071395" lon="10.229548">
<ele>465</ele>
<time>2019-05-29T11:57:21Z</time>
</trkpt>
<trkpt lat="49.071413" lon="10.2293">
<ele>467</ele>
<time>2019-05-29T11:57:26Z</time>
</trkpt>
<trkpt lat="49.071437" lon="10.229048">
<ele>468</ele>
<time>2019-05-29T11:57:31Z</time>
</trkpt>
<trkpt lat="49.071463" lon="10.228792">
<ele>469</ele>
<time>2019-05-29T11:57:37Z</time>
</trkpt>
<trkpt lat="49.071477" lon="10.228585">
<ele>470</ele>
<time>2019-05-29T11:57:42Z</time>
</trkpt>
<trkpt lat="49.071487" lon="10.228357">
<ele>471</ele>
<time>2019-05-29T11:57:47Z</time>
</trkpt>
<trkpt lat="49.071487" lon="10.228023">
<ele>472</ele>
<time>2019-05-29T11:57:53Z</time>
</trkpt>
<trkpt lat="49.071463" lon="10.227677">
<ele>472</ele>
<time>2019-05-29T11:57:58Z</time>
</trkpt>
<trkpt lat="49.071487" lon="10.227242">
<ele>472</ele>
<time>2019-05-29T11:58:04Z</time>
</trkpt>
<trkpt lat="49.07148" lon="10.226883">
<ele>472</ele>
<time>2019-05-29T11:58:09Z</time>
</trkpt>
<trkpt lat="49.071533" lon="10.226412">
<ele>472</ele>
<time>2019-05-29T11:58:15Z</time>
</trkpt>
<trkpt lat="49.071588" lon="10.22598">
<ele>472</ele>
<time>2019-05-29T11:58:20Z</time>
</trkpt>
<trkpt lat="49.071715" lon="10.225807">
<ele>471</ele>
<time>2019-05-29T11:58:25Z</time>
</trkpt>
<trkpt lat="49.071993" lon="10.225832">
<ele>469</ele>
<time>2019-05-29T11:58:30Z</time>
</trkpt>
<trkpt lat="49.072358" lon="10.225955">
<ele>468</ele>
<time>2019-05-29T11:58:35Z</time>
</trkpt>
<trkpt lat="49.07272" lon="10.226075">
<ele>466</ele>
<time>2019-05-29T11:58:40Z</time>
</trkpt>
<trkpt lat="49.07304" lon="10.226207">
<ele>466</ele>
<time>2019-05-29T11:58:45Z</time>
</trkpt>
<trkpt lat="49.07337" lon="10.226308">
<ele>466</ele>
<time>2019-05-29T11:58:51Z</time>
</trkpt>
<trkpt lat="49.073605" lon="10.226325">
<ele>466</ele>
<time>2019-05-29T11:58:56Z</time>
</trkpt>
<trkpt lat="49.07384" lon="10.226263">
<ele>466</ele>
<time>2019-05-29T11:59:02Z</time>
</trkpt>
<trkpt lat="49.074013" lon="10.226247">
<ele>468</ele>
<time>2019-05-29T11:59:07Z</time>
</trkpt>
<trkpt lat="49.074167" lon="10.226258">
<ele>469</ele>
<time>2019-05-29T11:59:12Z</time>
</trkpt>
<trkpt lat="49.07433" lon="10.22629">
<ele>470</ele>
<time>2019-05-29T11:59:17Z</time>
</trkpt>
<trkpt lat="49.074478" lon="10.226313">
<ele>471</ele>
<time>2019-05-29T11:59:22Z</time>
</trkpt>
<trkpt lat="49.074618" lon="10.226318">
<ele>472</ele>
<time>2019-05-29T11:59:27Z</time>
</trkpt>
<trkpt lat="49.074775" lon="10.226333">
<ele>474</ele>
<time>2019-05-29T11:59:33Z</time>
</trkpt>
<trkpt lat="49.074923" lon="10.226335">
<ele>475</ele>
<time>2019-05-29T11:59:38Z</time>
</trkpt>
<trkpt lat="49.075108" lon="10.226385">
<ele>476</ele>
<time>2019-05-29T11:59:44Z</time>
</trkpt>
<trkpt lat="49.07526" lon="10.226382">
<ele>477</ele>
<time>2019-05-29T11:59:49Z</time>
</trkpt>
<trkpt lat="49.075457" lon="10.226395">
<ele>478</ele>
<time>2019-05-29T11:59:55Z</time>
</trkpt>
<trkpt lat="49.075635" lon="10.226395">
<ele>478</ele>
<time>2019-05-29T12:00:00Z</time>
</trkpt>
<trkpt lat="49.075858" lon="10.226395">
<ele>479</ele>
<time>2019-05-29T12:00:06Z</time>
</trkpt>
<trkpt lat="49.07605" lon="10.226368">
<ele>480</ele>
<time>2019-05-29T12:00:11Z</time>
</trkpt>
<trkpt lat="49.07627" lon="10.226327">
<ele>481</ele>
<time>2019-05-29T12:00:17Z</time>
</trkpt>
<trkpt lat="49.076442" lon="10.226288">
<ele>481</ele>
<time>2019-05-29T12:00:22Z</time>
</trkpt>
<trkpt lat="49.076642" lon="10.22622">
<ele>482</ele>
<time>2019-05-29T12:00:28Z</time>
</trkpt>
<trkpt lat="49.076797" lon="10.226137">
<ele>482</ele>
<time>2019-05-29T12:00:33Z</time>
</trkpt>
<trkpt lat="49.076955" lon="10.226027">
<ele>482</ele>
<time>2019-05-29T12:00:38Z</time>
</trkpt>
<trkpt lat="49.077092" lon="10.22589">
<ele>483</ele>
<time>2019-05-29T12:00:43Z</time>
</trkpt>
<trkpt lat="49.077235" lon="10.225725">
<ele>483</ele>
<time>2019-05-29T12:00:48Z</time>
</trkpt>
<trkpt lat="49.077383" lon="10.225553">
<ele>483</ele>
<time>2019-05-29T12:00:53Z</time>
</trkpt>
<trkpt lat="49.077522" lon="10.225395">
<ele>484</ele>
<time>2019-05-29T12:00:58Z</time>
</trkpt>
<trkpt lat="49.077695" lon="10.225198">
<ele>484</ele>
<time>2019-05-29T12:01:04Z</time>
</trkpt>
<trkpt lat="49.077888" lon="10.224967">
<ele>484</ele>
<time>2019-05-29T12:01:10Z</time>
</trkpt>
<trkpt lat="49.07809" lon="10.22476">
<ele>484</ele>
<time>2019-05-29T12:01:15Z</time>
</trkpt>
<trkpt lat="49.078315" lon="10.224555">
<ele>484</ele>
<time>2019-05-29T12:01:20Z</time>
</trkpt>
<trkpt lat="49.078537" lon="10.22436">
<ele>484</ele>
<time>2019-05-29T12:01:25Z</time>
</trkpt>
<trkpt lat="49.078805" lon="10.224152">
<ele>484</ele>
<time>2019-05-29T12:01:31Z</time>
</trkpt>
<trkpt lat="49.079033" lon="10.224">
<ele>484</ele>
<time>2019-05-29T12:01:36Z</time>
</trkpt>
<trkpt lat="49.079275" lon="10.223865">
<ele>484</ele>
<time>2019-05-29T12:01:41Z</time>
</trkpt>
<trkpt lat="49.07958" lon="10.223717">
<ele>483</ele>
<time>2019-05-29T12:01:47Z</time>
</trkpt>
<trkpt lat="49.079863" lon="10.223615">
<ele>481</ele>
<time>2019-05-29T12:01:52Z</time>
</trkpt>
<trkpt lat="49.080177" lon="10.223567">
<ele>480</ele>
<time>2019-05-29T12:01:57Z</time>
</trkpt>
<trkpt lat="49.080422" lon="10.223538">
<ele>480</ele>
<time>2019-05-29T12:02:02Z</time>
</trkpt>
<trkpt lat="49.080662" lon="10.223465">
<ele>480</ele>
<time>2019-05-29T12:02:07Z</time>
</trkpt>
<trkpt lat="49.080943" lon="10.223333">
<ele>481</ele>
<time>2019-05-29T12:02:13Z</time>
</trkpt>
<trkpt lat="49.081208" lon="10.22319">
<ele>479</ele>
<time>2019-05-29T12:02:18Z</time>
</trkpt>
<trkpt lat="49.081482" lon="10.223032">
<ele>479</ele>
<time>2019-05-29T12:02:23Z</time>
</trkpt>
<trkpt lat="49.081795" lon="10.222895">
<ele>478</ele>
<time>2019-05-29T12:02:28Z</time>
</trkpt>
<trkpt lat="49.08216" lon="10.222777">
<ele>477</ele>
<time>2019-05-29T12:02:33Z</time>
</trkpt>
<trkpt lat="49.082542" lon="10.22264">
<ele>475</ele>
<time>2019-05-29T12:02:38Z</time>
</trkpt>
<trkpt lat="49.08287" lon="10.222512">
<ele>475</ele>
<time>2019-05-29T12:02:43Z</time>
</trkpt>
<trkpt lat="49.083118" lon="10.222397">
<ele>475</ele>
<time>2019-05-29T12:02:48Z</time>
</trkpt>
<trkpt lat="49.083313" lon="10.222298">
<ele>476</ele>
<time>2019-05-29T12:02:53Z</time>
</trkpt>
<trkpt lat="49.083525" lon="10.222195">
<ele>477</ele>
<time>2019-05-29T12:02:59Z</time>
</trkpt>
<trkpt lat="49.083673" lon="10.222147">
<ele>479</ele>
<time>2019-05-29T12:03:04Z</time>
</trkpt>
<trkpt lat="49.0838" lon="10.22233">
<ele>480</ele>
<time>2019-05-29T12:03:10Z</time>
</trkpt>
<trkpt lat="49.083848" lon="10.222627">
<ele>480</ele>
<time>2019-05-29T12:03:15Z</time>
</trkpt>
<trkpt lat="49.083923" lon="10.222947">
<ele>481</ele>
<time>2019-05-29T12:03:20Z</time>
</trkpt>
<trkpt lat="49.084013" lon="10.223273">
<ele>481</ele>
<time>2019-05-29T12:03:25Z</time>
</trkpt>
<trkpt lat="49.084055" lon="10.223622">
<ele>481</ele>
<time>2019-05-29T12:03:31Z</time>
</trkpt>
<trkpt lat="49.08385" lon="10.223843">
<ele>481</ele>
<time>2019-05-29T12:03:37Z</time>
</trkpt>
<trkpt lat="49.083665" lon="10.224128">
<ele>480</ele>
<time>2019-05-29T12:03:42Z</time>
</trkpt>
<trkpt lat="49.083568" lon="10.224558">
<ele>480</ele>
<time>2019-05-29T12:03:48Z</time>
</trkpt>
<trkpt lat="49.083605" lon="10.224972">
<ele>480</ele>
<time>2019-05-29T12:03:53Z</time>
</trkpt>
<trkpt lat="49.083675" lon="10.225458">
<ele>480</ele>
<time>2019-05-29T12:03:59Z</time>
</trkpt>
<trkpt lat="49.083752" lon="10.225903">
<ele>479</ele>
<time>2019-05-29T12:04:04Z</time>
</trkpt>
<trkpt lat="49.083845" lon="10.226348">
<ele>477</ele>
<time>2019-05-29T12:04:09Z</time>
</trkpt>
<trkpt lat="49.084033" lon="10.226793">
<ele>477</ele>
<time>2019-05-29T12:04:14Z</time>
</trkpt>
<trkpt lat="49.084292" lon="10.227197">
<ele>475</ele>
<time>2019-05-29T12:04:19Z</time>
</trkpt>
<trkpt lat="49.084555" lon="10.22773">
<ele>474</ele>
<time>2019-05-29T12:04:25Z</time>
</trkpt>
<trkpt lat="49.084683" lon="10.22822">
<ele>473</ele>
<time>2019-05-29T12:04:30Z</time>
</trkpt>
<trkpt lat="49.084763" lon="10.228758">
<ele>473</ele>
<time>2019-05-29T12:04:35Z</time>
</trkpt>
<trkpt lat="49.08484" lon="10.229273">
<ele>474</ele>
<time>2019-05-29T12:04:40Z</time>
</trkpt>
<trkpt lat="49.08496" lon="10.229722">
<ele>477</ele>
<time>2019-05-29T12:04:46Z</time>
</trkpt>
<trkpt lat="49.085052" lon="10.22999">
<ele>478</ele>
<time>2019-05-29T12:04:51Z</time>
</trkpt>
<trkpt lat="49.085138" lon="10.23025">
<ele>479</ele>
<time>2019-05-29T12:04:56Z</time>
</trkpt>
<trkpt lat="49.085205" lon="10.23053">
<ele>480</ele>
<time>2019-05-29T12:05:01Z</time>
</trkpt>
<trkpt lat="49.085245" lon="10.230808">
<ele>480</ele>
<time>2019-05-29T12:05:06Z</time>
</trkpt>
<trkpt lat="49.085287" lon="10.231088">
<ele>481</ele>
<time>2019-05-29T12:05:11Z</time>
</trkpt>
<trkpt lat="49.085337" lon="10.231453">
<ele>481</ele>
<time>2019-05-29T12:05:17Z</time>
</trkpt>
<trkpt lat="49.085392" lon="10.231835">
<ele>482</ele>
<time>2019-05-29T12:05:23Z</time>
</trkpt>
<trkpt lat="49.085518" lon="10.232167">
<ele>483</ele>
<time>2019-05-29T12:05:29Z</time>
</trkpt>
<trkpt lat="49.085677" lon="10.232363">
<ele>483</ele>
<time>2019-05-29T12:05:34Z</time>
</trkpt>
<trkpt lat="49.085868" lon="10.232442">
<ele>484</ele>
<time>2019-05-29T12:05:39Z</time>
</trkpt>
<trkpt lat="49.086033" lon="10.232485">
<ele>485</ele>
<time>2019-05-29T12:05:44Z</time>
</trkpt>
<trkpt lat="49.086185" lon="10.23253">
<ele>486</ele>
<time>2019-05-29T12:05:49Z</time>
</trkpt>
<trkpt lat="49.086328" lon="10.232583">
<ele>487</ele>
<time>2019-05-29T12:05:54Z</time>
</trkpt>
<trkpt lat="49.086473" lon="10.232682">
<ele>487</ele>
<time>2019-05-29T12:05:59Z</time>
</trkpt>
<trkpt lat="49.086622" lon="10.232875">
<ele>487</ele>
<time>2019-05-29T12:06:05Z</time>
</trkpt>
<trkpt lat="49.086702" lon="10.233107">
<ele>488</ele>
<time>2019-05-29T12:06:10Z</time>
</trkpt>
<trkpt lat="49.08676" lon="10.233355">
<ele>488</ele>
<time>2019-05-29T12:06:15Z</time>
</trkpt>
<trkpt lat="49.08681" lon="10.23345">
<ele>488</ele>
<time>2019-05-29T12:06:20Z</time>
</trkpt>
<trkpt lat="49.08683" lon="10.233465">
<ele>488</ele>
<time>2019-05-29T12:06:25Z</time>
</trkpt>
<trkpt lat="49.086843" lon="10.23347">
<ele>488</ele>
<time>2019-05-29T12:06:30Z</time>
</trkpt>
<trkpt lat="49.086842" lon="10.23347">
<ele>488</ele>
<time>2019-05-29T12:06:35Z</time>
</trkpt>
<trkpt lat="49.086842" lon="10.233472">
<ele>488</ele>
<time>2019-05-29T12:06:40Z</time>
</trkpt>
<trkpt lat="49.086842" lon="10.233475">
<ele>488</ele>
<time>2019-05-29T12:06:45Z</time>
</trkpt>
<trkpt lat="49.086843" lon="10.233475">
<ele>488</ele>
<time>2019-05-29T12:06:50Z</time>
</trkpt>
<trkpt lat="49.08684" lon="10.233468">
<ele>488</ele>
<time>2019-05-29T12:06:55Z</time>
</trkpt>
<trkpt lat="49.08684" lon="10.233465">
<ele>488</ele>
<time>2019-05-29T12:07:00Z</time>
</trkpt>
<trkpt lat="49.086838" lon="10.233462">
<ele>488</ele>
<time>2019-05-29T12:07:05Z</time>
</trkpt>
<trkpt lat="49.08684" lon="10.233462">
<ele>488</ele>
<time>2019-05-29T12:07:30Z</time>
</trkpt>
<trkpt lat="49.08684" lon="10.23346">
<ele>488</ele>
<time>2019-05-29T12:08:30Z</time>
</trkpt>
<trkpt lat="49.08684" lon="10.233458">
<ele>488</ele>
<time>2019-05-29T12:09:15Z</time>
</trkpt>
<trkpt lat="49.086842" lon="10.233458">
<ele>488</ele>
<time>2019-05-29T12:09:30Z</time>
</trkpt>
<trkpt lat="49.086842" lon="10.233457">
<ele>488</ele>
<time>2019-05-29T12:10:25Z</time>
</trkpt>
<trkpt lat="49.086842" lon="10.233455">
<ele>488</ele>
<time>2019-05-29T12:11:05Z</time>
</trkpt>
<trkpt lat="49.08684" lon="10.233457">
<ele>488</ele>
<time>2019-05-29T12:11:35Z</time>
</trkpt>
<trkpt lat="49.086833" lon="10.233458">
<ele>488</ele>
<time>2019-05-29T12:11:40Z</time>
</trkpt>
<trkpt lat="49.086827" lon="10.233453">
<ele>488</ele>
<time>2019-05-29T12:11:45Z</time>
</trkpt>
<trkpt lat="49.08682" lon="10.233457">
<ele>488</ele>
<time>2019-05-29T12:11:50Z</time>
</trkpt>
<trkpt lat="49.086817" lon="10.23346">
<ele>488</ele>
<time>2019-05-29T12:11:55Z</time>
</trkpt>
<trkpt lat="49.086815" lon="10.233458">
<ele>488</ele>
<time>2019-05-29T12:12:00Z</time>
</trkpt>
<trkpt lat="49.08681" lon="10.233473">
<ele>488</ele>
<time>2019-05-29T12:12:15Z</time>
</trkpt>
<trkpt lat="49.086807" lon="10.233478">
<ele>488</ele>
<time>2019-05-29T12:12:20Z</time>
</trkpt>
<trkpt lat="49.086802" lon="10.233485">
<ele>488</ele>
<time>2019-05-29T12:12:25Z</time>
</trkpt>
<trkpt lat="49.086793" lon="10.233562">
<ele>488</ele>
<time>2019-05-29T12:12:30Z</time>
</trkpt>
<trkpt lat="49.086795" lon="10.233753">
<ele>488</ele>
<time>2019-05-29T12:12:35Z</time>
</trkpt>
<trkpt lat="49.086825" lon="10.234063">
<ele>488</ele>
<time>2019-05-29T12:12:40Z</time>
</trkpt>
<trkpt lat="49.086883" lon="10.234428">
<ele>488</ele>
<time>2019-05-29T12:12:45Z</time>
</trkpt>
<trkpt lat="49.08694" lon="10.23483">
<ele>488</ele>
<time>2019-05-29T12:12:50Z</time>
</trkpt>
<trkpt lat="49.087008" lon="10.2352">
<ele>488</ele>
<time>2019-05-29T12:12:55Z</time>
</trkpt>
<trkpt lat="49.087057" lon="10.235495">
<ele>488</ele>
<time>2019-05-29T12:13:00Z</time>
</trkpt>
<trkpt lat="49.08713" lon="10.235743">
<ele>487</ele>
<time>2019-05-29T12:13:05Z</time>
</trkpt>
<trkpt lat="49.087112" lon="10.23594">
<ele>487</ele>
<time>2019-05-29T12:13:10Z</time>
</trkpt>
<trkpt lat="49.087062" lon="10.236127">
<ele>487</ele>
<time>2019-05-29T12:13:15Z</time>
</trkpt>
<trkpt lat="49.087085" lon="10.236193">
<ele>487</ele>
<time>2019-05-29T12:13:20Z</time>
</trkpt>
<trkpt lat="49.087087" lon="10.23619">
<ele>487</ele>
<time>2019-05-29T12:13:25Z</time>
</trkpt>
<trkpt lat="49.08709" lon="10.236147">
<ele>487</ele>
<time>2019-05-29T12:13:30Z</time>
</trkpt>
<trkpt lat="49.087082" lon="10.235973">
<ele>487</ele>
<time>2019-05-29T12:13:35Z</time>
</trkpt>
<trkpt lat="49.08708" lon="10.235902">
<ele>487</ele>
<time>2019-05-29T12:13:40Z</time>
</trkpt>
<trkpt lat="49.08708" lon="10.235903">
<ele>487</ele>
<time>2019-05-29T12:13:45Z</time>
</trkpt>
<trkpt lat="49.08708" lon="10.235907">
<ele>487</ele>
<time>2019-05-29T12:13:50Z</time>
</trkpt>
<trkpt lat="49.087078" lon="10.235907">
<ele>487</ele>
<time>2019-05-29T12:14:15Z</time>
</trkpt>
<trkpt lat="49.087078" lon="10.235908">
<ele>487</ele>
<time>2019-05-29T12:14:25Z</time>
</trkpt>
<trkpt lat="49.087077" lon="10.235913">
<ele>487</ele>
<time>2019-05-29T12:15:00Z</time>
</trkpt>
<trkpt lat="49.087077" lon="10.235915">
<ele>487</ele>
<time>2019-05-29T12:15:15Z</time>
</trkpt>
<trkpt lat="49.08707" lon="10.23595">
<ele>487</ele>
<time>2019-05-29T12:15:20Z</time>
</trkpt>
<trkpt lat="49.087067" lon="10.23612">
<ele>487</ele>
<time>2019-05-29T12:15:25Z</time>
</trkpt>
<trkpt lat="49.08709" lon="10.236342">
<ele>487</ele>
<time>2019-05-29T12:15:30Z</time>
</trkpt>
<trkpt lat="49.087093" lon="10.23657">
<ele>487</ele>
<time>2019-05-29T12:15:35Z</time>
</trkpt>
<trkpt lat="49.087118" lon="10.236767">
<ele>487</ele>
<time>2019-05-29T12:15:40Z</time>
</trkpt>
<trkpt lat="49.087142" lon="10.236972">
<ele>487</ele>
<time>2019-05-29T12:15:45Z</time>
</trkpt>
<trkpt lat="49.087173" lon="10.237168">
<ele>488</ele>
<time>2019-05-29T12:15:50Z</time>
</trkpt>
<trkpt lat="49.08719" lon="10.237358">
<ele>488</ele>
<time>2019-05-29T12:15:55Z</time>
</trkpt>
<trkpt lat="49.08719" lon="10.237553">
<ele>489</ele>
<time>2019-05-29T12:16:00Z</time>
</trkpt>
<trkpt lat="49.087185" lon="10.23778">
<ele>489</ele>
<time>2019-05-29T12:16:05Z</time>
</trkpt>
<trkpt lat="49.087177" lon="10.237993">
<ele>489</ele>
<time>2019-05-29T12:16:10Z</time>
</trkpt>
<trkpt lat="49.087158" lon="10.23818">
<ele>489</ele>
<time>2019-05-29T12:16:15Z</time>
</trkpt>
<trkpt lat="49.087122" lon="10.238327">
<ele>488</ele>
<time>2019-05-29T12:16:20Z</time>
</trkpt>
<trkpt lat="49.087117" lon="10.238317">
<ele>488</ele>
<time>2019-05-29T12:16:25Z</time>
</trkpt>
<trkpt lat="49.087088" lon="10.23838">
<ele>488</ele>
<time>2019-05-29T12:16:30Z</time>
</trkpt>
<trkpt lat="49.087085" lon="10.238438">
<ele>488</ele>
<time>2019-05-29T12:16:35Z</time>
</trkpt>
<trkpt lat="49.087088" lon="10.238467">
<ele>488</ele>
<time>2019-05-29T12:16:40Z</time>
</trkpt>
<trkpt lat="49.087065" lon="10.238607">
<ele>488</ele>
<time>2019-05-29T12:16:45Z</time>
</trkpt>
<trkpt lat="49.087058" lon="10.238782">
<ele>488</ele>
<time>2019-05-29T12:16:50Z</time>
</trkpt>
<trkpt lat="49.087077" lon="10.239022">
<ele>488</ele>
<time>2019-05-29T12:16:55Z</time>
</trkpt>
<trkpt lat="49.087072" lon="10.239255">
<ele>488</ele>
<time>2019-05-29T12:17:00Z</time>
</trkpt>
<trkpt lat="49.087078" lon="10.239503">
<ele>488</ele>
<time>2019-05-29T12:17:05Z</time>
</trkpt>
<trkpt lat="49.087055" lon="10.239765">
<ele>488</ele>
<time>2019-05-29T12:17:10Z</time>
</trkpt>
<trkpt lat="49.087062" lon="10.23998">
<ele>488</ele>
<time>2019-05-29T12:17:15Z</time>
</trkpt>
<trkpt lat="49.087073" lon="10.240187">
<ele>489</ele>
<time>2019-05-29T12:17:20Z</time>
</trkpt>
<trkpt lat="49.087097" lon="10.240413">
<ele>489</ele>
<time>2019-05-29T12:17:25Z</time>
</trkpt>
<trkpt lat="49.087118" lon="10.240658">
<ele>489</ele>
<time>2019-05-29T12:17:30Z</time>
</trkpt>
<trkpt lat="49.087147" lon="10.240933">
<ele>490</ele>
<time>2019-05-29T12:17:35Z</time>
</trkpt>
<trkpt lat="49.087177" lon="10.241235">
<ele>490</ele>
<time>2019-05-29T12:17:40Z</time>
</trkpt>
<trkpt lat="49.087207" lon="10.24154">
<ele>490</ele>
<time>2019-05-29T12:17:45Z</time>
</trkpt>
<trkpt lat="49.087247" lon="10.241802">
<ele>490</ele>
<time>2019-05-29T12:17:50Z</time>
</trkpt>
<trkpt lat="49.087368" lon="10.241938">
<ele>490</ele>
<time>2019-05-29T12:17:55Z</time>
</trkpt>
<trkpt lat="49.0876" lon="10.241987">
<ele>490</ele>
<time>2019-05-29T12:18:00Z</time>
</trkpt>
<trkpt lat="49.087917" lon="10.242023">
<ele>489</ele>
<time>2019-05-29T12:18:05Z</time>
</trkpt>
<trkpt lat="49.088285" lon="10.242012">
<ele>487</ele>
<time>2019-05-29T12:18:10Z</time>
</trkpt>
<trkpt lat="49.088602" lon="10.241703">
<ele>486</ele>
<time>2019-05-29T12:18:15Z</time>
</trkpt>
<trkpt lat="49.088935" lon="10.241542">
<ele>486</ele>
<time>2019-05-29T12:18:20Z</time>
</trkpt>
<trkpt lat="49.089255" lon="10.2415">
<ele>485</ele>
<time>2019-05-29T12:18:25Z</time>
</trkpt>
<trkpt lat="49.089572" lon="10.241495">
<ele>485</ele>
<time>2019-05-29T12:18:30Z</time>
</trkpt>
<trkpt lat="49.089882" lon="10.241513">
<ele>485</ele>
<time>2019-05-29T12:18:35Z</time>
</trkpt>
<trkpt lat="49.090182" lon="10.241485">
<ele>485</ele>
<time>2019-05-29T12:18:40Z</time>
</trkpt>
<trkpt lat="49.090468" lon="10.241445">
<ele>485</ele>
<time>2019-05-29T12:18:45Z</time>
</trkpt>
<trkpt lat="49.090752" lon="10.241397">
<ele>485</ele>
<time>2019-05-29T12:18:50Z</time>
</trkpt>
<trkpt lat="49.091032" lon="10.241367">
<ele>485</ele>
<time>2019-05-29T12:18:55Z</time>
</trkpt>
<trkpt lat="49.091282" lon="10.241383">
<ele>485</ele>
<time>2019-05-29T12:19:00Z</time>
</trkpt>
<trkpt lat="49.091508" lon="10.241463">
<ele>485</ele>
<time>2019-05-29T12:19:05Z</time>
</trkpt>
<trkpt lat="49.091747" lon="10.241563">
<ele>485</ele>
<time>2019-05-29T12:19:10Z</time>
</trkpt>
<trkpt lat="49.092022" lon="10.241592">
<ele>485</ele>
<time>2019-05-29T12:19:15Z</time>
</trkpt>
<trkpt lat="49.092298" lon="10.241633">
<ele>485</ele>
<time>2019-05-29T12:19:20Z</time>
</trkpt>
<trkpt lat="49.092587" lon="10.241688">
<ele>484</ele>
<time>2019-05-29T12:19:25Z</time>
</trkpt>
<trkpt lat="49.092853" lon="10.241762">
<ele>484</ele>
<time>2019-05-29T12:19:30Z</time>
</trkpt>
<trkpt lat="49.093092" lon="10.241838">
<ele>484</ele>
<time>2019-05-29T12:19:35Z</time>
</trkpt>
<trkpt lat="49.093323" lon="10.241978">
<ele>484</ele>
<time>2019-05-29T12:19:40Z</time>
</trkpt>
<trkpt lat="49.093512" lon="10.242292">
<ele>483</ele>
<time>2019-05-29T12:19:45Z</time>
</trkpt>
<trkpt lat="49.093652" lon="10.242633">
<ele>483</ele>
<time>2019-05-29T12:19:50Z</time>
</trkpt>
<trkpt lat="49.09376" lon="10.242997">
<ele>483</ele>
<time>2019-05-29T12:19:55Z</time>
</trkpt>
<trkpt lat="49.093853" lon="10.243395">
<ele>483</ele>
<time>2019-05-29T12:20:00Z</time>
</trkpt>
<trkpt lat="49.093992" lon="10.243778">
<ele>483</ele>
<time>2019-05-29T12:20:05Z</time>
</trkpt>
<trkpt lat="49.094125" lon="10.244153">
<ele>483</ele>
<time>2019-05-29T12:20:10Z</time>
</trkpt>
<trkpt lat="49.094263" lon="10.244512">
<ele>483</ele>
<time>2019-05-29T12:20:15Z</time>
</trkpt>
<trkpt lat="49.094402" lon="10.244867">
<ele>483</ele>
<time>2019-05-29T12:20:20Z</time>
</trkpt>
<trkpt lat="49.094547" lon="10.245197">
<ele>483</ele>
<time>2019-05-29T12:20:25Z</time>
</trkpt>
<trkpt lat="49.094718" lon="10.245478">
<ele>483</ele>
<time>2019-05-29T12:20:30Z</time>
</trkpt>
<trkpt lat="49.094923" lon="10.24569">
<ele>484</ele>
<time>2019-05-29T12:20:35Z</time>
</trkpt>
<trkpt lat="49.09517" lon="10.245833">
<ele>484</ele>
<time>2019-05-29T12:20:40Z</time>
</trkpt>
<trkpt lat="49.095405" lon="10.245935">
<ele>484</ele>
<time>2019-05-29T12:20:45Z</time>
</trkpt>
<trkpt lat="49.09564" lon="10.246008">
<ele>484</ele>
<time>2019-05-29T12:20:50Z</time>
</trkpt>
<trkpt lat="49.095865" lon="10.246063">
<ele>484</ele>
<time>2019-05-29T12:20:55Z</time>
</trkpt>
<trkpt lat="49.096082" lon="10.246095">
<ele>485</ele>
<time>2019-05-29T12:21:00Z</time>
</trkpt>
<trkpt lat="49.096277" lon="10.24611">
<ele>485</ele>
<time>2019-05-29T12:21:05Z</time>
</trkpt>
<trkpt lat="49.096422" lon="10.246138">
<ele>485</ele>
<time>2019-05-29T12:21:10Z</time>
</trkpt>
<trkpt lat="49.096593" lon="10.246172">
<ele>485</ele>
<time>2019-05-29T12:21:15Z</time>
</trkpt>
<trkpt lat="49.096813" lon="10.246147">
<ele>485</ele>
<time>2019-05-29T12:21:20Z</time>
</trkpt>
<trkpt lat="49.097043" lon="10.24615">
<ele>486</ele>
<time>2019-05-29T12:21:25Z</time>
</trkpt>
<trkpt lat="49.097272" lon="10.246172">
<ele>486</ele>
<time>2019-05-29T12:21:30Z</time>
</trkpt>
<trkpt lat="49.097498" lon="10.24619">
<ele>486</ele>
<time>2019-05-29T12:21:35Z</time>
</trkpt>
<trkpt lat="49.097742" lon="10.246203">
<ele>486</ele>
<time>2019-05-29T12:21:40Z</time>
</trkpt>
<trkpt lat="49.098" lon="10.246218">
<ele>486</ele>
<time>2019-05-29T12:21:45Z</time>
</trkpt>
<trkpt lat="49.098275" lon="10.246235">
<ele>486</ele>
<time>2019-05-29T12:21:50Z</time>
</trkpt>
<trkpt lat="49.098547" lon="10.24624">
<ele>486</ele>
<time>2019-05-29T12:21:55Z</time>
</trkpt>
<trkpt lat="49.09881" lon="10.246243">
<ele>486</ele>
<time>2019-05-29T12:22:00Z</time>
</trkpt>
<trkpt lat="49.099067" lon="10.246237">
<ele>486</ele>
<time>2019-05-29T12:22:05Z</time>
</trkpt>
<trkpt lat="49.099338" lon="10.246243">
<ele>486</ele>
<time>2019-05-29T12:22:10Z</time>
</trkpt>
<trkpt lat="49.099613" lon="10.246248">
<ele>486</ele>
<time>2019-05-29T12:22:15Z</time>
</trkpt>
<trkpt lat="49.099905" lon="10.24625">
<ele>486</ele>
<time>2019-05-29T12:22:20Z</time>
</trkpt>
<trkpt lat="49.100202" lon="10.246248">
<ele>486</ele>
<time>2019-05-29T12:22:25Z</time>
</trkpt>
<trkpt lat="49.10048" lon="10.246242">
<ele>486</ele>
<time>2019-05-29T12:22:30Z</time>
</trkpt>
<trkpt lat="49.100755" lon="10.246242">
<ele>486</ele>
<time>2019-05-29T12:22:35Z</time>
</trkpt>
<trkpt lat="49.10103" lon="10.246242">
<ele>486</ele>
<time>2019-05-29T12:22:40Z</time>
</trkpt>
<trkpt lat="49.101305" lon="10.246242">
<ele>486</ele>
<time>2019-05-29T12:22:45Z</time>
</trkpt>
<trkpt lat="49.101542" lon="10.246277">
<ele>486</ele>
<time>2019-05-29T12:22:50Z</time>
</trkpt>
<trkpt lat="49.101773" lon="10.246372">
<ele>486</ele>
<time>2019-05-29T12:22:55Z</time>
</trkpt>
<trkpt lat="49.102003" lon="10.246548">
<ele>486</ele>
<time>2019-05-29T12:23:00Z</time>
</trkpt>
<trkpt lat="49.102197" lon="10.246807">
<ele>486</ele>
<time>2019-05-29T12:23:05Z</time>
</trkpt>
<trkpt lat="49.10236" lon="10.247137">
<ele>486</ele>
<time>2019-05-29T12:23:10Z</time>
</trkpt>
<trkpt lat="49.102475" lon="10.247537">
<ele>486</ele>
<time>2019-05-29T12:23:15Z</time>
</trkpt>
<trkpt lat="49.102535" lon="10.247947">
<ele>487</ele>
<time>2019-05-29T12:23:20Z</time>
</trkpt>
<trkpt lat="49.102545" lon="10.248352">
<ele>487</ele>
<time>2019-05-29T12:23:25Z</time>
</trkpt>
<trkpt lat="49.102533" lon="10.248753">
<ele>487</ele>
<time>2019-05-29T12:23:30Z</time>
</trkpt>
<trkpt lat="49.102528" lon="10.249158">
<ele>487</ele>
<time>2019-05-29T12:23:35Z</time>
</trkpt>
<trkpt lat="49.102533" lon="10.249542">
<ele>487</ele>
<time>2019-05-29T12:23:40Z</time>
</trkpt>
<trkpt lat="49.102542" lon="10.249953">
<ele>488</ele>
<time>2019-05-29T12:23:45Z</time>
</trkpt>
<trkpt lat="49.102578" lon="10.250358">
<ele>488</ele>
<time>2019-05-29T12:23:50Z</time>
</trkpt>
<trkpt lat="49.102632" lon="10.250788">
<ele>488</ele>
<time>2019-05-29T12:23:55Z</time>
</trkpt>
<trkpt lat="49.1027" lon="10.251222">
<ele>488</ele>
<time>2019-05-29T12:24:00Z</time>
</trkpt>
<trkpt lat="49.102813" lon="10.251612">
<ele>488</ele>
<time>2019-05-29T12:24:05Z</time>
</trkpt>
<trkpt lat="49.103032" lon="10.251875">
<ele>488</ele>
<time>2019-05-29T12:24:10Z</time>
</trkpt>
<trkpt lat="49.103302" lon="10.251938">
<ele>488</ele>
<time>2019-05-29T12:24:15Z</time>
</trkpt>
<trkpt lat="49.10357" lon="10.251828">
<ele>488</ele>
<time>2019-05-29T12:24:20Z</time>
</trkpt>
<trkpt lat="49.103815" lon="10.251563">
<ele>487</ele>
<time>2019-05-29T12:24:25Z</time>
</trkpt>
<trkpt lat="49.104068" lon="10.251222">
<ele>486</ele>
<time>2019-05-29T12:24:30Z</time>
</trkpt>
<trkpt lat="49.104347" lon="10.250843">
<ele>484</ele>
<time>2019-05-29T12:24:35Z</time>
</trkpt>
<trkpt lat="49.104718" lon="10.250523">
<ele>481</ele>
<time>2019-05-29T12:24:40Z</time>
</trkpt>
<trkpt lat="49.105172" lon="10.250497">
<ele>478</ele>
<time>2019-05-29T12:24:45Z</time>
</trkpt>
<trkpt lat="49.105582" lon="10.250342">
<ele>477</ele>
<time>2019-05-29T12:24:50Z</time>
</trkpt>
<trkpt lat="49.105903" lon="10.24998">
<ele>477</ele>
<time>2019-05-29T12:24:55Z</time>
</trkpt>
<trkpt lat="49.10618" lon="10.2497">
<ele>477</ele>
<time>2019-05-29T12:25:00Z</time>
</trkpt>
<trkpt lat="49.10645" lon="10.249507">
<ele>477</ele>
<time>2019-05-29T12:25:05Z</time>
</trkpt>
<trkpt lat="49.106737" lon="10.249323">
<ele>477</ele>
<time>2019-05-29T12:25:10Z</time>
</trkpt>
<trkpt lat="49.107003" lon="10.249038">
<ele>478</ele>
<time>2019-05-29T12:25:15Z</time>
</trkpt>
<trkpt lat="49.107227" lon="10.248727">
<ele>478</ele>
<time>2019-05-29T12:25:20Z</time>
</trkpt>
<trkpt lat="49.107482" lon="10.248533">
<ele>478</ele>
<time>2019-05-29T12:25:25Z</time>
</trkpt>
<trkpt lat="49.107758" lon="10.248453">
<ele>478</ele>
<time>2019-05-29T12:25:30Z</time>
</trkpt>
<trkpt lat="49.108058" lon="10.248363">
<ele>478</ele>
<time>2019-05-29T12:25:35Z</time>
</trkpt>
<trkpt lat="49.108378" lon="10.248235">
<ele>478</ele>
<time>2019-05-29T12:25:40Z</time>
</trkpt>
<trkpt lat="49.108717" lon="10.248068">
<ele>476</ele>
<time>2019-05-29T12:25:45Z</time>
</trkpt>
<trkpt lat="49.109082" lon="10.247857">
<ele>475</ele>
<time>2019-05-29T12:25:50Z</time>
</trkpt>
<trkpt lat="49.109483" lon="10.247617">
<ele>473</ele>
<time>2019-05-29T12:25:55Z</time>
</trkpt>
<trkpt lat="49.109872" lon="10.247393">
<ele>473</ele>
<time>2019-05-29T12:26:00Z</time>
</trkpt>
<trkpt lat="49.110213" lon="10.247233">
<ele>472</ele>
<time>2019-05-29T12:26:05Z</time>
</trkpt>
<trkpt lat="49.110538" lon="10.247147">
<ele>472</ele>
<time>2019-05-29T12:26:10Z</time>
</trkpt>
<trkpt lat="49.110875" lon="10.247165">
<ele>472</ele>
<time>2019-05-29T12:26:15Z</time>
</trkpt>
<trkpt lat="49.111212" lon="10.247293">
<ele>472</ele>
<time>2019-05-29T12:26:20Z</time>
</trkpt>
<trkpt lat="49.111533" lon="10.247562">
<ele>472</ele>
<time>2019-05-29T12:26:25Z</time>
</trkpt>
<trkpt lat="49.111805" lon="10.24797">
<ele>470</ele>
<time>2019-05-29T12:26:30Z</time>
</trkpt>
<trkpt lat="49.112058" lon="10.24847">
<ele>467</ele>
<time>2019-05-29T12:26:35Z</time>
</trkpt>
<trkpt lat="49.112352" lon="10.248938">
<ele>466</ele>
<time>2019-05-29T12:26:40Z</time>
</trkpt>
<trkpt lat="49.1127" lon="10.249302">
<ele>465</ele>
<time>2019-05-29T12:26:45Z</time>
</trkpt>
<trkpt lat="49.113063" lon="10.249543">
<ele>463</ele>
<time>2019-05-29T12:26:50Z</time>
</trkpt>
<trkpt lat="49.113422" lon="10.249702">
<ele>463</ele>
<time>2019-05-29T12:26:55Z</time>
</trkpt>
<trkpt lat="49.113762" lon="10.24981">
<ele>463</ele>
<time>2019-05-29T12:27:00Z</time>
</trkpt>
<trkpt lat="49.114127" lon="10.249942">
<ele>461</ele>
<time>2019-05-29T12:27:05Z</time>
</trkpt>
<trkpt lat="49.114493" lon="10.249905">
<ele>459</ele>
<time>2019-05-29T12:27:10Z</time>
</trkpt>
<trkpt lat="49.114757" lon="10.249337">
<ele>453</ele>
<time>2019-05-29T12:27:15Z</time>
</trkpt>
<trkpt lat="49.115025" lon="10.24874">
<ele>450</ele>
<time>2019-05-29T12:27:20Z</time>
</trkpt>
<trkpt lat="49.11532" lon="10.24821">
<ele>445</ele>
<time>2019-05-29T12:27:25Z</time>
</trkpt>
<trkpt lat="49.115773" lon="10.247998">
<ele>443</ele>
<time>2019-05-29T12:27:30Z</time>
</trkpt>
<trkpt lat="49.116225" lon="10.247902">
<ele>439</ele>
<time>2019-05-29T12:27:35Z</time>
</trkpt>
<trkpt lat="49.116605" lon="10.247872">
<ele>437</ele>
<time>2019-05-29T12:27:40Z</time>
</trkpt>
<trkpt lat="49.116758" lon="10.248208">
<ele>437</ele>
<time>2019-05-29T12:27:45Z</time>
</trkpt>
<trkpt lat="49.116715" lon="10.2486">
<ele>436</ele>
<time>2019-05-29T12:27:50Z</time>
</trkpt>
<trkpt lat="49.116633" lon="10.248955">
<ele>436</ele>
<time>2019-05-29T12:27:55Z</time>
</trkpt>
<trkpt lat="49.116558" lon="10.249302">
<ele>437</ele>
<time>2019-05-29T12:28:00Z</time>
</trkpt>
<trkpt lat="49.116465" lon="10.249615">
<ele>437</ele>
<time>2019-05-29T12:28:05Z</time>
</trkpt>
<trkpt lat="49.116362" lon="10.249933">
<ele>437</ele>
<time>2019-05-29T12:28:10Z</time>
</trkpt>
<trkpt lat="49.116218" lon="10.250235">
<ele>437</ele>
<time>2019-05-29T12:28:15Z</time>
</trkpt>
<trkpt lat="49.116095" lon="10.250502">
<ele>437</ele>
<time>2019-05-29T12:28:20Z</time>
</trkpt>
<trkpt lat="49.115962" lon="10.250782">
<ele>438</ele>
<time>2019-05-29T12:28:25Z</time>
</trkpt>
<trkpt lat="49.115817" lon="10.25109">
<ele>438</ele>
<time>2019-05-29T12:28:30Z</time>
</trkpt>
<trkpt lat="49.115675" lon="10.2514">
<ele>439</ele>
<time>2019-05-29T12:28:35Z</time>
</trkpt>
<trkpt lat="49.115532" lon="10.251688">
<ele>440</ele>
<time>2019-05-29T12:28:40Z</time>
</trkpt>
<trkpt lat="49.115375" lon="10.25202">
<ele>440</ele>
<time>2019-05-29T12:28:45Z</time>
</trkpt>
<trkpt lat="49.115213" lon="10.252377">
<ele>440</ele>
<time>2019-05-29T12:28:50Z</time>
</trkpt>
<trkpt lat="49.115083" lon="10.252788">
<ele>440</ele>
<time>2019-05-29T12:28:55Z</time>
</trkpt>
<trkpt lat="49.114977" lon="10.25327">
<ele>439</ele>
<time>2019-05-29T12:29:00Z</time>
</trkpt>
<trkpt lat="49.114943" lon="10.253845">
<ele>438</ele>
<time>2019-05-29T12:29:05Z</time>
</trkpt>
<trkpt lat="49.114968" lon="10.254415">
<ele>437</ele>
<time>2019-05-29T12:29:10Z</time>
</trkpt>
<trkpt lat="49.115062" lon="10.254892">
<ele>437</ele>
<time>2019-05-29T12:29:15Z</time>
</trkpt>
<trkpt lat="49.115185" lon="10.255228">
<ele>437</ele>
<time>2019-05-29T12:29:20Z</time>
</trkpt>
<trkpt lat="49.115318" lon="10.255477">
<ele>437</ele>
<time>2019-05-29T12:29:25Z</time>
</trkpt>
<trkpt lat="49.11544" lon="10.255687">
<ele>437</ele>
<time>2019-05-29T12:29:30Z</time>
</trkpt>
<trkpt lat="49.115563" lon="10.25592">
<ele>438</ele>
<time>2019-05-29T12:29:35Z</time>
</trkpt>
<trkpt lat="49.115722" lon="10.256143">
<ele>439</ele>
<time>2019-05-29T12:29:40Z</time>
</trkpt>
<trkpt lat="49.115892" lon="10.256342">
<ele>440</ele>
<time>2019-05-29T12:29:45Z</time>
</trkpt>
<trkpt lat="49.11605" lon="10.25655">
<ele>440</ele>
<time>2019-05-29T12:29:50Z</time>
</trkpt>
<trkpt lat="49.116223" lon="10.256752">
<ele>440</ele>
<time>2019-05-29T12:29:55Z</time>
</trkpt>
<trkpt lat="49.116408" lon="10.256977">
<ele>440</ele>
<time>2019-05-29T12:30:00Z</time>
</trkpt>
<trkpt lat="49.116613" lon="10.257215">
<ele>440</ele>
<time>2019-05-29T12:30:05Z</time>
</trkpt>
<trkpt lat="49.116862" lon="10.257508">
<ele>439</ele>
<time>2019-05-29T12:30:10Z</time>
</trkpt>
<trkpt lat="49.117125" lon="10.257845">
<ele>438</ele>
<time>2019-05-29T12:30:15Z</time>
</trkpt>
<trkpt lat="49.117387" lon="10.25823">
<ele>437</ele>
<time>2019-05-29T12:30:20Z</time>
</trkpt>
<trkpt lat="49.11764" lon="10.258662">
<ele>436</ele>
<time>2019-05-29T12:30:25Z</time>
</trkpt>
<trkpt lat="49.117857" lon="10.259113">
<ele>435</ele>
<time>2019-05-29T12:30:30Z</time>
</trkpt>
<trkpt lat="49.118062" lon="10.259662">
<ele>435</ele>
<time>2019-05-29T12:30:36Z</time>
</trkpt>
<trkpt lat="49.118193" lon="10.260123">
<ele>434</ele>
<time>2019-05-29T12:30:41Z</time>
</trkpt>
<trkpt lat="49.118305" lon="10.260593">
<ele>434</ele>
<time>2019-05-29T12:30:46Z</time>
</trkpt>
<trkpt lat="49.118388" lon="10.261077">
<ele>434</ele>
<time>2019-05-29T12:30:51Z</time>
</trkpt>
<trkpt lat="49.118428" lon="10.26158">
<ele>434</ele>
<time>2019-05-29T12:30:56Z</time>
</trkpt>
<trkpt lat="49.118443" lon="10.262063">
<ele>433</ele>
<time>2019-05-29T12:31:01Z</time>
</trkpt>
<trkpt lat="49.118418" lon="10.26252">
<ele>432</ele>
<time>2019-05-29T12:31:06Z</time>
</trkpt>
<trkpt lat="49.118375" lon="10.262942">
<ele>431</ele>
<time>2019-05-29T12:31:11Z</time>
</trkpt>
<trkpt lat="49.118328" lon="10.263385">
<ele>431</ele>
<time>2019-05-29T12:31:16Z</time>
</trkpt>
<trkpt lat="49.118255" lon="10.263852">
<ele>431</ele>
<time>2019-05-29T12:31:21Z</time>
</trkpt>
<trkpt lat="49.118193" lon="10.264298">
<ele>431</ele>
<time>2019-05-29T12:31:26Z</time>
</trkpt>
<trkpt lat="49.118133" lon="10.264765">
<ele>431</ele>
<time>2019-05-29T12:31:31Z</time>
</trkpt>
<trkpt lat="49.11808" lon="10.265237">
<ele>431</ele>
<time>2019-05-29T12:31:36Z</time>
</trkpt>
<trkpt lat="49.118037" lon="10.265662">
<ele>431</ele>
<time>2019-05-29T12:31:41Z</time>
</trkpt>
<trkpt lat="49.117987" lon="10.266095">
<ele>431</ele>
<time>2019-05-29T12:31:46Z</time>
</trkpt>
<trkpt lat="49.11794" lon="10.266538">
<ele>431</ele>
<time>2019-05-29T12:31:51Z</time>
</trkpt>
<trkpt lat="49.117888" lon="10.26697">
<ele>431</ele>
<time>2019-05-29T12:31:56Z</time>
</trkpt>
<trkpt lat="49.117833" lon="10.267435">
<ele>431</ele>
<time>2019-05-29T12:32:01Z</time>
</trkpt>
<trkpt lat="49.117775" lon="10.267912">
<ele>431</ele>
<time>2019-05-29T12:32:06Z</time>
</trkpt>
<trkpt lat="49.117685" lon="10.268388">
<ele>431</ele>
<time>2019-05-29T12:32:11Z</time>
</trkpt>
<trkpt lat="49.117572" lon="10.268857">
<ele>431</ele>
<time>2019-05-29T12:32:16Z</time>
</trkpt>
<trkpt lat="49.117418" lon="10.269323">
<ele>430</ele>
<time>2019-05-29T12:32:21Z</time>
</trkpt>
<trkpt lat="49.117243" lon="10.269763">
<ele>430</ele>
<time>2019-05-29T12:32:26Z</time>
</trkpt>
<trkpt lat="49.117073" lon="10.270208">
<ele>430</ele>
<time>2019-05-29T12:32:31Z</time>
</trkpt>
<trkpt lat="49.116917" lon="10.270648">
<ele>430</ele>
<time>2019-05-29T12:32:36Z</time>
</trkpt>
<trkpt lat="49.116775" lon="10.271057">
<ele>430</ele>
<time>2019-05-29T12:32:41Z</time>
</trkpt>
<trkpt lat="49.116623" lon="10.271467">
<ele>430</ele>
<time>2019-05-29T12:32:46Z</time>
</trkpt>
<trkpt lat="49.116485" lon="10.271878">
<ele>430</ele>
<time>2019-05-29T12:32:51Z</time>
</trkpt>
<trkpt lat="49.11637" lon="10.27229">
<ele>430</ele>
<time>2019-05-29T12:32:56Z</time>
</trkpt>
<trkpt lat="49.116295" lon="10.272758">
<ele>430</ele>
<time>2019-05-29T12:33:01Z</time>
</trkpt>
<trkpt lat="49.116278" lon="10.273227">
<ele>430</ele>
<time>2019-05-29T12:33:06Z</time>
</trkpt>
<trkpt lat="49.116323" lon="10.273693">
<ele>430</ele>
<time>2019-05-29T12:33:11Z</time>
</trkpt>
<trkpt lat="49.11644" lon="10.27412">
<ele>429</ele>
<time>2019-05-29T12:33:16Z</time>
</trkpt>
<trkpt lat="49.116602" lon="10.274507">
<ele>429</ele>
<time>2019-05-29T12:33:21Z</time>
</trkpt>
<trkpt lat="49.116763" lon="10.274877">
<ele>429</ele>
<time>2019-05-29T12:33:26Z</time>
</trkpt>
<trkpt lat="49.116917" lon="10.275255">
<ele>429</ele>
<time>2019-05-29T12:33:31Z</time>
</trkpt>
<trkpt lat="49.117032" lon="10.275643">
<ele>429</ele>
<time>2019-05-29T12:33:36Z</time>
</trkpt>
<trkpt lat="49.117095" lon="10.276067">
<ele>429</ele>
<time>2019-05-29T12:33:41Z</time>
</trkpt>
<trkpt lat="49.11711" lon="10.276465">
<ele>429</ele>
<time>2019-05-29T12:33:46Z</time>
</trkpt>
<trkpt lat="49.11707" lon="10.27684">
<ele>429</ele>
<time>2019-05-29T12:33:51Z</time>
</trkpt>
<trkpt lat="49.116973" lon="10.277247">
<ele>429</ele>
<time>2019-05-29T12:33:56Z</time>
</trkpt>
<trkpt lat="49.116885" lon="10.277607">
<ele>429</ele>
<time>2019-05-29T12:34:01Z</time>
</trkpt>
<trkpt lat="49.116835" lon="10.277872">
<ele>429</ele>
<time>2019-05-29T12:34:06Z</time>
</trkpt>
<trkpt lat="49.116808" lon="10.278153">
<ele>429</ele>
<time>2019-05-29T12:34:11Z</time>
</trkpt>
<trkpt lat="49.116855" lon="10.278397">
<ele>429</ele>
<time>2019-05-29T12:34:16Z</time>
</trkpt>
<trkpt lat="49.117017" lon="10.278413">
<ele>429</ele>
<time>2019-05-29T12:34:21Z</time>
</trkpt>
<trkpt lat="49.11723" lon="10.278322">
<ele>429</ele>
<time>2019-05-29T12:34:26Z</time>
</trkpt>
<trkpt lat="49.117408" lon="10.27822">
<ele>430</ele>
<time>2019-05-29T12:34:31Z</time>
</trkpt>
<trkpt lat="49.117602" lon="10.278045">
<ele>430</ele>
<time>2019-05-29T12:34:36Z</time>
</trkpt>
<trkpt lat="49.117793" lon="10.277798">
<ele>431</ele>
<time>2019-05-29T12:34:41Z</time>
</trkpt>
<trkpt lat="49.117978" lon="10.277542">
<ele>431</ele>
<time>2019-05-29T12:34:46Z</time>
</trkpt>
<trkpt lat="49.118157" lon="10.277303">
<ele>432</ele>
<time>2019-05-29T12:34:51Z</time>
</trkpt>
<trkpt lat="49.118323" lon="10.277067">
<ele>432</ele>
<time>2019-05-29T12:34:56Z</time>
</trkpt>
<trkpt lat="49.11848" lon="10.276848">
<ele>433</ele>
<time>2019-05-29T12:35:01Z</time>
</trkpt>
<trkpt lat="49.11863" lon="10.276603">
<ele>434</ele>
<time>2019-05-29T12:35:06Z</time>
</trkpt>
<trkpt lat="49.118777" lon="10.276347">
<ele>435</ele>
<time>2019-05-29T12:35:11Z</time>
</trkpt>
<trkpt lat="49.118932" lon="10.276073">
<ele>435</ele>
<time>2019-05-29T12:35:16Z</time>
</trkpt>
<trkpt lat="49.119085" lon="10.275788">
<ele>436</ele>
<time>2019-05-29T12:35:21Z</time>
</trkpt>
<trkpt lat="49.119218" lon="10.275518">
<ele>436</ele>
<time>2019-05-29T12:35:26Z</time>
</trkpt>
<trkpt lat="49.119357" lon="10.275228">
<ele>437</ele>
<time>2019-05-29T12:35:31Z</time>
</trkpt>
<trkpt lat="49.11949" lon="10.27494">
<ele>437</ele>
<time>2019-05-29T12:35:36Z</time>
</trkpt>
<trkpt lat="49.119618" lon="10.274643">
<ele>437</ele>
<time>2019-05-29T12:35:41Z</time>
</trkpt>
<trkpt lat="49.11974" lon="10.274348">
<ele>438</ele>
<time>2019-05-29T12:35:46Z</time>
</trkpt>
<trkpt lat="49.119833" lon="10.274102">
<ele>438</ele>
<time>2019-05-29T12:35:51Z</time>
</trkpt>
<trkpt lat="49.119893" lon="10.273942">
<ele>438</ele>
<time>2019-05-29T12:35:56Z</time>
</trkpt>
<trkpt lat="49.119953" lon="10.273743">
<ele>438</ele>
<time>2019-05-29T12:36:01Z</time>
</trkpt>
<trkpt lat="49.12005" lon="10.273437">
<ele>438</ele>
<time>2019-05-29T12:36:06Z</time>
</trkpt>
<trkpt lat="49.120158" lon="10.273125">
<ele>438</ele>
<time>2019-05-29T12:36:11Z</time>
</trkpt>
<trkpt lat="49.120263" lon="10.27278">
<ele>438</ele>
<time>2019-05-29T12:36:16Z</time>
</trkpt>
<trkpt lat="49.120385" lon="10.272468">
<ele>438</ele>
<time>2019-05-29T12:36:21Z</time>
</trkpt>
<trkpt lat="49.12057" lon="10.272167">
<ele>438</ele>
<time>2019-05-29T12:36:26Z</time>
</trkpt>
<trkpt lat="49.120787" lon="10.271905">
<ele>439</ele>
<time>2019-05-29T12:36:31Z</time>
</trkpt>
<trkpt lat="49.12102" lon="10.271665">
<ele>439</ele>
<time>2019-05-29T12:36:36Z</time>
</trkpt>
<trkpt lat="49.121273" lon="10.271477">
<ele>439</ele>
<time>2019-05-29T12:36:41Z</time>
</trkpt>
<trkpt lat="49.121588" lon="10.27126">
<ele>439</ele>
<time>2019-05-29T12:36:46Z</time>
</trkpt>
<trkpt lat="49.121937" lon="10.270928">
<ele>436</ele>
<time>2019-05-29T12:36:51Z</time>
</trkpt>
<trkpt lat="49.122283" lon="10.27048">
<ele>434</ele>
<time>2019-05-29T12:36:56Z</time>
</trkpt>
<trkpt lat="49.122607" lon="10.270007">
<ele>434</ele>
<time>2019-05-29T12:37:01Z</time>
</trkpt>
<trkpt lat="49.122843" lon="10.269668">
<ele>433</ele>
<time>2019-05-29T12:37:06Z</time>
</trkpt>
<trkpt lat="49.123057" lon="10.269352">
<ele>433</ele>
<time>2019-05-29T12:37:11Z</time>
</trkpt>
<trkpt lat="49.123243" lon="10.269028">
<ele>433</ele>
<time>2019-05-29T12:37:16Z</time>
</trkpt>
<trkpt lat="49.12342" lon="10.26869">
<ele>433</ele>
<time>2019-05-29T12:37:21Z</time>
</trkpt>
<trkpt lat="49.123563" lon="10.26833">
<ele>434</ele>
<time>2019-05-29T12:37:26Z</time>
</trkpt>
<trkpt lat="49.123677" lon="10.267948">
<ele>434</ele>
<time>2019-05-29T12:37:31Z</time>
</trkpt>
<trkpt lat="49.123765" lon="10.26752">
<ele>434</ele>
<time>2019-05-29T12:37:36Z</time>
</trkpt>
<trkpt lat="49.123835" lon="10.267097">
<ele>434</ele>
<time>2019-05-29T12:37:41Z</time>
</trkpt>
<trkpt lat="49.123907" lon="10.26666">
<ele>434</ele>
<time>2019-05-29T12:37:46Z</time>
</trkpt>
<trkpt lat="49.123988" lon="10.266223">
<ele>435</ele>
<time>2019-05-29T12:37:51Z</time>
</trkpt>
<trkpt lat="49.124077" lon="10.2658">
<ele>435</ele>
<time>2019-05-29T12:37:56Z</time>
</trkpt>
<trkpt lat="49.124178" lon="10.265368">
<ele>435</ele>
<time>2019-05-29T12:38:01Z</time>
</trkpt>
<trkpt lat="49.124277" lon="10.264932">
<ele>435</ele>
<time>2019-05-29T12:38:06Z</time>
</trkpt>
<trkpt lat="49.124347" lon="10.264505">
<ele>435</ele>
<time>2019-05-29T12:38:11Z</time>
</trkpt>
<trkpt lat="49.124422" lon="10.264063">
<ele>435</ele>
<time>2019-05-29T12:38:16Z</time>
</trkpt>
<trkpt lat="49.124502" lon="10.263623">
<ele>435</ele>
<time>2019-05-29T12:38:21Z</time>
</trkpt>
<trkpt lat="49.124592" lon="10.263163">
<ele>435</ele>
<time>2019-05-29T12:38:26Z</time>
</trkpt>
<trkpt lat="49.124675" lon="10.262698">
<ele>435</ele>
<time>2019-05-29T12:38:31Z</time>
</trkpt>
<trkpt lat="49.124773" lon="10.262277">
<ele>435</ele>
<time>2019-05-29T12:38:36Z</time>
</trkpt>
<trkpt lat="49.124907" lon="10.261862">
<ele>435</ele>
<time>2019-05-29T12:38:41Z</time>
</trkpt>
<trkpt lat="49.125057" lon="10.261483">
<ele>435</ele>
<time>2019-05-29T12:38:46Z</time>
</trkpt>
<trkpt lat="49.125212" lon="10.261112">
<ele>435</ele>
<time>2019-05-29T12:38:51Z</time>
</trkpt>
<trkpt lat="49.125368" lon="10.26074">
<ele>435</ele>
<time>2019-05-29T12:38:56Z</time>
</trkpt>
<trkpt lat="49.125535" lon="10.260382">
<ele>435</ele>
<time>2019-05-29T12:39:01Z</time>
</trkpt>
<trkpt lat="49.125707" lon="10.260088">
<ele>436</ele>
<time>2019-05-29T12:39:06Z</time>
</trkpt>
<trkpt lat="49.125868" lon="10.259833">
<ele>437</ele>
<time>2019-05-29T12:39:11Z</time>
</trkpt>
<trkpt lat="49.126012" lon="10.259582">
<ele>437</ele>
<time>2019-05-29T12:39:16Z</time>
</trkpt>
<trkpt lat="49.126138" lon="10.259322">
<ele>438</ele>
<time>2019-05-29T12:39:21Z</time>
</trkpt>
<trkpt lat="49.12627" lon="10.259035">
<ele>438</ele>
<time>2019-05-29T12:39:26Z</time>
</trkpt>
<trkpt lat="49.126415" lon="10.258722">
<ele>439</ele>
<time>2019-05-29T12:39:31Z</time>
</trkpt>
<trkpt lat="49.126567" lon="10.258397">
<ele>439</ele>
<time>2019-05-29T12:39:36Z</time>
</trkpt>
<trkpt lat="49.126727" lon="10.25807">
<ele>439</ele>
<time>2019-05-29T12:39:41Z</time>
</trkpt>
<trkpt lat="49.126868" lon="10.257588">
<ele>439</ele>
<time>2019-05-29T12:39:46Z</time>
</trkpt>
<trkpt lat="49.127033" lon="10.257155">
<ele>439</ele>
<time>2019-05-29T12:39:51Z</time>
</trkpt>
<trkpt lat="49.127127" lon="10.256737">
<ele>439</ele>
<time>2019-05-29T12:39:56Z</time>
</trkpt>
<trkpt lat="49.127165" lon="10.256282">
<ele>439</ele>
<time>2019-05-29T12:40:01Z</time>
</trkpt>
<trkpt lat="49.127172" lon="10.25579">
<ele>439</ele>
<time>2019-05-29T12:40:06Z</time>
</trkpt>
<trkpt lat="49.127153" lon="10.255343">
<ele>439</ele>
<time>2019-05-29T12:40:11Z</time>
</trkpt>
<trkpt lat="49.127113" lon="10.255223">
<ele>439</ele>
<time>2019-05-29T12:40:16Z</time>
</trkpt>
<trkpt lat="49.127108" lon="10.255222">
<ele>439</ele>
<time>2019-05-29T12:40:21Z</time>
</trkpt>
<trkpt lat="49.12711" lon="10.255213">
<ele>439</ele>
<time>2019-05-29T12:40:26Z</time>
</trkpt>
<trkpt lat="49.127112" lon="10.255197">
<ele>439</ele>
<time>2019-05-29T12:40:31Z</time>
</trkpt>
<trkpt lat="49.127108" lon="10.255195">
<ele>439</ele>
<time>2019-05-29T12:40:36Z</time>
</trkpt>
<trkpt lat="49.127107" lon="10.255195">
<ele>439</ele>
<time>2019-05-29T12:40:51Z</time>
</trkpt>
<trkpt lat="49.127107" lon="10.255197">
<ele>439</ele>
<time>2019-05-29T12:40:56Z</time>
</trkpt>
<trkpt lat="49.127107" lon="10.255195">
<ele>439</ele>
<time>2019-05-29T12:41:11Z</time>
</trkpt>
<trkpt lat="49.127108" lon="10.255195">
<ele>439</ele>
<time>2019-05-29T12:41:21Z</time>
</trkpt>
<trkpt lat="49.127112" lon="10.255195">
<ele>439</ele>
<time>2019-05-29T12:41:36Z</time>
</trkpt>
<trkpt lat="49.127115" lon="10.25519">
<ele>439</ele>
<time>2019-05-29T12:41:41Z</time>
</trkpt>
<trkpt lat="49.127115" lon="10.255188">
<ele>439</ele>
<time>2019-05-29T12:41:46Z</time>
</trkpt>
<trkpt lat="49.127113" lon="10.255208">
<ele>439</ele>
<time>2019-05-29T12:43:26Z</time>
</trkpt>
<trkpt lat="49.12711" lon="10.255208">
<ele>439</ele>
<time>2019-05-29T12:43:41Z</time>
</trkpt>
<trkpt lat="49.12711" lon="10.255207">
<ele>439</ele>
<time>2019-05-29T12:43:46Z</time>
</trkpt>
<trkpt lat="49.12711" lon="10.255208">
<ele>439</ele>
<time>2019-05-29T12:43:51Z</time>
</trkpt>
<trkpt lat="49.12711" lon="10.255207">
<ele>439</ele>
<time>2019-05-29T12:44:06Z</time>
</trkpt>
<trkpt lat="49.127112" lon="10.255205">
<ele>439</ele>
<time>2019-05-29T12:44:31Z</time>
</trkpt>
<trkpt lat="49.127112" lon="10.255207">
<ele>439</ele>
<time>2019-05-29T12:44:41Z</time>
</trkpt>
<trkpt lat="49.127113" lon="10.255203">
<ele>439</ele>
<time>2019-05-29T12:44:46Z</time>
</trkpt>
<trkpt lat="49.127115" lon="10.2552">
<ele>439</ele>
<time>2019-05-29T12:44:51Z</time>
</trkpt>
<trkpt lat="49.127113" lon="10.2552">
<ele>439</ele>
<time>2019-05-29T12:45:01Z</time>
</trkpt>
<trkpt lat="49.127117" lon="10.255202">
<ele>439</ele>
<time>2019-05-29T12:45:16Z</time>
</trkpt>
<trkpt lat="49.127125" lon="10.2552">
<ele>439</ele>
<time>2019-05-29T12:45:26Z</time>
</trkpt>
<trkpt lat="49.127125" lon="10.255218">
<ele>439</ele>
<time>2019-05-29T12:45:31Z</time>
</trkpt>
<trkpt lat="49.12712" lon="10.255227">
<ele>439</ele>
<time>2019-05-29T12:45:36Z</time>
</trkpt>
<trkpt lat="49.12712" lon="10.255228">
<ele>439</ele>
<time>2019-05-29T12:45:41Z</time>
</trkpt>
<trkpt lat="49.12712" lon="10.255227">
<ele>439</ele>
<time>2019-05-29T12:45:46Z</time>
</trkpt>
<trkpt lat="49.12712" lon="10.255228">
<ele>439</ele>
<time>2019-05-29T12:45:51Z</time>
</trkpt>
<trkpt lat="49.127122" lon="10.255228">
<ele>439</ele>
<time>2019-05-29T12:45:56Z</time>
</trkpt>
<trkpt lat="49.127117" lon="10.255257">
<ele>439</ele>
<time>2019-05-29T12:46:01Z</time>
</trkpt>
<trkpt lat="49.127115" lon="10.255253">
<ele>439</ele>
<time>2019-05-29T12:46:11Z</time>
</trkpt>
<trkpt lat="49.127115" lon="10.255255">
<ele>439</ele>
<time>2019-05-29T12:46:21Z</time>
</trkpt>
<trkpt lat="49.127117" lon="10.255257">
<ele>439</ele>
<time>2019-05-29T12:46:26Z</time>
</trkpt>
<trkpt lat="49.127117" lon="10.255258">
<ele>439</ele>
<time>2019-05-29T12:46:31Z</time>
</trkpt>
<trkpt lat="49.12712" lon="10.25535">
<ele>439</ele>
<time>2019-05-29T12:46:36Z</time>
</trkpt>
<trkpt lat="49.127127" lon="10.255607">
<ele>439</ele>
<time>2019-05-29T12:46:41Z</time>
</trkpt>
<trkpt lat="49.127123" lon="10.255915">
<ele>439</ele>
<time>2019-05-29T12:46:46Z</time>
</trkpt>
<trkpt lat="49.127127" lon="10.256248">
<ele>439</ele>
<time>2019-05-29T12:46:51Z</time>
</trkpt>
<trkpt lat="49.127105" lon="10.256575">
<ele>439</ele>
<time>2019-05-29T12:46:56Z</time>
</trkpt>
<trkpt lat="49.127073" lon="10.256782">
<ele>439</ele>
<time>2019-05-29T12:47:01Z</time>
</trkpt>
<trkpt lat="49.127048" lon="10.25691">
<ele>439</ele>
<time>2019-05-29T12:47:06Z</time>
</trkpt>
<trkpt lat="49.127025" lon="10.256987">
<ele>439</ele>
<time>2019-05-29T12:47:11Z</time>
</trkpt>
<trkpt lat="49.127025" lon="10.256988">
<ele>439</ele>
<time>2019-05-29T12:47:16Z</time>
</trkpt>
<trkpt lat="49.127018" lon="10.257023">
<ele>439</ele>
<time>2019-05-29T12:47:21Z</time>
</trkpt>
<trkpt lat="49.126963" lon="10.257233">
<ele>439</ele>
<time>2019-05-29T12:47:26Z</time>
</trkpt>
<trkpt lat="49.126865" lon="10.257508">
<ele>439</ele>
<time>2019-05-29T12:47:31Z</time>
</trkpt>
<trkpt lat="49.126765" lon="10.257758">
<ele>439</ele>
<time>2019-05-29T12:47:36Z</time>
</trkpt>
<trkpt lat="49.126637" lon="10.25795">
<ele>439</ele>
<time>2019-05-29T12:47:41Z</time>
</trkpt>
<trkpt lat="49.126517" lon="10.25813">
<ele>439</ele>
<time>2019-05-29T12:47:46Z</time>
</trkpt>
<trkpt lat="49.126455" lon="10.258547">
<ele>439</ele>
<time>2019-05-29T12:47:51Z</time>
</trkpt>
<trkpt lat="49.12629" lon="10.258907">
<ele>439</ele>
<time>2019-05-29T12:47:56Z</time>
</trkpt>
<trkpt lat="49.126132" lon="10.259268">
<ele>439</ele>
<time>2019-05-29T12:48:01Z</time>
</trkpt>
<trkpt lat="49.125948" lon="10.259633">
<ele>439</ele>
<time>2019-05-29T12:48:06Z</time>
</trkpt>
<trkpt lat="49.12574" lon="10.259987">
<ele>439</ele>
<time>2019-05-29T12:48:11Z</time>
</trkpt>
<trkpt lat="49.125523" lon="10.260377">
<ele>437</ele>
<time>2019-05-29T12:48:16Z</time>
</trkpt>
<trkpt lat="49.125322" lon="10.260798">
<ele>437</ele>
<time>2019-05-29T12:48:21Z</time>
</trkpt>
<trkpt lat="49.125148" lon="10.261227">
<ele>437</ele>
<time>2019-05-29T12:48:26Z</time>
</trkpt>
<trkpt lat="49.124975" lon="10.261647">
<ele>437</ele>
<time>2019-05-29T12:48:31Z</time>
</trkpt>
<trkpt lat="49.124822" lon="10.262057">
<ele>437</ele>
<time>2019-05-29T12:48:36Z</time>
</trkpt>
<trkpt lat="49.124705" lon="10.26249">
<ele>437</ele>
<time>2019-05-29T12:48:41Z</time>
</trkpt>
<trkpt lat="49.124613" lon="10.262955">
<ele>437</ele>
<time>2019-05-29T12:48:46Z</time>
</trkpt>
<trkpt lat="49.124517" lon="10.263417">
<ele>436</ele>
<time>2019-05-29T12:48:51Z</time>
</trkpt>
<trkpt lat="49.124427" lon="10.263885">
<ele>436</ele>
<time>2019-05-29T12:48:56Z</time>
</trkpt>
<trkpt lat="49.124347" lon="10.264337">
<ele>436</ele>
<time>2019-05-29T12:49:01Z</time>
</trkpt>
<trkpt lat="49.124272" lon="10.264808">
<ele>436</ele>
<time>2019-05-29T12:49:06Z</time>
</trkpt>
<trkpt lat="49.124173" lon="10.265282">
<ele>436</ele>
<time>2019-05-29T12:49:11Z</time>
</trkpt>
<trkpt lat="49.124057" lon="10.265742">
<ele>436</ele>
<time>2019-05-29T12:49:16Z</time>
</trkpt>
<trkpt lat="49.123968" lon="10.266198">
<ele>436</ele>
<time>2019-05-29T12:49:21Z</time>
</trkpt>
<trkpt lat="49.123895" lon="10.266618">
<ele>436</ele>
<time>2019-05-29T12:49:26Z</time>
</trkpt>
<trkpt lat="49.123817" lon="10.267025">
<ele>436</ele>
<time>2019-05-29T12:49:31Z</time>
</trkpt>
<trkpt lat="49.123748" lon="10.267427">
<ele>436</ele>
<time>2019-05-29T12:49:36Z</time>
</trkpt>
<trkpt lat="49.123658" lon="10.267815">
<ele>435</ele>
<time>2019-05-29T12:49:41Z</time>
</trkpt>
<trkpt lat="49.123545" lon="10.268205">
<ele>435</ele>
<time>2019-05-29T12:49:46Z</time>
</trkpt>
<trkpt lat="49.123395" lon="10.26857">
<ele>435</ele>
<time>2019-05-29T12:49:51Z</time>
</trkpt>
<trkpt lat="49.123212" lon="10.268962">
<ele>435</ele>
<time>2019-05-29T12:49:56Z</time>
</trkpt>
<trkpt lat="49.122985" lon="10.269353">
<ele>435</ele>
<time>2019-05-29T12:50:01Z</time>
</trkpt>
<trkpt lat="49.12273" lon="10.269727">
<ele>434</ele>
<time>2019-05-29T12:50:06Z</time>
</trkpt>
<trkpt lat="49.122475" lon="10.270102">
<ele>434</ele>
<time>2019-05-29T12:50:11Z</time>
</trkpt>
<trkpt lat="49.122222" lon="10.270472">
<ele>433</ele>
<time>2019-05-29T12:50:16Z</time>
</trkpt>
<trkpt lat="49.121975" lon="10.270802">
<ele>433</ele>
<time>2019-05-29T12:50:21Z</time>
</trkpt>
<trkpt lat="49.121738" lon="10.271065">
<ele>434</ele>
<time>2019-05-29T12:50:26Z</time>
</trkpt>
<trkpt lat="49.121525" lon="10.271238">
<ele>435</ele>
<time>2019-05-29T12:50:31Z</time>
</trkpt>
<trkpt lat="49.121342" lon="10.271373">
<ele>437</ele>
<time>2019-05-29T12:50:36Z</time>
</trkpt>
<trkpt lat="49.121173" lon="10.27148">
<ele>438</ele>
<time>2019-05-29T12:50:41Z</time>
</trkpt>
<trkpt lat="49.121007" lon="10.271607">
<ele>438</ele>
<time>2019-05-29T12:50:46Z</time>
</trkpt>
<trkpt lat="49.120827" lon="10.271782">
<ele>439</ele>
<time>2019-05-29T12:50:51Z</time>
</trkpt>
<trkpt lat="49.120657" lon="10.27197">
<ele>439</ele>
<time>2019-05-29T12:50:56Z</time>
</trkpt>
<trkpt lat="49.120475" lon="10.272222">
<ele>439</ele>
<time>2019-05-29T12:51:01Z</time>
</trkpt>
<trkpt lat="49.120305" lon="10.272513">
<ele>439</ele>
<time>2019-05-29T12:51:06Z</time>
</trkpt>
<trkpt lat="49.120185" lon="10.272882">
<ele>439</ele>
<time>2019-05-29T12:51:11Z</time>
</trkpt>
<trkpt lat="49.120088" lon="10.273262">
<ele>439</ele>
<time>2019-05-29T12:51:16Z</time>
</trkpt>
<trkpt lat="49.119943" lon="10.273663">
<ele>439</ele>
<time>2019-05-29T12:51:21Z</time>
</trkpt>
<trkpt lat="49.119793" lon="10.274048">
<ele>439</ele>
<time>2019-05-29T12:51:26Z</time>
</trkpt>
<trkpt lat="49.11966" lon="10.274405">
<ele>439</ele>
<time>2019-05-29T12:51:31Z</time>
</trkpt>
<trkpt lat="49.119515" lon="10.274758">
<ele>439</ele>
<time>2019-05-29T12:51:36Z</time>
</trkpt>
<trkpt lat="49.11934" lon="10.275147">
<ele>439</ele>
<time>2019-05-29T12:51:41Z</time>
</trkpt>
<trkpt lat="49.119143" lon="10.275552">
<ele>439</ele>
<time>2019-05-29T12:51:46Z</time>
</trkpt>
<trkpt lat="49.118943" lon="10.275957">
<ele>438</ele>
<time>2019-05-29T12:51:51Z</time>
</trkpt>
<trkpt lat="49.118717" lon="10.27636">
<ele>437</ele>
<time>2019-05-29T12:51:56Z</time>
</trkpt>
<trkpt lat="49.11848" lon="10.27676">
<ele>435</ele>
<time>2019-05-29T12:52:01Z</time>
</trkpt>
<trkpt lat="49.118218" lon="10.27717">
<ele>434</ele>
<time>2019-05-29T12:52:06Z</time>
</trkpt>
<trkpt lat="49.117942" lon="10.27757">
<ele>434</ele>
<time>2019-05-29T12:52:11Z</time>
</trkpt>
<trkpt lat="49.117695" lon="10.27789">
<ele>432</ele>
<time>2019-05-29T12:52:16Z</time>
</trkpt>
<trkpt lat="49.117455" lon="10.278147">
<ele>432</ele>
<time>2019-05-29T12:52:21Z</time>
</trkpt>
<trkpt lat="49.117203" lon="10.278318">
<ele>432</ele>
<time>2019-05-29T12:52:26Z</time>
</trkpt>
<trkpt lat="49.11694" lon="10.278387">
<ele>431</ele>
<time>2019-05-29T12:52:31Z</time>
</trkpt>
<trkpt lat="49.116783" lon="10.278702">
<ele>431</ele>
<time>2019-05-29T12:52:36Z</time>
</trkpt>
<trkpt lat="49.116763" lon="10.279157">
<ele>431</ele>
<time>2019-05-29T12:52:41Z</time>
</trkpt>
<trkpt lat="49.116735" lon="10.279612">
<ele>431</ele>
<time>2019-05-29T12:52:46Z</time>
</trkpt>
<trkpt lat="49.116715" lon="10.280085">
<ele>431</ele>
<time>2019-05-29T12:52:51Z</time>
</trkpt>
<trkpt lat="49.1167" lon="10.280545">
<ele>431</ele>
<time>2019-05-29T12:52:56Z</time>
</trkpt>
<trkpt lat="49.116673" lon="10.281002">
<ele>431</ele>
<time>2019-05-29T12:53:01Z</time>
</trkpt>
<trkpt lat="49.116642" lon="10.281473">
<ele>431</ele>
<time>2019-05-29T12:53:06Z</time>
</trkpt>
<trkpt lat="49.116612" lon="10.281932">
<ele>431</ele>
<time>2019-05-29T12:53:11Z</time>
</trkpt>
<trkpt lat="49.116582" lon="10.282385">
<ele>431</ele>
<time>2019-05-29T12:53:16Z</time>
</trkpt>
<trkpt lat="49.116547" lon="10.282848">
<ele>431</ele>
<time>2019-05-29T12:53:21Z</time>
</trkpt>
<trkpt lat="49.116512" lon="10.283287">
<ele>431</ele>
<time>2019-05-29T12:53:26Z</time>
</trkpt>
<trkpt lat="49.116475" lon="10.283718">
<ele>431</ele>
<time>2019-05-29T12:53:31Z</time>
</trkpt>
<trkpt lat="49.11645" lon="10.284143">
<ele>431</ele>
<time>2019-05-29T12:53:36Z</time>
</trkpt>
<trkpt lat="49.11644" lon="10.28456">
<ele>431</ele>
<time>2019-05-29T12:53:41Z</time>
</trkpt>
<trkpt lat="49.11645" lon="10.284982">
<ele>431</ele>
<time>2019-05-29T12:53:46Z</time>
</trkpt>
<trkpt lat="49.116495" lon="10.285387">
<ele>431</ele>
<time>2019-05-29T12:53:51Z</time>
</trkpt>
<trkpt lat="49.116552" lon="10.285768">
<ele>431</ele>
<time>2019-05-29T12:53:56Z</time>
</trkpt>
<trkpt lat="49.116627" lon="10.286125">
<ele>431</ele>
<time>2019-05-29T12:54:01Z</time>
</trkpt>
<trkpt lat="49.116723" lon="10.28646">
<ele>432</ele>
<time>2019-05-29T12:54:06Z</time>
</trkpt>
<trkpt lat="49.116832" lon="10.286755">
<ele>432</ele>
<time>2019-05-29T12:54:11Z</time>
</trkpt>
<trkpt lat="49.116955" lon="10.287025">
<ele>433</ele>
<time>2019-05-29T12:54:16Z</time>
</trkpt>
<trkpt lat="49.117068" lon="10.28727">
<ele>433</ele>
<time>2019-05-29T12:54:21Z</time>
</trkpt>
<trkpt lat="49.117182" lon="10.287508">
<ele>434</ele>
<time>2019-05-29T12:54:26Z</time>
</trkpt>
<trkpt lat="49.117283" lon="10.287713">
<ele>434</ele>
<time>2019-05-29T12:54:31Z</time>
</trkpt>
<trkpt lat="49.11735" lon="10.287852">
<ele>434</ele>
<time>2019-05-29T12:54:36Z</time>
</trkpt>
<trkpt lat="49.117347" lon="10.287853">
<ele>434</ele>
<time>2019-05-29T12:54:41Z</time>
</trkpt>
<trkpt lat="49.11732" lon="10.287858">
<ele>434</ele>
<time>2019-05-29T12:54:46Z</time>
</trkpt>
<trkpt lat="49.117315" lon="10.287818">
<ele>434</ele>
<time>2019-05-29T12:54:51Z</time>
</trkpt>
<trkpt lat="49.117327" lon="10.287798">
<ele>434</ele>
<time>2019-05-29T12:54:56Z</time>
</trkpt>
<trkpt lat="49.117328" lon="10.287792">
<ele>434</ele>
<time>2019-05-29T12:55:01Z</time>
</trkpt>
<trkpt lat="49.117345" lon="10.287747">
<ele>434</ele>
<time>2019-05-29T12:55:06Z</time>
</trkpt>
<trkpt lat="49.117388" lon="10.287625">
<ele>434</ele>
<time>2019-05-29T12:55:11Z</time>
</trkpt>
<trkpt lat="49.117507" lon="10.287488">
<ele>434</ele>
<time>2019-05-29T12:55:16Z</time>
</trkpt>
<trkpt lat="49.117678" lon="10.287358">
<ele>434</ele>
<time>2019-05-29T12:55:21Z</time>
</trkpt>
<trkpt lat="49.117847" lon="10.28725">
<ele>434</ele>
<time>2019-05-29T12:55:26Z</time>
</trkpt>
<trkpt lat="49.11802" lon="10.287172">
<ele>434</ele>
<time>2019-05-29T12:55:31Z</time>
</trkpt>
<trkpt lat="49.118212" lon="10.287117">
<ele>434</ele>
<time>2019-05-29T12:55:36Z</time>
</trkpt>
<trkpt lat="49.118452" lon="10.287067">
<ele>434</ele>
<time>2019-05-29T12:55:41Z</time>
</trkpt>
<trkpt lat="49.118725" lon="10.287007">
<ele>434</ele>
<time>2019-05-29T12:55:46Z</time>
</trkpt>
<trkpt lat="49.119028" lon="10.286985">
<ele>434</ele>
<time>2019-05-29T12:55:51Z</time>
</trkpt>
<trkpt lat="49.119348" lon="10.287032">
<ele>434</ele>
<time>2019-05-29T12:55:56Z</time>
</trkpt>
<trkpt lat="49.119655" lon="10.287095">
<ele>433</ele>
<time>2019-05-29T12:56:01Z</time>
</trkpt>
<trkpt lat="49.119945" lon="10.287162">
<ele>433</ele>
<time>2019-05-29T12:56:06Z</time>
</trkpt>
<trkpt lat="49.120237" lon="10.287237">
<ele>433</ele>
<time>2019-05-29T12:56:11Z</time>
</trkpt>
<trkpt lat="49.120548" lon="10.287322">
<ele>432</ele>
<time>2019-05-29T12:56:16Z</time>
</trkpt>
<trkpt lat="49.120863" lon="10.287408">
<ele>432</ele>
<time>2019-05-29T12:56:21Z</time>
</trkpt>
<trkpt lat="49.121167" lon="10.287452">
<ele>431</ele>
<time>2019-05-29T12:56:26Z</time>
</trkpt>
<trkpt lat="49.121482" lon="10.28742">
<ele>431</ele>
<time>2019-05-29T12:56:31Z</time>
</trkpt>
<trkpt lat="49.121798" lon="10.287347">
<ele>431</ele>
<time>2019-05-29T12:56:36Z</time>
</trkpt>
<trkpt lat="49.122097" lon="10.287262">
<ele>430</ele>
<time>2019-05-29T12:56:41Z</time>
</trkpt>
<trkpt lat="49.122393" lon="10.28718">
<ele>430</ele>
<time>2019-05-29T12:56:46Z</time>
</trkpt>
<trkpt lat="49.122695" lon="10.287105">
<ele>430</ele>
<time>2019-05-29T12:56:51Z</time>
</trkpt>
<trkpt lat="49.122983" lon="10.287033">
<ele>430</ele>
<time>2019-05-29T12:56:56Z</time>
</trkpt>
<trkpt lat="49.12328" lon="10.286955">
<ele>430</ele>
<time>2019-05-29T12:57:01Z</time>
</trkpt>
<trkpt lat="49.123582" lon="10.286872">
<ele>430</ele>
<time>2019-05-29T12:57:06Z</time>
</trkpt>
<trkpt lat="49.123888" lon="10.286778">
<ele>430</ele>
<time>2019-05-29T12:57:11Z</time>
</trkpt>
<trkpt lat="49.124197" lon="10.286685">
<ele>430</ele>
<time>2019-05-29T12:57:16Z</time>
</trkpt>
<trkpt lat="49.124515" lon="10.286548">
<ele>430</ele>
<time>2019-05-29T12:57:21Z</time>
</trkpt>
<trkpt lat="49.124802" lon="10.286335">
<ele>430</ele>
<time>2019-05-29T12:57:26Z</time>
</trkpt>
<trkpt lat="49.125082" lon="10.286103">
<ele>430</ele>
<time>2019-05-29T12:57:31Z</time>
</trkpt>
<trkpt lat="49.125358" lon="10.28588">
<ele>430</ele>
<time>2019-05-29T12:57:36Z</time>
</trkpt>
<trkpt lat="49.125643" lon="10.28569">
<ele>430</ele>
<time>2019-05-29T12:57:41Z</time>
</trkpt>
<trkpt lat="49.12596" lon="10.285585">
<ele>430</ele>
<time>2019-05-29T12:57:46Z</time>
</trkpt>
<trkpt lat="49.126288" lon="10.285507">
<ele>429</ele>
<time>2019-05-29T12:57:51Z</time>
</trkpt>
<trkpt lat="49.126615" lon="10.285413">
<ele>428</ele>
<time>2019-05-29T12:57:56Z</time>
</trkpt>
<trkpt lat="49.126918" lon="10.28527">
<ele>428</ele>
<time>2019-05-29T12:58:01Z</time>
</trkpt>
<trkpt lat="49.127195" lon="10.285067">
<ele>428</ele>
<time>2019-05-29T12:58:06Z</time>
</trkpt>
<trkpt lat="49.127472" lon="10.28477">
<ele>428</ele>
<time>2019-05-29T12:58:11Z</time>
</trkpt>
<trkpt lat="49.12772" lon="10.284412">
<ele>428</ele>
<time>2019-05-29T12:58:16Z</time>
</trkpt>
<trkpt lat="49.127925" lon="10.28404">
<ele>428</ele>
<time>2019-05-29T12:58:21Z</time>
</trkpt>
<trkpt lat="49.128157" lon="10.283692">
<ele>428</ele>
<time>2019-05-29T12:58:26Z</time>
</trkpt>
<trkpt lat="49.128405" lon="10.283405">
<ele>428</ele>
<time>2019-05-29T12:58:31Z</time>
</trkpt>
<trkpt lat="49.128638" lon="10.28314">
<ele>428</ele>
<time>2019-05-29T12:58:36Z</time>
</trkpt>
<trkpt lat="49.128887" lon="10.282862">
<ele>428</ele>
<time>2019-05-29T12:58:41Z</time>
</trkpt>
<trkpt lat="49.12914" lon="10.282575">
<ele>428</ele>
<time>2019-05-29T12:58:46Z</time>
</trkpt>
<trkpt lat="49.129418" lon="10.282312">
<ele>428</ele>
<time>2019-05-29T12:58:51Z</time>
</trkpt>
<trkpt lat="49.12971" lon="10.282065">
<ele>428</ele>
<time>2019-05-29T12:58:56Z</time>
</trkpt>
<trkpt lat="49.129988" lon="10.28182">
<ele>428</ele>
<time>2019-05-29T12:59:01Z</time>
</trkpt>
<trkpt lat="49.130258" lon="10.281575">
<ele>428</ele>
<time>2019-05-29T12:59:06Z</time>
</trkpt>
<trkpt lat="49.130542" lon="10.281338">
<ele>428</ele>
<time>2019-05-29T12:59:11Z</time>
</trkpt>
<trkpt lat="49.130845" lon="10.281153">
<ele>428</ele>
<time>2019-05-29T12:59:16Z</time>
</trkpt>
<trkpt lat="49.131165" lon="10.281072">
<ele>428</ele>
<time>2019-05-29T12:59:21Z</time>
</trkpt>
<trkpt lat="49.13149" lon="10.281073">
<ele>428</ele>
<time>2019-05-29T12:59:26Z</time>
</trkpt>
<trkpt lat="49.131792" lon="10.281153">
<ele>428</ele>
<time>2019-05-29T12:59:31Z</time>
</trkpt>
<trkpt lat="49.132073" lon="10.28129">
<ele>428</ele>
<time>2019-05-29T12:59:36Z</time>
</trkpt>
<trkpt lat="49.132377" lon="10.281373">
<ele>428</ele>
<time>2019-05-29T12:59:41Z</time>
</trkpt>
<trkpt lat="49.132717" lon="10.281387">
<ele>428</ele>
<time>2019-05-29T12:59:46Z</time>
</trkpt>
<trkpt lat="49.133023" lon="10.28138">
<ele>428</ele>
<time>2019-05-29T12:59:51Z</time>
</trkpt>
<trkpt lat="49.133342" lon="10.281378">
<ele>428</ele>
<time>2019-05-29T12:59:56Z</time>
</trkpt>
<trkpt lat="49.133658" lon="10.281433">
<ele>428</ele>
<time>2019-05-29T13:00:01Z</time>
</trkpt>
<trkpt lat="49.133957" lon="10.281542">
<ele>428</ele>
<time>2019-05-29T13:00:06Z</time>
</trkpt>
<trkpt lat="49.134237" lon="10.281703">
<ele>428</ele>
<time>2019-05-29T13:00:11Z</time>
</trkpt>
<trkpt lat="49.13447" lon="10.281817">
<ele>428</ele>
<time>2019-05-29T13:00:16Z</time>
</trkpt>
<trkpt lat="49.13473" lon="10.281918">
<ele>428</ele>
<time>2019-05-29T13:00:21Z</time>
</trkpt>
<trkpt lat="49.135042" lon="10.282088">
<ele>428</ele>
<time>2019-05-29T13:00:26Z</time>
</trkpt>
<trkpt lat="49.135335" lon="10.282288">
<ele>428</ele>
<time>2019-05-29T13:00:31Z</time>
</trkpt>
<trkpt lat="49.13558" lon="10.282503">
<ele>428</ele>
<time>2019-05-29T13:00:36Z</time>
</trkpt>
<trkpt lat="49.135843" lon="10.282683">
<ele>428</ele>
<time>2019-05-29T13:00:41Z</time>
</trkpt>
<trkpt lat="49.136163" lon="10.282773">
<ele>428</ele>
<time>2019-05-29T13:00:46Z</time>
</trkpt>
<trkpt lat="49.136497" lon="10.282777">
<ele>428</ele>
<time>2019-05-29T13:00:51Z</time>
</trkpt>
<trkpt lat="49.136783" lon="10.282763">
<ele>428</ele>
<time>2019-05-29T13:00:56Z</time>
</trkpt>
<trkpt lat="49.137073" lon="10.282733">
<ele>428</ele>
<time>2019-05-29T13:01:01Z</time>
</trkpt>
<trkpt lat="49.137362" lon="10.282682">
<ele>428</ele>
<time>2019-05-29T13:01:06Z</time>
</trkpt>
<trkpt lat="49.13766" lon="10.282622">
<ele>428</ele>
<time>2019-05-29T13:01:11Z</time>
</trkpt>
<trkpt lat="49.137983" lon="10.28251">
<ele>428</ele>
<time>2019-05-29T13:01:16Z</time>
</trkpt>
<trkpt lat="49.138282" lon="10.282395">
<ele>428</ele>
<time>2019-05-29T13:01:21Z</time>
</trkpt>
<trkpt lat="49.138568" lon="10.282245">
<ele>428</ele>
<time>2019-05-29T13:01:26Z</time>
</trkpt>
<trkpt lat="49.138848" lon="10.282092">
<ele>428</ele>
<time>2019-05-29T13:01:31Z</time>
</trkpt>
<trkpt lat="49.139142" lon="10.281955">
<ele>428</ele>
<time>2019-05-29T13:01:36Z</time>
</trkpt>
<trkpt lat="49.139428" lon="10.28183">
<ele>428</ele>
<time>2019-05-29T13:01:41Z</time>
</trkpt>
<trkpt lat="49.139715" lon="10.281693">
<ele>428</ele>
<time>2019-05-29T13:01:46Z</time>
</trkpt>
<trkpt lat="49.140002" lon="10.28154">
<ele>428</ele>
<time>2019-05-29T13:01:51Z</time>
</trkpt>
<trkpt lat="49.140237" lon="10.281288">
<ele>429</ele>
<time>2019-05-29T13:01:56Z</time>
</trkpt>
<trkpt lat="49.140418" lon="10.280925">
<ele>429</ele>
<time>2019-05-29T13:02:01Z</time>
</trkpt>
<trkpt lat="49.140532" lon="10.280493">
<ele>430</ele>
<time>2019-05-29T13:02:06Z</time>
</trkpt>
<trkpt lat="49.140553" lon="10.280028">
<ele>431</ele>
<time>2019-05-29T13:02:11Z</time>
</trkpt>
<trkpt lat="49.140537" lon="10.279552">
<ele>431</ele>
<time>2019-05-29T13:02:16Z</time>
</trkpt>
<trkpt lat="49.140523" lon="10.279068">
<ele>431</ele>
<time>2019-05-29T13:02:21Z</time>
</trkpt>
<trkpt lat="49.140542" lon="10.278578">
<ele>431</ele>
<time>2019-05-29T13:02:26Z</time>
</trkpt>
<trkpt lat="49.140628" lon="10.278125">
<ele>432</ele>
<time>2019-05-29T13:02:31Z</time>
</trkpt>
<trkpt lat="49.140738" lon="10.277702">
<ele>432</ele>
<time>2019-05-29T13:02:36Z</time>
</trkpt>
<trkpt lat="49.140848" lon="10.277295">
<ele>433</ele>
<time>2019-05-29T13:02:41Z</time>
</trkpt>
<trkpt lat="49.140988" lon="10.276932">
<ele>433</ele>
<time>2019-05-29T13:02:46Z</time>
</trkpt>
<trkpt lat="49.141175" lon="10.276607">
<ele>434</ele>
<time>2019-05-29T13:02:51Z</time>
</trkpt>
<trkpt lat="49.141407" lon="10.276332">
<ele>434</ele>
<time>2019-05-29T13:02:56Z</time>
</trkpt>
<trkpt lat="49.141647" lon="10.276072">
<ele>435</ele>
<time>2019-05-29T13:03:01Z</time>
</trkpt>
<trkpt lat="49.141878" lon="10.27582">
<ele>435</ele>
<time>2019-05-29T13:03:06Z</time>
</trkpt>
<trkpt lat="49.142115" lon="10.275558">
<ele>435</ele>
<time>2019-05-29T13:03:11Z</time>
</trkpt>
<trkpt lat="49.142325" lon="10.275282">
<ele>435</ele>
<time>2019-05-29T13:03:16Z</time>
</trkpt>
<trkpt lat="49.142518" lon="10.27498">
<ele>435</ele>
<time>2019-05-29T13:03:21Z</time>
</trkpt>
<trkpt lat="49.14272" lon="10.27468">
<ele>436</ele>
<time>2019-05-29T13:03:26Z</time>
</trkpt>
<trkpt lat="49.142957" lon="10.274397">
<ele>436</ele>
<time>2019-05-29T13:03:31Z</time>
</trkpt>
<trkpt lat="49.143212" lon="10.274152">
<ele>437</ele>
<time>2019-05-29T13:03:36Z</time>
</trkpt>
<trkpt lat="49.143472" lon="10.27393">
<ele>437</ele>
<time>2019-05-29T13:03:41Z</time>
</trkpt>
<trkpt lat="49.143733" lon="10.273733">
<ele>437</ele>
<time>2019-05-29T13:03:46Z</time>
</trkpt>
<trkpt lat="49.14398" lon="10.273538">
<ele>437</ele>
<time>2019-05-29T13:03:51Z</time>
</trkpt>
<trkpt lat="49.14424" lon="10.273338">
<ele>437</ele>
<time>2019-05-29T13:03:56Z</time>
</trkpt>
<trkpt lat="49.144482" lon="10.273123">
<ele>437</ele>
<time>2019-05-29T13:04:01Z</time>
</trkpt>
<trkpt lat="49.144725" lon="10.27287">
<ele>437</ele>
<time>2019-05-29T13:04:06Z</time>
</trkpt>
<trkpt lat="49.144953" lon="10.272662">
<ele>437</ele>
<time>2019-05-29T13:04:11Z</time>
</trkpt>
<trkpt lat="49.145102" lon="10.272525">
<ele>437</ele>
<time>2019-05-29T13:04:16Z</time>
</trkpt>
<trkpt lat="49.145193" lon="10.27254">
<ele>437</ele>
<time>2019-05-29T13:04:21Z</time>
</trkpt>
<trkpt lat="49.145207" lon="10.272732">
<ele>437</ele>
<time>2019-05-29T13:04:26Z</time>
</trkpt>
<trkpt lat="49.145347" lon="10.272917">
<ele>437</ele>
<time>2019-05-29T13:04:31Z</time>
</trkpt>
<trkpt lat="49.145613" lon="10.272913">
<ele>436</ele>
<time>2019-05-29T13:04:36Z</time>
</trkpt>
<trkpt lat="49.14591" lon="10.27292">
<ele>434</ele>
<time>2019-05-29T13:04:41Z</time>
</trkpt>
<trkpt lat="49.146252" lon="10.27291">
<ele>434</ele>
<time>2019-05-29T13:04:46Z</time>
</trkpt>
<trkpt lat="49.146602" lon="10.27291">
<ele>434</ele>
<time>2019-05-29T13:04:51Z</time>
</trkpt>
<trkpt lat="49.146928" lon="10.272933">
<ele>434</ele>
<time>2019-05-29T13:04:56Z</time>
</trkpt>
<trkpt lat="49.147272" lon="10.273145">
<ele>432</ele>
<time>2019-05-29T13:05:01Z</time>
</trkpt>
<trkpt lat="49.147535" lon="10.273545">
<ele>432</ele>
<time>2019-05-29T13:05:06Z</time>
</trkpt>
<trkpt lat="49.147715" lon="10.27404">
<ele>431</ele>
<time>2019-05-29T13:05:11Z</time>
</trkpt>
<trkpt lat="49.147873" lon="10.274513">
<ele>430</ele>
<time>2019-05-29T13:05:16Z</time>
</trkpt>
<trkpt lat="49.148023" lon="10.274957">
<ele>430</ele>
<time>2019-05-29T13:05:21Z</time>
</trkpt>
<trkpt lat="49.148168" lon="10.275385">
<ele>430</ele>
<time>2019-05-29T13:05:26Z</time>
</trkpt>
<trkpt lat="49.148313" lon="10.275797">
<ele>429</ele>
<time>2019-05-29T13:05:31Z</time>
</trkpt>
<trkpt lat="49.148463" lon="10.276183">
<ele>429</ele>
<time>2019-05-29T13:05:36Z</time>
</trkpt>
<trkpt lat="49.148632" lon="10.276558">
<ele>429</ele>
<time>2019-05-29T13:05:41Z</time>
</trkpt>
<trkpt lat="49.148808" lon="10.276898">
<ele>429</ele>
<time>2019-05-29T13:05:46Z</time>
</trkpt>
<trkpt lat="49.148992" lon="10.277207">
<ele>429</ele>
<time>2019-05-29T13:05:51Z</time>
</trkpt>
<trkpt lat="49.149188" lon="10.277533">
<ele>429</ele>
<time>2019-05-29T13:05:56Z</time>
</trkpt>
<trkpt lat="49.149383" lon="10.277882">
<ele>429</ele>
<time>2019-05-29T13:06:01Z</time>
</trkpt>
<trkpt lat="49.149592" lon="10.278215">
<ele>429</ele>
<time>2019-05-29T13:06:06Z</time>
</trkpt>
<trkpt lat="49.149835" lon="10.278485">
<ele>428</ele>
<time>2019-05-29T13:06:11Z</time>
</trkpt>
<trkpt lat="49.150117" lon="10.278597">
<ele>428</ele>
<time>2019-05-29T13:06:16Z</time>
</trkpt>
<trkpt lat="49.150385" lon="10.278537">
<ele>428</ele>
<time>2019-05-29T13:06:21Z</time>
</trkpt>
<trkpt lat="49.15065" lon="10.27844">
<ele>428</ele>
<time>2019-05-29T13:06:26Z</time>
</trkpt>
<trkpt lat="49.150938" lon="10.278337">
<ele>429</ele>
<time>2019-05-29T13:06:32Z</time>
</trkpt>
<trkpt lat="49.151157" lon="10.278235">
<ele>430</ele>
<time>2019-05-29T13:06:37Z</time>
</trkpt>
<trkpt lat="49.151392" lon="10.278108">
<ele>430</ele>
<time>2019-05-29T13:06:42Z</time>
</trkpt>
<trkpt lat="49.151627" lon="10.277962">
<ele>431</ele>
<time>2019-05-29T13:06:47Z</time>
</trkpt>
<trkpt lat="49.151838" lon="10.277813">
<ele>431</ele>
<time>2019-05-29T13:06:52Z</time>
</trkpt>
<trkpt lat="49.152097" lon="10.27764">
<ele>431</ele>
<time>2019-05-29T13:06:57Z</time>
</trkpt>
<trkpt lat="49.152377" lon="10.27748">
<ele>431</ele>
<time>2019-05-29T13:07:02Z</time>
</trkpt>
<trkpt lat="49.15265" lon="10.277323">
<ele>431</ele>
<time>2019-05-29T13:07:07Z</time>
</trkpt>
<trkpt lat="49.152927" lon="10.27717">
<ele>431</ele>
<time>2019-05-29T13:07:12Z</time>
</trkpt>
<trkpt lat="49.153225" lon="10.276997">
<ele>431</ele>
<time>2019-05-29T13:07:17Z</time>
</trkpt>
<trkpt lat="49.153518" lon="10.276838">
<ele>431</ele>
<time>2019-05-29T13:07:22Z</time>
</trkpt>
<trkpt lat="49.153815" lon="10.276672">
<ele>430</ele>
<time>2019-05-29T13:07:27Z</time>
</trkpt>
<trkpt lat="49.154125" lon="10.276517">
<ele>430</ele>
<time>2019-05-29T13:07:32Z</time>
</trkpt>
<trkpt lat="49.154397" lon="10.276462">
<ele>430</ele>
<time>2019-05-29T13:07:37Z</time>
</trkpt>
<trkpt lat="49.15469" lon="10.276415">
<ele>430</ele>
<time>2019-05-29T13:07:42Z</time>
</trkpt>
<trkpt lat="49.15496" lon="10.276337">
<ele>430</ele>
<time>2019-05-29T13:07:47Z</time>
</trkpt>
<trkpt lat="49.155235" lon="10.276228">
<ele>430</ele>
<time>2019-05-29T13:07:52Z</time>
</trkpt>
<trkpt lat="49.155535" lon="10.27605">
<ele>431</ele>
<time>2019-05-29T13:07:57Z</time>
</trkpt>
<trkpt lat="49.155853" lon="10.275725">
<ele>431</ele>
<time>2019-05-29T13:08:03Z</time>
</trkpt>
<trkpt lat="49.156097" lon="10.27545">
<ele>431</ele>
<time>2019-05-29T13:08:08Z</time>
</trkpt>
<trkpt lat="49.156283" lon="10.275237">
<ele>431</ele>
<time>2019-05-29T13:08:13Z</time>
</trkpt>
<trkpt lat="49.15646" lon="10.275037">
<ele>431</ele>
<time>2019-05-29T13:08:19Z</time>
</trkpt>
<trkpt lat="49.156668" lon="10.274813">
<ele>431</ele>
<time>2019-05-29T13:08:25Z</time>
</trkpt>
<trkpt lat="49.156853" lon="10.274607">
<ele>431</ele>
<time>2019-05-29T13:08:30Z</time>
</trkpt>
<trkpt lat="49.157042" lon="10.274407">
<ele>431</ele>
<time>2019-05-29T13:08:35Z</time>
</trkpt>
<trkpt lat="49.157232" lon="10.274228">
<ele>431</ele>
<time>2019-05-29T13:08:40Z</time>
</trkpt>
<trkpt lat="49.157422" lon="10.27407">
<ele>431</ele>
<time>2019-05-29T13:08:45Z</time>
</trkpt>
<trkpt lat="49.157635" lon="10.273907">
<ele>431</ele>
<time>2019-05-29T13:08:51Z</time>
</trkpt>
<trkpt lat="49.157808" lon="10.273785">
<ele>431</ele>
<time>2019-05-29T13:08:56Z</time>
</trkpt>
<trkpt lat="49.157967" lon="10.27365">
<ele>431</ele>
<time>2019-05-29T13:09:01Z</time>
</trkpt>
<trkpt lat="49.15805" lon="10.273497">
<ele>431</ele>
<time>2019-05-29T13:09:06Z</time>
</trkpt>
<trkpt lat="49.158053" lon="10.273457">
<ele>431</ele>
<time>2019-05-29T13:09:11Z</time>
</trkpt>
<trkpt lat="49.158072" lon="10.273388">
<ele>431</ele>
<time>2019-05-29T13:09:16Z</time>
</trkpt>
<trkpt lat="49.158075" lon="10.273385">
<ele>431</ele>
<time>2019-05-29T13:09:22Z</time>
</trkpt>
<trkpt lat="49.158075" lon="10.273387">
<ele>430</ele>
<time>2019-05-29T13:10:08Z</time>
</trkpt>
<trkpt lat="49.158073" lon="10.273387">
<ele>430</ele>
<time>2019-05-29T13:14:56Z</time>
</trkpt>
<trkpt lat="49.158073" lon="10.273388">
<ele>430</ele>
<time>2019-05-29T13:16:01Z</time>
</trkpt>
<trkpt lat="49.158073" lon="10.273387">
<ele>430</ele>
<time>2019-05-29T13:16:27Z</time>
</trkpt>
<trkpt lat="49.158072" lon="10.273387">
<ele>430</ele>
<time>2019-05-29T13:16:47Z</time>
</trkpt>
<trkpt lat="49.158072" lon="10.273388">
<ele>430</ele>
<time>2019-05-29T13:17:09Z</time>
</trkpt>
<trkpt lat="49.158077" lon="10.273405">
<ele>430</ele>
<time>2019-05-29T13:17:15Z</time>
</trkpt>
<trkpt lat="49.15811" lon="10.273493">
<ele>430</ele>
<time>2019-05-29T13:17:20Z</time>
</trkpt>
<trkpt lat="49.158215" lon="10.273533">
<ele>430</ele>
<time>2019-05-29T13:17:25Z</time>
</trkpt>
<trkpt lat="49.158388" lon="10.27341">
<ele>430</ele>
<time>2019-05-29T13:17:31Z</time>
</trkpt>
<trkpt lat="49.158545" lon="10.27331">
<ele>430</ele>
<time>2019-05-29T13:17:36Z</time>
</trkpt>
<trkpt lat="49.158735" lon="10.273195">
<ele>430</ele>
<time>2019-05-29T13:17:41Z</time>
</trkpt>
<trkpt lat="49.158892" lon="10.27308">
<ele>431</ele>
<time>2019-05-29T13:17:46Z</time>
</trkpt>
<trkpt lat="49.15913" lon="10.272945">
<ele>431</ele>
<time>2019-05-29T13:17:52Z</time>
</trkpt>
<trkpt lat="49.159295" lon="10.272677">
<ele>431</ele>
<time>2019-05-29T13:17:57Z</time>
</trkpt>
<trkpt lat="49.159513" lon="10.272467">
<ele>431</ele>
<time>2019-05-29T13:18:02Z</time>
</trkpt>
<trkpt lat="49.159825" lon="10.272428">
<ele>430</ele>
<time>2019-05-29T13:18:07Z</time>
</trkpt>
<trkpt lat="49.160163" lon="10.272433">
<ele>430</ele>
<time>2019-05-29T13:18:13Z</time>
</trkpt>
<trkpt lat="49.160403" lon="10.272432">
<ele>430</ele>
<time>2019-05-29T13:18:18Z</time>
</trkpt>
<trkpt lat="49.160608" lon="10.272295">
<ele>430</ele>
<time>2019-05-29T13:18:23Z</time>
</trkpt>
<trkpt lat="49.160698" lon="10.27195">
<ele>430</ele>
<time>2019-05-29T13:18:28Z</time>
</trkpt>
<trkpt lat="49.160835" lon="10.271528">
<ele>429</ele>
<time>2019-05-29T13:18:33Z</time>
</trkpt>
<trkpt lat="49.160883" lon="10.271088">
<ele>429</ele>
<time>2019-05-29T13:18:38Z</time>
</trkpt>
<trkpt lat="49.161155" lon="10.270877">
<ele>429</ele>
<time>2019-05-29T13:18:44Z</time>
</trkpt>
<trkpt lat="49.161503" lon="10.270788">
<ele>429</ele>
<time>2019-05-29T13:18:50Z</time>
</trkpt>
<trkpt lat="49.161775" lon="10.270637">
<ele>429</ele>
<time>2019-05-29T13:18:55Z</time>
</trkpt>
<trkpt lat="49.162063" lon="10.270462">
<ele>429</ele>
<time>2019-05-29T13:19:00Z</time>
</trkpt>
<trkpt lat="49.16234" lon="10.270297">
<ele>429</ele>
<time>2019-05-29T13:19:05Z</time>
</trkpt>
<trkpt lat="49.162618" lon="10.270175">
<ele>429</ele>
<time>2019-05-29T13:19:10Z</time>
</trkpt>
<trkpt lat="49.162897" lon="10.270078">
<ele>429</ele>
<time>2019-05-29T13:19:15Z</time>
</trkpt>
<trkpt lat="49.16323" lon="10.269997">
<ele>430</ele>
<time>2019-05-29T13:19:21Z</time>
</trkpt>
<trkpt lat="49.163505" lon="10.26993">
<ele>430</ele>
<time>2019-05-29T13:19:26Z</time>
</trkpt>
<trkpt lat="49.163813" lon="10.269875">
<ele>430</ele>
<time>2019-05-29T13:19:32Z</time>
</trkpt>
<trkpt lat="49.164057" lon="10.26982">
<ele>430</ele>
<time>2019-05-29T13:19:37Z</time>
</trkpt>
<trkpt lat="49.164337" lon="10.269732">
<ele>430</ele>
<time>2019-05-29T13:19:43Z</time>
</trkpt>
<trkpt lat="49.164617" lon="10.269622">
<ele>431</ele>
<time>2019-05-29T13:19:49Z</time>
</trkpt>
<trkpt lat="49.16485" lon="10.269483">
<ele>431</ele>
<time>2019-05-29T13:19:54Z</time>
</trkpt>
<trkpt lat="49.165087" lon="10.26933">
<ele>431</ele>
<time>2019-05-29T13:19:59Z</time>
</trkpt>
<trkpt lat="49.16532" lon="10.269158">
<ele>431</ele>
<time>2019-05-29T13:20:04Z</time>
</trkpt>
<trkpt lat="49.16556" lon="10.268982">
<ele>431</ele>
<time>2019-05-29T13:20:09Z</time>
</trkpt>
<trkpt lat="49.1658" lon="10.26881">
<ele>432</ele>
<time>2019-05-29T13:20:14Z</time>
</trkpt>
<trkpt lat="49.166035" lon="10.268653">
<ele>432</ele>
<time>2019-05-29T13:20:19Z</time>
</trkpt>
<trkpt lat="49.16629" lon="10.268512">
<ele>432</ele>
<time>2019-05-29T13:20:24Z</time>
</trkpt>
<trkpt lat="49.166553" lon="10.268383">
<ele>432</ele>
<time>2019-05-29T13:20:29Z</time>
</trkpt>
<trkpt lat="49.166832" lon="10.268288">
<ele>432</ele>
<time>2019-05-29T13:20:34Z</time>
</trkpt>
<trkpt lat="49.16711" lon="10.268198">
<ele>432</ele>
<time>2019-05-29T13:20:39Z</time>
</trkpt>
<trkpt lat="49.167393" lon="10.268112">
<ele>432</ele>
<time>2019-05-29T13:20:44Z</time>
</trkpt>
<trkpt lat="49.167662" lon="10.268037">
<ele>432</ele>
<time>2019-05-29T13:20:49Z</time>
</trkpt>
<trkpt lat="49.167993" lon="10.26792">
<ele>432</ele>
<time>2019-05-29T13:20:55Z</time>
</trkpt>
<trkpt lat="49.168282" lon="10.267785">
<ele>432</ele>
<time>2019-05-29T13:21:00Z</time>
</trkpt>
<trkpt lat="49.168563" lon="10.267612">
<ele>432</ele>
<time>2019-05-29T13:21:05Z</time>
</trkpt>
<trkpt lat="49.168892" lon="10.267373">
<ele>432</ele>
<time>2019-05-29T13:21:11Z</time>
</trkpt>
<trkpt lat="49.169177" lon="10.267185">
<ele>432</ele>
<time>2019-05-29T13:21:16Z</time>
</trkpt>
<trkpt lat="49.169482" lon="10.267058">
<ele>431</ele>
<time>2019-05-29T13:21:21Z</time>
</trkpt>
<trkpt lat="49.169788" lon="10.266983">
<ele>431</ele>
<time>2019-05-29T13:21:26Z</time>
</trkpt>
<trkpt lat="49.170083" lon="10.266907">
<ele>431</ele>
<time>2019-05-29T13:21:31Z</time>
</trkpt>
<trkpt lat="49.170358" lon="10.266805">
<ele>431</ele>
<time>2019-05-29T13:21:36Z</time>
</trkpt>
<trkpt lat="49.170613" lon="10.266648">
<ele>431</ele>
<time>2019-05-29T13:21:41Z</time>
</trkpt>
<trkpt lat="49.17086" lon="10.26647">
<ele>431</ele>
<time>2019-05-29T13:21:46Z</time>
</trkpt>
<trkpt lat="49.17111" lon="10.26628">
<ele>431</ele>
<time>2019-05-29T13:21:51Z</time>
</trkpt>
<trkpt lat="49.17135" lon="10.266087">
<ele>431</ele>
<time>2019-05-29T13:21:56Z</time>
</trkpt>
<trkpt lat="49.171592" lon="10.265912">
<ele>431</ele>
<time>2019-05-29T13:22:01Z</time>
</trkpt>
<trkpt lat="49.17182" lon="10.265733">
<ele>431</ele>
<time>2019-05-29T13:22:06Z</time>
</trkpt>
<trkpt lat="49.172027" lon="10.26552">
<ele>431</ele>
<time>2019-05-29T13:22:11Z</time>
</trkpt>
<trkpt lat="49.172227" lon="10.265197">
<ele>431</ele>
<time>2019-05-29T13:22:17Z</time>
</trkpt>
<trkpt lat="49.172347" lon="10.264857">
<ele>431</ele>
<time>2019-05-29T13:22:22Z</time>
</trkpt>
<trkpt lat="49.172457" lon="10.264467">
<ele>431</ele>
<time>2019-05-29T13:22:27Z</time>
</trkpt>
<trkpt lat="49.172565" lon="10.26408">
<ele>431</ele>
<time>2019-05-29T13:22:32Z</time>
</trkpt>
<trkpt lat="49.172705" lon="10.263707">
<ele>431</ele>
<time>2019-05-29T13:22:37Z</time>
</trkpt>
<trkpt lat="49.172907" lon="10.263383">
<ele>431</ele>
<time>2019-05-29T13:22:42Z</time>
</trkpt>
<trkpt lat="49.17317" lon="10.263148">
<ele>431</ele>
<time>2019-05-29T13:22:47Z</time>
</trkpt>
<trkpt lat="49.173477" lon="10.262993">
<ele>431</ele>
<time>2019-05-29T13:22:52Z</time>
</trkpt>
<trkpt lat="49.17374" lon="10.2628">
<ele>431</ele>
<time>2019-05-29T13:22:57Z</time>
</trkpt>
<trkpt lat="49.173982" lon="10.262592">
<ele>430</ele>
<time>2019-05-29T13:23:02Z</time>
</trkpt>
<trkpt lat="49.174242" lon="10.262427">
<ele>430</ele>
<time>2019-05-29T13:23:07Z</time>
</trkpt>
<trkpt lat="49.17448" lon="10.262288">
<ele>430</ele>
<time>2019-05-29T13:23:12Z</time>
</trkpt>
<trkpt lat="49.174695" lon="10.26216">
<ele>430</ele>
<time>2019-05-29T13:23:17Z</time>
</trkpt>
<trkpt lat="49.174907" lon="10.262052">
<ele>430</ele>
<time>2019-05-29T13:23:23Z</time>
</trkpt>
<trkpt lat="49.175093" lon="10.26194">
<ele>430</ele>
<time>2019-05-29T13:23:29Z</time>
</trkpt>
<trkpt lat="49.175222" lon="10.261878">
<ele>430</ele>
<time>2019-05-29T13:23:34Z</time>
</trkpt>
<trkpt lat="49.175365" lon="10.261815">
<ele>430</ele>
<time>2019-05-29T13:23:39Z</time>
</trkpt>
<trkpt lat="49.175528" lon="10.261787">
<ele>430</ele>
<time>2019-05-29T13:23:44Z</time>
</trkpt>
<trkpt lat="49.17571" lon="10.261773">
<ele>430</ele>
<time>2019-05-29T13:23:49Z</time>
</trkpt>
<trkpt lat="49.175897" lon="10.261832">
<ele>430</ele>
<time>2019-05-29T13:23:54Z</time>
</trkpt>
<trkpt lat="49.176045" lon="10.261958">
<ele>430</ele>
<time>2019-05-29T13:23:59Z</time>
</trkpt>
<trkpt lat="49.176208" lon="10.26215">
<ele>430</ele>
<time>2019-05-29T13:24:04Z</time>
</trkpt>
<trkpt lat="49.176355" lon="10.262247">
<ele>430</ele>
<time>2019-05-29T13:24:09Z</time>
</trkpt>
<trkpt lat="49.176523" lon="10.262197">
<ele>430</ele>
<time>2019-05-29T13:24:14Z</time>
</trkpt>
<trkpt lat="49.176668" lon="10.26216">
<ele>430</ele>
<time>2019-05-29T13:24:19Z</time>
</trkpt>
<trkpt lat="49.176815" lon="10.262147">
<ele>431</ele>
<time>2019-05-29T13:24:24Z</time>
</trkpt>
<trkpt lat="49.176938" lon="10.262147">
<ele>432</ele>
<time>2019-05-29T13:24:29Z</time>
</trkpt>
<trkpt lat="49.177072" lon="10.26212">
<ele>432</ele>
<time>2019-05-29T13:24:35Z</time>
</trkpt>
<trkpt lat="49.177188" lon="10.262073">
<ele>432</ele>
<time>2019-05-29T13:24:40Z</time>
</trkpt>
<trkpt lat="49.177368" lon="10.262012">
<ele>432</ele>
<time>2019-05-29T13:24:45Z</time>
</trkpt>
<trkpt lat="49.17757" lon="10.261927">
<ele>432</ele>
<time>2019-05-29T13:24:50Z</time>
</trkpt>
<trkpt lat="49.177775" lon="10.261845">
<ele>432</ele>
<time>2019-05-29T13:24:55Z</time>
</trkpt>
<trkpt lat="49.178033" lon="10.261743">
<ele>432</ele>
<time>2019-05-29T13:25:00Z</time>
</trkpt>
<trkpt lat="49.178308" lon="10.261643">
<ele>432</ele>
<time>2019-05-29T13:25:05Z</time>
</trkpt>
<trkpt lat="49.178632" lon="10.261538">
<ele>433</ele>
<time>2019-05-29T13:25:11Z</time>
</trkpt>
<trkpt lat="49.178883" lon="10.261432">
<ele>433</ele>
<time>2019-05-29T13:25:16Z</time>
</trkpt>
<trkpt lat="49.179097" lon="10.261275">
<ele>433</ele>
<time>2019-05-29T13:25:21Z</time>
</trkpt>
<trkpt lat="49.179337" lon="10.261028">
<ele>432</ele>
<time>2019-05-29T13:25:26Z</time>
</trkpt>
<trkpt lat="49.179573" lon="10.260708">
<ele>430</ele>
<time>2019-05-29T13:25:31Z</time>
</trkpt>
<trkpt lat="49.179747" lon="10.26035">
<ele>430</ele>
<time>2019-05-29T13:25:36Z</time>
</trkpt>
<trkpt lat="49.179847" lon="10.259943">
<ele>430</ele>
<time>2019-05-29T13:25:41Z</time>
</trkpt>
<trkpt lat="49.17995" lon="10.25945">
<ele>430</ele>
<time>2019-05-29T13:25:47Z</time>
</trkpt>
<trkpt lat="49.180075" lon="10.25904">
<ele>430</ele>
<time>2019-05-29T13:25:52Z</time>
</trkpt>
<trkpt lat="49.180192" lon="10.25865">
<ele>430</ele>
<time>2019-05-29T13:25:57Z</time>
</trkpt>
<trkpt lat="49.180312" lon="10.258258">
<ele>430</ele>
<time>2019-05-29T13:26:02Z</time>
</trkpt>
<trkpt lat="49.180417" lon="10.257913">
<ele>430</ele>
<time>2019-05-29T13:26:07Z</time>
</trkpt>
<trkpt lat="49.180532" lon="10.25758">
<ele>430</ele>
<time>2019-05-29T13:26:12Z</time>
</trkpt>
<trkpt lat="49.180692" lon="10.257263">
<ele>430</ele>
<time>2019-05-29T13:26:17Z</time>
</trkpt>
<trkpt lat="49.180852" lon="10.256932">
<ele>430</ele>
<time>2019-05-29T13:26:22Z</time>
</trkpt>
<trkpt lat="49.181015" lon="10.256622">
<ele>430</ele>
<time>2019-05-29T13:26:27Z</time>
</trkpt>
<trkpt lat="49.181217" lon="10.256393">
<ele>430</ele>
<time>2019-05-29T13:26:32Z</time>
</trkpt>
<trkpt lat="49.181485" lon="10.256388">
<ele>430</ele>
<time>2019-05-29T13:26:37Z</time>
</trkpt>
<trkpt lat="49.181758" lon="10.256338">
<ele>430</ele>
<time>2019-05-29T13:26:42Z</time>
</trkpt>
<trkpt lat="49.182012" lon="10.256273">
<ele>430</ele>
<time>2019-05-29T13:26:47Z</time>
</trkpt>
<trkpt lat="49.182305" lon="10.256273">
<ele>430</ele>
<time>2019-05-29T13:26:52Z</time>
</trkpt>
<trkpt lat="49.18257" lon="10.256383">
<ele>430</ele>
<time>2019-05-29T13:26:57Z</time>
</trkpt>
<trkpt lat="49.182798" lon="10.25643">
<ele>430</ele>
<time>2019-05-29T13:27:02Z</time>
</trkpt>
<trkpt lat="49.183043" lon="10.256468">
<ele>430</ele>
<time>2019-05-29T13:27:07Z</time>
</trkpt>
<trkpt lat="49.183298" lon="10.25651">
<ele>430</ele>
<time>2019-05-29T13:27:12Z</time>
</trkpt>
<trkpt lat="49.183553" lon="10.256552">
<ele>430</ele>
<time>2019-05-29T13:27:17Z</time>
</trkpt>
<trkpt lat="49.183813" lon="10.256602">
<ele>430</ele>
<time>2019-05-29T13:27:22Z</time>
</trkpt>
<trkpt lat="49.184068" lon="10.256658">
<ele>430</ele>
<time>2019-05-29T13:27:27Z</time>
</trkpt>
<trkpt lat="49.184327" lon="10.256712">
<ele>430</ele>
<time>2019-05-29T13:27:32Z</time>
</trkpt>
<trkpt lat="49.18459" lon="10.256755">
<ele>430</ele>
<time>2019-05-29T13:27:37Z</time>
</trkpt>
<trkpt lat="49.184862" lon="10.256802">
<ele>430</ele>
<time>2019-05-29T13:27:42Z</time>
</trkpt>
<trkpt lat="49.185133" lon="10.256838">
<ele>430</ele>
<time>2019-05-29T13:27:47Z</time>
</trkpt>
<trkpt lat="49.185398" lon="10.256873">
<ele>430</ele>
<time>2019-05-29T13:27:52Z</time>
</trkpt>
<trkpt lat="49.18566" lon="10.256902">
<ele>430</ele>
<time>2019-05-29T13:27:57Z</time>
</trkpt>
<trkpt lat="49.185922" lon="10.256925">
<ele>430</ele>
<time>2019-05-29T13:28:02Z</time>
</trkpt>
<trkpt lat="49.18617" lon="10.256935">
<ele>430</ele>
<time>2019-05-29T13:28:07Z</time>
</trkpt>
<trkpt lat="49.18641" lon="10.256945">
<ele>431</ele>
<time>2019-05-29T13:28:12Z</time>
</trkpt>
<trkpt lat="49.186638" lon="10.256948">
<ele>431</ele>
<time>2019-05-29T13:28:17Z</time>
</trkpt>
<trkpt lat="49.186862" lon="10.256945">
<ele>431</ele>
<time>2019-05-29T13:28:22Z</time>
</trkpt>
<trkpt lat="49.187082" lon="10.256942">
<ele>431</ele>
<time>2019-05-29T13:28:27Z</time>
</trkpt>
<trkpt lat="49.187315" lon="10.25693">
<ele>432</ele>
<time>2019-05-29T13:28:32Z</time>
</trkpt>
<trkpt lat="49.187557" lon="10.256915">
<ele>432</ele>
<time>2019-05-29T13:28:37Z</time>
</trkpt>
<trkpt lat="49.187803" lon="10.256903">
<ele>433</ele>
<time>2019-05-29T13:28:42Z</time>
</trkpt>
<trkpt lat="49.18805" lon="10.256882">
<ele>433</ele>
<time>2019-05-29T13:28:47Z</time>
</trkpt>
<trkpt lat="49.1883" lon="10.256855">
<ele>433</ele>
<time>2019-05-29T13:28:52Z</time>
</trkpt>
<trkpt lat="49.188565" lon="10.256822">
<ele>434</ele>
<time>2019-05-29T13:28:57Z</time>
</trkpt>
<trkpt lat="49.188833" lon="10.256778">
<ele>434</ele>
<time>2019-05-29T13:29:02Z</time>
</trkpt>
<trkpt lat="49.18911" lon="10.256725">
<ele>434</ele>
<time>2019-05-29T13:29:07Z</time>
</trkpt>
<trkpt lat="49.189392" lon="10.256668">
<ele>433</ele>
<time>2019-05-29T13:29:12Z</time>
</trkpt>
<trkpt lat="49.189663" lon="10.256603">
<ele>433</ele>
<time>2019-05-29T13:29:17Z</time>
</trkpt>
<trkpt lat="49.189933" lon="10.25653">
<ele>433</ele>
<time>2019-05-29T13:29:22Z</time>
</trkpt>
<trkpt lat="49.190197" lon="10.256462">
<ele>433</ele>
<time>2019-05-29T13:29:27Z</time>
</trkpt>
<trkpt lat="49.190452" lon="10.256398">
<ele>433</ele>
<time>2019-05-29T13:29:32Z</time>
</trkpt>
<trkpt lat="49.190698" lon="10.256333">
<ele>432</ele>
<time>2019-05-29T13:29:37Z</time>
</trkpt>
<trkpt lat="49.19096" lon="10.256277">
<ele>432</ele>
<time>2019-05-29T13:29:42Z</time>
</trkpt>
<trkpt lat="49.191218" lon="10.256223">
<ele>432</ele>
<time>2019-05-29T13:29:47Z</time>
</trkpt>
<trkpt lat="49.191473" lon="10.256173">
<ele>432</ele>
<time>2019-05-29T13:29:52Z</time>
</trkpt>
<trkpt lat="49.191737" lon="10.256152">
<ele>432</ele>
<time>2019-05-29T13:29:57Z</time>
</trkpt>
<trkpt lat="49.191988" lon="10.256125">
<ele>432</ele>
<time>2019-05-29T13:30:02Z</time>
</trkpt>
<trkpt lat="49.192235" lon="10.256105">
<ele>432</ele>
<time>2019-05-29T13:30:07Z</time>
</trkpt>
<trkpt lat="49.19246" lon="10.25609">
<ele>433</ele>
<time>2019-05-29T13:30:12Z</time>
</trkpt>
<trkpt lat="49.19269" lon="10.256065">
<ele>433</ele>
<time>2019-05-29T13:30:17Z</time>
</trkpt>
<trkpt lat="49.192935" lon="10.256043">
<ele>433</ele>
<time>2019-05-29T13:30:22Z</time>
</trkpt>
<trkpt lat="49.193165" lon="10.256015">
<ele>434</ele>
<time>2019-05-29T13:30:27Z</time>
</trkpt>
<trkpt lat="49.193397" lon="10.25599">
<ele>434</ele>
<time>2019-05-29T13:30:32Z</time>
</trkpt>
<trkpt lat="49.193647" lon="10.255963">
<ele>434</ele>
<time>2019-05-29T13:30:37Z</time>
</trkpt>
<trkpt lat="49.193902" lon="10.25594">
<ele>434</ele>
<time>2019-05-29T13:30:42Z</time>
</trkpt>
<trkpt lat="49.194175" lon="10.255913">
<ele>434</ele>
<time>2019-05-29T13:30:47Z</time>
</trkpt>
<trkpt lat="49.194472" lon="10.255887">
<ele>434</ele>
<time>2019-05-29T13:30:52Z</time>
</trkpt>
<trkpt lat="49.194773" lon="10.25586">
<ele>434</ele>
<time>2019-05-29T13:30:57Z</time>
</trkpt>
<trkpt lat="49.195072" lon="10.255827">
<ele>434</ele>
<time>2019-05-29T13:31:02Z</time>
</trkpt>
<trkpt lat="49.19538" lon="10.255778">
<ele>434</ele>
<time>2019-05-29T13:31:07Z</time>
</trkpt>
<trkpt lat="49.19569" lon="10.255727">
<ele>433</ele>
<time>2019-05-29T13:31:12Z</time>
</trkpt>
<trkpt lat="49.195997" lon="10.255633">
<ele>433</ele>
<time>2019-05-29T13:31:17Z</time>
</trkpt>
<trkpt lat="49.196295" lon="10.255502">
<ele>433</ele>
<time>2019-05-29T13:31:22Z</time>
</trkpt>
<trkpt lat="49.19658" lon="10.255355">
<ele>433</ele>
<time>2019-05-29T13:31:27Z</time>
</trkpt>
<trkpt lat="49.196863" lon="10.255158">
<ele>433</ele>
<time>2019-05-29T13:31:32Z</time>
</trkpt>
<trkpt lat="49.19714" lon="10.254945">
<ele>433</ele>
<time>2019-05-29T13:31:37Z</time>
</trkpt>
<trkpt lat="49.197412" lon="10.254697">
<ele>433</ele>
<time>2019-05-29T13:31:42Z</time>
</trkpt>
<trkpt lat="49.197673" lon="10.25442">
<ele>433</ele>
<time>2019-05-29T13:31:47Z</time>
</trkpt>
<trkpt lat="49.197915" lon="10.254115">
<ele>433</ele>
<time>2019-05-29T13:31:52Z</time>
</trkpt>
<trkpt lat="49.198155" lon="10.253812">
<ele>432</ele>
<time>2019-05-29T13:31:57Z</time>
</trkpt>
<trkpt lat="49.198388" lon="10.253533">
<ele>432</ele>
<time>2019-05-29T13:32:02Z</time>
</trkpt>
<trkpt lat="49.19865" lon="10.253282">
<ele>432</ele>
<time>2019-05-29T13:32:07Z</time>
</trkpt>
<trkpt lat="49.198912" lon="10.25306">
<ele>432</ele>
<time>2019-05-29T13:32:12Z</time>
</trkpt>
<trkpt lat="49.19916" lon="10.252848">
<ele>432</ele>
<time>2019-05-29T13:32:17Z</time>
</trkpt>
<trkpt lat="49.199408" lon="10.252657">
<ele>432</ele>
<time>2019-05-29T13:32:22Z</time>
</trkpt>
<trkpt lat="49.199637" lon="10.252448">
<ele>432</ele>
<time>2019-05-29T13:32:27Z</time>
</trkpt>
<trkpt lat="49.199892" lon="10.252233">
<ele>432</ele>
<time>2019-05-29T13:32:32Z</time>
</trkpt>
<trkpt lat="49.20017" lon="10.252138">
<ele>432</ele>
<time>2019-05-29T13:32:37Z</time>
</trkpt>
<trkpt lat="49.200448" lon="10.251985">
<ele>432</ele>
<time>2019-05-29T13:32:42Z</time>
</trkpt>
<trkpt lat="49.200727" lon="10.25181">
<ele>432</ele>
<time>2019-05-29T13:32:47Z</time>
</trkpt>
<trkpt lat="49.200967" lon="10.25163">
<ele>432</ele>
<time>2019-05-29T13:32:52Z</time>
</trkpt>
<trkpt lat="49.201193" lon="10.25147">
<ele>432</ele>
<time>2019-05-29T13:32:57Z</time>
</trkpt>
<trkpt lat="49.20145" lon="10.251302">
<ele>432</ele>
<time>2019-05-29T13:33:02Z</time>
</trkpt>
<trkpt lat="49.201688" lon="10.251097">
<ele>432</ele>
<time>2019-05-29T13:33:07Z</time>
</trkpt>
<trkpt lat="49.201895" lon="10.25085">
<ele>433</ele>
<time>2019-05-29T13:33:12Z</time>
</trkpt>
<trkpt lat="49.202087" lon="10.250563">
<ele>433</ele>
<time>2019-05-29T13:33:17Z</time>
</trkpt>
<trkpt lat="49.202245" lon="10.250285">
<ele>434</ele>
<time>2019-05-29T13:33:22Z</time>
</trkpt>
<trkpt lat="49.202417" lon="10.250037">
<ele>434</ele>
<time>2019-05-29T13:33:27Z</time>
</trkpt>
<trkpt lat="49.202617" lon="10.249833">
<ele>435</ele>
<time>2019-05-29T13:33:32Z</time>
</trkpt>
<trkpt lat="49.202832" lon="10.249673">
<ele>435</ele>
<time>2019-05-29T13:33:37Z</time>
</trkpt>
<trkpt lat="49.203062" lon="10.24954">
<ele>436</ele>
<time>2019-05-29T13:33:42Z</time>
</trkpt>
<trkpt lat="49.203288" lon="10.24942">
<ele>436</ele>
<time>2019-05-29T13:33:47Z</time>
</trkpt>
<trkpt lat="49.203505" lon="10.2493">
<ele>436</ele>
<time>2019-05-29T13:33:52Z</time>
</trkpt>
<trkpt lat="49.203727" lon="10.24918">
<ele>437</ele>
<time>2019-05-29T13:33:57Z</time>
</trkpt>
<trkpt lat="49.203947" lon="10.249065">
<ele>437</ele>
<time>2019-05-29T13:34:02Z</time>
</trkpt>
<trkpt lat="49.204165" lon="10.248942">
<ele>437</ele>
<time>2019-05-29T13:34:07Z</time>
</trkpt>
<trkpt lat="49.204387" lon="10.248815">
<ele>437</ele>
<time>2019-05-29T13:34:12Z</time>
</trkpt>
<trkpt lat="49.20462" lon="10.248677">
<ele>437</ele>
<time>2019-05-29T13:34:17Z</time>
</trkpt>
<trkpt lat="49.204847" lon="10.248537">
<ele>437</ele>
<time>2019-05-29T13:34:22Z</time>
</trkpt>
<trkpt lat="49.20509" lon="10.248388">
<ele>437</ele>
<time>2019-05-29T13:34:27Z</time>
</trkpt>
<trkpt lat="49.205348" lon="10.248222">
<ele>437</ele>
<time>2019-05-29T13:34:32Z</time>
</trkpt>
<trkpt lat="49.205617" lon="10.248042">
<ele>437</ele>
<time>2019-05-29T13:34:37Z</time>
</trkpt>
<trkpt lat="49.205903" lon="10.247832">
<ele>437</ele>
<time>2019-05-29T13:34:42Z</time>
</trkpt>
<trkpt lat="49.20619" lon="10.247632">
<ele>436</ele>
<time>2019-05-29T13:34:47Z</time>
</trkpt>
<trkpt lat="49.206488" lon="10.2474">
<ele>434</ele>
<time>2019-05-29T13:34:52Z</time>
</trkpt>
<trkpt lat="49.20677" lon="10.247105">
<ele>434</ele>
<time>2019-05-29T13:34:57Z</time>
</trkpt>
<trkpt lat="49.207042" lon="10.246783">
<ele>434</ele>
<time>2019-05-29T13:35:02Z</time>
</trkpt>
<trkpt lat="49.20729" lon="10.246453">
<ele>433</ele>
<time>2019-05-29T13:35:07Z</time>
</trkpt>
<trkpt lat="49.207547" lon="10.246182">
<ele>433</ele>
<time>2019-05-29T13:35:12Z</time>
</trkpt>
<trkpt lat="49.2078" lon="10.24591">
<ele>433</ele>
<time>2019-05-29T13:35:17Z</time>
</trkpt>
<trkpt lat="49.208027" lon="10.245672">
<ele>433</ele>
<time>2019-05-29T13:35:22Z</time>
</trkpt>
<trkpt lat="49.208275" lon="10.245502">
<ele>433</ele>
<time>2019-05-29T13:35:27Z</time>
</trkpt>
<trkpt lat="49.208538" lon="10.245367">
<ele>433</ele>
<time>2019-05-29T13:35:32Z</time>
</trkpt>
<trkpt lat="49.208797" lon="10.24527">
<ele>433</ele>
<time>2019-05-29T13:35:37Z</time>
</trkpt>
<trkpt lat="49.209053" lon="10.245187">
<ele>433</ele>
<time>2019-05-29T13:35:42Z</time>
</trkpt>
<trkpt lat="49.209312" lon="10.245105">
<ele>433</ele>
<time>2019-05-29T13:35:47Z</time>
</trkpt>
<trkpt lat="49.209573" lon="10.245037">
<ele>433</ele>
<time>2019-05-29T13:35:52Z</time>
</trkpt>
<trkpt lat="49.20984" lon="10.244997">
<ele>433</ele>
<time>2019-05-29T13:35:57Z</time>
</trkpt>
<trkpt lat="49.2101" lon="10.24508">
<ele>433</ele>
<time>2019-05-29T13:36:02Z</time>
</trkpt>
<trkpt lat="49.21034" lon="10.245258">
<ele>433</ele>
<time>2019-05-29T13:36:07Z</time>
</trkpt>
<trkpt lat="49.210523" lon="10.245508">
<ele>433</ele>
<time>2019-05-29T13:36:12Z</time>
</trkpt>
<trkpt lat="49.210642" lon="10.245822">
<ele>433</ele>
<time>2019-05-29T13:36:17Z</time>
</trkpt>
<trkpt lat="49.210748" lon="10.246148">
<ele>433</ele>
<time>2019-05-29T13:36:22Z</time>
</trkpt>
<trkpt lat="49.210913" lon="10.246443">
<ele>433</ele>
<time>2019-05-29T13:36:27Z</time>
</trkpt>
<trkpt lat="49.21113" lon="10.246647">
<ele>433</ele>
<time>2019-05-29T13:36:32Z</time>
</trkpt>
<trkpt lat="49.211358" lon="10.246798">
<ele>433</ele>
<time>2019-05-29T13:36:37Z</time>
</trkpt>
<trkpt lat="49.21158" lon="10.246897">
<ele>433</ele>
<time>2019-05-29T13:36:42Z</time>
</trkpt>
<trkpt lat="49.211775" lon="10.246988">
<ele>433</ele>
<time>2019-05-29T13:36:47Z</time>
</trkpt>
<trkpt lat="49.211953" lon="10.247133">
<ele>433</ele>
<time>2019-05-29T13:36:52Z</time>
</trkpt>
<trkpt lat="49.211972" lon="10.24752">
<ele>433</ele>
<time>2019-05-29T13:36:57Z</time>
</trkpt>
<trkpt lat="49.211973" lon="10.247908">
<ele>433</ele>
<time>2019-05-29T13:37:02Z</time>
</trkpt>
<trkpt lat="49.21205" lon="10.248337">
<ele>433</ele>
<time>2019-05-29T13:37:07Z</time>
</trkpt>
<trkpt lat="49.212132" lon="10.248738">
<ele>433</ele>
<time>2019-05-29T13:37:12Z</time>
</trkpt>
<trkpt lat="49.212185" lon="10.249105">
<ele>433</ele>
<time>2019-05-29T13:37:17Z</time>
</trkpt>
<trkpt lat="49.21226" lon="10.249463">
<ele>433</ele>
<time>2019-05-29T13:37:22Z</time>
</trkpt>
<trkpt lat="49.212343" lon="10.249825">
<ele>433</ele>
<time>2019-05-29T13:37:27Z</time>
</trkpt>
<trkpt lat="49.212443" lon="10.250112">
<ele>433</ele>
<time>2019-05-29T13:37:32Z</time>
</trkpt>
<trkpt lat="49.212662" lon="10.250073">
<ele>433</ele>
<time>2019-05-29T13:37:37Z</time>
</trkpt>
<trkpt lat="49.212887" lon="10.249945">
<ele>433</ele>
<time>2019-05-29T13:37:42Z</time>
</trkpt>
<trkpt lat="49.21314" lon="10.249845">
<ele>433</ele>
<time>2019-05-29T13:37:47Z</time>
</trkpt>
<trkpt lat="49.213408" lon="10.249797">
<ele>433</ele>
<time>2019-05-29T13:37:52Z</time>
</trkpt>
<trkpt lat="49.213675" lon="10.249793">
<ele>433</ele>
<time>2019-05-29T13:37:57Z</time>
</trkpt>
<trkpt lat="49.213935" lon="10.249803">
<ele>433</ele>
<time>2019-05-29T13:38:02Z</time>
</trkpt>
<trkpt lat="49.214183" lon="10.249807">
<ele>433</ele>
<time>2019-05-29T13:38:07Z</time>
</trkpt>
<trkpt lat="49.214422" lon="10.249817">
<ele>433</ele>
<time>2019-05-29T13:38:12Z</time>
</trkpt>
<trkpt lat="49.214663" lon="10.249812">
<ele>433</ele>
<time>2019-05-29T13:38:17Z</time>
</trkpt>
<trkpt lat="49.21489" lon="10.249773">
<ele>434</ele>
<time>2019-05-29T13:38:22Z</time>
</trkpt>
<trkpt lat="49.215117" lon="10.249727">
<ele>434</ele>
<time>2019-05-29T13:38:27Z</time>
</trkpt>
<trkpt lat="49.215365" lon="10.249672">
<ele>434</ele>
<time>2019-05-29T13:38:32Z</time>
</trkpt>
<trkpt lat="49.215622" lon="10.249625">
<ele>434</ele>
<time>2019-05-29T13:38:37Z</time>
</trkpt>
<trkpt lat="49.215872" lon="10.249625">
<ele>434</ele>
<time>2019-05-29T13:38:42Z</time>
</trkpt>
<trkpt lat="49.216118" lon="10.24966">
<ele>434</ele>
<time>2019-05-29T13:38:47Z</time>
</trkpt>
<trkpt lat="49.21637" lon="10.249743">
<ele>434</ele>
<time>2019-05-29T13:38:52Z</time>
</trkpt>
<trkpt lat="49.2166" lon="10.249917">
<ele>434</ele>
<time>2019-05-29T13:38:57Z</time>
</trkpt>
<trkpt lat="49.21681" lon="10.250145">
<ele>434</ele>
<time>2019-05-29T13:39:02Z</time>
</trkpt>
<trkpt lat="49.216978" lon="10.25043">
<ele>434</ele>
<time>2019-05-29T13:39:07Z</time>
</trkpt>
<trkpt lat="49.217108" lon="10.250752">
<ele>434</ele>
<time>2019-05-29T13:39:12Z</time>
</trkpt>
<trkpt lat="49.217203" lon="10.251078">
<ele>434</ele>
<time>2019-05-29T13:39:17Z</time>
</trkpt>
<trkpt lat="49.217325" lon="10.251413">
<ele>434</ele>
<time>2019-05-29T13:39:22Z</time>
</trkpt>
<trkpt lat="49.217483" lon="10.251712">
<ele>434</ele>
<time>2019-05-29T13:39:27Z</time>
</trkpt>
<trkpt lat="49.21766" lon="10.251963">
<ele>435</ele>
<time>2019-05-29T13:39:32Z</time>
</trkpt>
<trkpt lat="49.21788" lon="10.252168">
<ele>435</ele>
<time>2019-05-29T13:39:37Z</time>
</trkpt>
<trkpt lat="49.218095" lon="10.252362">
<ele>435</ele>
<time>2019-05-29T13:39:42Z</time>
</trkpt>
<trkpt lat="49.218308" lon="10.252537">
<ele>435</ele>
<time>2019-05-29T13:39:47Z</time>
</trkpt>
<trkpt lat="49.218522" lon="10.252728">
<ele>435</ele>
<time>2019-05-29T13:39:52Z</time>
</trkpt>
<trkpt lat="49.218738" lon="10.252907">
<ele>435</ele>
<time>2019-05-29T13:39:57Z</time>
</trkpt>
<trkpt lat="49.218973" lon="10.253073">
<ele>435</ele>
<time>2019-05-29T13:40:02Z</time>
</trkpt>
<trkpt lat="49.219205" lon="10.253188">
<ele>435</ele>
<time>2019-05-29T13:40:07Z</time>
</trkpt>
<trkpt lat="49.219423" lon="10.253255">
<ele>435</ele>
<time>2019-05-29T13:40:12Z</time>
</trkpt>
<trkpt lat="49.219628" lon="10.253315">
<ele>435</ele>
<time>2019-05-29T13:40:17Z</time>
</trkpt>
<trkpt lat="49.219787" lon="10.253325">
<ele>435</ele>
<time>2019-05-29T13:40:22Z</time>
</trkpt>
<trkpt lat="49.219923" lon="10.25303">
<ele>435</ele>
<time>2019-05-29T13:40:27Z</time>
</trkpt>
<trkpt lat="49.220055" lon="10.252657">
<ele>434</ele>
<time>2019-05-29T13:40:32Z</time>
</trkpt>
<trkpt lat="49.220177" lon="10.252317">
<ele>434</ele>
<time>2019-05-29T13:40:37Z</time>
</trkpt>
<trkpt lat="49.220297" lon="10.251958">
<ele>434</ele>
<time>2019-05-29T13:40:42Z</time>
</trkpt>
<trkpt lat="49.220418" lon="10.251585">
<ele>434</ele>
<time>2019-05-29T13:40:47Z</time>
</trkpt>
<trkpt lat="49.220493" lon="10.251207">
<ele>434</ele>
<time>2019-05-29T13:40:52Z</time>
</trkpt>
<trkpt lat="49.220517" lon="10.250802">
<ele>434</ele>
<time>2019-05-29T13:40:57Z</time>
</trkpt>
<trkpt lat="49.22049" lon="10.250392">
<ele>434</ele>
<time>2019-05-29T13:41:02Z</time>
</trkpt>
<trkpt lat="49.220455" lon="10.250032">
<ele>434</ele>
<time>2019-05-29T13:41:07Z</time>
</trkpt>
<trkpt lat="49.220407" lon="10.249663">
<ele>434</ele>
<time>2019-05-29T13:41:12Z</time>
</trkpt>
<trkpt lat="49.220342" lon="10.249248">
<ele>434</ele>
<time>2019-05-29T13:41:17Z</time>
</trkpt>
<trkpt lat="49.220282" lon="10.248808">
<ele>434</ele>
<time>2019-05-29T13:41:22Z</time>
</trkpt>
<trkpt lat="49.22023" lon="10.248367">
<ele>434</ele>
<time>2019-05-29T13:41:27Z</time>
</trkpt>
<trkpt lat="49.220245" lon="10.247942">
<ele>434</ele>
<time>2019-05-29T13:41:32Z</time>
</trkpt>
<trkpt lat="49.220338" lon="10.247515">
<ele>434</ele>
<time>2019-05-29T13:41:37Z</time>
</trkpt>
<trkpt lat="49.220518" lon="10.247163">
<ele>435</ele>
<time>2019-05-29T13:41:42Z</time>
</trkpt>
<trkpt lat="49.22072" lon="10.246923">
<ele>435</ele>
<time>2019-05-29T13:41:47Z</time>
</trkpt>
<trkpt lat="49.220907" lon="10.24669">
<ele>435</ele>
<time>2019-05-29T13:41:52Z</time>
</trkpt>
<trkpt lat="49.221102" lon="10.246483">
<ele>436</ele>
<time>2019-05-29T13:41:57Z</time>
</trkpt>
<trkpt lat="49.221277" lon="10.246273">
<ele>436</ele>
<time>2019-05-29T13:42:02Z</time>
</trkpt>
<trkpt lat="49.221482" lon="10.246075">
<ele>436</ele>
<time>2019-05-29T13:42:07Z</time>
</trkpt>
<trkpt lat="49.221695" lon="10.245877">
<ele>436</ele>
<time>2019-05-29T13:42:12Z</time>
</trkpt>
<trkpt lat="49.221935" lon="10.245762">
<ele>437</ele>
<time>2019-05-29T13:42:17Z</time>
</trkpt>
<trkpt lat="49.222165" lon="10.245657">
<ele>437</ele>
<time>2019-05-29T13:42:22Z</time>
</trkpt>
<trkpt lat="49.222415" lon="10.24558">
<ele>437</ele>
<time>2019-05-29T13:42:27Z</time>
</trkpt>
<trkpt lat="49.222672" lon="10.245507">
<ele>437</ele>
<time>2019-05-29T13:42:32Z</time>
</trkpt>
<trkpt lat="49.22293" lon="10.24545">
<ele>437</ele>
<time>2019-05-29T13:42:37Z</time>
</trkpt>
<trkpt lat="49.223193" lon="10.245383">
<ele>437</ele>
<time>2019-05-29T13:42:42Z</time>
</trkpt>
<trkpt lat="49.22345" lon="10.24532">
<ele>437</ele>
<time>2019-05-29T13:42:47Z</time>
</trkpt>
<trkpt lat="49.223713" lon="10.245257">
<ele>437</ele>
<time>2019-05-29T13:42:52Z</time>
</trkpt>
<trkpt lat="49.22397" lon="10.245193">
<ele>437</ele>
<time>2019-05-29T13:42:57Z</time>
</trkpt>
<trkpt lat="49.224238" lon="10.245125">
<ele>436</ele>
<time>2019-05-29T13:43:02Z</time>
</trkpt>
<trkpt lat="49.224495" lon="10.245078">
<ele>436</ele>
<time>2019-05-29T13:43:07Z</time>
</trkpt>
<trkpt lat="49.22475" lon="10.245025">
<ele>436</ele>
<time>2019-05-29T13:43:12Z</time>
</trkpt>
<trkpt lat="49.225002" lon="10.24495">
<ele>436</ele>
<time>2019-05-29T13:43:17Z</time>
</trkpt>
<trkpt lat="49.225257" lon="10.244902">
<ele>435</ele>
<time>2019-05-29T13:43:22Z</time>
</trkpt>
<trkpt lat="49.225507" lon="10.244838">
<ele>435</ele>
<time>2019-05-29T13:43:27Z</time>
</trkpt>
<trkpt lat="49.225773" lon="10.244767">
<ele>434</ele>
<time>2019-05-29T13:43:32Z</time>
</trkpt>
<trkpt lat="49.22604" lon="10.24467">
<ele>434</ele>
<time>2019-05-29T13:43:37Z</time>
</trkpt>
<trkpt lat="49.226272" lon="10.244557">
<ele>434</ele>
<time>2019-05-29T13:43:42Z</time>
</trkpt>
<trkpt lat="49.226515" lon="10.244447">
<ele>434</ele>
<time>2019-05-29T13:43:47Z</time>
</trkpt>
<trkpt lat="49.226775" lon="10.244352">
<ele>434</ele>
<time>2019-05-29T13:43:52Z</time>
</trkpt>
<trkpt lat="49.227017" lon="10.244343">
<ele>434</ele>
<time>2019-05-29T13:43:57Z</time>
</trkpt>
<trkpt lat="49.227238" lon="10.244355">
<ele>434</ele>
<time>2019-05-29T13:44:02Z</time>
</trkpt>
<trkpt lat="49.227495" lon="10.24437">
<ele>434</ele>
<time>2019-05-29T13:44:07Z</time>
</trkpt>
<trkpt lat="49.227763" lon="10.244393">
<ele>434</ele>
<time>2019-05-29T13:44:12Z</time>
</trkpt>
<trkpt lat="49.228027" lon="10.244417">
<ele>434</ele>
<time>2019-05-29T13:44:17Z</time>
</trkpt>
<trkpt lat="49.228283" lon="10.24445">
<ele>434</ele>
<time>2019-05-29T13:44:22Z</time>
</trkpt>
<trkpt lat="49.228503" lon="10.244467">
<ele>435</ele>
<time>2019-05-29T13:44:27Z</time>
</trkpt>
<trkpt lat="49.228745" lon="10.244488">
<ele>435</ele>
<time>2019-05-29T13:44:32Z</time>
</trkpt>
<trkpt lat="49.228985" lon="10.244552">
<ele>436</ele>
<time>2019-05-29T13:44:37Z</time>
</trkpt>
<trkpt lat="49.229217" lon="10.244665">
<ele>437</ele>
<time>2019-05-29T13:44:42Z</time>
</trkpt>
<trkpt lat="49.229442" lon="10.244805">
<ele>438</ele>
<time>2019-05-29T13:44:47Z</time>
</trkpt>
<trkpt lat="49.229663" lon="10.244962">
<ele>439</ele>
<time>2019-05-29T13:44:52Z</time>
</trkpt>
<trkpt lat="49.229872" lon="10.245148">
<ele>439</ele>
<time>2019-05-29T13:44:57Z</time>
</trkpt>
<trkpt lat="49.230085" lon="10.245348">
<ele>439</ele>
<time>2019-05-29T13:45:02Z</time>
</trkpt>
<trkpt lat="49.230312" lon="10.245558">
<ele>439</ele>
<time>2019-05-29T13:45:07Z</time>
</trkpt>
<trkpt lat="49.230548" lon="10.245747">
<ele>439</ele>
<time>2019-05-29T13:45:12Z</time>
</trkpt>
<trkpt lat="49.230792" lon="10.245917">
<ele>439</ele>
<time>2019-05-29T13:45:17Z</time>
</trkpt>
<trkpt lat="49.231048" lon="10.246067">
<ele>439</ele>
<time>2019-05-29T13:45:22Z</time>
</trkpt>
<trkpt lat="49.231287" lon="10.246177">
<ele>439</ele>
<time>2019-05-29T13:45:27Z</time>
</trkpt>
<trkpt lat="49.23153" lon="10.246253">
<ele>439</ele>
<time>2019-05-29T13:45:32Z</time>
</trkpt>
<trkpt lat="49.231767" lon="10.246318">
<ele>439</ele>
<time>2019-05-29T13:45:37Z</time>
</trkpt>
<trkpt lat="49.232013" lon="10.246348">
<ele>439</ele>
<time>2019-05-29T13:45:42Z</time>
</trkpt>
<trkpt lat="49.232262" lon="10.246365">
<ele>439</ele>
<time>2019-05-29T13:45:47Z</time>
</trkpt>
<trkpt lat="49.232512" lon="10.246352">
<ele>439</ele>
<time>2019-05-29T13:45:52Z</time>
</trkpt>
<trkpt lat="49.232757" lon="10.246335">
<ele>439</ele>
<time>2019-05-29T13:45:57Z</time>
</trkpt>
<trkpt lat="49.233002" lon="10.246272">
<ele>439</ele>
<time>2019-05-29T13:46:02Z</time>
</trkpt>
<trkpt lat="49.23326" lon="10.246178">
<ele>439</ele>
<time>2019-05-29T13:46:07Z</time>
</trkpt>
<trkpt lat="49.233527" lon="10.24607">
<ele>439</ele>
<time>2019-05-29T13:46:12Z</time>
</trkpt>
<trkpt lat="49.23378" lon="10.245962">
<ele>439</ele>
<time>2019-05-29T13:46:17Z</time>
</trkpt>
<trkpt lat="49.23405" lon="10.245847">
<ele>439</ele>
<time>2019-05-29T13:46:22Z</time>
</trkpt>
<trkpt lat="49.234317" lon="10.24576">
<ele>439</ele>
<time>2019-05-29T13:46:27Z</time>
</trkpt>
<trkpt lat="49.234585" lon="10.245698">
<ele>439</ele>
<time>2019-05-29T13:46:32Z</time>
</trkpt>
<trkpt lat="49.234855" lon="10.245668">
<ele>439</ele>
<time>2019-05-29T13:46:37Z</time>
</trkpt>
<trkpt lat="49.23512" lon="10.245672">
<ele>439</ele>
<time>2019-05-29T13:46:42Z</time>
</trkpt>
<trkpt lat="49.235383" lon="10.245702">
<ele>439</ele>
<time>2019-05-29T13:46:47Z</time>
</trkpt>
<trkpt lat="49.235657" lon="10.245757">
<ele>439</ele>
<time>2019-05-29T13:46:52Z</time>
</trkpt>
<trkpt lat="49.235935" lon="10.245818">
<ele>438</ele>
<time>2019-05-29T13:46:57Z</time>
</trkpt>
<trkpt lat="49.236207" lon="10.245865">
<ele>438</ele>
<time>2019-05-29T13:47:02Z</time>
</trkpt>
<trkpt lat="49.236483" lon="10.245885">
<ele>438</ele>
<time>2019-05-29T13:47:07Z</time>
</trkpt>
<trkpt lat="49.236753" lon="10.245885">
<ele>438</ele>
<time>2019-05-29T13:47:12Z</time>
</trkpt>
<trkpt lat="49.237023" lon="10.245893">
<ele>438</ele>
<time>2019-05-29T13:47:17Z</time>
</trkpt>
<trkpt lat="49.237288" lon="10.245883">
<ele>438</ele>
<time>2019-05-29T13:47:22Z</time>
</trkpt>
<trkpt lat="49.237575" lon="10.24584">
<ele>438</ele>
<time>2019-05-29T13:47:27Z</time>
</trkpt>
<trkpt lat="49.23784" lon="10.245815">
<ele>438</ele>
<time>2019-05-29T13:47:32Z</time>
</trkpt>
<trkpt lat="49.2381" lon="10.245755">
<ele>438</ele>
<time>2019-05-29T13:47:37Z</time>
</trkpt>
<trkpt lat="49.238382" lon="10.24569">
<ele>438</ele>
<time>2019-05-29T13:47:42Z</time>
</trkpt>
<trkpt lat="49.238653" lon="10.245618">
<ele>438</ele>
<time>2019-05-29T13:47:47Z</time>
</trkpt>
<trkpt lat="49.238902" lon="10.245555">
<ele>438</ele>
<time>2019-05-29T13:47:52Z</time>
</trkpt>
<trkpt lat="49.239135" lon="10.245493">
<ele>438</ele>
<time>2019-05-29T13:47:57Z</time>
</trkpt>
<trkpt lat="49.23936" lon="10.245432">
<ele>438</ele>
<time>2019-05-29T13:48:02Z</time>
</trkpt>
<trkpt lat="49.239592" lon="10.24538">
<ele>438</ele>
<time>2019-05-29T13:48:07Z</time>
</trkpt>
<trkpt lat="49.239813" lon="10.245353">
<ele>439</ele>
<time>2019-05-29T13:48:12Z</time>
</trkpt>
<trkpt lat="49.240042" lon="10.245367">
<ele>440</ele>
<time>2019-05-29T13:48:17Z</time>
</trkpt>
<trkpt lat="49.24025" lon="10.245437">
<ele>440</ele>
<time>2019-05-29T13:48:22Z</time>
</trkpt>
<trkpt lat="49.240453" lon="10.245558">
<ele>441</ele>
<time>2019-05-29T13:48:27Z</time>
</trkpt>
<trkpt lat="49.240657" lon="10.24574">
<ele>441</ele>
<time>2019-05-29T13:48:32Z</time>
</trkpt>
<trkpt lat="49.240833" lon="10.245945">
<ele>442</ele>
<time>2019-05-29T13:48:37Z</time>
</trkpt>
<trkpt lat="49.240985" lon="10.246198">
<ele>442</ele>
<time>2019-05-29T13:48:42Z</time>
</trkpt>
<trkpt lat="49.241123" lon="10.246498">
<ele>442</ele>
<time>2019-05-29T13:48:47Z</time>
</trkpt>
<trkpt lat="49.241223" lon="10.246863">
<ele>442</ele>
<time>2019-05-29T13:48:52Z</time>
</trkpt>
<trkpt lat="49.241282" lon="10.24731">
<ele>441</ele>
<time>2019-05-29T13:48:57Z</time>
</trkpt>
<trkpt lat="49.241297" lon="10.247792">
<ele>441</ele>
<time>2019-05-29T13:49:02Z</time>
</trkpt>
<trkpt lat="49.241297" lon="10.248303">
<ele>439</ele>
<time>2019-05-29T13:49:07Z</time>
</trkpt>
<trkpt lat="49.241303" lon="10.248818">
<ele>438</ele>
<time>2019-05-29T13:49:12Z</time>
</trkpt>
<trkpt lat="49.241338" lon="10.249263">
<ele>437</ele>
<time>2019-05-29T13:49:17Z</time>
</trkpt>
<trkpt lat="49.24144" lon="10.249628">
<ele>437</ele>
<time>2019-05-29T13:49:22Z</time>
</trkpt>
<trkpt lat="49.241697" lon="10.249658">
<ele>437</ele>
<time>2019-05-29T13:49:27Z</time>
</trkpt>
<trkpt lat="49.241963" lon="10.249528">
<ele>437</ele>
<time>2019-05-29T13:49:32Z</time>
</trkpt>
<trkpt lat="49.242193" lon="10.249383">
<ele>437</ele>
<time>2019-05-29T13:49:37Z</time>
</trkpt>
<trkpt lat="49.242402" lon="10.24954">
<ele>437</ele>
<time>2019-05-29T13:49:42Z</time>
</trkpt>
<trkpt lat="49.242557" lon="10.249873">
<ele>437</ele>
<time>2019-05-29T13:49:47Z</time>
</trkpt>
<trkpt lat="49.242787" lon="10.250133">
<ele>437</ele>
<time>2019-05-29T13:49:52Z</time>
</trkpt>
<trkpt lat="49.243035" lon="10.250243">
<ele>437</ele>
<time>2019-05-29T13:49:57Z</time>
</trkpt>
<trkpt lat="49.2433" lon="10.250298">
<ele>437</ele>
<time>2019-05-29T13:50:02Z</time>
</trkpt>
<trkpt lat="49.243558" lon="10.250322">
<ele>437</ele>
<time>2019-05-29T13:50:07Z</time>
</trkpt>
<trkpt lat="49.243815" lon="10.250335">
<ele>437</ele>
<time>2019-05-29T13:50:12Z</time>
</trkpt>
<trkpt lat="49.244065" lon="10.250333">
<ele>437</ele>
<time>2019-05-29T13:50:17Z</time>
</trkpt>
<trkpt lat="49.244308" lon="10.250308">
<ele>437</ele>
<time>2019-05-29T13:50:22Z</time>
</trkpt>
<trkpt lat="49.24453" lon="10.250258">
<ele>437</ele>
<time>2019-05-29T13:50:27Z</time>
</trkpt>
<trkpt lat="49.244757" lon="10.250165">
<ele>438</ele>
<time>2019-05-29T13:50:32Z</time>
</trkpt>
<trkpt lat="49.244975" lon="10.25002">
<ele>438</ele>
<time>2019-05-29T13:50:37Z</time>
</trkpt>
<trkpt lat="49.245173" lon="10.249858">
<ele>438</ele>
<time>2019-05-29T13:50:42Z</time>
</trkpt>
<trkpt lat="49.245367" lon="10.249697">
<ele>438</ele>
<time>2019-05-29T13:50:47Z</time>
</trkpt>
<trkpt lat="49.245562" lon="10.249517">
<ele>438</ele>
<time>2019-05-29T13:50:52Z</time>
</trkpt>
<trkpt lat="49.245778" lon="10.249338">
<ele>438</ele>
<time>2019-05-29T13:50:57Z</time>
</trkpt>
<trkpt lat="49.245998" lon="10.249187">
<ele>438</ele>
<time>2019-05-29T13:51:02Z</time>
</trkpt>
<trkpt lat="49.246238" lon="10.249018">
<ele>438</ele>
<time>2019-05-29T13:51:07Z</time>
</trkpt>
<trkpt lat="49.246498" lon="10.248855">
<ele>438</ele>
<time>2019-05-29T13:51:12Z</time>
</trkpt>
<trkpt lat="49.246757" lon="10.248702">
<ele>438</ele>
<time>2019-05-29T13:51:17Z</time>
</trkpt>
<trkpt lat="49.247007" lon="10.248555">
<ele>438</ele>
<time>2019-05-29T13:51:22Z</time>
</trkpt>
<trkpt lat="49.24724" lon="10.248397">
<ele>438</ele>
<time>2019-05-29T13:51:27Z</time>
</trkpt>
<trkpt lat="49.247472" lon="10.248242">
<ele>438</ele>
<time>2019-05-29T13:51:32Z</time>
</trkpt>
<trkpt lat="49.247713" lon="10.248088">
<ele>438</ele>
<time>2019-05-29T13:51:37Z</time>
</trkpt>
<trkpt lat="49.24795" lon="10.247938">
<ele>439</ele>
<time>2019-05-29T13:51:42Z</time>
</trkpt>
<trkpt lat="49.24818" lon="10.247743">
<ele>439</ele>
<time>2019-05-29T13:51:47Z</time>
</trkpt>
<trkpt lat="49.248383" lon="10.247485">
<ele>439</ele>
<time>2019-05-29T13:51:52Z</time>
</trkpt>
<trkpt lat="49.248573" lon="10.247195">
<ele>439</ele>
<time>2019-05-29T13:51:57Z</time>
</trkpt>
<trkpt lat="49.248762" lon="10.246902">
<ele>439</ele>
<time>2019-05-29T13:52:02Z</time>
</trkpt>
<trkpt lat="49.248942" lon="10.246608">
<ele>439</ele>
<time>2019-05-29T13:52:07Z</time>
</trkpt>
<trkpt lat="49.249132" lon="10.246322">
<ele>439</ele>
<time>2019-05-29T13:52:12Z</time>
</trkpt>
<trkpt lat="49.24934" lon="10.24604">
<ele>439</ele>
<time>2019-05-29T13:52:17Z</time>
</trkpt>
<trkpt lat="49.249553" lon="10.24578">
<ele>439</ele>
<time>2019-05-29T13:52:22Z</time>
</trkpt>
<trkpt lat="49.249768" lon="10.24552">
<ele>439</ele>
<time>2019-05-29T13:52:27Z</time>
</trkpt>
<trkpt lat="49.249977" lon="10.245245">
<ele>439</ele>
<time>2019-05-29T13:52:32Z</time>
</trkpt>
<trkpt lat="49.25018" lon="10.244962">
<ele>439</ele>
<time>2019-05-29T13:52:37Z</time>
</trkpt>
<trkpt lat="49.250382" lon="10.244693">
<ele>439</ele>
<time>2019-05-29T13:52:42Z</time>
</trkpt>
<trkpt lat="49.250588" lon="10.244403">
<ele>439</ele>
<time>2019-05-29T13:52:47Z</time>
</trkpt>
<trkpt lat="49.25078" lon="10.244103">
<ele>439</ele>
<time>2019-05-29T13:52:52Z</time>
</trkpt>
<trkpt lat="49.250953" lon="10.243798">
<ele>439</ele>
<time>2019-05-29T13:52:57Z</time>
</trkpt>
<trkpt lat="49.251128" lon="10.243493">
<ele>439</ele>
<time>2019-05-29T13:53:02Z</time>
</trkpt>
<trkpt lat="49.251307" lon="10.243197">
<ele>439</ele>
<time>2019-05-29T13:53:07Z</time>
</trkpt>
<trkpt lat="49.251502" lon="10.24297">
<ele>439</ele>
<time>2019-05-29T13:53:12Z</time>
</trkpt>
<trkpt lat="49.251727" lon="10.242843">
<ele>440</ele>
<time>2019-05-29T13:53:17Z</time>
</trkpt>
<trkpt lat="49.251948" lon="10.24278">
<ele>440</ele>
<time>2019-05-29T13:53:22Z</time>
</trkpt>
<trkpt lat="49.252148" lon="10.242732">
<ele>440</ele>
<time>2019-05-29T13:53:27Z</time>
</trkpt>
<trkpt lat="49.252305" lon="10.242695">
<ele>440</ele>
<time>2019-05-29T13:53:32Z</time>
</trkpt>
<trkpt lat="49.252358" lon="10.242683">
<ele>440</ele>
<time>2019-05-29T13:53:37Z</time>
</trkpt>
<trkpt lat="49.252467" lon="10.242705">
<ele>440</ele>
<time>2019-05-29T13:53:42Z</time>
</trkpt>
<trkpt lat="49.252638" lon="10.242902">
<ele>440</ele>
<time>2019-05-29T13:53:47Z</time>
</trkpt>
<trkpt lat="49.252842" lon="10.24317">
<ele>440</ele>
<time>2019-05-29T13:53:52Z</time>
</trkpt>
<trkpt lat="49.25306" lon="10.243348">
<ele>440</ele>
<time>2019-05-29T13:53:57Z</time>
</trkpt>
<trkpt lat="49.253277" lon="10.243358">
<ele>440</ele>
<time>2019-05-29T13:54:02Z</time>
</trkpt>
<trkpt lat="49.253505" lon="10.243283">
<ele>439</ele>
<time>2019-05-29T13:54:07Z</time>
</trkpt>
<trkpt lat="49.253758" lon="10.243203">
<ele>439</ele>
<time>2019-05-29T13:54:12Z</time>
</trkpt>
<trkpt lat="49.253988" lon="10.243142">
<ele>439</ele>
<time>2019-05-29T13:54:17Z</time>
</trkpt>
<trkpt lat="49.2542" lon="10.243095">
<ele>439</ele>
<time>2019-05-29T13:54:22Z</time>
</trkpt>
<trkpt lat="49.254413" lon="10.24312">
<ele>439</ele>
<time>2019-05-29T13:54:27Z</time>
</trkpt>
<trkpt lat="49.254532" lon="10.243447">
<ele>440</ele>
<time>2019-05-29T13:54:32Z</time>
</trkpt>
<trkpt lat="49.25465" lon="10.243795">
<ele>440</ele>
<time>2019-05-29T13:54:37Z</time>
</trkpt>
<trkpt lat="49.254858" lon="10.244007">
<ele>440</ele>
<time>2019-05-29T13:54:42Z</time>
</trkpt>
<trkpt lat="49.255075" lon="10.244005">
<ele>441</ele>
<time>2019-05-29T13:54:47Z</time>
</trkpt>
<trkpt lat="49.25527" lon="10.243933">
<ele>442</ele>
<time>2019-05-29T13:54:52Z</time>
</trkpt>
<trkpt lat="49.25547" lon="10.24381">
<ele>442</ele>
<time>2019-05-29T13:54:57Z</time>
</trkpt>
<trkpt lat="49.25567" lon="10.243703">
<ele>442</ele>
<time>2019-05-29T13:55:02Z</time>
</trkpt>
<trkpt lat="49.255893" lon="10.243635">
<ele>442</ele>
<time>2019-05-29T13:55:07Z</time>
</trkpt>
<trkpt lat="49.2561" lon="10.243587">
<ele>443</ele>
<time>2019-05-29T13:55:12Z</time>
</trkpt>
<trkpt lat="49.256318" lon="10.243568">
<ele>443</ele>
<time>2019-05-29T13:55:17Z</time>
</trkpt>
<trkpt lat="49.25654" lon="10.243528">
<ele>443</ele>
<time>2019-05-29T13:55:22Z</time>
</trkpt>
<trkpt lat="49.256773" lon="10.243502">
<ele>444</ele>
<time>2019-05-29T13:55:27Z</time>
</trkpt>
<trkpt lat="49.256993" lon="10.24351">
<ele>444</ele>
<time>2019-05-29T13:55:32Z</time>
</trkpt>
<trkpt lat="49.25721" lon="10.243492">
<ele>444</ele>
<time>2019-05-29T13:55:37Z</time>
</trkpt>
<trkpt lat="49.257433" lon="10.243382">
<ele>444</ele>
<time>2019-05-29T13:55:42Z</time>
</trkpt>
<trkpt lat="49.257602" lon="10.243193">
<ele>444</ele>
<time>2019-05-29T13:55:47Z</time>
</trkpt>
<trkpt lat="49.257725" lon="10.242935">
<ele>445</ele>
<time>2019-05-29T13:55:52Z</time>
</trkpt>
<trkpt lat="49.257832" lon="10.242655">
<ele>445</ele>
<time>2019-05-29T13:55:57Z</time>
</trkpt>
<trkpt lat="49.257938" lon="10.242413">
<ele>445</ele>
<time>2019-05-29T13:56:02Z</time>
</trkpt>
<trkpt lat="49.258065" lon="10.242273">
<ele>446</ele>
<time>2019-05-29T13:56:07Z</time>
</trkpt>
<trkpt lat="49.258192" lon="10.242203">
<ele>446</ele>
<time>2019-05-29T13:56:12Z</time>
</trkpt>
<trkpt lat="49.258342" lon="10.242258">
<ele>446</ele>
<time>2019-05-29T13:56:17Z</time>
</trkpt>
<trkpt lat="49.258533" lon="10.242393">
<ele>446</ele>
<time>2019-05-29T13:56:22Z</time>
</trkpt>
<trkpt lat="49.258773" lon="10.242555">
<ele>444</ele>
<time>2019-05-29T13:56:27Z</time>
</trkpt>
<trkpt lat="49.25899" lon="10.242488">
<ele>444</ele>
<time>2019-05-29T13:56:32Z</time>
</trkpt>
<trkpt lat="49.259122" lon="10.242452">
<ele>445</ele>
<time>2019-05-29T13:56:37Z</time>
</trkpt>
<trkpt lat="49.259273" lon="10.24247">
<ele>446</ele>
<time>2019-05-29T13:56:42Z</time>
</trkpt>
<trkpt lat="49.259373" lon="10.242365">
<ele>446</ele>
<time>2019-05-29T13:56:47Z</time>
</trkpt>
<trkpt lat="49.259362" lon="10.242185">
<ele>446</ele>
<time>2019-05-29T13:56:52Z</time>
</trkpt>
<trkpt lat="49.259378" lon="10.241992">
<ele>447</ele>
<time>2019-05-29T13:56:57Z</time>
</trkpt>
<trkpt lat="49.259422" lon="10.24182">
<ele>447</ele>
<time>2019-05-29T13:57:02Z</time>
</trkpt>
<trkpt lat="49.259487" lon="10.241602">
<ele>447</ele>
<time>2019-05-29T13:57:07Z</time>
</trkpt>
<trkpt lat="49.259547" lon="10.241347">
<ele>447</ele>
<time>2019-05-29T13:57:12Z</time>
</trkpt>
<trkpt lat="49.259607" lon="10.2411">
<ele>447</ele>
<time>2019-05-29T13:57:17Z</time>
</trkpt>
<trkpt lat="49.259658" lon="10.240887">
<ele>447</ele>
<time>2019-05-29T13:57:22Z</time>
</trkpt>
<trkpt lat="49.259688" lon="10.240692">
<ele>447</ele>
<time>2019-05-29T13:57:27Z</time>
</trkpt>
<trkpt lat="49.259737" lon="10.240557">
<ele>447</ele>
<time>2019-05-29T13:57:32Z</time>
</trkpt>
<trkpt lat="49.25975" lon="10.240452">
<ele>447</ele>
<time>2019-05-29T13:57:37Z</time>
</trkpt>
<trkpt lat="49.259765" lon="10.24038">
<ele>447</ele>
<time>2019-05-29T13:57:42Z</time>
</trkpt>
<trkpt lat="49.259768" lon="10.240373">
<ele>447</ele>
<time>2019-05-29T13:57:47Z</time>
</trkpt>
<trkpt lat="49.259768" lon="10.240372">
<ele>447</ele>
<time>2019-05-29T13:57:52Z</time>
</trkpt>
<trkpt lat="49.259773" lon="10.24038">
<ele>447</ele>
<time>2019-05-29T13:57:57Z</time>
</trkpt>
<trkpt lat="49.259775" lon="10.240378">
<ele>447</ele>
<time>2019-05-29T13:58:42Z</time>
</trkpt>
<trkpt lat="49.259772" lon="10.240388">
<ele>447</ele>
<time>2019-05-29T13:59:07Z</time>
</trkpt>
<trkpt lat="49.259772" lon="10.240387">
<ele>447</ele>
<time>2019-05-29T14:01:37Z</time>
</trkpt>
<trkpt lat="49.259773" lon="10.240388">
<ele>447</ele>
<time>2019-05-29T14:01:47Z</time>
</trkpt>
<trkpt lat="49.259773" lon="10.240387">
<ele>447</ele>
<time>2019-05-29T14:01:52Z</time>
</trkpt>
<trkpt lat="49.259773" lon="10.240385">
<ele>447</ele>
<time>2019-05-29T14:02:12Z</time>
</trkpt>
<trkpt lat="49.259773" lon="10.240383">
<ele>447</ele>
<time>2019-05-29T14:02:32Z</time>
</trkpt>
<trkpt lat="49.259773" lon="10.240382">
<ele>447</ele>
<time>2019-05-29T14:03:12Z</time>
</trkpt>
<trkpt lat="49.259775" lon="10.240382">
<ele>447</ele>
<time>2019-05-29T14:03:32Z</time>
</trkpt>
<trkpt lat="49.259775" lon="10.24038">
<ele>447</ele>
<time>2019-05-29T14:03:48Z</time>
</trkpt>
<trkpt lat="49.259777" lon="10.24038">
<ele>447</ele>
<time>2019-05-29T14:04:08Z</time>
</trkpt>
<trkpt lat="49.259777" lon="10.240378">
<ele>447</ele>
<time>2019-05-29T14:04:59Z</time>
</trkpt>
<trkpt lat="49.259778" lon="10.240377">
<ele>447</ele>
<time>2019-05-29T14:05:04Z</time>
</trkpt>
<trkpt lat="49.259778" lon="10.240375">
<ele>447</ele>
<time>2019-05-29T14:05:09Z</time>
</trkpt>
<trkpt lat="49.25978" lon="10.240372">
<ele>447</ele>
<time>2019-05-29T14:05:15Z</time>
</trkpt>
<trkpt lat="49.259785" lon="10.240368">
<ele>447</ele>
<time>2019-05-29T14:05:20Z</time>
</trkpt>
<trkpt lat="49.259795" lon="10.240363">
<ele>447</ele>
<time>2019-05-29T14:05:25Z</time>
</trkpt>
<trkpt lat="49.259815" lon="10.240358">
<ele>447</ele>
<time>2019-05-29T14:05:30Z</time>
</trkpt>
<trkpt lat="49.259848" lon="10.24034">
<ele>447</ele>
<time>2019-05-29T14:05:35Z</time>
</trkpt>
<trkpt lat="49.259872" lon="10.240327">
<ele>447</ele>
<time>2019-05-29T14:05:41Z</time>
</trkpt>
<trkpt lat="49.259882" lon="10.24033">
<ele>447</ele>
<time>2019-05-29T14:05:47Z</time>
</trkpt>
<trkpt lat="49.259887" lon="10.24033">
<ele>447</ele>
<time>2019-05-29T14:05:53Z</time>
</trkpt>
<trkpt lat="49.259887" lon="10.240328">
<ele>447</ele>
<time>2019-05-29T14:06:09Z</time>
</trkpt>
<trkpt lat="49.259887" lon="10.240327">
<ele>447</ele>
<time>2019-05-29T14:06:58Z</time>
</trkpt>
<trkpt lat="49.259887" lon="10.240328">
<ele>447</ele>
<time>2019-05-29T14:07:03Z</time>
</trkpt>
<trkpt lat="49.259887" lon="10.240327">
<ele>447</ele>
<time>2019-05-29T14:07:13Z</time>
</trkpt>
<trkpt lat="49.259888" lon="10.240327">
<ele>447</ele>
<time>2019-05-29T14:09:32Z</time>
</trkpt>
<trkpt lat="49.259888" lon="10.240328">
<ele>447</ele>
<time>2019-05-29T14:11:48Z</time>
</trkpt>
<trkpt lat="49.259887" lon="10.240328">
<ele>447</ele>
<time>2019-05-29T14:12:35Z</time>
</trkpt>
<trkpt lat="49.259887" lon="10.24033">
<ele>446</ele>
<time>2019-05-29T14:13:23Z</time>
</trkpt>
<trkpt lat="49.259887" lon="10.240332">
<ele>447</ele>
<time>2019-05-29T14:14:08Z</time>
</trkpt>
<trkpt lat="49.259887" lon="10.24033">
<ele>447</ele>
<time>2019-05-29T14:14:18Z</time>
</trkpt>
<trkpt lat="49.259887" lon="10.240332">
<ele>447</ele>
<time>2019-05-29T14:14:23Z</time>
</trkpt>
<trkpt lat="49.259885" lon="10.240332">
<ele>447</ele>
<time>2019-05-29T14:14:48Z</time>
</trkpt>
<trkpt lat="49.259887" lon="10.240332">
<ele>447</ele>
<time>2019-05-29T14:14:58Z</time>
</trkpt>
<trkpt lat="49.259885" lon="10.240332">
<ele>447</ele>
<time>2019-05-29T14:15:03Z</time>
</trkpt>
<trkpt lat="49.259885" lon="10.240333">
<ele>447</ele>
<time>2019-05-29T14:15:23Z</time>
</trkpt>
<trkpt lat="49.259883" lon="10.240333">
<ele>447</ele>
<time>2019-05-29T14:15:43Z</time>
</trkpt>
<trkpt lat="49.259883" lon="10.240335">
<ele>447</ele>
<time>2019-05-29T14:15:53Z</time>
</trkpt>
<trkpt lat="49.259885" lon="10.240335">
<ele>447</ele>
<time>2019-05-29T14:16:23Z</time>
</trkpt>
<trkpt lat="49.259885" lon="10.240337">
<ele>447</ele>
<time>2019-05-29T14:16:28Z</time>
</trkpt>
<trkpt lat="49.259887" lon="10.240337">
<ele>447</ele>
<time>2019-05-29T14:16:48Z</time>
</trkpt>
<trkpt lat="49.259887" lon="10.240338">
<ele>447</ele>
<time>2019-05-29T14:17:03Z</time>
</trkpt>
<trkpt lat="49.259885" lon="10.240338">
<ele>447</ele>
<time>2019-05-29T14:17:18Z</time>
</trkpt>
<trkpt lat="49.259885" lon="10.240337">
<ele>447</ele>
<time>2019-05-29T14:17:33Z</time>
</trkpt>
<trkpt lat="49.259883" lon="10.240337">
<ele>447</ele>
<time>2019-05-29T14:17:43Z</time>
</trkpt>
<trkpt lat="49.259883" lon="10.240338">
<ele>447</ele>
<time>2019-05-29T14:17:53Z</time>
</trkpt>
<trkpt lat="49.259885" lon="10.240338">
<ele>447</ele>
<time>2019-05-29T14:17:58Z</time>
</trkpt>
<trkpt lat="49.259883" lon="10.240338">
<ele>447</ele>
<time>2019-05-29T14:18:18Z</time>
</trkpt>
<trkpt lat="49.259882" lon="10.240338">
<ele>447</ele>
<time>2019-05-29T14:18:53Z</time>
</trkpt>
<trkpt lat="49.25988" lon="10.24034">
<ele>447</ele>
<time>2019-05-29T14:19:23Z</time>
</trkpt>
<trkpt lat="49.25988" lon="10.240342">
<ele>447</ele>
<time>2019-05-29T14:19:28Z</time>
</trkpt>
<trkpt lat="49.25988" lon="10.240343">
<ele>447</ele>
<time>2019-05-29T14:19:38Z</time>
</trkpt>
<trkpt lat="49.259878" lon="10.240345">
<ele>447</ele>
<time>2019-05-29T14:19:43Z</time>
</trkpt>
<trkpt lat="49.259878" lon="10.240347">
<ele>447</ele>
<time>2019-05-29T14:19:48Z</time>
</trkpt>
<trkpt lat="49.259877" lon="10.240348">
<ele>447</ele>
<time>2019-05-29T14:19:58Z</time>
</trkpt>
<trkpt lat="49.259877" lon="10.24035">
<ele>447</ele>
<time>2019-05-29T14:20:03Z</time>
</trkpt>
<trkpt lat="49.259875" lon="10.240352">
<ele>447</ele>
<time>2019-05-29T14:20:18Z</time>
</trkpt>
<trkpt lat="49.259875" lon="10.240353">
<ele>447</ele>
<time>2019-05-29T14:20:23Z</time>
</trkpt>
<trkpt lat="49.259875" lon="10.240355">
<ele>447</ele>
<time>2019-05-29T14:20:33Z</time>
</trkpt>
<trkpt lat="49.259873" lon="10.240355">
<ele>447</ele>
<time>2019-05-29T14:20:43Z</time>
</trkpt>
<trkpt lat="49.25987" lon="10.240358">
<ele>447</ele>
<time>2019-05-29T14:20:53Z</time>
</trkpt>
<trkpt lat="49.259867" lon="10.240365">
<ele>447</ele>
<time>2019-05-29T14:20:58Z</time>
</trkpt>
<trkpt lat="49.25986" lon="10.240375">
<ele>447</ele>
<time>2019-05-29T14:21:03Z</time>
</trkpt>
<trkpt lat="49.259853" lon="10.240383">
<ele>447</ele>
<time>2019-05-29T14:21:08Z</time>
</trkpt>
<trkpt lat="49.259845" lon="10.24039">
<ele>447</ele>
<time>2019-05-29T14:21:13Z</time>
</trkpt>
<trkpt lat="49.259837" lon="10.240392">
<ele>447</ele>
<time>2019-05-29T14:21:18Z</time>
</trkpt>
<trkpt lat="49.25983" lon="10.240393">
<ele>447</ele>
<time>2019-05-29T14:21:23Z</time>
</trkpt>
<trkpt lat="49.25982" lon="10.240392">
<ele>447</ele>
<time>2019-05-29T14:21:28Z</time>
</trkpt>
<trkpt lat="49.259812" lon="10.24039">
<ele>447</ele>
<time>2019-05-29T14:21:33Z</time>
</trkpt>
<trkpt lat="49.259828" lon="10.24038">
<ele>447</ele>
<time>2019-05-29T14:21:38Z</time>
</trkpt>
<trkpt lat="49.259827" lon="10.240377">
<ele>447</ele>
<time>2019-05-29T14:21:43Z</time>
</trkpt>
<trkpt lat="49.259823" lon="10.240377">
<ele>447</ele>
<time>2019-05-29T14:21:48Z</time>
</trkpt>
<trkpt lat="49.259822" lon="10.240375">
<ele>447</ele>
<time>2019-05-29T14:21:53Z</time>
</trkpt>
<trkpt lat="49.25982" lon="10.240375">
<ele>447</ele>
<time>2019-05-29T14:22:03Z</time>
</trkpt>
<trkpt lat="49.25982" lon="10.240373">
<ele>447</ele>
<time>2019-05-29T14:22:13Z</time>
</trkpt>
<trkpt lat="49.25982" lon="10.240372">
<ele>447</ele>
<time>2019-05-29T14:23:13Z</time>
</trkpt>
<trkpt lat="49.259818" lon="10.240372">
<ele>447</ele>
<time>2019-05-29T14:23:38Z</time>
</trkpt>
<trkpt lat="49.259818" lon="10.24037">
<ele>447</ele>
<time>2019-05-29T14:24:33Z</time>
</trkpt>
<trkpt lat="49.259818" lon="10.240368">
<ele>447</ele>
<time>2019-05-29T14:24:53Z</time>
</trkpt>
<trkpt lat="49.259817" lon="10.240368">
<ele>447</ele>
<time>2019-05-29T14:25:08Z</time>
</trkpt>
<trkpt lat="49.259815" lon="10.240368">
<ele>447</ele>
<time>2019-05-29T14:25:33Z</time>
</trkpt>
<trkpt lat="49.259815" lon="10.240367">
<ele>447</ele>
<time>2019-05-29T14:25:38Z</time>
</trkpt>
<trkpt lat="49.259817" lon="10.240365">
<ele>447</ele>
<time>2019-05-29T14:25:53Z</time>
</trkpt>
<trkpt lat="49.259815" lon="10.240365">
<ele>447</ele>
<time>2019-05-29T14:26:08Z</time>
</trkpt>
<trkpt lat="49.259813" lon="10.240365">
<ele>447</ele>
<time>2019-05-29T14:26:13Z</time>
</trkpt>
<trkpt lat="49.259813" lon="10.240367">
<ele>447</ele>
<time>2019-05-29T14:26:23Z</time>
</trkpt>
<trkpt lat="49.259812" lon="10.240368">
<ele>447</ele>
<time>2019-05-29T14:26:28Z</time>
</trkpt>
<trkpt lat="49.259812" lon="10.24037">
<ele>447</ele>
<time>2019-05-29T14:26:48Z</time>
</trkpt>
<trkpt lat="49.259812" lon="10.240368">
<ele>446</ele>
<time>2019-05-29T14:27:03Z</time>
</trkpt>
<trkpt lat="49.259813" lon="10.24037">
<ele>446</ele>
<time>2019-05-29T14:27:08Z</time>
</trkpt>
<trkpt lat="49.259813" lon="10.240372">
<ele>446</ele>
<time>2019-05-29T14:27:38Z</time>
</trkpt>
<trkpt lat="49.259813" lon="10.24037">
<ele>446</ele>
<time>2019-05-29T14:27:43Z</time>
</trkpt>
<trkpt lat="49.259815" lon="10.24037">
<ele>446</ele>
<time>2019-05-29T14:28:08Z</time>
</trkpt>
<trkpt lat="49.259817" lon="10.24037">
<ele>446</ele>
<time>2019-05-29T14:28:33Z</time>
</trkpt>
<trkpt lat="49.259797" lon="10.240345">
<ele>446</ele>
<time>2019-05-29T14:28:38Z</time>
</trkpt>
<trkpt lat="49.259793" lon="10.240337">
<ele>446</ele>
<time>2019-05-29T14:28:43Z</time>
</trkpt>
<trkpt lat="49.259792" lon="10.240337">
<ele>446</ele>
<time>2019-05-29T14:28:48Z</time>
</trkpt>
<trkpt lat="49.259797" lon="10.240337">
<ele>446</ele>
<time>2019-05-29T14:28:53Z</time>
</trkpt>
<trkpt lat="49.259805" lon="10.240333">
<ele>446</ele>
<time>2019-05-29T14:28:58Z</time>
</trkpt>
<trkpt lat="49.259808" lon="10.240333">
<ele>446</ele>
<time>2019-05-29T14:29:03Z</time>
</trkpt>
<trkpt lat="49.25981" lon="10.240335">
<ele>446</ele>
<time>2019-05-29T14:29:08Z</time>
</trkpt>
<trkpt lat="49.2598" lon="10.240335">
<ele>446</ele>
<time>2019-05-29T14:29:13Z</time>
</trkpt>
<trkpt lat="49.259783" lon="10.240328">
<ele>446</ele>
<time>2019-05-29T14:29:18Z</time>
</trkpt>
<trkpt lat="49.259775" lon="10.24032">
<ele>446</ele>
<time>2019-05-29T14:29:23Z</time>
</trkpt>
<trkpt lat="49.259768" lon="10.240302">
<ele>446</ele>
<time>2019-05-29T14:29:28Z</time>
</trkpt>
<trkpt lat="49.259757" lon="10.2403">
<ele>446</ele>
<time>2019-05-29T14:29:33Z</time>
</trkpt>
<trkpt lat="49.259768" lon="10.24029">
<ele>446</ele>
<time>2019-05-29T14:29:38Z</time>
</trkpt>
<trkpt lat="49.259775" lon="10.240287">
<ele>446</ele>
<time>2019-05-29T14:29:43Z</time>
</trkpt>
<trkpt lat="49.259773" lon="10.240287">
<ele>446</ele>
<time>2019-05-29T14:29:48Z</time>
</trkpt>
<trkpt lat="49.259813" lon="10.240257">
<ele>446</ele>
<time>2019-05-29T14:29:53Z</time>
</trkpt>
<trkpt lat="49.259898" lon="10.240267">
<ele>446</ele>
<time>2019-05-29T14:29:58Z</time>
</trkpt>
<trkpt lat="49.260015" lon="10.240348">
<ele>446</ele>
<time>2019-05-29T14:30:03Z</time>
</trkpt>
<trkpt lat="49.260058" lon="10.240513">
<ele>446</ele>
<time>2019-05-29T14:30:08Z</time>
</trkpt>
<trkpt lat="49.260022" lon="10.24067">
<ele>446</ele>
<time>2019-05-29T14:30:13Z</time>
</trkpt>
<trkpt lat="49.26008" lon="10.240867">
<ele>446</ele>
<time>2019-05-29T14:30:18Z</time>
</trkpt>
<trkpt lat="49.260135" lon="10.241042">
<ele>446</ele>
<time>2019-05-29T14:30:23Z</time>
</trkpt>
<trkpt lat="49.260292" lon="10.241203">
<ele>446</ele>
<time>2019-05-29T14:30:28Z</time>
</trkpt>
<trkpt lat="49.260405" lon="10.241253">
<ele>446</ele>
<time>2019-05-29T14:30:33Z</time>
</trkpt>
<trkpt lat="49.260482" lon="10.241422">
<ele>446</ele>
<time>2019-05-29T14:30:38Z</time>
</trkpt>
<trkpt lat="49.260505" lon="10.241678">
<ele>446</ele>
<time>2019-05-29T14:30:43Z</time>
</trkpt>
<trkpt lat="49.260523" lon="10.241805">
<ele>446</ele>
<time>2019-05-29T14:30:48Z</time>
</trkpt>
<trkpt lat="49.260532" lon="10.241875">
<ele>446</ele>
<time>2019-05-29T14:30:53Z</time>
</trkpt>
<trkpt lat="49.260665" lon="10.241927">
<ele>446</ele>
<time>2019-05-29T14:30:58Z</time>
</trkpt>
<trkpt lat="49.260892" lon="10.241888">
<ele>446</ele>
<time>2019-05-29T14:31:03Z</time>
</trkpt>
<trkpt lat="49.261172" lon="10.241858">
<ele>446</ele>
<time>2019-05-29T14:31:08Z</time>
</trkpt>
<trkpt lat="49.261478" lon="10.241852">
<ele>444</ele>
<time>2019-05-29T14:31:13Z</time>
</trkpt>
<trkpt lat="49.26178" lon="10.241865">
<ele>444</ele>
<time>2019-05-29T14:31:18Z</time>
</trkpt>
<trkpt lat="49.26209" lon="10.241907">
<ele>444</ele>
<time>2019-05-29T14:31:23Z</time>
</trkpt>
<trkpt lat="49.26243" lon="10.24199">
<ele>443</ele>
<time>2019-05-29T14:31:28Z</time>
</trkpt>
<trkpt lat="49.262743" lon="10.242085">
<ele>443</ele>
<time>2019-05-29T14:31:33Z</time>
</trkpt>
<trkpt lat="49.262993" lon="10.242195">
<ele>443</ele>
<time>2019-05-29T14:31:38Z</time>
</trkpt>
<trkpt lat="49.263188" lon="10.242292">
<ele>443</ele>
<time>2019-05-29T14:31:43Z</time>
</trkpt>
<trkpt lat="49.263287" lon="10.242477">
<ele>443</ele>
<time>2019-05-29T14:31:48Z</time>
</trkpt>
<trkpt lat="49.263358" lon="10.242777">
<ele>443</ele>
<time>2019-05-29T14:31:53Z</time>
</trkpt>
<trkpt lat="49.263397" lon="10.243075">
<ele>444</ele>
<time>2019-05-29T14:31:58Z</time>
</trkpt>
<trkpt lat="49.26342" lon="10.24328">
<ele>444</ele>
<time>2019-05-29T14:32:03Z</time>
</trkpt>
<trkpt lat="49.263407" lon="10.243532">
<ele>444</ele>
<time>2019-05-29T14:32:08Z</time>
</trkpt>
<trkpt lat="49.263382" lon="10.24387">
<ele>445</ele>
<time>2019-05-29T14:32:13Z</time>
</trkpt>
<trkpt lat="49.263368" lon="10.244243">
<ele>445</ele>
<time>2019-05-29T14:32:18Z</time>
</trkpt>
<trkpt lat="49.263337" lon="10.244622">
<ele>445</ele>
<time>2019-05-29T14:32:23Z</time>
</trkpt>
<trkpt lat="49.263297" lon="10.245043">
<ele>445</ele>
<time>2019-05-29T14:32:28Z</time>
</trkpt>
<trkpt lat="49.263147" lon="10.24545">
<ele>445</ele>
<time>2019-05-29T14:32:33Z</time>
</trkpt>
<trkpt lat="49.262962" lon="10.245793">
<ele>445</ele>
<time>2019-05-29T14:32:38Z</time>
</trkpt>
<trkpt lat="49.26278" lon="10.246083">
<ele>445</ele>
<time>2019-05-29T14:32:43Z</time>
</trkpt>
<trkpt lat="49.262575" lon="10.246323">
<ele>445</ele>
<time>2019-05-29T14:32:48Z</time>
</trkpt>
<trkpt lat="49.262353" lon="10.24654">
<ele>444</ele>
<time>2019-05-29T14:32:53Z</time>
</trkpt>
<trkpt lat="49.262387" lon="10.24699">
<ele>443</ele>
<time>2019-05-29T14:32:58Z</time>
</trkpt>
<trkpt lat="49.262478" lon="10.247472">
<ele>442</ele>
<time>2019-05-29T14:33:03Z</time>
</trkpt>
<trkpt lat="49.262528" lon="10.247937">
<ele>442</ele>
<time>2019-05-29T14:33:08Z</time>
</trkpt>
<trkpt lat="49.262637" lon="10.248295">
<ele>442</ele>
<time>2019-05-29T14:33:13Z</time>
</trkpt>
<trkpt lat="49.262882" lon="10.248383">
<ele>442</ele>
<time>2019-05-29T14:33:18Z</time>
</trkpt>
<trkpt lat="49.263137" lon="10.248227">
<ele>442</ele>
<time>2019-05-29T14:33:23Z</time>
</trkpt>
<trkpt lat="49.263358" lon="10.24809">
<ele>442</ele>
<time>2019-05-29T14:33:28Z</time>
</trkpt>
<trkpt lat="49.263543" lon="10.24807">
<ele>443</ele>
<time>2019-05-29T14:33:33Z</time>
</trkpt>
<trkpt lat="49.263678" lon="10.248167">
<ele>444</ele>
<time>2019-05-29T14:33:38Z</time>
</trkpt>
<trkpt lat="49.263803" lon="10.248292">
<ele>445</ele>
<time>2019-05-29T14:33:43Z</time>
</trkpt>
<trkpt lat="49.263913" lon="10.248415">
<ele>446</ele>
<time>2019-05-29T14:33:48Z</time>
</trkpt>
<trkpt lat="49.264028" lon="10.248568">
<ele>447</ele>
<time>2019-05-29T14:33:53Z</time>
</trkpt>
<trkpt lat="49.264148" lon="10.248772">
<ele>448</ele>
<time>2019-05-29T14:33:58Z</time>
</trkpt>
<trkpt lat="49.264307" lon="10.248942">
<ele>448</ele>
<time>2019-05-29T14:34:03Z</time>
</trkpt>
<trkpt lat="49.2645" lon="10.248955">
<ele>448</ele>
<time>2019-05-29T14:34:08Z</time>
</trkpt>
<trkpt lat="49.264667" lon="10.248887">
<ele>449</ele>
<time>2019-05-29T14:34:13Z</time>
</trkpt>
<trkpt lat="49.264807" lon="10.248805">
<ele>449</ele>
<time>2019-05-29T14:34:18Z</time>
</trkpt>
<trkpt lat="49.264953" lon="10.248728">
<ele>450</ele>
<time>2019-05-29T14:34:23Z</time>
</trkpt>
<trkpt lat="49.265112" lon="10.248663">
<ele>451</ele>
<time>2019-05-29T14:34:28Z</time>
</trkpt>
<trkpt lat="49.26518" lon="10.248503">
<ele>451</ele>
<time>2019-05-29T14:34:33Z</time>
</trkpt>
<trkpt lat="49.265213" lon="10.248122">
<ele>451</ele>
<time>2019-05-29T14:34:38Z</time>
</trkpt>
<trkpt lat="49.265522" lon="10.247977">
<ele>450</ele>
<time>2019-05-29T14:34:43Z</time>
</trkpt>
<trkpt lat="49.265787" lon="10.24787">
<ele>450</ele>
<time>2019-05-29T14:34:48Z</time>
</trkpt>
<trkpt lat="49.266048" lon="10.247827">
<ele>450</ele>
<time>2019-05-29T14:34:53Z</time>
</trkpt>
<trkpt lat="49.266338" lon="10.247835">
<ele>450</ele>
<time>2019-05-29T14:34:58Z</time>
</trkpt>
<trkpt lat="49.266618" lon="10.247873">
<ele>450</ele>
<time>2019-05-29T14:35:03Z</time>
</trkpt>
<trkpt lat="49.266907" lon="10.247953">
<ele>450</ele>
<time>2019-05-29T14:35:08Z</time>
</trkpt>
<trkpt lat="49.267158" lon="10.248033">
<ele>450</ele>
<time>2019-05-29T14:35:13Z</time>
</trkpt>
<trkpt lat="49.267393" lon="10.24813">
<ele>450</ele>
<time>2019-05-29T14:35:18Z</time>
</trkpt>
<trkpt lat="49.267625" lon="10.248238">
<ele>450</ele>
<time>2019-05-29T14:35:23Z</time>
</trkpt>
<trkpt lat="49.267868" lon="10.24835">
<ele>450</ele>
<time>2019-05-29T14:35:28Z</time>
</trkpt>
<trkpt lat="49.268097" lon="10.248452">
<ele>450</ele>
<time>2019-05-29T14:35:33Z</time>
</trkpt>
<trkpt lat="49.268307" lon="10.248528">
<ele>450</ele>
<time>2019-05-29T14:35:38Z</time>
</trkpt>
<trkpt lat="49.268543" lon="10.24863">
<ele>450</ele>
<time>2019-05-29T14:35:44Z</time>
</trkpt>
<trkpt lat="49.268802" lon="10.248738">
<ele>450</ele>
<time>2019-05-29T14:35:50Z</time>
</trkpt>
<trkpt lat="49.26903" lon="10.248845">
<ele>450</ele>
<time>2019-05-29T14:35:55Z</time>
</trkpt>
<trkpt lat="49.269255" lon="10.248955">
<ele>450</ele>
<time>2019-05-29T14:36:00Z</time>
</trkpt>
<trkpt lat="49.269508" lon="10.249082">
<ele>450</ele>
<time>2019-05-29T14:36:05Z</time>
</trkpt>
<trkpt lat="49.269775" lon="10.249183">
<ele>450</ele>
<time>2019-05-29T14:36:11Z</time>
</trkpt>
<trkpt lat="49.270032" lon="10.249258">
<ele>451</ele>
<time>2019-05-29T14:36:17Z</time>
</trkpt>
<trkpt lat="49.270298" lon="10.249318">
<ele>451</ele>
<time>2019-05-29T14:36:23Z</time>
</trkpt>
<trkpt lat="49.27058" lon="10.24936">
<ele>451</ele>
<time>2019-05-29T14:36:29Z</time>
</trkpt>
<trkpt lat="49.270853" lon="10.249382">
<ele>451</ele>
<time>2019-05-29T14:36:35Z</time>
</trkpt>
<trkpt lat="49.271077" lon="10.24939">
<ele>451</ele>
<time>2019-05-29T14:36:40Z</time>
</trkpt>
<trkpt lat="49.271345" lon="10.24939">
<ele>451</ele>
<time>2019-05-29T14:36:46Z</time>
</trkpt>
<trkpt lat="49.271658" lon="10.249387">
<ele>451</ele>
<time>2019-05-29T14:36:52Z</time>
</trkpt>
<trkpt lat="49.271958" lon="10.249467">
<ele>449</ele>
<time>2019-05-29T14:36:57Z</time>
</trkpt>
<trkpt lat="49.272253" lon="10.249712">
<ele>449</ele>
<time>2019-05-29T14:37:02Z</time>
</trkpt>
<trkpt lat="49.272562" lon="10.25008">
<ele>449</ele>
<time>2019-05-29T14:37:08Z</time>
</trkpt>
<trkpt lat="49.27276" lon="10.250295">
<ele>449</ele>
<time>2019-05-29T14:37:13Z</time>
</trkpt>
<trkpt lat="49.27293" lon="10.250215">
<ele>449</ele>
<time>2019-05-29T14:37:18Z</time>
</trkpt>
<trkpt lat="49.273142" lon="10.250117">
<ele>449</ele>
<time>2019-05-29T14:37:23Z</time>
</trkpt>
<trkpt lat="49.273415" lon="10.249957">
<ele>449</ele>
<time>2019-05-29T14:37:29Z</time>
</trkpt>
<trkpt lat="49.273615" lon="10.24979">
<ele>450</ele>
<time>2019-05-29T14:37:35Z</time>
</trkpt>
<trkpt lat="49.273748" lon="10.249658">
<ele>452</ele>
<time>2019-05-29T14:37:40Z</time>
</trkpt>
<trkpt lat="49.273878" lon="10.249527">
<ele>453</ele>
<time>2019-05-29T14:37:45Z</time>
</trkpt>
<trkpt lat="49.274007" lon="10.249385">
<ele>453</ele>
<time>2019-05-29T14:37:50Z</time>
</trkpt>
<trkpt lat="49.274242" lon="10.249312">
<ele>454</ele>
<time>2019-05-29T14:37:56Z</time>
</trkpt>
<trkpt lat="49.274477" lon="10.24925">
<ele>454</ele>
<time>2019-05-29T14:38:01Z</time>
</trkpt>
<trkpt lat="49.274695" lon="10.249162">
<ele>454</ele>
<time>2019-05-29T14:38:06Z</time>
</trkpt>
<trkpt lat="49.274895" lon="10.249045">
<ele>454</ele>
<time>2019-05-29T14:38:11Z</time>
</trkpt>
<trkpt lat="49.275088" lon="10.24891">
<ele>455</ele>
<time>2019-05-29T14:38:16Z</time>
</trkpt>
<trkpt lat="49.275317" lon="10.248733">
<ele>456</ele>
<time>2019-05-29T14:38:22Z</time>
</trkpt>
<trkpt lat="49.275503" lon="10.248592">
<ele>456</ele>
<time>2019-05-29T14:38:27Z</time>
</trkpt>
<trkpt lat="49.275685" lon="10.248447">
<ele>457</ele>
<time>2019-05-29T14:38:32Z</time>
</trkpt>
<trkpt lat="49.275847" lon="10.248277">
<ele>457</ele>
<time>2019-05-29T14:38:37Z</time>
</trkpt>
<trkpt lat="49.276032" lon="10.24813">
<ele>457</ele>
<time>2019-05-29T14:38:43Z</time>
</trkpt>
<trkpt lat="49.27616" lon="10.248053">
<ele>457</ele>
<time>2019-05-29T14:38:48Z</time>
</trkpt>
<trkpt lat="49.276287" lon="10.247962">
<ele>458</ele>
<time>2019-05-29T14:38:53Z</time>
</trkpt>
<trkpt lat="49.27635" lon="10.247897">
<ele>459</ele>
<time>2019-05-29T14:38:59Z</time>
</trkpt>
<trkpt lat="49.27635" lon="10.247885">
<ele>459</ele>
<time>2019-05-29T14:39:05Z</time>
</trkpt>
<trkpt lat="49.27647" lon="10.247797">
<ele>459</ele>
<time>2019-05-29T14:39:11Z</time>
</trkpt>
<trkpt lat="49.276647" lon="10.247923">
<ele>459</ele>
<time>2019-05-29T14:39:16Z</time>
</trkpt>
<trkpt lat="49.276885" lon="10.24803">
<ele>459</ele>
<time>2019-05-29T14:39:22Z</time>
</trkpt>
<trkpt lat="49.277022" lon="10.248028">
<ele>459</ele>
<time>2019-05-29T14:39:27Z</time>
</trkpt>
<trkpt lat="49.277203" lon="10.248095">
<ele>459</ele>
<time>2019-05-29T14:39:32Z</time>
</trkpt>
<trkpt lat="49.27743" lon="10.248148">
<ele>459</ele>
<time>2019-05-29T14:39:37Z</time>
</trkpt>
<trkpt lat="49.277617" lon="10.248168">
<ele>460</ele>
<time>2019-05-29T14:39:42Z</time>
</trkpt>
<trkpt lat="49.277817" lon="10.248215">
<ele>460</ele>
<time>2019-05-29T14:39:47Z</time>
</trkpt>
<trkpt lat="49.27804" lon="10.248283">
<ele>461</ele>
<time>2019-05-29T14:39:53Z</time>
</trkpt>
<trkpt lat="49.278267" lon="10.248378">
<ele>462</ele>
<time>2019-05-29T14:39:59Z</time>
</trkpt>
<trkpt lat="49.278462" lon="10.248473">
<ele>463</ele>
<time>2019-05-29T14:40:05Z</time>
</trkpt>
<trkpt lat="49.27868" lon="10.248578">
<ele>464</ele>
<time>2019-05-29T14:40:11Z</time>
</trkpt>
<trkpt lat="49.278853" lon="10.248717">
<ele>464</ele>
<time>2019-05-29T14:40:16Z</time>
</trkpt>
<trkpt lat="49.279082" lon="10.248872">
<ele>465</ele>
<time>2019-05-29T14:40:22Z</time>
</trkpt>
<trkpt lat="49.279258" lon="10.249007">
<ele>465</ele>
<time>2019-05-29T14:40:27Z</time>
</trkpt>
<trkpt lat="49.279435" lon="10.249173">
<ele>466</ele>
<time>2019-05-29T14:40:32Z</time>
</trkpt>
<trkpt lat="49.279612" lon="10.24935">
<ele>466</ele>
<time>2019-05-29T14:40:37Z</time>
</trkpt>
<trkpt lat="49.279773" lon="10.24953">
<ele>467</ele>
<time>2019-05-29T14:40:42Z</time>
</trkpt>
<trkpt lat="49.279918" lon="10.24971">
<ele>467</ele>
<time>2019-05-29T14:40:47Z</time>
</trkpt>
<trkpt lat="49.2801" lon="10.249953">
<ele>468</ele>
<time>2019-05-29T14:40:53Z</time>
</trkpt>
<trkpt lat="49.280283" lon="10.250197">
<ele>468</ele>
<time>2019-05-29T14:40:59Z</time>
</trkpt>
<trkpt lat="49.280435" lon="10.250422">
<ele>468</ele>
<time>2019-05-29T14:41:04Z</time>
</trkpt>
<trkpt lat="49.280548" lon="10.250667">
<ele>468</ele>
<time>2019-05-29T14:41:09Z</time>
</trkpt>
<trkpt lat="49.280687" lon="10.250993">
<ele>468</ele>
<time>2019-05-29T14:41:15Z</time>
</trkpt>
<trkpt lat="49.280778" lon="10.251285">
<ele>468</ele>
<time>2019-05-29T14:41:20Z</time>
</trkpt>
<trkpt lat="49.28086" lon="10.251603">
<ele>468</ele>
<time>2019-05-29T14:41:25Z</time>
</trkpt>
<trkpt lat="49.28099" lon="10.25193">
<ele>468</ele>
<time>2019-05-29T14:41:30Z</time>
</trkpt>
<trkpt lat="49.281173" lon="10.252268">
<ele>468</ele>
<time>2019-05-29T14:41:35Z</time>
</trkpt>
<trkpt lat="49.281458" lon="10.252655">
<ele>467</ele>
<time>2019-05-29T14:41:41Z</time>
</trkpt>
<trkpt lat="49.281752" lon="10.253062">
<ele>467</ele>
<time>2019-05-29T14:41:47Z</time>
</trkpt>
<trkpt lat="49.281975" lon="10.253453">
<ele>466</ele>
<time>2019-05-29T14:41:52Z</time>
</trkpt>
<trkpt lat="49.282148" lon="10.25401">
<ele>465</ele>
<time>2019-05-29T14:41:58Z</time>
</trkpt>
<trkpt lat="49.28226" lon="10.254458">
<ele>465</ele>
<time>2019-05-29T14:42:03Z</time>
</trkpt>
<trkpt lat="49.282397" lon="10.254908">
<ele>466</ele>
<time>2019-05-29T14:42:09Z</time>
</trkpt>
<trkpt lat="49.28252" lon="10.255192">
<ele>468</ele>
<time>2019-05-29T14:42:14Z</time>
</trkpt>
<trkpt lat="49.282637" lon="10.255435">
<ele>469</ele>
<time>2019-05-29T14:42:19Z</time>
</trkpt>
<trkpt lat="49.282748" lon="10.255655">
<ele>469</ele>
<time>2019-05-29T14:42:24Z</time>
</trkpt>
<trkpt lat="49.282838" lon="10.25587">
<ele>470</ele>
<time>2019-05-29T14:42:29Z</time>
</trkpt>
<trkpt lat="49.282953" lon="10.25608">
<ele>470</ele>
<time>2019-05-29T14:42:34Z</time>
</trkpt>
<trkpt lat="49.283135" lon="10.256297">
<ele>470</ele>
<time>2019-05-29T14:42:39Z</time>
</trkpt>
<trkpt lat="49.283368" lon="10.256465">
<ele>469</ele>
<time>2019-05-29T14:42:44Z</time>
</trkpt>
<trkpt lat="49.283602" lon="10.256658">
<ele>468</ele>
<time>2019-05-29T14:42:49Z</time>
</trkpt>
<trkpt lat="49.283767" lon="10.256993">
<ele>468</ele>
<time>2019-05-29T14:42:54Z</time>
</trkpt>
<trkpt lat="49.283933" lon="10.257252">
<ele>468</ele>
<time>2019-05-29T14:42:59Z</time>
</trkpt>
<trkpt lat="49.284115" lon="10.257483">
<ele>468</ele>
<time>2019-05-29T14:43:04Z</time>
</trkpt>
<trkpt lat="49.284295" lon="10.25767">
<ele>468</ele>
<time>2019-05-29T14:43:09Z</time>
</trkpt>
<trkpt lat="49.28446" lon="10.257823">
<ele>469</ele>
<time>2019-05-29T14:43:14Z</time>
</trkpt>
<trkpt lat="49.284627" lon="10.25795">
<ele>469</ele>
<time>2019-05-29T14:43:19Z</time>
</trkpt>
<trkpt lat="49.284773" lon="10.258137">
<ele>469</ele>
<time>2019-05-29T14:43:24Z</time>
</trkpt>
<trkpt lat="49.284933" lon="10.258283">
<ele>470</ele>
<time>2019-05-29T14:43:29Z</time>
</trkpt>
<trkpt lat="49.285048" lon="10.258415">
<ele>471</ele>
<time>2019-05-29T14:43:34Z</time>
</trkpt>
<trkpt lat="49.285162" lon="10.258543">
<ele>473</ele>
<time>2019-05-29T14:43:39Z</time>
</trkpt>
<trkpt lat="49.2853" lon="10.258687">
<ele>474</ele>
<time>2019-05-29T14:43:44Z</time>
</trkpt>
<trkpt lat="49.285435" lon="10.258813">
<ele>475</ele>
<time>2019-05-29T14:43:49Z</time>
</trkpt>
<trkpt lat="49.285573" lon="10.258952">
<ele>475</ele>
<time>2019-05-29T14:43:54Z</time>
</trkpt>
<trkpt lat="49.285762" lon="10.25909">
<ele>476</ele>
<time>2019-05-29T14:44:00Z</time>
</trkpt>
<trkpt lat="49.285915" lon="10.259235">
<ele>477</ele>
<time>2019-05-29T14:44:05Z</time>
</trkpt>
<trkpt lat="49.286067" lon="10.259388">
<ele>477</ele>
<time>2019-05-29T14:44:10Z</time>
</trkpt>
<trkpt lat="49.286213" lon="10.259538">
<ele>477</ele>
<time>2019-05-29T14:44:15Z</time>
</trkpt>
<trkpt lat="49.286348" lon="10.2597">
<ele>478</ele>
<time>2019-05-29T14:44:20Z</time>
</trkpt>
<trkpt lat="49.286465" lon="10.259845">
<ele>478</ele>
<time>2019-05-29T14:44:26Z</time>
</trkpt>
<trkpt lat="49.2866" lon="10.259873">
<ele>479</ele>
<time>2019-05-29T14:44:31Z</time>
</trkpt>
<trkpt lat="49.2868" lon="10.259843">
<ele>479</ele>
<time>2019-05-29T14:44:37Z</time>
</trkpt>
<trkpt lat="49.287042" lon="10.25987">
<ele>479</ele>
<time>2019-05-29T14:44:42Z</time>
</trkpt>
<trkpt lat="49.287363" lon="10.259955">
<ele>477</ele>
<time>2019-05-29T14:44:47Z</time>
</trkpt>
<trkpt lat="49.287655" lon="10.259968">
<ele>476</ele>
<time>2019-05-29T14:44:52Z</time>
</trkpt>
<trkpt lat="49.287967" lon="10.259773">
<ele>476</ele>
<time>2019-05-29T14:44:57Z</time>
</trkpt>
<trkpt lat="49.288375" lon="10.25938">
<ele>472</ele>
<time>2019-05-29T14:45:03Z</time>
</trkpt>
<trkpt lat="49.288393" lon="10.258745">
<ele>470</ele>
<time>2019-05-29T14:45:08Z</time>
</trkpt>
<trkpt lat="49.288428" lon="10.258232">
<ele>470</ele>
<time>2019-05-29T14:45:13Z</time>
</trkpt>
<trkpt lat="49.288528" lon="10.25784">
<ele>472</ele>
<time>2019-05-29T14:45:19Z</time>
</trkpt>
<trkpt lat="49.2886" lon="10.257553">
<ele>474</ele>
<time>2019-05-29T14:45:24Z</time>
</trkpt>
<trkpt lat="49.28869" lon="10.257222">
<ele>475</ele>
<time>2019-05-29T14:45:30Z</time>
</trkpt>
<trkpt lat="49.28878" lon="10.256945">
<ele>476</ele>
<time>2019-05-29T14:45:35Z</time>
</trkpt>
<trkpt lat="49.288867" lon="10.256668">
<ele>478</ele>
<time>2019-05-29T14:45:40Z</time>
</trkpt>
<trkpt lat="49.288975" lon="10.256327">
<ele>478</ele>
<time>2019-05-29T14:45:46Z</time>
</trkpt>
<trkpt lat="49.289077" lon="10.256077">
<ele>479</ele>
<time>2019-05-29T14:45:51Z</time>
</trkpt>
<trkpt lat="49.289215" lon="10.255822">
<ele>480</ele>
<time>2019-05-29T14:45:57Z</time>
</trkpt>
<trkpt lat="49.289412" lon="10.255672">
<ele>481</ele>
<time>2019-05-29T14:46:03Z</time>
</trkpt>
<trkpt lat="49.289592" lon="10.25556">
<ele>482</ele>
<time>2019-05-29T14:46:08Z</time>
</trkpt>
<trkpt lat="49.289772" lon="10.255485">
<ele>483</ele>
<time>2019-05-29T14:46:13Z</time>
</trkpt>
<trkpt lat="49.289942" lon="10.25542">
<ele>484</ele>
<time>2019-05-29T14:46:18Z</time>
</trkpt>
<trkpt lat="49.2901" lon="10.255357">
<ele>484</ele>
<time>2019-05-29T14:46:23Z</time>
</trkpt>
<trkpt lat="49.290255" lon="10.255295">
<ele>484</ele>
<time>2019-05-29T14:46:28Z</time>
</trkpt>
<trkpt lat="49.290407" lon="10.255207">
<ele>485</ele>
<time>2019-05-29T14:46:33Z</time>
</trkpt>
<trkpt lat="49.290548" lon="10.255173">
<ele>485</ele>
<time>2019-05-29T14:46:38Z</time>
</trkpt>
<trkpt lat="49.290705" lon="10.255192">
<ele>485</ele>
<time>2019-05-29T14:46:43Z</time>
</trkpt>
<trkpt lat="49.290925" lon="10.255225">
<ele>485</ele>
<time>2019-05-29T14:46:48Z</time>
</trkpt>
<trkpt lat="49.29122" lon="10.255268">
<ele>484</ele>
<time>2019-05-29T14:46:53Z</time>
</trkpt>
<trkpt lat="49.291577" lon="10.255423">
<ele>482</ele>
<time>2019-05-29T14:46:58Z</time>
</trkpt>
<trkpt lat="49.291885" lon="10.25554">
<ele>479</ele>
<time>2019-05-29T14:47:03Z</time>
</trkpt>
<trkpt lat="49.292192" lon="10.255527">
<ele>478</ele>
<time>2019-05-29T14:47:08Z</time>
</trkpt>
<trkpt lat="49.292478" lon="10.255523">
<ele>477</ele>
<time>2019-05-29T14:47:13Z</time>
</trkpt>
<trkpt lat="49.292655" lon="10.25554">
<ele>476</ele>
<time>2019-05-29T14:47:18Z</time>
</trkpt>
<trkpt lat="49.292675" lon="10.255558">
<ele>476</ele>
<time>2019-05-29T14:47:23Z</time>
</trkpt>
<trkpt lat="49.292678" lon="10.255563">
<ele>475</ele>
<time>2019-05-29T14:47:28Z</time>
</trkpt>
<trkpt lat="49.29268" lon="10.255563">
<ele>475</ele>
<time>2019-05-29T14:47:39Z</time>
</trkpt>
<trkpt lat="49.292682" lon="10.25556">
<ele>475</ele>
<time>2019-05-29T14:47:44Z</time>
</trkpt>
<trkpt lat="49.292697" lon="10.255538">
<ele>475</ele>
<time>2019-05-29T14:47:49Z</time>
</trkpt>
<trkpt lat="49.292628" lon="10.255493">
<ele>475</ele>
<time>2019-05-29T14:47:54Z</time>
</trkpt>
<trkpt lat="49.29248" lon="10.255487">
<ele>475</ele>
<time>2019-05-29T14:47:59Z</time>
</trkpt>
<trkpt lat="49.292282" lon="10.25546">
<ele>476</ele>
<time>2019-05-29T14:48:04Z</time>
</trkpt>
<trkpt lat="49.292075" lon="10.255467">
<ele>476</ele>
<time>2019-05-29T14:48:09Z</time>
</trkpt>
<trkpt lat="49.291868" lon="10.255553">
<ele>477</ele>
<time>2019-05-29T14:48:14Z</time>
</trkpt>
<trkpt lat="49.291742" lon="10.255753">
<ele>478</ele>
<time>2019-05-29T14:48:19Z</time>
</trkpt>
<trkpt lat="49.291662" lon="10.256002">
<ele>479</ele>
<time>2019-05-29T14:48:24Z</time>
</trkpt>
<trkpt lat="49.291617" lon="10.256262">
<ele>479</ele>
<time>2019-05-29T14:48:29Z</time>
</trkpt>
<trkpt lat="49.291577" lon="10.256523">
<ele>480</ele>
<time>2019-05-29T14:48:34Z</time>
</trkpt>
<trkpt lat="49.291547" lon="10.25676">
<ele>480</ele>
<time>2019-05-29T14:48:39Z</time>
</trkpt>
<trkpt lat="49.29152" lon="10.257088">
<ele>480</ele>
<time>2019-05-29T14:48:44Z</time>
</trkpt>
<trkpt lat="49.291513" lon="10.257458">
<ele>480</ele>
<time>2019-05-29T14:48:49Z</time>
</trkpt>
<trkpt lat="49.291562" lon="10.25792">
<ele>480</ele>
<time>2019-05-29T14:48:55Z</time>
</trkpt>
<trkpt lat="49.291647" lon="10.258278">
<ele>480</ele>
<time>2019-05-29T14:49:00Z</time>
</trkpt>
<trkpt lat="49.291733" lon="10.25861">
<ele>479</ele>
<time>2019-05-29T14:49:05Z</time>
</trkpt>
<trkpt lat="49.291818" lon="10.258955">
<ele>479</ele>
<time>2019-05-29T14:49:10Z</time>
</trkpt>
<trkpt lat="49.291925" lon="10.259335">
<ele>478</ele>
<time>2019-05-29T14:49:15Z</time>
</trkpt>
<trkpt lat="49.292048" lon="10.259768">
<ele>477</ele>
<time>2019-05-29T14:49:20Z</time>
</trkpt>
<trkpt lat="49.29216" lon="10.260358">
<ele>475</ele>
<time>2019-05-29T14:49:25Z</time>
</trkpt>
<trkpt lat="49.292067" lon="10.261103">
<ele>472</ele>
<time>2019-05-29T14:49:31Z</time>
</trkpt>
<trkpt lat="49.292038" lon="10.261637">
<ele>472</ele>
<time>2019-05-29T14:49:36Z</time>
</trkpt>
<trkpt lat="49.292108" lon="10.26209">
<ele>473</ele>
<time>2019-05-29T14:49:41Z</time>
</trkpt>
<trkpt lat="49.29227" lon="10.262435">
<ele>475</ele>
<time>2019-05-29T14:49:46Z</time>
</trkpt>
<trkpt lat="49.292448" lon="10.26275">
<ele>476</ele>
<time>2019-05-29T14:49:51Z</time>
</trkpt>
<trkpt lat="49.292695" lon="10.263217">
<ele>476</ele>
<time>2019-05-29T14:49:57Z</time>
</trkpt>
<trkpt lat="49.292897" lon="10.26369">
<ele>474</ele>
<time>2019-05-29T14:50:03Z</time>
</trkpt>
<trkpt lat="49.293078" lon="10.264053">
<ele>474</ele>
<time>2019-05-29T14:50:08Z</time>
</trkpt>
<trkpt lat="49.293275" lon="10.26438">
<ele>474</ele>
<time>2019-05-29T14:50:13Z</time>
</trkpt>
<trkpt lat="49.293498" lon="10.264703">
<ele>474</ele>
<time>2019-05-29T14:50:18Z</time>
</trkpt>
<trkpt lat="49.293777" lon="10.265112">
<ele>471</ele>
<time>2019-05-29T14:50:23Z</time>
</trkpt>
<trkpt lat="49.294053" lon="10.265548">
<ele>469</ele>
<time>2019-05-29T14:50:28Z</time>
</trkpt>
<trkpt lat="49.294315" lon="10.265963">
<ele>467</ele>
<time>2019-05-29T14:50:33Z</time>
</trkpt>
<trkpt lat="49.294618" lon="10.266442">
<ele>467</ele>
<time>2019-05-29T14:50:39Z</time>
</trkpt>
<trkpt lat="49.29486" lon="10.266873">
<ele>465</ele>
<time>2019-05-29T14:50:44Z</time>
</trkpt>
<trkpt lat="49.295092" lon="10.267475">
<ele>463</ele>
<time>2019-05-29T14:50:50Z</time>
</trkpt>
<trkpt lat="49.295237" lon="10.268187">
<ele>463</ele>
<time>2019-05-29T14:50:56Z</time>
</trkpt>
<trkpt lat="49.295255" lon="10.268878">
<ele>463</ele>
<time>2019-05-29T14:51:02Z</time>
</trkpt>
<trkpt lat="49.295273" lon="10.269375">
<ele>462</ele>
<time>2019-05-29T14:51:07Z</time>
</trkpt>
<trkpt lat="49.295253" lon="10.269922">
<ele>462</ele>
<time>2019-05-29T14:51:13Z</time>
</trkpt>
<trkpt lat="49.29518" lon="10.270405">
<ele>462</ele>
<time>2019-05-29T14:51:19Z</time>
</trkpt>
<trkpt lat="49.295135" lon="10.270845">
<ele>463</ele>
<time>2019-05-29T14:51:25Z</time>
</trkpt>
<trkpt lat="49.295108" lon="10.271298">
<ele>463</ele>
<time>2019-05-29T14:51:31Z</time>
</trkpt>
<trkpt lat="49.295088" lon="10.271665">
<ele>463</ele>
<time>2019-05-29T14:51:36Z</time>
</trkpt>
<trkpt lat="49.295053" lon="10.271963">
<ele>462</ele>
<time>2019-05-29T14:51:41Z</time>
</trkpt>
<trkpt lat="49.295175" lon="10.272153">
<ele>462</ele>
<time>2019-05-29T14:51:46Z</time>
</trkpt>
<trkpt lat="49.29547" lon="10.272365">
<ele>461</ele>
<time>2019-05-29T14:51:52Z</time>
</trkpt>
<trkpt lat="49.295773" lon="10.272542">
<ele>460</ele>
<time>2019-05-29T14:51:57Z</time>
</trkpt>
<trkpt lat="49.29611" lon="10.272637">
<ele>458</ele>
<time>2019-05-29T14:52:02Z</time>
</trkpt>
<trkpt lat="49.29647" lon="10.272647">
<ele>458</ele>
<time>2019-05-29T14:52:07Z</time>
</trkpt>
<trkpt lat="49.296907" lon="10.27264">
<ele>458</ele>
<time>2019-05-29T14:52:13Z</time>
</trkpt>
<trkpt lat="49.297272" lon="10.272635">
<ele>456</ele>
<time>2019-05-29T14:52:18Z</time>
</trkpt>
<trkpt lat="49.297663" lon="10.272623">
<ele>454</ele>
<time>2019-05-29T14:52:23Z</time>
</trkpt>
<trkpt lat="49.298065" lon="10.272615">
<ele>453</ele>
<time>2019-05-29T14:52:28Z</time>
</trkpt>
<trkpt lat="49.29852" lon="10.272567">
<ele>451</ele>
<time>2019-05-29T14:52:34Z</time>
</trkpt>
<trkpt lat="49.298867" lon="10.272445">
<ele>451</ele>
<time>2019-05-29T14:52:39Z</time>
</trkpt>
<trkpt lat="49.299177" lon="10.272265">
<ele>451</ele>
<time>2019-05-29T14:52:44Z</time>
</trkpt>
<trkpt lat="49.29947" lon="10.272052">
<ele>451</ele>
<time>2019-05-29T14:52:49Z</time>
</trkpt>
<trkpt lat="49.299735" lon="10.27187">
<ele>452</ele>
<time>2019-05-29T14:52:54Z</time>
</trkpt>
<trkpt lat="49.29997" lon="10.27169">
<ele>452</ele>
<time>2019-05-29T14:52:59Z</time>
</trkpt>
<trkpt lat="49.300202" lon="10.271543">
<ele>452</ele>
<time>2019-05-29T14:53:04Z</time>
</trkpt>
<trkpt lat="49.300427" lon="10.271407">
<ele>452</ele>
<time>2019-05-29T14:53:09Z</time>
</trkpt>
<trkpt lat="49.300668" lon="10.271385">
<ele>452</ele>
<time>2019-05-29T14:53:14Z</time>
</trkpt>
<trkpt lat="49.30095" lon="10.271557">
<ele>452</ele>
<time>2019-05-29T14:53:20Z</time>
</trkpt>
<trkpt lat="49.301178" lon="10.271892">
<ele>452</ele>
<time>2019-05-29T14:53:26Z</time>
</trkpt>
<trkpt lat="49.301265" lon="10.272332">
<ele>452</ele>
<time>2019-05-29T14:53:32Z</time>
</trkpt>
<trkpt lat="49.301263" lon="10.272695">
<ele>451</ele>
<time>2019-05-29T14:53:37Z</time>
</trkpt>
<trkpt lat="49.301283" lon="10.273107">
<ele>451</ele>
<time>2019-05-29T14:53:43Z</time>
</trkpt>
<trkpt lat="49.301327" lon="10.273552">
<ele>451</ele>
<time>2019-05-29T14:53:48Z</time>
</trkpt>
<trkpt lat="49.301512" lon="10.274115">
<ele>447</ele>
<time>2019-05-29T14:53:53Z</time>
</trkpt>
<trkpt lat="49.301793" lon="10.274888">
<ele>445</ele>
<time>2019-05-29T14:53:59Z</time>
</trkpt>
<trkpt lat="49.301983" lon="10.275645">
<ele>443</ele>
<time>2019-05-29T14:54:05Z</time>
</trkpt>
<trkpt lat="49.302033" lon="10.27618">
<ele>443</ele>
<time>2019-05-29T14:54:10Z</time>
</trkpt>
<trkpt lat="49.302062" lon="10.276668">
<ele>445</ele>
<time>2019-05-29T14:54:15Z</time>
</trkpt>
<trkpt lat="49.302095" lon="10.277138">
<ele>446</ele>
<time>2019-05-29T14:54:20Z</time>
</trkpt>
<trkpt lat="49.302133" lon="10.277617">
<ele>446</ele>
<time>2019-05-29T14:54:25Z</time>
</trkpt>
<trkpt lat="49.30218" lon="10.278103">
<ele>446</ele>
<time>2019-05-29T14:54:30Z</time>
</trkpt>
<trkpt lat="49.302233" lon="10.278623">
<ele>445</ele>
<time>2019-05-29T14:54:35Z</time>
</trkpt>
<trkpt lat="49.302317" lon="10.279348">
<ele>441</ele>
<time>2019-05-29T14:54:41Z</time>
</trkpt>
<trkpt lat="49.302375" lon="10.280058">
<ele>441</ele>
<time>2019-05-29T14:54:47Z</time>
</trkpt>
<trkpt lat="49.302273" lon="10.280463">
<ele>440</ele>
<time>2019-05-29T14:54:52Z</time>
</trkpt>
<trkpt lat="49.30231" lon="10.28081">
<ele>440</ele>
<time>2019-05-29T14:54:57Z</time>
</trkpt>
<trkpt lat="49.302548" lon="10.28103">
<ele>440</ele>
<time>2019-05-29T14:55:02Z</time>
</trkpt>
<trkpt lat="49.302837" lon="10.281338">
<ele>440</ele>
<time>2019-05-29T14:55:08Z</time>
</trkpt>
<trkpt lat="49.303065" lon="10.281657">
<ele>440</ele>
<time>2019-05-29T14:55:13Z</time>
</trkpt>
<trkpt lat="49.303307" lon="10.282003">
<ele>440</ele>
<time>2019-05-29T14:55:18Z</time>
</trkpt>
<trkpt lat="49.303553" lon="10.282355">
<ele>439</ele>
<time>2019-05-29T14:55:23Z</time>
</trkpt>
<trkpt lat="49.30385" lon="10.282807">
<ele>438</ele>
<time>2019-05-29T14:55:29Z</time>
</trkpt>
<trkpt lat="49.304172" lon="10.283257">
<ele>436</ele>
<time>2019-05-29T14:55:35Z</time>
</trkpt>
<trkpt lat="49.304512" lon="10.28365">
<ele>436</ele>
<time>2019-05-29T14:55:41Z</time>
</trkpt>
<trkpt lat="49.304798" lon="10.283935">
<ele>434</ele>
<time>2019-05-29T14:55:46Z</time>
</trkpt>
<trkpt lat="49.305103" lon="10.284238">
<ele>434</ele>
<time>2019-05-29T14:55:51Z</time>
</trkpt>
<trkpt lat="49.305448" lon="10.284567">
<ele>433</ele>
<time>2019-05-29T14:55:56Z</time>
</trkpt>
<trkpt lat="49.305787" lon="10.284922">
<ele>432</ele>
<time>2019-05-29T14:56:01Z</time>
</trkpt>
<trkpt lat="49.306053" lon="10.28532">
<ele>431</ele>
<time>2019-05-29T14:56:06Z</time>
</trkpt>
<trkpt lat="49.306302" lon="10.285747">
<ele>430</ele>
<time>2019-05-29T14:56:11Z</time>
</trkpt>
<trkpt lat="49.306583" lon="10.286163">
<ele>428</ele>
<time>2019-05-29T14:56:16Z</time>
</trkpt>
<trkpt lat="49.306932" lon="10.286468">
<ele>425</ele>
<time>2019-05-29T14:56:21Z</time>
</trkpt>
<trkpt lat="49.307323" lon="10.286755">
<ele>423</ele>
<time>2019-05-29T14:56:26Z</time>
</trkpt>
<trkpt lat="49.307698" lon="10.287235">
<ele>423</ele>
<time>2019-05-29T14:56:32Z</time>
</trkpt>
<trkpt lat="49.307932" lon="10.287657">
<ele>421</ele>
<time>2019-05-29T14:56:37Z</time>
</trkpt>
<trkpt lat="49.308135" lon="10.288073">
<ele>421</ele>
<time>2019-05-29T14:56:42Z</time>
</trkpt>
<trkpt lat="49.308345" lon="10.288452">
<ele>421</ele>
<time>2019-05-29T14:56:47Z</time>
</trkpt>
<trkpt lat="49.308617" lon="10.288802">
<ele>421</ele>
<time>2019-05-29T14:56:53Z</time>
</trkpt>
<trkpt lat="49.30889" lon="10.289012">
<ele>421</ele>
<time>2019-05-29T14:56:58Z</time>
</trkpt>
<trkpt lat="49.30923" lon="10.289225">
<ele>421</ele>
<time>2019-05-29T14:57:04Z</time>
</trkpt>
<trkpt lat="49.30953" lon="10.289407">
<ele>421</ele>
<time>2019-05-29T14:57:09Z</time>
</trkpt>
<trkpt lat="49.309835" lon="10.289613">
<ele>420</ele>
<time>2019-05-29T14:57:14Z</time>
</trkpt>
<trkpt lat="49.310118" lon="10.289865">
<ele>419</ele>
<time>2019-05-29T14:57:19Z</time>
</trkpt>
<trkpt lat="49.310363" lon="10.290157">
<ele>419</ele>
<time>2019-05-29T14:57:24Z</time>
</trkpt>
<trkpt lat="49.31061" lon="10.29047">
<ele>419</ele>
<time>2019-05-29T14:57:29Z</time>
</trkpt>
<trkpt lat="49.310873" lon="10.290807">
<ele>418</ele>
<time>2019-05-29T14:57:34Z</time>
</trkpt>
<trkpt lat="49.31111" lon="10.29116">
<ele>418</ele>
<time>2019-05-29T14:57:39Z</time>
</trkpt>
<trkpt lat="49.311303" lon="10.291587">
<ele>417</ele>
<time>2019-05-29T14:57:44Z</time>
</trkpt>
<trkpt lat="49.31143" lon="10.29207">
<ele>417</ele>
<time>2019-05-29T14:57:49Z</time>
</trkpt>
<trkpt lat="49.311543" lon="10.292543">
<ele>417</ele>
<time>2019-05-29T14:57:54Z</time>
</trkpt>
<trkpt lat="49.311657" lon="10.293003">
<ele>417</ele>
<time>2019-05-29T14:57:59Z</time>
</trkpt>
<trkpt lat="49.311758" lon="10.293467">
<ele>417</ele>
<time>2019-05-29T14:58:04Z</time>
</trkpt>
<trkpt lat="49.311875" lon="10.294055">
<ele>417</ele>
<time>2019-05-29T14:58:10Z</time>
</trkpt>
<trkpt lat="49.311908" lon="10.294502">
<ele>417</ele>
<time>2019-05-29T14:58:15Z</time>
</trkpt>
<trkpt lat="49.311918" lon="10.294963">
<ele>417</ele>
<time>2019-05-29T14:58:20Z</time>
</trkpt>
<trkpt lat="49.311912" lon="10.295398">
<ele>417</ele>
<time>2019-05-29T14:58:25Z</time>
</trkpt>
<trkpt lat="49.311935" lon="10.295877">
<ele>417</ele>
<time>2019-05-29T14:58:30Z</time>
</trkpt>
<trkpt lat="49.312012" lon="10.296307">
<ele>417</ele>
<time>2019-05-29T14:58:35Z</time>
</trkpt>
<trkpt lat="49.312113" lon="10.296783">
<ele>416</ele>
<time>2019-05-29T14:58:41Z</time>
</trkpt>
<trkpt lat="49.312257" lon="10.29718">
<ele>416</ele>
<time>2019-05-29T14:58:46Z</time>
</trkpt>
<trkpt lat="49.312515" lon="10.29744">
<ele>415</ele>
<time>2019-05-29T14:58:51Z</time>
</trkpt>
<trkpt lat="49.312833" lon="10.297535">
<ele>415</ele>
<time>2019-05-29T14:58:56Z</time>
</trkpt>
<trkpt lat="49.313123" lon="10.297378">
<ele>415</ele>
<time>2019-05-29T14:59:01Z</time>
</trkpt>
<trkpt lat="49.31341" lon="10.297137">
<ele>415</ele>
<time>2019-05-29T14:59:06Z</time>
</trkpt>
<trkpt lat="49.313688" lon="10.296875">
<ele>415</ele>
<time>2019-05-29T14:59:11Z</time>
</trkpt>
<trkpt lat="49.313997" lon="10.296577">
<ele>415</ele>
<time>2019-05-29T14:59:17Z</time>
</trkpt>
<trkpt lat="49.314362" lon="10.296395">
<ele>415</ele>
<time>2019-05-29T14:59:23Z</time>
</trkpt>
<trkpt lat="49.314657" lon="10.296507">
<ele>415</ele>
<time>2019-05-29T14:59:28Z</time>
</trkpt>
<trkpt lat="49.314875" lon="10.296832">
<ele>416</ele>
<time>2019-05-29T14:59:33Z</time>
</trkpt>
<trkpt lat="49.315068" lon="10.297177">
<ele>416</ele>
<time>2019-05-29T14:59:38Z</time>
</trkpt>
<trkpt lat="49.315318" lon="10.297577">
<ele>416</ele>
<time>2019-05-29T14:59:44Z</time>
</trkpt>
<trkpt lat="49.315507" lon="10.297913">
<ele>416</ele>
<time>2019-05-29T14:59:49Z</time>
</trkpt>
<trkpt lat="49.315715" lon="10.29826">
<ele>416</ele>
<time>2019-05-29T14:59:54Z</time>
</trkpt>
<trkpt lat="49.315913" lon="10.298618">
<ele>416</ele>
<time>2019-05-29T14:59:59Z</time>
</trkpt>
<trkpt lat="49.31608" lon="10.298977">
<ele>416</ele>
<time>2019-05-29T15:00:04Z</time>
</trkpt>
<trkpt lat="49.316225" lon="10.299333">
<ele>416</ele>
<time>2019-05-29T15:00:09Z</time>
</trkpt>
<trkpt lat="49.316373" lon="10.299683">
<ele>416</ele>
<time>2019-05-29T15:00:14Z</time>
</trkpt>
<trkpt lat="49.31652" lon="10.300033">
<ele>416</ele>
<time>2019-05-29T15:00:19Z</time>
</trkpt>
<trkpt lat="49.316683" lon="10.300408">
<ele>416</ele>
<time>2019-05-29T15:00:24Z</time>
</trkpt>
<trkpt lat="49.316842" lon="10.300777">
<ele>416</ele>
<time>2019-05-29T15:00:29Z</time>
</trkpt>
<trkpt lat="49.316993" lon="10.30115">
<ele>416</ele>
<time>2019-05-29T15:00:34Z</time>
</trkpt>
<trkpt lat="49.317137" lon="10.30151">
<ele>416</ele>
<time>2019-05-29T15:00:39Z</time>
</trkpt>
<trkpt lat="49.31727" lon="10.301875">
<ele>416</ele>
<time>2019-05-29T15:00:44Z</time>
</trkpt>
<trkpt lat="49.317398" lon="10.30221">
<ele>416</ele>
<time>2019-05-29T15:00:49Z</time>
</trkpt>
<trkpt lat="49.31751" lon="10.30253">
<ele>417</ele>
<time>2019-05-29T15:00:54Z</time>
</trkpt>
<trkpt lat="49.317612" lon="10.302865">
<ele>417</ele>
<time>2019-05-29T15:00:59Z</time>
</trkpt>
<trkpt lat="49.317713" lon="10.303215">
<ele>418</ele>
<time>2019-05-29T15:01:04Z</time>
</trkpt>
<trkpt lat="49.317807" lon="10.303565">
<ele>418</ele>
<time>2019-05-29T15:01:09Z</time>
</trkpt>
<trkpt lat="49.317903" lon="10.30392">
<ele>419</ele>
<time>2019-05-29T15:01:14Z</time>
</trkpt>
<trkpt lat="49.317978" lon="10.304258">
<ele>419</ele>
<time>2019-05-29T15:01:19Z</time>
</trkpt>
<trkpt lat="49.318087" lon="10.304572">
<ele>419</ele>
<time>2019-05-29T15:01:24Z</time>
</trkpt>
<trkpt lat="49.3181" lon="10.304975">
<ele>419</ele>
<time>2019-05-29T15:01:29Z</time>
</trkpt>
<trkpt lat="49.318073" lon="10.305452">
<ele>419</ele>
<time>2019-05-29T15:01:34Z</time>
</trkpt>
<trkpt lat="49.318088" lon="10.305963">
<ele>419</ele>
<time>2019-05-29T15:01:39Z</time>
</trkpt>
<trkpt lat="49.318097" lon="10.306477">
<ele>419</ele>
<time>2019-05-29T15:01:44Z</time>
</trkpt>
<trkpt lat="49.318072" lon="10.30696">
<ele>419</ele>
<time>2019-05-29T15:01:49Z</time>
</trkpt>
<trkpt lat="49.318012" lon="10.307412">
<ele>419</ele>
<time>2019-05-29T15:01:54Z</time>
</trkpt>
<trkpt lat="49.317937" lon="10.30786">
<ele>419</ele>
<time>2019-05-29T15:01:59Z</time>
</trkpt>
<trkpt lat="49.317857" lon="10.308318">
<ele>419</ele>
<time>2019-05-29T15:02:04Z</time>
</trkpt>
<trkpt lat="49.317783" lon="10.308752">
<ele>419</ele>
<time>2019-05-29T15:02:09Z</time>
</trkpt>
<trkpt lat="49.317735" lon="10.309175">
<ele>419</ele>
<time>2019-05-29T15:02:14Z</time>
</trkpt>
<trkpt lat="49.31771" lon="10.30956">
<ele>420</ele>
<time>2019-05-29T15:02:19Z</time>
</trkpt>
<trkpt lat="49.317692" lon="10.309933">
<ele>420</ele>
<time>2019-05-29T15:02:24Z</time>
</trkpt>
<trkpt lat="49.317672" lon="10.310328">
<ele>421</ele>
<time>2019-05-29T15:02:29Z</time>
</trkpt>
<trkpt lat="49.317642" lon="10.310747">
<ele>421</ele>
<time>2019-05-29T15:02:34Z</time>
</trkpt>
<trkpt lat="49.31761" lon="10.311158">
<ele>421</ele>
<time>2019-05-29T15:02:39Z</time>
</trkpt>
<trkpt lat="49.317563" lon="10.311603">
<ele>421</ele>
<time>2019-05-29T15:02:44Z</time>
</trkpt>
<trkpt lat="49.3175" lon="10.312048">
<ele>421</ele>
<time>2019-05-29T15:02:49Z</time>
</trkpt>
<trkpt lat="49.317397" lon="10.312482">
<ele>421</ele>
<time>2019-05-29T15:02:54Z</time>
</trkpt>
<trkpt lat="49.317278" lon="10.312942">
<ele>421</ele>
<time>2019-05-29T15:02:59Z</time>
</trkpt>
<trkpt lat="49.317167" lon="10.313483">
<ele>419</ele>
<time>2019-05-29T15:03:04Z</time>
</trkpt>
<trkpt lat="49.31709" lon="10.314068">
<ele>418</ele>
<time>2019-05-29T15:03:09Z</time>
</trkpt>
<trkpt lat="49.317015" lon="10.314648">
<ele>416</ele>
<time>2019-05-29T15:03:14Z</time>
</trkpt>
<trkpt lat="49.316948" lon="10.315188">
<ele>416</ele>
<time>2019-05-29T15:03:19Z</time>
</trkpt>
<trkpt lat="49.31689" lon="10.315713">
<ele>415</ele>
<time>2019-05-29T15:03:24Z</time>
</trkpt>
<trkpt lat="49.316832" lon="10.316293">
<ele>415</ele>
<time>2019-05-29T15:03:29Z</time>
</trkpt>
<trkpt lat="49.31679" lon="10.316883">
<ele>414</ele>
<time>2019-05-29T15:03:34Z</time>
</trkpt>
<trkpt lat="49.316762" lon="10.317428">
<ele>414</ele>
<time>2019-05-29T15:03:39Z</time>
</trkpt>
<trkpt lat="49.316755" lon="10.31798">
<ele>413</ele>
<time>2019-05-29T15:03:44Z</time>
</trkpt>
<trkpt lat="49.316752" lon="10.318523">
<ele>412</ele>
<time>2019-05-29T15:03:49Z</time>
</trkpt>
<trkpt lat="49.31675" lon="10.319047">
<ele>412</ele>
<time>2019-05-29T15:03:54Z</time>
</trkpt>
<trkpt lat="49.316767" lon="10.319577">
<ele>411</ele>
<time>2019-05-29T15:03:59Z</time>
</trkpt>
<trkpt lat="49.316817" lon="10.320107">
<ele>411</ele>
<time>2019-05-29T15:04:04Z</time>
</trkpt>
<trkpt lat="49.31687" lon="10.320603">
<ele>410</ele>
<time>2019-05-29T15:04:09Z</time>
</trkpt>
<trkpt lat="49.316938" lon="10.32108">
<ele>410</ele>
<time>2019-05-29T15:04:14Z</time>
</trkpt>
<trkpt lat="49.317002" lon="10.321542">
<ele>410</ele>
<time>2019-05-29T15:04:19Z</time>
</trkpt>
<trkpt lat="49.316998" lon="10.321988">
<ele>409</ele>
<time>2019-05-29T15:04:24Z</time>
</trkpt>
<trkpt lat="49.316868" lon="10.322382">
<ele>408</ele>
<time>2019-05-29T15:04:29Z</time>
</trkpt>
<trkpt lat="49.317018" lon="10.322755">
<ele>408</ele>
<time>2019-05-29T15:04:34Z</time>
</trkpt>
<trkpt lat="49.317228" lon="10.323115">
<ele>408</ele>
<time>2019-05-29T15:04:39Z</time>
</trkpt>
<trkpt lat="49.317413" lon="10.323518">
<ele>408</ele>
<time>2019-05-29T15:04:44Z</time>
</trkpt>
<trkpt lat="49.317493" lon="10.323972">
<ele>409</ele>
<time>2019-05-29T15:04:49Z</time>
</trkpt>
<trkpt lat="49.317473" lon="10.324435">
<ele>409</ele>
<time>2019-05-29T15:04:54Z</time>
</trkpt>
<trkpt lat="49.317435" lon="10.324853">
<ele>409</ele>
<time>2019-05-29T15:04:59Z</time>
</trkpt>
<trkpt lat="49.317403" lon="10.32516">
<ele>410</ele>
<time>2019-05-29T15:05:04Z</time>
</trkpt>
<trkpt lat="49.317408" lon="10.325365">
<ele>411</ele>
<time>2019-05-29T15:05:09Z</time>
</trkpt>
<trkpt lat="49.31747" lon="10.325493">
<ele>411</ele>
<time>2019-05-29T15:05:14Z</time>
</trkpt>
<trkpt lat="49.317543" lon="10.325567">
<ele>411</ele>
<time>2019-05-29T15:05:19Z</time>
</trkpt>
<trkpt lat="49.317552" lon="10.32559">
<ele>412</ele>
<time>2019-05-29T15:05:24Z</time>
</trkpt>
<trkpt lat="49.317598" lon="10.325645">
<ele>413</ele>
<time>2019-05-29T15:05:29Z</time>
</trkpt>
<trkpt lat="49.317642" lon="10.325707">
<ele>413</ele>
<time>2019-05-29T15:05:34Z</time>
</trkpt>
<trkpt lat="49.317647" lon="10.3257">
<ele>413</ele>
<time>2019-05-29T15:05:39Z</time>
</trkpt>
<trkpt lat="49.317648" lon="10.325697">
<ele>413</ele>
<time>2019-05-29T15:05:49Z</time>
</trkpt>
<trkpt lat="49.317648" lon="10.325695">
<ele>413</ele>
<time>2019-05-29T15:05:54Z</time>
</trkpt>
<trkpt lat="49.317648" lon="10.325697">
<ele>413</ele>
<time>2019-05-29T15:06:14Z</time>
</trkpt>
<trkpt lat="49.317648" lon="10.325733">
<ele>413</ele>
<time>2019-05-29T15:06:19Z</time>
</trkpt>
<trkpt lat="49.317645" lon="10.32573">
<ele>413</ele>
<time>2019-05-29T15:06:24Z</time>
</trkpt>
<trkpt lat="49.317648" lon="10.325737">
<ele>413</ele>
<time>2019-05-29T15:06:29Z</time>
</trkpt>
<trkpt lat="49.317647" lon="10.325737">
<ele>413</ele>
<time>2019-05-29T15:06:34Z</time>
</trkpt>
<trkpt lat="49.317655" lon="10.325745">
<ele>413</ele>
<time>2019-05-29T15:06:39Z</time>
</trkpt>
<trkpt lat="49.31765" lon="10.32574">
<ele>413</ele>
<time>2019-05-29T15:06:44Z</time>
</trkpt>
<trkpt lat="49.317648" lon="10.325742">
<ele>413</ele>
<time>2019-05-29T15:06:49Z</time>
</trkpt>
<trkpt lat="49.317643" lon="10.325733">
<ele>413</ele>
<time>2019-05-29T15:06:54Z</time>
</trkpt>
<trkpt lat="49.317642" lon="10.325732">
<ele>413</ele>
<time>2019-05-29T15:06:59Z</time>
</trkpt>
<trkpt lat="49.317643" lon="10.325732">
<ele>413</ele>
<time>2019-05-29T15:07:24Z</time>
</trkpt>
<trkpt lat="49.317643" lon="10.32573">
<ele>413</ele>
<time>2019-05-29T15:07:29Z</time>
</trkpt>
<trkpt lat="49.317643" lon="10.325728">
<ele>413</ele>
<time>2019-05-29T15:07:54Z</time>
</trkpt>
<trkpt lat="49.317642" lon="10.325728">
<ele>413</ele>
<time>2019-05-29T15:08:09Z</time>
</trkpt>
<trkpt lat="49.317625" lon="10.325707">
<ele>413</ele>
<time>2019-05-29T15:08:24Z</time>
</trkpt>
<trkpt lat="49.317592" lon="10.325675">
<ele>413</ele>
<time>2019-05-29T15:08:29Z</time>
</trkpt>
<trkpt lat="49.317568" lon="10.325652">
<ele>413</ele>
<time>2019-05-29T15:08:34Z</time>
</trkpt>
<trkpt lat="49.317557" lon="10.32563">
<ele>413</ele>
<time>2019-05-29T15:08:39Z</time>
</trkpt>
<trkpt lat="49.317527" lon="10.325568">
<ele>413</ele>
<time>2019-05-29T15:08:44Z</time>
</trkpt>
<trkpt lat="49.3175" lon="10.325525">
<ele>413</ele>
<time>2019-05-29T15:08:49Z</time>
</trkpt>
<trkpt lat="49.3175" lon="10.325522">
<ele>413</ele>
<time>2019-05-29T15:08:54Z</time>
</trkpt>
<trkpt lat="49.317473" lon="10.325488">
<ele>413</ele>
<time>2019-05-29T15:08:59Z</time>
</trkpt>
<trkpt lat="49.317397" lon="10.32546">
<ele>413</ele>
<time>2019-05-29T15:09:04Z</time>
</trkpt>
<trkpt lat="49.317312" lon="10.3257">
<ele>412</ele>
<time>2019-05-29T15:09:09Z</time>
</trkpt>
<trkpt lat="49.317223" lon="10.326042">
<ele>412</ele>
<time>2019-05-29T15:09:14Z</time>
</trkpt>
<trkpt lat="49.317097" lon="10.326433">
<ele>412</ele>
<time>2019-05-29T15:09:19Z</time>
</trkpt>
<trkpt lat="49.316962" lon="10.326863">
<ele>412</ele>
<time>2019-05-29T15:09:24Z</time>
</trkpt>
<trkpt lat="49.316858" lon="10.327303">
<ele>411</ele>
<time>2019-05-29T15:09:29Z</time>
</trkpt>
<trkpt lat="49.316772" lon="10.32773">
<ele>411</ele>
<time>2019-05-29T15:09:34Z</time>
</trkpt>
<trkpt lat="49.316682" lon="10.328153">
<ele>411</ele>
<time>2019-05-29T15:09:39Z</time>
</trkpt>
<trkpt lat="49.316585" lon="10.328587">
<ele>410</ele>
<time>2019-05-29T15:09:44Z</time>
</trkpt>
<trkpt lat="49.316497" lon="10.329025">
<ele>410</ele>
<time>2019-05-29T15:09:49Z</time>
</trkpt>
<trkpt lat="49.316407" lon="10.329458">
<ele>410</ele>
<time>2019-05-29T15:09:54Z</time>
</trkpt>
<trkpt lat="49.316312" lon="10.329958">
<ele>410</ele>
<time>2019-05-29T15:09:59Z</time>
</trkpt>
<trkpt lat="49.316213" lon="10.330467">
<ele>410</ele>
<time>2019-05-29T15:10:04Z</time>
</trkpt>
<trkpt lat="49.316133" lon="10.330945">
<ele>410</ele>
<time>2019-05-29T15:10:09Z</time>
</trkpt>
<trkpt lat="49.316078" lon="10.331425">
<ele>410</ele>
<time>2019-05-29T15:10:14Z</time>
</trkpt>
<trkpt lat="49.316043" lon="10.331858">
<ele>410</ele>
<time>2019-05-29T15:10:19Z</time>
</trkpt>
<trkpt lat="49.316052" lon="10.332293">
<ele>410</ele>
<time>2019-05-29T15:10:24Z</time>
</trkpt>
<trkpt lat="49.316092" lon="10.332715">
<ele>409</ele>
<time>2019-05-29T15:10:29Z</time>
</trkpt>
<trkpt lat="49.316187" lon="10.333113">
<ele>408</ele>
<time>2019-05-29T15:10:34Z</time>
</trkpt>
<trkpt lat="49.316337" lon="10.333485">
<ele>408</ele>
<time>2019-05-29T15:10:39Z</time>
</trkpt>
<trkpt lat="49.316527" lon="10.333822">
<ele>408</ele>
<time>2019-05-29T15:10:44Z</time>
</trkpt>
<trkpt lat="49.316757" lon="10.334088">
<ele>408</ele>
<time>2019-05-29T15:10:49Z</time>
</trkpt>
<trkpt lat="49.31704" lon="10.33415">
<ele>408</ele>
<time>2019-05-29T15:10:54Z</time>
</trkpt>
<trkpt lat="49.317285" lon="10.334163">
<ele>408</ele>
<time>2019-05-29T15:10:59Z</time>
</trkpt>
<trkpt lat="49.31753" lon="10.334182">
<ele>410</ele>
<time>2019-05-29T15:11:05Z</time>
</trkpt>
<trkpt lat="49.3177" lon="10.334158">
<ele>411</ele>
<time>2019-05-29T15:11:10Z</time>
</trkpt>
<trkpt lat="49.31787" lon="10.334093">
<ele>412</ele>
<time>2019-05-29T15:11:15Z</time>
</trkpt>
<trkpt lat="49.318038" lon="10.333963">
<ele>413</ele>
<time>2019-05-29T15:11:20Z</time>
</trkpt>
<trkpt lat="49.318197" lon="10.333857">
<ele>414</ele>
<time>2019-05-29T15:11:25Z</time>
</trkpt>
<trkpt lat="49.318377" lon="10.33374">
<ele>414</ele>
<time>2019-05-29T15:11:30Z</time>
</trkpt>
<trkpt lat="49.318555" lon="10.333638">
<ele>415</ele>
<time>2019-05-29T15:11:35Z</time>
</trkpt>
<trkpt lat="49.318745" lon="10.333542">
<ele>416</ele>
<time>2019-05-29T15:11:40Z</time>
</trkpt>
<trkpt lat="49.318947" lon="10.333493">
<ele>416</ele>
<time>2019-05-29T15:11:45Z</time>
</trkpt>
<trkpt lat="49.319153" lon="10.333522">
<ele>417</ele>
<time>2019-05-29T15:11:50Z</time>
</trkpt>
<trkpt lat="49.319363" lon="10.333608">
<ele>417</ele>
<time>2019-05-29T15:11:55Z</time>
</trkpt>
<trkpt lat="49.31958" lon="10.333753">
<ele>417</ele>
<time>2019-05-29T15:12:00Z</time>
</trkpt>
<trkpt lat="49.319813" lon="10.333963">
<ele>417</ele>
<time>2019-05-29T15:12:05Z</time>
</trkpt>
<trkpt lat="49.320075" lon="10.334217">
<ele>417</ele>
<time>2019-05-29T15:12:10Z</time>
</trkpt>
<trkpt lat="49.320353" lon="10.334505">
<ele>416</ele>
<time>2019-05-29T15:12:15Z</time>
</trkpt>
<trkpt lat="49.320608" lon="10.33479">
<ele>416</ele>
<time>2019-05-29T15:12:20Z</time>
</trkpt>
<trkpt lat="49.320847" lon="10.334997">
<ele>416</ele>
<time>2019-05-29T15:12:25Z</time>
</trkpt>
<trkpt lat="49.321112" lon="10.33513">
<ele>416</ele>
<time>2019-05-29T15:12:30Z</time>
</trkpt>
<trkpt lat="49.321387" lon="10.335235">
<ele>416</ele>
<time>2019-05-29T15:12:35Z</time>
</trkpt>
<trkpt lat="49.321652" lon="10.33534">
<ele>416</ele>
<time>2019-05-29T15:12:40Z</time>
</trkpt>
<trkpt lat="49.32186" lon="10.335427">
<ele>416</ele>
<time>2019-05-29T15:12:45Z</time>
</trkpt>
<trkpt lat="49.322058" lon="10.335512">
<ele>416</ele>
<time>2019-05-29T15:12:50Z</time>
</trkpt>
<trkpt lat="49.322243" lon="10.335573">
<ele>417</ele>
<time>2019-05-29T15:12:55Z</time>
</trkpt>
<trkpt lat="49.322415" lon="10.33563">
<ele>418</ele>
<time>2019-05-29T15:13:00Z</time>
</trkpt>
<trkpt lat="49.322602" lon="10.335645">
<ele>419</ele>
<time>2019-05-29T15:13:05Z</time>
</trkpt>
<trkpt lat="49.322788" lon="10.335635">
<ele>420</ele>
<time>2019-05-29T15:13:10Z</time>
</trkpt>
<trkpt lat="49.322967" lon="10.335607">
<ele>420</ele>
<time>2019-05-29T15:13:15Z</time>
</trkpt>
<trkpt lat="49.323143" lon="10.335548">
<ele>420</ele>
<time>2019-05-29T15:13:20Z</time>
</trkpt>
<trkpt lat="49.323342" lon="10.335508">
<ele>421</ele>
<time>2019-05-29T15:13:25Z</time>
</trkpt>
<trkpt lat="49.323518" lon="10.335447">
<ele>421</ele>
<time>2019-05-29T15:13:30Z</time>
</trkpt>
<trkpt lat="49.32372" lon="10.33538">
<ele>421</ele>
<time>2019-05-29T15:13:35Z</time>
</trkpt>
<trkpt lat="49.323948" lon="10.335312">
<ele>421</ele>
<time>2019-05-29T15:13:40Z</time>
</trkpt>
<trkpt lat="49.324197" lon="10.335265">
<ele>421</ele>
<time>2019-05-29T15:13:45Z</time>
</trkpt>
<trkpt lat="49.324455" lon="10.335237">
<ele>421</ele>
<time>2019-05-29T15:13:50Z</time>
</trkpt>
<trkpt lat="49.32471" lon="10.33524">
<ele>421</ele>
<time>2019-05-29T15:13:55Z</time>
</trkpt>
<trkpt lat="49.32496" lon="10.335257">
<ele>421</ele>
<time>2019-05-29T15:14:00Z</time>
</trkpt>
<trkpt lat="49.325213" lon="10.33527">
<ele>421</ele>
<time>2019-05-29T15:14:05Z</time>
</trkpt>
<trkpt lat="49.32545" lon="10.335282">
<ele>422</ele>
<time>2019-05-29T15:14:10Z</time>
</trkpt>
<trkpt lat="49.325677" lon="10.335288">
<ele>422</ele>
<time>2019-05-29T15:14:15Z</time>
</trkpt>
<trkpt lat="49.325893" lon="10.335302">
<ele>422</ele>
<time>2019-05-29T15:14:20Z</time>
</trkpt>
<trkpt lat="49.326115" lon="10.335308">
<ele>423</ele>
<time>2019-05-29T15:14:25Z</time>
</trkpt>
<trkpt lat="49.326337" lon="10.335345">
<ele>423</ele>
<time>2019-05-29T15:14:30Z</time>
</trkpt>
<trkpt lat="49.326547" lon="10.335412">
<ele>424</ele>
<time>2019-05-29T15:14:35Z</time>
</trkpt>
<trkpt lat="49.32675" lon="10.335518">
<ele>424</ele>
<time>2019-05-29T15:14:40Z</time>
</trkpt>
<trkpt lat="49.326952" lon="10.335635">
<ele>425</ele>
<time>2019-05-29T15:14:45Z</time>
</trkpt>
<trkpt lat="49.327147" lon="10.335702">
<ele>425</ele>
<time>2019-05-29T15:14:50Z</time>
</trkpt>
<trkpt lat="49.327355" lon="10.335712">
<ele>426</ele>
<time>2019-05-29T15:14:55Z</time>
</trkpt>
<trkpt lat="49.327557" lon="10.335633">
<ele>426</ele>
<time>2019-05-29T15:15:00Z</time>
</trkpt>
<trkpt lat="49.327752" lon="10.335505">
<ele>427</ele>
<time>2019-05-29T15:15:05Z</time>
</trkpt>
<trkpt lat="49.327932" lon="10.335357">
<ele>427</ele>
<time>2019-05-29T15:15:10Z</time>
</trkpt>
<trkpt lat="49.328108" lon="10.335175">
<ele>428</ele>
<time>2019-05-29T15:15:15Z</time>
</trkpt>
<trkpt lat="49.328282" lon="10.334998">
<ele>428</ele>
<time>2019-05-29T15:15:20Z</time>
</trkpt>
<trkpt lat="49.328475" lon="10.33485">
<ele>428</ele>
<time>2019-05-29T15:15:25Z</time>
</trkpt>
<trkpt lat="49.32864" lon="10.334707">
<ele>428</ele>
<time>2019-05-29T15:15:30Z</time>
</trkpt>
<trkpt lat="49.32883" lon="10.334583">
<ele>428</ele>
<time>2019-05-29T15:15:35Z</time>
</trkpt>
<trkpt lat="49.329042" lon="10.334475">
<ele>428</ele>
<time>2019-05-29T15:15:40Z</time>
</trkpt>
<trkpt lat="49.329232" lon="10.33439">
<ele>429</ele>
<time>2019-05-29T15:15:45Z</time>
</trkpt>
<trkpt lat="49.329455" lon="10.33431">
<ele>429</ele>
<time>2019-05-29T15:15:50Z</time>
</trkpt>
<trkpt lat="49.329677" lon="10.334223">
<ele>429</ele>
<time>2019-05-29T15:15:55Z</time>
</trkpt>
<trkpt lat="49.329878" lon="10.334118">
<ele>429</ele>
<time>2019-05-29T15:16:00Z</time>
</trkpt>
<trkpt lat="49.330032" lon="10.333923">
<ele>429</ele>
<time>2019-05-29T15:16:05Z</time>
</trkpt>
<trkpt lat="49.330167" lon="10.333718">
<ele>430</ele>
<time>2019-05-29T15:16:10Z</time>
</trkpt>
<trkpt lat="49.330347" lon="10.33386">
<ele>432</ele>
<time>2019-05-29T15:16:16Z</time>
</trkpt>
<trkpt lat="49.330437" lon="10.334055">
<ele>433</ele>
<time>2019-05-29T15:16:21Z</time>
</trkpt>
<trkpt lat="49.330543" lon="10.334247">
<ele>434</ele>
<time>2019-05-29T15:16:26Z</time>
</trkpt>
<trkpt lat="49.330637" lon="10.334462">
<ele>435</ele>
<time>2019-05-29T15:16:31Z</time>
</trkpt>
<trkpt lat="49.330722" lon="10.3347">
<ele>435</ele>
<time>2019-05-29T15:16:36Z</time>
</trkpt>
<trkpt lat="49.330807" lon="10.334938">
<ele>436</ele>
<time>2019-05-29T15:16:41Z</time>
</trkpt>
<trkpt lat="49.330873" lon="10.335195">
<ele>437</ele>
<time>2019-05-29T15:16:46Z</time>
</trkpt>
<trkpt lat="49.330927" lon="10.335465">
<ele>438</ele>
<time>2019-05-29T15:16:51Z</time>
</trkpt>
<trkpt lat="49.330997" lon="10.335702">
<ele>438</ele>
<time>2019-05-29T15:16:56Z</time>
</trkpt>
<trkpt lat="49.331057" lon="10.335922">
<ele>439</ele>
<time>2019-05-29T15:17:01Z</time>
</trkpt>
<trkpt lat="49.331123" lon="10.33614">
<ele>440</ele>
<time>2019-05-29T15:17:06Z</time>
</trkpt>
<trkpt lat="49.331222" lon="10.336303">
<ele>441</ele>
<time>2019-05-29T15:17:11Z</time>
</trkpt>
<trkpt lat="49.331343" lon="10.336448">
<ele>442</ele>
<time>2019-05-29T15:17:16Z</time>
</trkpt>
<trkpt lat="49.331475" lon="10.336578">
<ele>442</ele>
<time>2019-05-29T15:17:21Z</time>
</trkpt>
<trkpt lat="49.33164" lon="10.336728">
<ele>443</ele>
<time>2019-05-29T15:17:26Z</time>
</trkpt>
<trkpt lat="49.33181" lon="10.336878">
<ele>444</ele>
<time>2019-05-29T15:17:31Z</time>
</trkpt>
<trkpt lat="49.331977" lon="10.337033">
<ele>444</ele>
<time>2019-05-29T15:17:36Z</time>
</trkpt>
<trkpt lat="49.33215" lon="10.337193">
<ele>444</ele>
<time>2019-05-29T15:17:41Z</time>
</trkpt>
<trkpt lat="49.33233" lon="10.337358">
<ele>444</ele>
<time>2019-05-29T15:17:46Z</time>
</trkpt>
<trkpt lat="49.332532" lon="10.337507">
<ele>444</ele>
<time>2019-05-29T15:17:51Z</time>
</trkpt>
<trkpt lat="49.332757" lon="10.337638">
<ele>444</ele>
<time>2019-05-29T15:17:56Z</time>
</trkpt>
<trkpt lat="49.333017" lon="10.337737">
<ele>444</ele>
<time>2019-05-29T15:18:01Z</time>
</trkpt>
<trkpt lat="49.333313" lon="10.337797">
<ele>444</ele>
<time>2019-05-29T15:18:06Z</time>
</trkpt>
<trkpt lat="49.333602" lon="10.337895">
<ele>443</ele>
<time>2019-05-29T15:18:11Z</time>
</trkpt>
<trkpt lat="49.333885" lon="10.338048">
<ele>442</ele>
<time>2019-05-29T15:18:16Z</time>
</trkpt>
<trkpt lat="49.33415" lon="10.338218">
<ele>442</ele>
<time>2019-05-29T15:18:21Z</time>
</trkpt>
<trkpt lat="49.334403" lon="10.338398">
<ele>442</ele>
<time>2019-05-29T15:18:26Z</time>
</trkpt>
<trkpt lat="49.334675" lon="10.338585">
<ele>442</ele>
<time>2019-05-29T15:18:31Z</time>
</trkpt>
<trkpt lat="49.334922" lon="10.338805">
<ele>442</ele>
<time>2019-05-29T15:18:36Z</time>
</trkpt>
<trkpt lat="49.33512" lon="10.339052">
<ele>442</ele>
<time>2019-05-29T15:18:41Z</time>
</trkpt>
<trkpt lat="49.335313" lon="10.339302">
<ele>442</ele>
<time>2019-05-29T15:18:46Z</time>
</trkpt>
<trkpt lat="49.335545" lon="10.339538">
<ele>442</ele>
<time>2019-05-29T15:18:51Z</time>
</trkpt>
<trkpt lat="49.335802" lon="10.339713">
<ele>442</ele>
<time>2019-05-29T15:18:56Z</time>
</trkpt>
<trkpt lat="49.33607" lon="10.339833">
<ele>441</ele>
<time>2019-05-29T15:19:01Z</time>
</trkpt>
<trkpt lat="49.336362" lon="10.339958">
<ele>440</ele>
<time>2019-05-29T15:19:06Z</time>
</trkpt>
<trkpt lat="49.336677" lon="10.340093">
<ele>440</ele>
<time>2019-05-29T15:19:11Z</time>
</trkpt>
<trkpt lat="49.336987" lon="10.340238">
<ele>439</ele>
<time>2019-05-29T15:19:16Z</time>
</trkpt>
<trkpt lat="49.33729" lon="10.340417">
<ele>439</ele>
<time>2019-05-29T15:19:21Z</time>
</trkpt>
<trkpt lat="49.337588" lon="10.340613">
<ele>439</ele>
<time>2019-05-29T15:19:26Z</time>
</trkpt>
<trkpt lat="49.337878" lon="10.340825">
<ele>439</ele>
<time>2019-05-29T15:19:31Z</time>
</trkpt>
<trkpt lat="49.338165" lon="10.341032">
<ele>439</ele>
<time>2019-05-29T15:19:36Z</time>
</trkpt>
<trkpt lat="49.338475" lon="10.341175">
<ele>438</ele>
<time>2019-05-29T15:19:41Z</time>
</trkpt>
<trkpt lat="49.338817" lon="10.34128">
<ele>436</ele>
<time>2019-05-29T15:19:46Z</time>
</trkpt>
<trkpt lat="49.339178" lon="10.3414">
<ele>434</ele>
<time>2019-05-29T15:19:51Z</time>
</trkpt>
<trkpt lat="49.339523" lon="10.341563">
<ele>434</ele>
<time>2019-05-29T15:19:56Z</time>
</trkpt>
<trkpt lat="49.339848" lon="10.341763">
<ele>434</ele>
<time>2019-05-29T15:20:01Z</time>
</trkpt>
<trkpt lat="49.340148" lon="10.341993">
<ele>434</ele>
<time>2019-05-29T15:20:06Z</time>
</trkpt>
<trkpt lat="49.340413" lon="10.342222">
<ele>434</ele>
<time>2019-05-29T15:20:11Z</time>
</trkpt>
<trkpt lat="49.340632" lon="10.342448">
<ele>434</ele>
<time>2019-05-29T15:20:16Z</time>
</trkpt>
<trkpt lat="49.340835" lon="10.342657">
<ele>435</ele>
<time>2019-05-29T15:20:21Z</time>
</trkpt>
<trkpt lat="49.341018" lon="10.342845">
<ele>436</ele>
<time>2019-05-29T15:20:26Z</time>
</trkpt>
<trkpt lat="49.341195" lon="10.34303">
<ele>436</ele>
<time>2019-05-29T15:20:31Z</time>
</trkpt>
<trkpt lat="49.341373" lon="10.343213">
<ele>437</ele>
<time>2019-05-29T15:20:36Z</time>
</trkpt>
<trkpt lat="49.341533" lon="10.343388">
<ele>438</ele>
<time>2019-05-29T15:20:41Z</time>
</trkpt>
<trkpt lat="49.341693" lon="10.34355">
<ele>438</ele>
<time>2019-05-29T15:20:46Z</time>
</trkpt>
<trkpt lat="49.341873" lon="10.343723">
<ele>439</ele>
<time>2019-05-29T15:20:51Z</time>
</trkpt>
<trkpt lat="49.342055" lon="10.34391">
<ele>439</ele>
<time>2019-05-29T15:20:56Z</time>
</trkpt>
<trkpt lat="49.342253" lon="10.344117">
<ele>439</ele>
<time>2019-05-29T15:21:01Z</time>
</trkpt>
<trkpt lat="49.342493" lon="10.344317">
<ele>438</ele>
<time>2019-05-29T15:21:06Z</time>
</trkpt>
<trkpt lat="49.342813" lon="10.344487">
<ele>436</ele>
<time>2019-05-29T15:21:11Z</time>
</trkpt>
<trkpt lat="49.343183" lon="10.344622">
<ele>434</ele>
<time>2019-05-29T15:21:16Z</time>
</trkpt>
<trkpt lat="49.34363" lon="10.344783">
<ele>432</ele>
<time>2019-05-29T15:21:21Z</time>
</trkpt>
<trkpt lat="49.344145" lon="10.34495">
<ele>429</ele>
<time>2019-05-29T15:21:26Z</time>
</trkpt>
<trkpt lat="49.344642" lon="10.345168">
<ele>425</ele>
<time>2019-05-29T15:21:31Z</time>
</trkpt>
<trkpt lat="49.345148" lon="10.345458">
<ele>422</ele>
<time>2019-05-29T15:21:36Z</time>
</trkpt>
<trkpt lat="49.345582" lon="10.345793">
<ele>420</ele>
<time>2019-05-29T15:21:41Z</time>
</trkpt>
<trkpt lat="49.345972" lon="10.346165">
<ele>418</ele>
<time>2019-05-29T15:21:46Z</time>
</trkpt>
<trkpt lat="49.34637" lon="10.346508">
<ele>415</ele>
<time>2019-05-29T15:21:51Z</time>
</trkpt>
<trkpt lat="49.346812" lon="10.346708">
<ele>413</ele>
<time>2019-05-29T15:21:56Z</time>
</trkpt>
<trkpt lat="49.347253" lon="10.346752">
<ele>412</ele>
<time>2019-05-29T15:22:01Z</time>
</trkpt>
<trkpt lat="49.347672" lon="10.34668">
<ele>411</ele>
<time>2019-05-29T15:22:06Z</time>
</trkpt>
<trkpt lat="49.348012" lon="10.34646">
<ele>411</ele>
<time>2019-05-29T15:22:11Z</time>
</trkpt>
<trkpt lat="49.348367" lon="10.346373">
<ele>411</ele>
<time>2019-05-29T15:22:16Z</time>
</trkpt>
<trkpt lat="49.348702" lon="10.346543">
<ele>410</ele>
<time>2019-05-29T15:22:21Z</time>
</trkpt>
<trkpt lat="49.34894" lon="10.346942">
<ele>410</ele>
<time>2019-05-29T15:22:26Z</time>
</trkpt>
<trkpt lat="49.349007" lon="10.347468">
<ele>409</ele>
<time>2019-05-29T15:22:31Z</time>
</trkpt>
<trkpt lat="49.348992" lon="10.347972">
<ele>409</ele>
<time>2019-05-29T15:22:36Z</time>
</trkpt>
<trkpt lat="49.349068" lon="10.348443">
<ele>409</ele>
<time>2019-05-29T15:22:41Z</time>
</trkpt>
<trkpt lat="49.34932" lon="10.348773">
<ele>409</ele>
<time>2019-05-29T15:22:46Z</time>
</trkpt>
<trkpt lat="49.349497" lon="10.349063">
<ele>410</ele>
<time>2019-05-29T15:22:51Z</time>
</trkpt>
<trkpt lat="49.349633" lon="10.349248">
<ele>410</ele>
<time>2019-05-29T15:22:56Z</time>
</trkpt>
<trkpt lat="49.349805" lon="10.349433">
<ele>411</ele>
<time>2019-05-29T15:23:01Z</time>
</trkpt>
<trkpt lat="49.350005" lon="10.349685">
<ele>411</ele>
<time>2019-05-29T15:23:06Z</time>
</trkpt>
<trkpt lat="49.350257" lon="10.349853">
<ele>411</ele>
<time>2019-05-29T15:23:11Z</time>
</trkpt>
<trkpt lat="49.350628" lon="10.34981">
<ele>410</ele>
<time>2019-05-29T15:23:16Z</time>
</trkpt>
<trkpt lat="49.350983" lon="10.349747">
<ele>409</ele>
<time>2019-05-29T15:23:21Z</time>
</trkpt>
<trkpt lat="49.351337" lon="10.349928">
<ele>408</ele>
<time>2019-05-29T15:23:26Z</time>
</trkpt>
<trkpt lat="49.351658" lon="10.35024">
<ele>407</ele>
<time>2019-05-29T15:23:31Z</time>
</trkpt>
<trkpt lat="49.351957" lon="10.350525">
<ele>406</ele>
<time>2019-05-29T15:23:36Z</time>
</trkpt>
<trkpt lat="49.35223" lon="10.350797">
<ele>406</ele>
<time>2019-05-29T15:23:41Z</time>
</trkpt>
<trkpt lat="49.352498" lon="10.351067">
<ele>406</ele>
<time>2019-05-29T15:23:46Z</time>
</trkpt>
<trkpt lat="49.352712" lon="10.351435">
<ele>406</ele>
<time>2019-05-29T15:23:51Z</time>
</trkpt>
<trkpt lat="49.352837" lon="10.351867">
<ele>406</ele>
<time>2019-05-29T15:23:56Z</time>
</trkpt>
<trkpt lat="49.352958" lon="10.352332">
<ele>406</ele>
<time>2019-05-29T15:24:01Z</time>
</trkpt>
<trkpt lat="49.353092" lon="10.352763">
<ele>406</ele>
<time>2019-05-29T15:24:06Z</time>
</trkpt>
<trkpt lat="49.353312" lon="10.353068">
<ele>406</ele>
<time>2019-05-29T15:24:11Z</time>
</trkpt>
<trkpt lat="49.35362" lon="10.353187">
<ele>406</ele>
<time>2019-05-29T15:24:16Z</time>
</trkpt>
<trkpt lat="49.353932" lon="10.35326">
<ele>405</ele>
<time>2019-05-29T15:24:21Z</time>
</trkpt>
<trkpt lat="49.354232" lon="10.353287">
<ele>405</ele>
<time>2019-05-29T15:24:26Z</time>
</trkpt>
<trkpt lat="49.354537" lon="10.353267">
<ele>404</ele>
<time>2019-05-29T15:24:31Z</time>
</trkpt>
<trkpt lat="49.354832" lon="10.353258">
<ele>404</ele>
<time>2019-05-29T15:24:36Z</time>
</trkpt>
<trkpt lat="49.355118" lon="10.35324">
<ele>404</ele>
<time>2019-05-29T15:24:41Z</time>
</trkpt>
<trkpt lat="49.355382" lon="10.353232">
<ele>404</ele>
<time>2019-05-29T15:24:46Z</time>
</trkpt>
<trkpt lat="49.35564" lon="10.353228">
<ele>405</ele>
<time>2019-05-29T15:24:51Z</time>
</trkpt>
<trkpt lat="49.355898" lon="10.353243">
<ele>405</ele>
<time>2019-05-29T15:24:56Z</time>
</trkpt>
<trkpt lat="49.356138" lon="10.353285">
<ele>405</ele>
<time>2019-05-29T15:25:01Z</time>
</trkpt>
<trkpt lat="49.356382" lon="10.35331">
<ele>406</ele>
<time>2019-05-29T15:25:06Z</time>
</trkpt>
<trkpt lat="49.356662" lon="10.353352">
<ele>406</ele>
<time>2019-05-29T15:25:11Z</time>
</trkpt>
<trkpt lat="49.356948" lon="10.353412">
<ele>406</ele>
<time>2019-05-29T15:25:16Z</time>
</trkpt>
<trkpt lat="49.357247" lon="10.35346">
<ele>405</ele>
<time>2019-05-29T15:25:21Z</time>
</trkpt>
<trkpt lat="49.35753" lon="10.35353">
<ele>405</ele>
<time>2019-05-29T15:25:26Z</time>
</trkpt>
<trkpt lat="49.357822" lon="10.353648">
<ele>405</ele>
<time>2019-05-29T15:25:31Z</time>
</trkpt>
<trkpt lat="49.35807" lon="10.353825">
<ele>405</ele>
<time>2019-05-29T15:25:36Z</time>
</trkpt>
<trkpt lat="49.358282" lon="10.35403">
<ele>405</ele>
<time>2019-05-29T15:25:41Z</time>
</trkpt>
<trkpt lat="49.358487" lon="10.354287">
<ele>405</ele>
<time>2019-05-29T15:25:46Z</time>
</trkpt>
<trkpt lat="49.358703" lon="10.354575">
<ele>405</ele>
<time>2019-05-29T15:25:51Z</time>
</trkpt>
<trkpt lat="49.358897" lon="10.35485">
<ele>406</ele>
<time>2019-05-29T15:25:56Z</time>
</trkpt>
<trkpt lat="49.359138" lon="10.355103">
<ele>406</ele>
<time>2019-05-29T15:26:01Z</time>
</trkpt>
<trkpt lat="49.359365" lon="10.355312">
<ele>406</ele>
<time>2019-05-29T15:26:06Z</time>
</trkpt>
<trkpt lat="49.359587" lon="10.355537">
<ele>406</ele>
<time>2019-05-29T15:26:11Z</time>
</trkpt>
<trkpt lat="49.359788" lon="10.355797">
<ele>407</ele>
<time>2019-05-29T15:26:16Z</time>
</trkpt>
<trkpt lat="49.35996" lon="10.35612">
<ele>407</ele>
<time>2019-05-29T15:26:21Z</time>
</trkpt>
<trkpt lat="49.36012" lon="10.356438">
<ele>407</ele>
<time>2019-05-29T15:26:26Z</time>
</trkpt>
<trkpt lat="49.360297" lon="10.356767">
<ele>407</ele>
<time>2019-05-29T15:26:31Z</time>
</trkpt>
<trkpt lat="49.360453" lon="10.357053">
<ele>407</ele>
<time>2019-05-29T15:26:36Z</time>
</trkpt>
<trkpt lat="49.360608" lon="10.357323">
<ele>408</ele>
<time>2019-05-29T15:26:41Z</time>
</trkpt>
<trkpt lat="49.360763" lon="10.357593">
<ele>409</ele>
<time>2019-05-29T15:26:46Z</time>
</trkpt>
<trkpt lat="49.360905" lon="10.357852">
<ele>409</ele>
<time>2019-05-29T15:26:51Z</time>
</trkpt>
<trkpt lat="49.36105" lon="10.358097">
<ele>410</ele>
<time>2019-05-29T15:26:56Z</time>
</trkpt>
<trkpt lat="49.361222" lon="10.358298">
<ele>411</ele>
<time>2019-05-29T15:27:01Z</time>
</trkpt>
<trkpt lat="49.361415" lon="10.358463">
<ele>411</ele>
<time>2019-05-29T15:27:06Z</time>
</trkpt>
<trkpt lat="49.361628" lon="10.358577">
<ele>412</ele>
<time>2019-05-29T15:27:11Z</time>
</trkpt>
<trkpt lat="49.361853" lon="10.358658">
<ele>412</ele>
<time>2019-05-29T15:27:16Z</time>
</trkpt>
<trkpt lat="49.362077" lon="10.358725">
<ele>412</ele>
<time>2019-05-29T15:27:21Z</time>
</trkpt>
<trkpt lat="49.362312" lon="10.358802">
<ele>412</ele>
<time>2019-05-29T15:27:26Z</time>
</trkpt>
<trkpt lat="49.362548" lon="10.358875">
<ele>412</ele>
<time>2019-05-29T15:27:31Z</time>
</trkpt>
<trkpt lat="49.362788" lon="10.358955">
<ele>412</ele>
<time>2019-05-29T15:27:36Z</time>
</trkpt>
<trkpt lat="49.363035" lon="10.359035">
<ele>412</ele>
<time>2019-05-29T15:27:41Z</time>
</trkpt>
<trkpt lat="49.3633" lon="10.359115">
<ele>412</ele>
<time>2019-05-29T15:27:46Z</time>
</trkpt>
<trkpt lat="49.363597" lon="10.359205">
<ele>412</ele>
<time>2019-05-29T15:27:51Z</time>
</trkpt>
<trkpt lat="49.363902" lon="10.359327">
<ele>411</ele>
<time>2019-05-29T15:27:56Z</time>
</trkpt>
<trkpt lat="49.364212" lon="10.359453">
<ele>411</ele>
<time>2019-05-29T15:28:01Z</time>
</trkpt>
<trkpt lat="49.364528" lon="10.359615">
<ele>409</ele>
<time>2019-05-29T15:28:06Z</time>
</trkpt>
<trkpt lat="49.364847" lon="10.359825">
<ele>408</ele>
<time>2019-05-29T15:28:11Z</time>
</trkpt>
<trkpt lat="49.365172" lon="10.36005">
<ele>407</ele>
<time>2019-05-29T15:28:16Z</time>
</trkpt>
<trkpt lat="49.36546" lon="10.3603">
<ele>407</ele>
<time>2019-05-29T15:28:21Z</time>
</trkpt>
<trkpt lat="49.365698" lon="10.360545">
<ele>406</ele>
<time>2019-05-29T15:28:26Z</time>
</trkpt>
<trkpt lat="49.36591" lon="10.360775">
<ele>406</ele>
<time>2019-05-29T15:28:31Z</time>
</trkpt>
<trkpt lat="49.366115" lon="10.361005">
<ele>406</ele>
<time>2019-05-29T15:28:36Z</time>
</trkpt>
<trkpt lat="49.366325" lon="10.361228">
<ele>406</ele>
<time>2019-05-29T15:28:41Z</time>
</trkpt>
<trkpt lat="49.366513" lon="10.36144">
<ele>406</ele>
<time>2019-05-29T15:28:46Z</time>
</trkpt>
<trkpt lat="49.366682" lon="10.361633">
<ele>406</ele>
<time>2019-05-29T15:28:51Z</time>
</trkpt>
<trkpt lat="49.366783" lon="10.361783">
<ele>406</ele>
<time>2019-05-29T15:28:56Z</time>
</trkpt>
<trkpt lat="49.366797" lon="10.361783">
<ele>406</ele>
<time>2019-05-29T15:29:01Z</time>
</trkpt>
<trkpt lat="49.3668" lon="10.361788">
<ele>406</ele>
<time>2019-05-29T15:29:06Z</time>
</trkpt>
<trkpt lat="49.366827" lon="10.361822">
<ele>406</ele>
<time>2019-05-29T15:29:11Z</time>
</trkpt>
<trkpt lat="49.366912" lon="10.361947">
<ele>406</ele>
<time>2019-05-29T15:29:16Z</time>
</trkpt>
<trkpt lat="49.367033" lon="10.362073">
<ele>406</ele>
<time>2019-05-29T15:29:21Z</time>
</trkpt>
<trkpt lat="49.367217" lon="10.362232">
<ele>406</ele>
<time>2019-05-29T15:29:26Z</time>
</trkpt>
<trkpt lat="49.367373" lon="10.36239">
<ele>408</ele>
<time>2019-05-29T15:29:31Z</time>
</trkpt>
<trkpt lat="49.367508" lon="10.362535">
<ele>408</ele>
<time>2019-05-29T15:29:36Z</time>
</trkpt>
<trkpt lat="49.367643" lon="10.362677">
<ele>409</ele>
<time>2019-05-29T15:29:41Z</time>
</trkpt>
<trkpt lat="49.367768" lon="10.36282">
<ele>410</ele>
<time>2019-05-29T15:29:46Z</time>
</trkpt>
<trkpt lat="49.367905" lon="10.362973">
<ele>410</ele>
<time>2019-05-29T15:29:51Z</time>
</trkpt>
<trkpt lat="49.368052" lon="10.363148">
<ele>411</ele>
<time>2019-05-29T15:29:56Z</time>
</trkpt>
<trkpt lat="49.368212" lon="10.363325">
<ele>411</ele>
<time>2019-05-29T15:30:01Z</time>
</trkpt>
<trkpt lat="49.368378" lon="10.363523">
<ele>411</ele>
<time>2019-05-29T15:30:06Z</time>
</trkpt>
<trkpt lat="49.368557" lon="10.363698">
<ele>411</ele>
<time>2019-05-29T15:30:11Z</time>
</trkpt>
<trkpt lat="49.368745" lon="10.363867">
<ele>411</ele>
<time>2019-05-29T15:30:16Z</time>
</trkpt>
<trkpt lat="49.368945" lon="10.364037">
<ele>411</ele>
<time>2019-05-29T15:30:21Z</time>
</trkpt>
<trkpt lat="49.369157" lon="10.364227">
<ele>411</ele>
<time>2019-05-29T15:30:26Z</time>
</trkpt>
<trkpt lat="49.369382" lon="10.36441">
<ele>411</ele>
<time>2019-05-29T15:30:31Z</time>
</trkpt>
<trkpt lat="49.369615" lon="10.364597">
<ele>411</ele>
<time>2019-05-29T15:30:36Z</time>
</trkpt>
<trkpt lat="49.369863" lon="10.364787">
<ele>411</ele>
<time>2019-05-29T15:30:41Z</time>
</trkpt>
<trkpt lat="49.370113" lon="10.364995">
<ele>410</ele>
<time>2019-05-29T15:30:46Z</time>
</trkpt>
<trkpt lat="49.370365" lon="10.365205">
<ele>410</ele>
<time>2019-05-29T15:30:51Z</time>
</trkpt>
<trkpt lat="49.37063" lon="10.36541">
<ele>410</ele>
<time>2019-05-29T15:30:56Z</time>
</trkpt>
<trkpt lat="49.370867" lon="10.365607">
<ele>410</ele>
<time>2019-05-29T15:31:01Z</time>
</trkpt>
<trkpt lat="49.371085" lon="10.365762">
<ele>410</ele>
<time>2019-05-29T15:31:06Z</time>
</trkpt>
<trkpt lat="49.3713" lon="10.365928">
<ele>410</ele>
<time>2019-05-29T15:31:11Z</time>
</trkpt>
<trkpt lat="49.371522" lon="10.366068">
<ele>410</ele>
<time>2019-05-29T15:31:16Z</time>
</trkpt>
<trkpt lat="49.371755" lon="10.366223">
<ele>411</ele>
<time>2019-05-29T15:31:21Z</time>
</trkpt>
<trkpt lat="49.372007" lon="10.366415">
<ele>411</ele>
<time>2019-05-29T15:31:26Z</time>
</trkpt>
<trkpt lat="49.372255" lon="10.36662">
<ele>412</ele>
<time>2019-05-29T15:31:31Z</time>
</trkpt>
<trkpt lat="49.372465" lon="10.36684">
<ele>412</ele>
<time>2019-05-29T15:31:36Z</time>
</trkpt>
<trkpt lat="49.372667" lon="10.367053">
<ele>412</ele>
<time>2019-05-29T15:31:41Z</time>
</trkpt>
<trkpt lat="49.372857" lon="10.367287">
<ele>413</ele>
<time>2019-05-29T15:31:46Z</time>
</trkpt>
<trkpt lat="49.373042" lon="10.36752">
<ele>413</ele>
<time>2019-05-29T15:31:51Z</time>
</trkpt>
<trkpt lat="49.37323" lon="10.367747">
<ele>413</ele>
<time>2019-05-29T15:31:56Z</time>
</trkpt>
<trkpt lat="49.373442" lon="10.367933">
<ele>413</ele>
<time>2019-05-29T15:32:01Z</time>
</trkpt>
<trkpt lat="49.37368" lon="10.368055">
<ele>413</ele>
<time>2019-05-29T15:32:06Z</time>
</trkpt>
<trkpt lat="49.373892" lon="10.36815">
<ele>413</ele>
<time>2019-05-29T15:32:11Z</time>
</trkpt>
<trkpt lat="49.374122" lon="10.368218">
<ele>414</ele>
<time>2019-05-29T15:32:16Z</time>
</trkpt>
<trkpt lat="49.374352" lon="10.36828">
<ele>414</ele>
<time>2019-05-29T15:32:21Z</time>
</trkpt>
<trkpt lat="49.374617" lon="10.368302">
<ele>414</ele>
<time>2019-05-29T15:32:26Z</time>
</trkpt>
<trkpt lat="49.374907" lon="10.368282">
<ele>414</ele>
<time>2019-05-29T15:32:31Z</time>
</trkpt>
<trkpt lat="49.375205" lon="10.368217">
<ele>414</ele>
<time>2019-05-29T15:32:36Z</time>
</trkpt>
<trkpt lat="49.375515" lon="10.368165">
<ele>414</ele>
<time>2019-05-29T15:32:41Z</time>
</trkpt>
<trkpt lat="49.375822" lon="10.368083">
<ele>414</ele>
<time>2019-05-29T15:32:46Z</time>
</trkpt>
<trkpt lat="49.376143" lon="10.367977">
<ele>413</ele>
<time>2019-05-29T15:32:51Z</time>
</trkpt>
<trkpt lat="49.376453" lon="10.367852">
<ele>412</ele>
<time>2019-05-29T15:32:56Z</time>
</trkpt>
<trkpt lat="49.376747" lon="10.367725">
<ele>412</ele>
<time>2019-05-29T15:33:01Z</time>
</trkpt>
<trkpt lat="49.37703" lon="10.367627">
<ele>412</ele>
<time>2019-05-29T15:33:06Z</time>
</trkpt>
<trkpt lat="49.377328" lon="10.367583">
<ele>412</ele>
<time>2019-05-29T15:33:11Z</time>
</trkpt>
<trkpt lat="49.377635" lon="10.367552">
<ele>412</ele>
<time>2019-05-29T15:33:16Z</time>
</trkpt>
<trkpt lat="49.37794" lon="10.367527">
<ele>412</ele>
<time>2019-05-29T15:33:21Z</time>
</trkpt>
<trkpt lat="49.378245" lon="10.367508">
<ele>412</ele>
<time>2019-05-29T15:33:26Z</time>
</trkpt>
<trkpt lat="49.37853" lon="10.3675">
<ele>411</ele>
<time>2019-05-29T15:33:31Z</time>
</trkpt>
<trkpt lat="49.378807" lon="10.36751">
<ele>411</ele>
<time>2019-05-29T15:33:36Z</time>
</trkpt>
<trkpt lat="49.37909" lon="10.367542">
<ele>411</ele>
<time>2019-05-29T15:33:41Z</time>
</trkpt>
<trkpt lat="49.379368" lon="10.367578">
<ele>411</ele>
<time>2019-05-29T15:33:46Z</time>
</trkpt>
<trkpt lat="49.379663" lon="10.367617">
<ele>411</ele>
<time>2019-05-29T15:33:51Z</time>
</trkpt>
<trkpt lat="49.379962" lon="10.367663">
<ele>410</ele>
<time>2019-05-29T15:33:56Z</time>
</trkpt>
<trkpt lat="49.380257" lon="10.367703">
<ele>410</ele>
<time>2019-05-29T15:34:01Z</time>
</trkpt>
<trkpt lat="49.380558" lon="10.367748">
<ele>410</ele>
<time>2019-05-29T15:34:06Z</time>
</trkpt>
<trkpt lat="49.380852" lon="10.367808">
<ele>410</ele>
<time>2019-05-29T15:34:11Z</time>
</trkpt>
<trkpt lat="49.381138" lon="10.367898">
<ele>410</ele>
<time>2019-05-29T15:34:16Z</time>
</trkpt>
<trkpt lat="49.381393" lon="10.368052">
<ele>409</ele>
<time>2019-05-29T15:34:21Z</time>
</trkpt>
<trkpt lat="49.38163" lon="10.368287">
<ele>409</ele>
<time>2019-05-29T15:34:26Z</time>
</trkpt>
<trkpt lat="49.381825" lon="10.368642">
<ele>409</ele>
<time>2019-05-29T15:34:31Z</time>
</trkpt>
<trkpt lat="49.38192" lon="10.369067">
<ele>409</ele>
<time>2019-05-29T15:34:36Z</time>
</trkpt>
<trkpt lat="49.381953" lon="10.369497">
<ele>408</ele>
<time>2019-05-29T15:34:41Z</time>
</trkpt>
<trkpt lat="49.381983" lon="10.369928">
<ele>408</ele>
<time>2019-05-29T15:34:46Z</time>
</trkpt>
<trkpt lat="49.382013" lon="10.370375">
<ele>408</ele>
<time>2019-05-29T15:34:51Z</time>
</trkpt>
<trkpt lat="49.382135" lon="10.370778">
<ele>408</ele>
<time>2019-05-29T15:34:56Z</time>
</trkpt>
<trkpt lat="49.382377" lon="10.371008">
<ele>408</ele>
<time>2019-05-29T15:35:01Z</time>
</trkpt>
<trkpt lat="49.382663" lon="10.371095">
<ele>408</ele>
<time>2019-05-29T15:35:06Z</time>
</trkpt>
<trkpt lat="49.382967" lon="10.371043">
<ele>408</ele>
<time>2019-05-29T15:35:11Z</time>
</trkpt>
<trkpt lat="49.383252" lon="10.370978">
<ele>408</ele>
<time>2019-05-29T15:35:16Z</time>
</trkpt>
<trkpt lat="49.383545" lon="10.370913">
<ele>408</ele>
<time>2019-05-29T15:35:21Z</time>
</trkpt>
<trkpt lat="49.38384" lon="10.370855">
<ele>408</ele>
<time>2019-05-29T15:35:26Z</time>
</trkpt>
<trkpt lat="49.384145" lon="10.370813">
<ele>408</ele>
<time>2019-05-29T15:35:32Z</time>
</trkpt>
<trkpt lat="49.384338" lon="10.370802">
<ele>408</ele>
<time>2019-05-29T15:35:37Z</time>
</trkpt>
<trkpt lat="49.384537" lon="10.370827">
<ele>408</ele>
<time>2019-05-29T15:35:42Z</time>
</trkpt>
<trkpt lat="49.384763" lon="10.370838">
<ele>408</ele>
<time>2019-05-29T15:35:47Z</time>
</trkpt>
<trkpt lat="49.385042" lon="10.37076">
<ele>408</ele>
<time>2019-05-29T15:35:52Z</time>
</trkpt>
<trkpt lat="49.385323" lon="10.370595">
<ele>408</ele>
<time>2019-05-29T15:35:57Z</time>
</trkpt>
<trkpt lat="49.385612" lon="10.370562">
<ele>408</ele>
<time>2019-05-29T15:36:02Z</time>
</trkpt>
<trkpt lat="49.38582" lon="10.370675">
<ele>408</ele>
<time>2019-05-29T15:36:07Z</time>
</trkpt>
<trkpt lat="49.38597" lon="10.370937">
<ele>408</ele>
<time>2019-05-29T15:36:12Z</time>
</trkpt>
<trkpt lat="49.386028" lon="10.371323">
<ele>408</ele>
<time>2019-05-29T15:36:17Z</time>
</trkpt>
<trkpt lat="49.386048" lon="10.371715">
<ele>408</ele>
<time>2019-05-29T15:36:22Z</time>
</trkpt>
<trkpt lat="49.386072" lon="10.37208">
<ele>408</ele>
<time>2019-05-29T15:36:27Z</time>
</trkpt>
<trkpt lat="49.386082" lon="10.37248">
<ele>408</ele>
<time>2019-05-29T15:36:32Z</time>
</trkpt>
<trkpt lat="49.386093" lon="10.3729">
<ele>408</ele>
<time>2019-05-29T15:36:37Z</time>
</trkpt>
<trkpt lat="49.386135" lon="10.373287">
<ele>408</ele>
<time>2019-05-29T15:36:42Z</time>
</trkpt>
<trkpt lat="49.386232" lon="10.373633">
<ele>408</ele>
<time>2019-05-29T15:36:47Z</time>
</trkpt>
<trkpt lat="49.386373" lon="10.373982">
<ele>408</ele>
<time>2019-05-29T15:36:52Z</time>
</trkpt>
<trkpt lat="49.386587" lon="10.374263">
<ele>408</ele>
<time>2019-05-29T15:36:57Z</time>
</trkpt>
<trkpt lat="49.386848" lon="10.374468">
<ele>408</ele>
<time>2019-05-29T15:37:02Z</time>
</trkpt>
<trkpt lat="49.387133" lon="10.374582">
<ele>408</ele>
<time>2019-05-29T15:37:07Z</time>
</trkpt>
<trkpt lat="49.387428" lon="10.374602">
<ele>408</ele>
<time>2019-05-29T15:37:12Z</time>
</trkpt>
<trkpt lat="49.387692" lon="10.374562">
<ele>408</ele>
<time>2019-05-29T15:37:17Z</time>
</trkpt>
<trkpt lat="49.38796" lon="10.374493">
<ele>408</ele>
<time>2019-05-29T15:37:22Z</time>
</trkpt>
<trkpt lat="49.388247" lon="10.374407">
<ele>409</ele>
<time>2019-05-29T15:37:27Z</time>
</trkpt>
<trkpt lat="49.388518" lon="10.3743">
<ele>409</ele>
<time>2019-05-29T15:37:32Z</time>
</trkpt>
<trkpt lat="49.388783" lon="10.374162">
<ele>409</ele>
<time>2019-05-29T15:37:37Z</time>
</trkpt>
<trkpt lat="49.389032" lon="10.374002">
<ele>409</ele>
<time>2019-05-29T15:37:42Z</time>
</trkpt>
<trkpt lat="49.38928" lon="10.373845">
<ele>409</ele>
<time>2019-05-29T15:37:47Z</time>
</trkpt>
<trkpt lat="49.389533" lon="10.373697">
<ele>409</ele>
<time>2019-05-29T15:37:52Z</time>
</trkpt>
<trkpt lat="49.38979" lon="10.373592">
<ele>409</ele>
<time>2019-05-29T15:37:57Z</time>
</trkpt>
<trkpt lat="49.390072" lon="10.373565">
<ele>409</ele>
<time>2019-05-29T15:38:02Z</time>
</trkpt>
<trkpt lat="49.39035" lon="10.373605">
<ele>409</ele>
<time>2019-05-29T15:38:07Z</time>
</trkpt>
<trkpt lat="49.390608" lon="10.373692">
<ele>409</ele>
<time>2019-05-29T15:38:12Z</time>
</trkpt>
<trkpt lat="49.390845" lon="10.373833">
<ele>409</ele>
<time>2019-05-29T15:38:17Z</time>
</trkpt>
<trkpt lat="49.39105" lon="10.374023">
<ele>410</ele>
<time>2019-05-29T15:38:22Z</time>
</trkpt>
<trkpt lat="49.391237" lon="10.374248">
<ele>410</ele>
<time>2019-05-29T15:38:27Z</time>
</trkpt>
<trkpt lat="49.39141" lon="10.374535">
<ele>411</ele>
<time>2019-05-29T15:38:32Z</time>
</trkpt>
<trkpt lat="49.391573" lon="10.374825">
<ele>411</ele>
<time>2019-05-29T15:38:37Z</time>
</trkpt>
<trkpt lat="49.391728" lon="10.375093">
<ele>411</ele>
<time>2019-05-29T15:38:42Z</time>
</trkpt>
<trkpt lat="49.391883" lon="10.375362">
<ele>412</ele>
<time>2019-05-29T15:38:47Z</time>
</trkpt>
<trkpt lat="49.392033" lon="10.375628">
<ele>413</ele>
<time>2019-05-29T15:38:52Z</time>
</trkpt>
<trkpt lat="49.392178" lon="10.375892">
<ele>414</ele>
<time>2019-05-29T15:38:57Z</time>
</trkpt>
<trkpt lat="49.392328" lon="10.376152">
<ele>414</ele>
<time>2019-05-29T15:39:02Z</time>
</trkpt>
<trkpt lat="49.392457" lon="10.376377">
<ele>414</ele>
<time>2019-05-29T15:39:07Z</time>
</trkpt>
<trkpt lat="49.392578" lon="10.376593">
<ele>415</ele>
<time>2019-05-29T15:39:12Z</time>
</trkpt>
<trkpt lat="49.392722" lon="10.376817">
<ele>416</ele>
<time>2019-05-29T15:39:17Z</time>
</trkpt>
<trkpt lat="49.392862" lon="10.377042">
<ele>416</ele>
<time>2019-05-29T15:39:22Z</time>
</trkpt>
<trkpt lat="49.392993" lon="10.37727">
<ele>417</ele>
<time>2019-05-29T15:39:27Z</time>
</trkpt>
<trkpt lat="49.393117" lon="10.377475">
<ele>417</ele>
<time>2019-05-29T15:39:32Z</time>
</trkpt>
<trkpt lat="49.39323" lon="10.377668">
<ele>418</ele>
<time>2019-05-29T15:39:37Z</time>
</trkpt>
<trkpt lat="49.393337" lon="10.37787">
<ele>419</ele>
<time>2019-05-29T15:39:42Z</time>
</trkpt>
<trkpt lat="49.393437" lon="10.378075">
<ele>420</ele>
<time>2019-05-29T15:39:47Z</time>
</trkpt>
<trkpt lat="49.393523" lon="10.378255">
<ele>421</ele>
<time>2019-05-29T15:39:52Z</time>
</trkpt>
<trkpt lat="49.393602" lon="10.378452">
<ele>422</ele>
<time>2019-05-29T15:39:57Z</time>
</trkpt>
<trkpt lat="49.39366" lon="10.37868">
<ele>423</ele>
<time>2019-05-29T15:40:02Z</time>
</trkpt>
<trkpt lat="49.393725" lon="10.3789">
<ele>423</ele>
<time>2019-05-29T15:40:07Z</time>
</trkpt>
<trkpt lat="49.393785" lon="10.379128">
<ele>424</ele>
<time>2019-05-29T15:40:12Z</time>
</trkpt>
<trkpt lat="49.393827" lon="10.37938">
<ele>424</ele>
<time>2019-05-29T15:40:17Z</time>
</trkpt>
<trkpt lat="49.393867" lon="10.379673">
<ele>425</ele>
<time>2019-05-29T15:40:22Z</time>
</trkpt>
<trkpt lat="49.393898" lon="10.379985">
<ele>425</ele>
<time>2019-05-29T15:40:27Z</time>
</trkpt>
<trkpt lat="49.393913" lon="10.380283">
<ele>425</ele>
<time>2019-05-29T15:40:32Z</time>
</trkpt>
<trkpt lat="49.393925" lon="10.380567">
<ele>425</ele>
<time>2019-05-29T15:40:37Z</time>
</trkpt>
<trkpt lat="49.393945" lon="10.380883">
<ele>425</ele>
<time>2019-05-29T15:40:42Z</time>
</trkpt>
<trkpt lat="49.39395" lon="10.381227">
<ele>425</ele>
<time>2019-05-29T15:40:47Z</time>
</trkpt>
<trkpt lat="49.394135" lon="10.3815">
<ele>425</ele>
<time>2019-05-29T15:40:52Z</time>
</trkpt>
<trkpt lat="49.394435" lon="10.381532">
<ele>424</ele>
<time>2019-05-29T15:40:57Z</time>
</trkpt>
<trkpt lat="49.394738" lon="10.381583">
<ele>424</ele>
<time>2019-05-29T15:41:02Z</time>
</trkpt>
<trkpt lat="49.395033" lon="10.38164">
<ele>424</ele>
<time>2019-05-29T15:41:07Z</time>
</trkpt>
<trkpt lat="49.395272" lon="10.381692">
<ele>424</ele>
<time>2019-05-29T15:41:12Z</time>
</trkpt>
<trkpt lat="49.395485" lon="10.381752">
<ele>425</ele>
<time>2019-05-29T15:41:17Z</time>
</trkpt>
<trkpt lat="49.395675" lon="10.3818">
<ele>425</ele>
<time>2019-05-29T15:41:22Z</time>
</trkpt>
<trkpt lat="49.395843" lon="10.381843">
<ele>425</ele>
<time>2019-05-29T15:41:27Z</time>
</trkpt>
<trkpt lat="49.396032" lon="10.381893">
<ele>425</ele>
<time>2019-05-29T15:41:32Z</time>
</trkpt>
<trkpt lat="49.396218" lon="10.381973">
<ele>426</ele>
<time>2019-05-29T15:41:37Z</time>
</trkpt>
<trkpt lat="49.396405" lon="10.382042">
<ele>426</ele>
<time>2019-05-29T15:41:42Z</time>
</trkpt>
<trkpt lat="49.396595" lon="10.382097">
<ele>427</ele>
<time>2019-05-29T15:41:47Z</time>
</trkpt>
<trkpt lat="49.396787" lon="10.382145">
<ele>428</ele>
<time>2019-05-29T15:41:52Z</time>
</trkpt>
<trkpt lat="49.396975" lon="10.382223">
<ele>429</ele>
<time>2019-05-29T15:41:57Z</time>
</trkpt>
<trkpt lat="49.397138" lon="10.3823">
<ele>429</ele>
<time>2019-05-29T15:42:02Z</time>
</trkpt>
<trkpt lat="49.3973" lon="10.382397">
<ele>430</ele>
<time>2019-05-29T15:42:07Z</time>
</trkpt>
<trkpt lat="49.39748" lon="10.382457">
<ele>431</ele>
<time>2019-05-29T15:42:12Z</time>
</trkpt>
<trkpt lat="49.397648" lon="10.382512">
<ele>432</ele>
<time>2019-05-29T15:42:17Z</time>
</trkpt>
<trkpt lat="49.397793" lon="10.382578">
<ele>433</ele>
<time>2019-05-29T15:42:22Z</time>
</trkpt>
<trkpt lat="49.397937" lon="10.382655">
<ele>434</ele>
<time>2019-05-29T15:42:27Z</time>
</trkpt>
<trkpt lat="49.39806" lon="10.382712">
<ele>434</ele>
<time>2019-05-29T15:42:32Z</time>
</trkpt>
<trkpt lat="49.398198" lon="10.382775">
<ele>435</ele>
<time>2019-05-29T15:42:37Z</time>
</trkpt>
<trkpt lat="49.398342" lon="10.382853">
<ele>436</ele>
<time>2019-05-29T15:42:42Z</time>
</trkpt>
<trkpt lat="49.398463" lon="10.382908">
<ele>437</ele>
<time>2019-05-29T15:42:47Z</time>
</trkpt>
<trkpt lat="49.398563" lon="10.382963">
<ele>438</ele>
<time>2019-05-29T15:42:52Z</time>
</trkpt>
<trkpt lat="49.398687" lon="10.383022">
<ele>439</ele>
<time>2019-05-29T15:42:57Z</time>
</trkpt>
<trkpt lat="49.398845" lon="10.3831">
<ele>440</ele>
<time>2019-05-29T15:43:02Z</time>
</trkpt>
<trkpt lat="49.399017" lon="10.383183">
<ele>441</ele>
<time>2019-05-29T15:43:07Z</time>
</trkpt>
<trkpt lat="49.399167" lon="10.383277">
<ele>442</ele>
<time>2019-05-29T15:43:12Z</time>
</trkpt>
<trkpt lat="49.399315" lon="10.383352">
<ele>443</ele>
<time>2019-05-29T15:43:17Z</time>
</trkpt>
<trkpt lat="49.39945" lon="10.383412">
<ele>444</ele>
<time>2019-05-29T15:43:22Z</time>
</trkpt>
<trkpt lat="49.39959" lon="10.38351">
<ele>444</ele>
<time>2019-05-29T15:43:27Z</time>
</trkpt>
<trkpt lat="49.399735" lon="10.383588">
<ele>445</ele>
<time>2019-05-29T15:43:32Z</time>
</trkpt>
<trkpt lat="49.399875" lon="10.383655">
<ele>445</ele>
<time>2019-05-29T15:43:37Z</time>
</trkpt>
<trkpt lat="49.40004" lon="10.383718">
<ele>446</ele>
<time>2019-05-29T15:43:42Z</time>
</trkpt>
<trkpt lat="49.400177" lon="10.383793">
<ele>446</ele>
<time>2019-05-29T15:43:47Z</time>
</trkpt>
<trkpt lat="49.400342" lon="10.383877">
<ele>447</ele>
<time>2019-05-29T15:43:52Z</time>
</trkpt>
<trkpt lat="49.400573" lon="10.383983">
<ele>447</ele>
<time>2019-05-29T15:43:58Z</time>
</trkpt>
<trkpt lat="49.400763" lon="10.384055">
<ele>447</ele>
<time>2019-05-29T15:44:03Z</time>
</trkpt>
<trkpt lat="49.400955" lon="10.384147">
<ele>447</ele>
<time>2019-05-29T15:44:08Z</time>
</trkpt>
<trkpt lat="49.401178" lon="10.38422">
<ele>447</ele>
<time>2019-05-29T15:44:13Z</time>
</trkpt>
<trkpt lat="49.401482" lon="10.384262">
<ele>447</ele>
<time>2019-05-29T15:44:19Z</time>
</trkpt>
<trkpt lat="49.401792" lon="10.384285">
<ele>445</ele>
<time>2019-05-29T15:44:24Z</time>
</trkpt>
<trkpt lat="49.402227" lon="10.384313">
<ele>445</ele>
<time>2019-05-29T15:44:30Z</time>
</trkpt>
<trkpt lat="49.402587" lon="10.384338">
<ele>444</ele>
<time>2019-05-29T15:44:35Z</time>
</trkpt>
<trkpt lat="49.402963" lon="10.384362">
<ele>443</ele>
<time>2019-05-29T15:44:40Z</time>
</trkpt>
<trkpt lat="49.40335" lon="10.38436">
<ele>441</ele>
<time>2019-05-29T15:44:45Z</time>
</trkpt>
<trkpt lat="49.403708" lon="10.384435">
<ele>441</ele>
<time>2019-05-29T15:44:50Z</time>
</trkpt>
<trkpt lat="49.404088" lon="10.384578">
<ele>440</ele>
<time>2019-05-29T15:44:56Z</time>
</trkpt>
<trkpt lat="49.404408" lon="10.384707">
<ele>439</ele>
<time>2019-05-29T15:45:01Z</time>
</trkpt>
<trkpt lat="49.404752" lon="10.384872">
<ele>437</ele>
<time>2019-05-29T15:45:06Z</time>
</trkpt>
<trkpt lat="49.405133" lon="10.385082">
<ele>436</ele>
<time>2019-05-29T15:45:11Z</time>
</trkpt>
<trkpt lat="49.405497" lon="10.385292">
<ele>435</ele>
<time>2019-05-29T15:45:16Z</time>
</trkpt>
<trkpt lat="49.405782" lon="10.385535">
<ele>435</ele>
<time>2019-05-29T15:45:21Z</time>
</trkpt>
<trkpt lat="49.406047" lon="10.38587">
<ele>435</ele>
<time>2019-05-29T15:45:27Z</time>
</trkpt>
<trkpt lat="49.406205" lon="10.386138">
<ele>435</ele>
<time>2019-05-29T15:45:32Z</time>
</trkpt>
<trkpt lat="49.406298" lon="10.386408">
<ele>436</ele>
<time>2019-05-29T15:45:37Z</time>
</trkpt>
<trkpt lat="49.406385" lon="10.386695">
<ele>437</ele>
<time>2019-05-29T15:45:42Z</time>
</trkpt>
<trkpt lat="49.40646" lon="10.387">
<ele>438</ele>
<time>2019-05-29T15:45:47Z</time>
</trkpt>
<trkpt lat="49.406515" lon="10.38729">
<ele>438</ele>
<time>2019-05-29T15:45:52Z</time>
</trkpt>
<trkpt lat="49.406552" lon="10.387567">
<ele>438</ele>
<time>2019-05-29T15:45:57Z</time>
</trkpt>
<trkpt lat="49.406598" lon="10.387908">
<ele>439</ele>
<time>2019-05-29T15:46:03Z</time>
</trkpt>
<trkpt lat="49.40663" lon="10.388172">
<ele>440</ele>
<time>2019-05-29T15:46:08Z</time>
</trkpt>
<trkpt lat="49.406672" lon="10.388505">
<ele>441</ele>
<time>2019-05-29T15:46:14Z</time>
</trkpt>
<trkpt lat="49.40671" lon="10.388765">
<ele>442</ele>
<time>2019-05-29T15:46:19Z</time>
</trkpt>
<trkpt lat="49.406747" lon="10.389028">
<ele>442</ele>
<time>2019-05-29T15:46:24Z</time>
</trkpt>
<trkpt lat="49.40679" lon="10.389313">
<ele>443</ele>
<time>2019-05-29T15:46:29Z</time>
</trkpt>
<trkpt lat="49.406857" lon="10.389635">
<ele>443</ele>
<time>2019-05-29T15:46:35Z</time>
</trkpt>
<trkpt lat="49.40693" lon="10.389913">
<ele>444</ele>
<time>2019-05-29T15:46:40Z</time>
</trkpt>
<trkpt lat="49.407045" lon="10.390277">
<ele>444</ele>
<time>2019-05-29T15:46:46Z</time>
</trkpt>
<trkpt lat="49.40716" lon="10.390578">
<ele>444</ele>
<time>2019-05-29T15:46:51Z</time>
</trkpt>
<trkpt lat="49.4073" lon="10.39091">
<ele>444</ele>
<time>2019-05-29T15:46:57Z</time>
</trkpt>
<trkpt lat="49.407433" lon="10.391212">
<ele>444</ele>
<time>2019-05-29T15:47:02Z</time>
</trkpt>
<trkpt lat="49.407598" lon="10.391508">
<ele>444</ele>
<time>2019-05-29T15:47:07Z</time>
</trkpt>
<trkpt lat="49.407782" lon="10.391787">
<ele>444</ele>
<time>2019-05-29T15:47:12Z</time>
</trkpt>
<trkpt lat="49.40798" lon="10.392045">
<ele>443</ele>
<time>2019-05-29T15:47:17Z</time>
</trkpt>
<trkpt lat="49.408252" lon="10.392388">
<ele>442</ele>
<time>2019-05-29T15:47:23Z</time>
</trkpt>
<trkpt lat="49.408542" lon="10.392763">
<ele>442</ele>
<time>2019-05-29T15:47:29Z</time>
</trkpt>
<trkpt lat="49.4088" lon="10.393087">
<ele>442</ele>
<time>2019-05-29T15:47:34Z</time>
</trkpt>
<trkpt lat="49.409072" lon="10.393428">
<ele>440</ele>
<time>2019-05-29T15:47:39Z</time>
</trkpt>
<trkpt lat="49.409362" lon="10.393782">
<ele>439</ele>
<time>2019-05-29T15:47:44Z</time>
</trkpt>
<trkpt lat="49.409727" lon="10.39422">
<ele>438</ele>
<time>2019-05-29T15:47:50Z</time>
</trkpt>
<trkpt lat="49.41012" lon="10.394668">
<ele>436</ele>
<time>2019-05-29T15:47:56Z</time>
</trkpt>
<trkpt lat="49.410518" lon="10.39512">
<ele>435</ele>
<time>2019-05-29T15:48:02Z</time>
</trkpt>
<trkpt lat="49.41084" lon="10.395472">
<ele>434</ele>
<time>2019-05-29T15:48:07Z</time>
</trkpt>
<trkpt lat="49.411142" lon="10.395792">
<ele>433</ele>
<time>2019-05-29T15:48:12Z</time>
</trkpt>
<trkpt lat="49.41143" lon="10.396113">
<ele>432</ele>
<time>2019-05-29T15:48:17Z</time>
</trkpt>
<trkpt lat="49.411692" lon="10.396468">
<ele>431</ele>
<time>2019-05-29T15:48:22Z</time>
</trkpt>
<trkpt lat="49.411923" lon="10.396903">
<ele>431</ele>
<time>2019-05-29T15:48:27Z</time>
</trkpt>
<trkpt lat="49.412112" lon="10.39736">
<ele>431</ele>
<time>2019-05-29T15:48:32Z</time>
</trkpt>
<trkpt lat="49.412253" lon="10.397792">
<ele>431</ele>
<time>2019-05-29T15:48:37Z</time>
</trkpt>
<trkpt lat="49.412392" lon="10.398247">
<ele>431</ele>
<time>2019-05-29T15:48:42Z</time>
</trkpt>
<trkpt lat="49.412517" lon="10.398683">
<ele>430</ele>
<time>2019-05-29T15:48:47Z</time>
</trkpt>
<trkpt lat="49.412643" lon="10.399117">
<ele>430</ele>
<time>2019-05-29T15:48:52Z</time>
</trkpt>
<trkpt lat="49.41276" lon="10.399537">
<ele>430</ele>
<time>2019-05-29T15:48:57Z</time>
</trkpt>
<trkpt lat="49.412877" lon="10.399955">
<ele>430</ele>
<time>2019-05-29T15:49:02Z</time>
</trkpt>
<trkpt lat="49.413003" lon="10.40036">
<ele>430</ele>
<time>2019-05-29T15:49:07Z</time>
</trkpt>
<trkpt lat="49.413125" lon="10.400778">
<ele>430</ele>
<time>2019-05-29T15:49:12Z</time>
</trkpt>
<trkpt lat="49.413252" lon="10.401208">
<ele>429</ele>
<time>2019-05-29T15:49:17Z</time>
</trkpt>
<trkpt lat="49.413378" lon="10.401613">
<ele>429</ele>
<time>2019-05-29T15:49:22Z</time>
</trkpt>
<trkpt lat="49.413498" lon="10.402047">
<ele>429</ele>
<time>2019-05-29T15:49:27Z</time>
</trkpt>
<trkpt lat="49.413602" lon="10.402487">
<ele>429</ele>
<time>2019-05-29T15:49:32Z</time>
</trkpt>
<trkpt lat="49.41361" lon="10.402912">
<ele>429</ele>
<time>2019-05-29T15:49:37Z</time>
</trkpt>
<trkpt lat="49.413598" lon="10.403292">
<ele>429</ele>
<time>2019-05-29T15:49:42Z</time>
</trkpt>
<trkpt lat="49.413592" lon="10.403755">
<ele>429</ele>
<time>2019-05-29T15:49:47Z</time>
</trkpt>
<trkpt lat="49.413557" lon="10.404347">
<ele>427</ele>
<time>2019-05-29T15:49:52Z</time>
</trkpt>
<trkpt lat="49.413522" lon="10.404963">
<ele>425</ele>
<time>2019-05-29T15:49:57Z</time>
</trkpt>
<trkpt lat="49.41348" lon="10.405672">
<ele>425</ele>
<time>2019-05-29T15:50:03Z</time>
</trkpt>
<trkpt lat="49.413458" lon="10.406228">
<ele>424</ele>
<time>2019-05-29T15:50:08Z</time>
</trkpt>
<trkpt lat="49.413452" lon="10.406787">
<ele>424</ele>
<time>2019-05-29T15:50:13Z</time>
</trkpt>
<trkpt lat="49.413393" lon="10.407372">
<ele>424</ele>
<time>2019-05-29T15:50:18Z</time>
</trkpt>
<trkpt lat="49.413278" lon="10.407902">
<ele>424</ele>
<time>2019-05-29T15:50:23Z</time>
</trkpt>
<trkpt lat="49.413143" lon="10.40839">
<ele>424</ele>
<time>2019-05-29T15:50:28Z</time>
</trkpt>
<trkpt lat="49.41304" lon="10.408858">
<ele>423</ele>
<time>2019-05-29T15:50:33Z</time>
</trkpt>
<trkpt lat="49.412945" lon="10.409312">
<ele>423</ele>
<time>2019-05-29T15:50:38Z</time>
</trkpt>
<trkpt lat="49.412858" lon="10.409723">
<ele>423</ele>
<time>2019-05-29T15:50:43Z</time>
</trkpt>
<trkpt lat="49.412793" lon="10.41009">
<ele>424</ele>
<time>2019-05-29T15:50:48Z</time>
</trkpt>
<trkpt lat="49.412738" lon="10.410418">
<ele>425</ele>
<time>2019-05-29T15:50:53Z</time>
</trkpt>
<trkpt lat="49.412693" lon="10.410737">
<ele>426</ele>
<time>2019-05-29T15:50:58Z</time>
</trkpt>
<trkpt lat="49.412647" lon="10.411053">
<ele>427</ele>
<time>2019-05-29T15:51:03Z</time>
</trkpt>
<trkpt lat="49.41261" lon="10.411353">
<ele>428</ele>
<time>2019-05-29T15:51:08Z</time>
</trkpt>
<trkpt lat="49.41257" lon="10.411667">
<ele>428</ele>
<time>2019-05-29T15:51:13Z</time>
</trkpt>
<trkpt lat="49.412535" lon="10.411977">
<ele>429</ele>
<time>2019-05-29T15:51:18Z</time>
</trkpt>
<trkpt lat="49.412517" lon="10.412275">
<ele>430</ele>
<time>2019-05-29T15:51:23Z</time>
</trkpt>
<trkpt lat="49.412523" lon="10.412613">
<ele>430</ele>
<time>2019-05-29T15:51:28Z</time>
</trkpt>
<trkpt lat="49.41254" lon="10.412992">
<ele>430</ele>
<time>2019-05-29T15:51:33Z</time>
</trkpt>
<trkpt lat="49.412553" lon="10.413393">
<ele>430</ele>
<time>2019-05-29T15:51:38Z</time>
</trkpt>
<trkpt lat="49.412552" lon="10.41387">
<ele>430</ele>
<time>2019-05-29T15:51:44Z</time>
</trkpt>
<trkpt lat="49.41247" lon="10.414342">
<ele>429</ele>
<time>2019-05-29T15:51:50Z</time>
</trkpt>
<trkpt lat="49.412358" lon="10.414778">
<ele>429</ele>
<time>2019-05-29T15:51:55Z</time>
</trkpt>
<trkpt lat="49.412217" lon="10.415227">
<ele>427</ele>
<time>2019-05-29T15:52:00Z</time>
</trkpt>
<trkpt lat="49.412082" lon="10.415687">
<ele>427</ele>
<time>2019-05-29T15:52:05Z</time>
</trkpt>
<trkpt lat="49.411935" lon="10.416157">
<ele>425</ele>
<time>2019-05-29T15:52:10Z</time>
</trkpt>
<trkpt lat="49.411792" lon="10.416653">
<ele>425</ele>
<time>2019-05-29T15:52:15Z</time>
</trkpt>
<trkpt lat="49.411613" lon="10.417282">
<ele>424</ele>
<time>2019-05-29T15:52:21Z</time>
</trkpt>
<trkpt lat="49.411508" lon="10.417867">
<ele>424</ele>
<time>2019-05-29T15:52:26Z</time>
</trkpt>
<trkpt lat="49.411472" lon="10.418453">
<ele>423</ele>
<time>2019-05-29T15:52:31Z</time>
</trkpt>
<trkpt lat="49.411493" lon="10.41904">
<ele>420</ele>
<time>2019-05-29T15:52:36Z</time>
</trkpt>
<trkpt lat="49.411587" lon="10.419615">
<ele>420</ele>
<time>2019-05-29T15:52:41Z</time>
</trkpt>
<trkpt lat="49.411747" lon="10.420182">
<ele>419</ele>
<time>2019-05-29T15:52:46Z</time>
</trkpt>
<trkpt lat="49.41203" lon="10.420808">
<ele>418</ele>
<time>2019-05-29T15:52:52Z</time>
</trkpt>
<trkpt lat="49.412323" lon="10.421247">
<ele>417</ele>
<time>2019-05-29T15:52:57Z</time>
</trkpt>
<trkpt lat="49.412667" lon="10.421558">
<ele>416</ele>
<time>2019-05-29T15:53:02Z</time>
</trkpt>
<trkpt lat="49.41304" lon="10.421823">
<ele>415</ele>
<time>2019-05-29T15:53:08Z</time>
</trkpt>
<trkpt lat="49.413383" lon="10.422072">
<ele>415</ele>
<time>2019-05-29T15:53:14Z</time>
</trkpt>
<trkpt lat="49.413672" lon="10.42221">
<ele>414</ele>
<time>2019-05-29T15:53:19Z</time>
</trkpt>
<trkpt lat="49.413962" lon="10.42239">
<ele>414</ele>
<time>2019-05-29T15:53:24Z</time>
</trkpt>
<trkpt lat="49.414227" lon="10.422525">
<ele>414</ele>
<time>2019-05-29T15:53:29Z</time>
</trkpt>
<trkpt lat="49.414507" lon="10.422662">
<ele>414</ele>
<time>2019-05-29T15:53:35Z</time>
</trkpt>
<trkpt lat="49.414793" lon="10.422803">
<ele>414</ele>
<time>2019-05-29T15:53:41Z</time>
</trkpt>
<trkpt lat="49.415075" lon="10.42297">
<ele>414</ele>
<time>2019-05-29T15:53:46Z</time>
</trkpt>
<trkpt lat="49.415437" lon="10.42317">
<ele>412</ele>
<time>2019-05-29T15:53:51Z</time>
</trkpt>
<trkpt lat="49.41584" lon="10.423402">
<ele>412</ele>
<time>2019-05-29T15:53:57Z</time>
</trkpt>
<trkpt lat="49.416157" lon="10.423565">
<ele>412</ele>
<time>2019-05-29T15:54:02Z</time>
</trkpt>
<trkpt lat="49.416503" lon="10.423745">
<ele>412</ele>
<time>2019-05-29T15:54:08Z</time>
</trkpt>
<trkpt lat="49.416723" lon="10.423857">
<ele>413</ele>
<time>2019-05-29T15:54:13Z</time>
</trkpt>
<trkpt lat="49.416918" lon="10.423957">
<ele>414</ele>
<time>2019-05-29T15:54:18Z</time>
</trkpt>
<trkpt lat="49.417103" lon="10.424058">
<ele>415</ele>
<time>2019-05-29T15:54:23Z</time>
</trkpt>
<trkpt lat="49.417283" lon="10.424135">
<ele>416</ele>
<time>2019-05-29T15:54:28Z</time>
</trkpt>
<trkpt lat="49.417457" lon="10.424217">
<ele>417</ele>
<time>2019-05-29T15:54:33Z</time>
</trkpt>
<trkpt lat="49.417655" lon="10.424307">
<ele>418</ele>
<time>2019-05-29T15:54:39Z</time>
</trkpt>
<trkpt lat="49.4178" lon="10.4244">
<ele>419</ele>
<time>2019-05-29T15:54:44Z</time>
</trkpt>
<trkpt lat="49.417977" lon="10.424505">
<ele>420</ele>
<time>2019-05-29T15:54:50Z</time>
</trkpt>
<trkpt lat="49.418138" lon="10.424593">
<ele>421</ele>
<time>2019-05-29T15:54:55Z</time>
</trkpt>
<trkpt lat="49.418333" lon="10.424725">
<ele>422</ele>
<time>2019-05-29T15:55:01Z</time>
</trkpt>
<trkpt lat="49.418478" lon="10.424868">
<ele>422</ele>
<time>2019-05-29T15:55:06Z</time>
</trkpt>
<trkpt lat="49.418625" lon="10.42502">
<ele>423</ele>
<time>2019-05-29T15:55:11Z</time>
</trkpt>
<trkpt lat="49.418768" lon="10.4252">
<ele>423</ele>
<time>2019-05-29T15:55:16Z</time>
</trkpt>
<trkpt lat="49.418908" lon="10.425403">
<ele>424</ele>
<time>2019-05-29T15:55:21Z</time>
</trkpt>
<trkpt lat="49.419058" lon="10.425662">
<ele>424</ele>
<time>2019-05-29T15:55:27Z</time>
</trkpt>
<trkpt lat="49.419185" lon="10.42592">
<ele>424</ele>
<time>2019-05-29T15:55:32Z</time>
</trkpt>
<trkpt lat="49.41933" lon="10.42628">
<ele>424</ele>
<time>2019-05-29T15:55:38Z</time>
</trkpt>
<trkpt lat="49.419425" lon="10.426587">
<ele>425</ele>
<time>2019-05-29T15:55:43Z</time>
</trkpt>
<trkpt lat="49.419492" lon="10.426905">
<ele>425</ele>
<time>2019-05-29T15:55:48Z</time>
</trkpt>
<trkpt lat="49.419537" lon="10.427262">
<ele>425</ele>
<time>2019-05-29T15:55:53Z</time>
</trkpt>
<trkpt lat="49.41957" lon="10.427623">
<ele>425</ele>
<time>2019-05-29T15:55:58Z</time>
</trkpt>
<trkpt lat="49.419612" lon="10.428102">
<ele>425</ele>
<time>2019-05-29T15:56:04Z</time>
</trkpt>
<trkpt lat="49.419662" lon="10.428548">
<ele>425</ele>
<time>2019-05-29T15:56:10Z</time>
</trkpt>
<trkpt lat="49.419715" lon="10.428935">
<ele>425</ele>
<time>2019-05-29T15:56:15Z</time>
</trkpt>
<trkpt lat="49.419778" lon="10.42931">
<ele>425</ele>
<time>2019-05-29T15:56:20Z</time>
</trkpt>
<trkpt lat="49.419858" lon="10.4297">
<ele>425</ele>
<time>2019-05-29T15:56:25Z</time>
</trkpt>
<trkpt lat="49.419948" lon="10.430082">
<ele>425</ele>
<time>2019-05-29T15:56:30Z</time>
</trkpt>
<trkpt lat="49.420057" lon="10.430452">
<ele>425</ele>
<time>2019-05-29T15:56:35Z</time>
</trkpt>
<trkpt lat="49.420187" lon="10.430803">
<ele>425</ele>
<time>2019-05-29T15:56:40Z</time>
</trkpt>
<trkpt lat="49.42031" lon="10.431127">
<ele>425</ele>
<time>2019-05-29T15:56:45Z</time>
</trkpt>
<trkpt lat="49.42045" lon="10.431418">
<ele>426</ele>
<time>2019-05-29T15:56:50Z</time>
</trkpt>
<trkpt lat="49.420588" lon="10.431722">
<ele>426</ele>
<time>2019-05-29T15:56:55Z</time>
</trkpt>
<trkpt lat="49.420737" lon="10.432012">
<ele>426</ele>
<time>2019-05-29T15:57:00Z</time>
</trkpt>
<trkpt lat="49.420873" lon="10.432278">
<ele>427</ele>
<time>2019-05-29T15:57:05Z</time>
</trkpt>
<trkpt lat="49.421025" lon="10.432528">
<ele>428</ele>
<time>2019-05-29T15:57:10Z</time>
</trkpt>
<trkpt lat="49.42118" lon="10.432772">
<ele>428</ele>
<time>2019-05-29T15:57:15Z</time>
</trkpt>
<trkpt lat="49.421338" lon="10.433015">
<ele>429</ele>
<time>2019-05-29T15:57:20Z</time>
</trkpt>
<trkpt lat="49.421473" lon="10.433217">
<ele>429</ele>
<time>2019-05-29T15:57:25Z</time>
</trkpt>
<trkpt lat="49.421568" lon="10.433397">
<ele>430</ele>
<time>2019-05-29T15:57:30Z</time>
</trkpt>
<trkpt lat="49.421663" lon="10.43356">
<ele>431</ele>
<time>2019-05-29T15:57:35Z</time>
</trkpt>
<trkpt lat="49.421752" lon="10.433713">
<ele>432</ele>
<time>2019-05-29T15:57:40Z</time>
</trkpt>
<trkpt lat="49.421883" lon="10.433878">
<ele>433</ele>
<time>2019-05-29T15:57:45Z</time>
</trkpt>
<trkpt lat="49.421963" lon="10.433977">
<ele>434</ele>
<time>2019-05-29T15:57:50Z</time>
</trkpt>
<trkpt lat="49.422043" lon="10.434068">
<ele>435</ele>
<time>2019-05-29T15:57:55Z</time>
</trkpt>
<trkpt lat="49.422103" lon="10.434162">
<ele>435</ele>
<time>2019-05-29T15:58:00Z</time>
</trkpt>
<trkpt lat="49.422185" lon="10.434255">
<ele>436</ele>
<time>2019-05-29T15:58:05Z</time>
</trkpt>
<trkpt lat="49.422272" lon="10.434338">
<ele>437</ele>
<time>2019-05-29T15:58:10Z</time>
</trkpt>
<trkpt lat="49.422403" lon="10.434482">
<ele>439</ele>
<time>2019-05-29T15:58:15Z</time>
</trkpt>
<trkpt lat="49.422543" lon="10.434568">
<ele>439</ele>
<time>2019-05-29T15:58:20Z</time>
</trkpt>
<trkpt lat="49.4226" lon="10.434605">
<ele>440</ele>
<time>2019-05-29T15:58:25Z</time>
</trkpt>
<trkpt lat="49.422617" lon="10.434615">
<ele>441</ele>
<time>2019-05-29T15:58:30Z</time>
</trkpt>
<trkpt lat="49.422623" lon="10.434613">
<ele>442</ele>
<time>2019-05-29T15:58:35Z</time>
</trkpt>
<trkpt lat="49.422655" lon="10.434625">
<ele>443</ele>
<time>2019-05-29T15:58:40Z</time>
</trkpt>
<trkpt lat="49.422763" lon="10.434697">
<ele>444</ele>
<time>2019-05-29T15:58:45Z</time>
</trkpt>
<trkpt lat="49.422897" lon="10.434863">
<ele>445</ele>
<time>2019-05-29T15:58:50Z</time>
</trkpt>
<trkpt lat="49.422982" lon="10.435008">
<ele>446</ele>
<time>2019-05-29T15:58:55Z</time>
</trkpt>
<trkpt lat="49.42304" lon="10.435098">
<ele>447</ele>
<time>2019-05-29T15:59:00Z</time>
</trkpt>
<trkpt lat="49.4231" lon="10.43513">
<ele>448</ele>
<time>2019-05-29T15:59:05Z</time>
</trkpt>
<trkpt lat="49.42317" lon="10.435173">
<ele>450</ele>
<time>2019-05-29T15:59:10Z</time>
</trkpt>
<trkpt lat="49.423228" lon="10.43525">
<ele>451</ele>
<time>2019-05-29T15:59:15Z</time>
</trkpt>
<trkpt lat="49.42335" lon="10.435395">
<ele>452</ele>
<time>2019-05-29T15:59:20Z</time>
</trkpt>
<trkpt lat="49.423403" lon="10.435507">
<ele>453</ele>
<time>2019-05-29T15:59:25Z</time>
</trkpt>
<trkpt lat="49.423433" lon="10.435582">
<ele>454</ele>
<time>2019-05-29T15:59:30Z</time>
</trkpt>
<trkpt lat="49.423475" lon="10.435665">
<ele>455</ele>
<time>2019-05-29T15:59:35Z</time>
</trkpt>
<trkpt lat="49.423503" lon="10.435758">
<ele>456</ele>
<time>2019-05-29T15:59:40Z</time>
</trkpt>
<trkpt lat="49.423533" lon="10.435848">
<ele>457</ele>
<time>2019-05-29T15:59:45Z</time>
</trkpt>
<trkpt lat="49.423577" lon="10.435923">
<ele>458</ele>
<time>2019-05-29T15:59:50Z</time>
</trkpt>
<trkpt lat="49.423593" lon="10.435988">
<ele>459</ele>
<time>2019-05-29T15:59:55Z</time>
</trkpt>
<trkpt lat="49.423598" lon="10.436092">
<ele>460</ele>
<time>2019-05-29T16:00:00Z</time>
</trkpt>
<trkpt lat="49.423617" lon="10.436208">
<ele>461</ele>
<time>2019-05-29T16:00:05Z</time>
</trkpt>
<trkpt lat="49.423655" lon="10.436287">
<ele>462</ele>
<time>2019-05-29T16:00:10Z</time>
</trkpt>
<trkpt lat="49.423677" lon="10.436405">
<ele>463</ele>
<time>2019-05-29T16:00:15Z</time>
</trkpt>
<trkpt lat="49.423715" lon="10.43657">
<ele>464</ele>
<time>2019-05-29T16:00:20Z</time>
</trkpt>
<trkpt lat="49.423745" lon="10.436702">
<ele>464</ele>
<time>2019-05-29T16:00:25Z</time>
</trkpt>
<trkpt lat="49.423772" lon="10.43682">
<ele>465</ele>
<time>2019-05-29T16:00:30Z</time>
</trkpt>
<trkpt lat="49.423787" lon="10.436943">
<ele>465</ele>
<time>2019-05-29T16:00:35Z</time>
</trkpt>
<trkpt lat="49.423803" lon="10.43705">
<ele>466</ele>
<time>2019-05-29T16:00:40Z</time>
</trkpt>
<trkpt lat="49.423828" lon="10.437157">
<ele>467</ele>
<time>2019-05-29T16:00:45Z</time>
</trkpt>
<trkpt lat="49.423857" lon="10.437257">
<ele>467</ele>
<time>2019-05-29T16:00:50Z</time>
</trkpt>
<trkpt lat="49.423873" lon="10.437423">
<ele>468</ele>
<time>2019-05-29T16:00:55Z</time>
</trkpt>
<trkpt lat="49.423883" lon="10.437587">
<ele>468</ele>
<time>2019-05-29T16:01:00Z</time>
</trkpt>
<trkpt lat="49.423905" lon="10.437728">
<ele>469</ele>
<time>2019-05-29T16:01:05Z</time>
</trkpt>
<trkpt lat="49.423955" lon="10.437863">
<ele>469</ele>
<time>2019-05-29T16:01:10Z</time>
</trkpt>
<trkpt lat="49.423987" lon="10.438013">
<ele>470</ele>
<time>2019-05-29T16:01:15Z</time>
</trkpt>
<trkpt lat="49.423983" lon="10.438103">
<ele>470</ele>
<time>2019-05-29T16:01:21Z</time>
</trkpt>
<trkpt lat="49.423993" lon="10.43812">
<ele>470</ele>
<time>2019-05-29T16:01:26Z</time>
</trkpt>
<trkpt lat="49.424" lon="10.438122">
<ele>470</ele>
<time>2019-05-29T16:01:31Z</time>
</trkpt>
<trkpt lat="49.424005" lon="10.43812">
<ele>470</ele>
<time>2019-05-29T16:01:36Z</time>
</trkpt>
<trkpt lat="49.424008" lon="10.438118">
<ele>470</ele>
<time>2019-05-29T16:01:41Z</time>
</trkpt>
<trkpt lat="49.424013" lon="10.438122">
<ele>470</ele>
<time>2019-05-29T16:01:46Z</time>
</trkpt>
<trkpt lat="49.424092" lon="10.438278">
<ele>471</ele>
<time>2019-05-29T16:01:51Z</time>
</trkpt>
<trkpt lat="49.424127" lon="10.438495">
<ele>471</ele>
<time>2019-05-29T16:01:56Z</time>
</trkpt>
<trkpt lat="49.42417" lon="10.43865">
<ele>471</ele>
<time>2019-05-29T16:02:01Z</time>
</trkpt>
<trkpt lat="49.424237" lon="10.43887">
<ele>472</ele>
<time>2019-05-29T16:02:06Z</time>
</trkpt>
<trkpt lat="49.424337" lon="10.439057">
<ele>472</ele>
<time>2019-05-29T16:02:11Z</time>
</trkpt>
<trkpt lat="49.424443" lon="10.439258">
<ele>472</ele>
<time>2019-05-29T16:02:16Z</time>
</trkpt>
<trkpt lat="49.424618" lon="10.439483">
<ele>472</ele>
<time>2019-05-29T16:02:21Z</time>
</trkpt>
<trkpt lat="49.424823" lon="10.439737">
<ele>472</ele>
<time>2019-05-29T16:02:26Z</time>
</trkpt>
<trkpt lat="49.424983" lon="10.440007">
<ele>472</ele>
<time>2019-05-29T16:02:31Z</time>
</trkpt>
<trkpt lat="49.425147" lon="10.440272">
<ele>472</ele>
<time>2019-05-29T16:02:36Z</time>
</trkpt>
<trkpt lat="49.42538" lon="10.440593">
<ele>472</ele>
<time>2019-05-29T16:02:41Z</time>
</trkpt>
<trkpt lat="49.425612" lon="10.440962">
<ele>471</ele>
<time>2019-05-29T16:02:46Z</time>
</trkpt>
<trkpt lat="49.425827" lon="10.441347">
<ele>470</ele>
<time>2019-05-29T16:02:51Z</time>
</trkpt>
<trkpt lat="49.426117" lon="10.441783">
<ele>470</ele>
<time>2019-05-29T16:02:56Z</time>
</trkpt>
<trkpt lat="49.42644" lon="10.442155">
<ele>469</ele>
<time>2019-05-29T16:03:01Z</time>
</trkpt>
<trkpt lat="49.426668" lon="10.442537">
<ele>469</ele>
<time>2019-05-29T16:03:06Z</time>
</trkpt>
<trkpt lat="49.426917" lon="10.442902">
<ele>468</ele>
<time>2019-05-29T16:03:11Z</time>
</trkpt>
<trkpt lat="49.427187" lon="10.443327">
<ele>468</ele>
<time>2019-05-29T16:03:17Z</time>
</trkpt>
<trkpt lat="49.42742" lon="10.443652">
<ele>468</ele>
<time>2019-05-29T16:03:22Z</time>
</trkpt>
<trkpt lat="49.427622" lon="10.444015">
<ele>468</ele>
<time>2019-05-29T16:03:27Z</time>
</trkpt>
<trkpt lat="49.427803" lon="10.444305">
<ele>468</ele>
<time>2019-05-29T16:03:32Z</time>
</trkpt>
<trkpt lat="49.427957" lon="10.444537">
<ele>468</ele>
<time>2019-05-29T16:03:37Z</time>
</trkpt>
<trkpt lat="49.428107" lon="10.444628">
<ele>468</ele>
<time>2019-05-29T16:03:42Z</time>
</trkpt>
<trkpt lat="49.428298" lon="10.444723">
<ele>468</ele>
<time>2019-05-29T16:03:47Z</time>
</trkpt>
<trkpt lat="49.428513" lon="10.444882">
<ele>468</ele>
<time>2019-05-29T16:03:52Z</time>
</trkpt>
<trkpt lat="49.428732" lon="10.445092">
<ele>468</ele>
<time>2019-05-29T16:03:57Z</time>
</trkpt>
<trkpt lat="49.42893" lon="10.445212">
<ele>468</ele>
<time>2019-05-29T16:04:02Z</time>
</trkpt>
<trkpt lat="49.42915" lon="10.445368">
<ele>468</ele>
<time>2019-05-29T16:04:07Z</time>
</trkpt>
<trkpt lat="49.429358" lon="10.445627">
<ele>466</ele>
<time>2019-05-29T16:04:12Z</time>
</trkpt>
<trkpt lat="49.429693" lon="10.446058">
<ele>464</ele>
<time>2019-05-29T16:04:17Z</time>
</trkpt>
<trkpt lat="49.4299" lon="10.446733">
<ele>460</ele>
<time>2019-05-29T16:04:22Z</time>
</trkpt>
<trkpt lat="49.4301" lon="10.447537">
<ele>454</ele>
<time>2019-05-29T16:04:27Z</time>
</trkpt>
<trkpt lat="49.430297" lon="10.448332">
<ele>449</ele>
<time>2019-05-29T16:04:32Z</time>
</trkpt>
<trkpt lat="49.430808" lon="10.448893">
<ele>443</ele>
<time>2019-05-29T16:04:37Z</time>
</trkpt>
<trkpt lat="49.431388" lon="10.44909">
<ele>435</ele>
<time>2019-05-29T16:04:42Z</time>
</trkpt>
<trkpt lat="49.431908" lon="10.44895">
<ele>429</ele>
<time>2019-05-29T16:04:47Z</time>
</trkpt>
<trkpt lat="49.432285" lon="10.448488">
<ele>424</ele>
<time>2019-05-29T16:04:52Z</time>
</trkpt>
<trkpt lat="49.432563" lon="10.44772">
<ele>418</ele>
<time>2019-05-29T16:04:57Z</time>
</trkpt>
<trkpt lat="49.432825" lon="10.447015">
<ele>412</ele>
<time>2019-05-29T16:05:02Z</time>
</trkpt>
<trkpt lat="49.433212" lon="10.446472">
<ele>406</ele>
<time>2019-05-29T16:05:07Z</time>
</trkpt>
<trkpt lat="49.433687" lon="10.446343">
<ele>400</ele>
<time>2019-05-29T16:05:12Z</time>
</trkpt>
<trkpt lat="49.434195" lon="10.446418">
<ele>394</ele>
<time>2019-05-29T16:05:17Z</time>
</trkpt>
<trkpt lat="49.434693" lon="10.446627">
<ele>390</ele>
<time>2019-05-29T16:05:22Z</time>
</trkpt>
<trkpt lat="49.435165" lon="10.446795">
<ele>387</ele>
<time>2019-05-29T16:05:27Z</time>
</trkpt>
<trkpt lat="49.435638" lon="10.446897">
<ele>386</ele>
<time>2019-05-29T16:05:32Z</time>
</trkpt>
<trkpt lat="49.436103" lon="10.446912">
<ele>385</ele>
<time>2019-05-29T16:05:37Z</time>
</trkpt>
<trkpt lat="49.436455" lon="10.446995">
<ele>384</ele>
<time>2019-05-29T16:05:42Z</time>
</trkpt>
<trkpt lat="49.43678" lon="10.447237">
<ele>383</ele>
<time>2019-05-29T16:05:47Z</time>
</trkpt>
<trkpt lat="49.437073" lon="10.447468">
<ele>382</ele>
<time>2019-05-29T16:05:52Z</time>
</trkpt>
<trkpt lat="49.43734" lon="10.447725">
<ele>381</ele>
<time>2019-05-29T16:05:57Z</time>
</trkpt>
<trkpt lat="49.43757" lon="10.448133">
<ele>380</ele>
<time>2019-05-29T16:06:02Z</time>
</trkpt>
<trkpt lat="49.437845" lon="10.448468">
<ele>379</ele>
<time>2019-05-29T16:06:07Z</time>
</trkpt>
<trkpt lat="49.438122" lon="10.448812">
<ele>378</ele>
<time>2019-05-29T16:06:12Z</time>
</trkpt>
<trkpt lat="49.438347" lon="10.449203">
<ele>377</ele>
<time>2019-05-29T16:06:17Z</time>
</trkpt>
<trkpt lat="49.43852" lon="10.44962">
<ele>377</ele>
<time>2019-05-29T16:06:22Z</time>
</trkpt>
<trkpt lat="49.43867" lon="10.450045">
<ele>375</ele>
<time>2019-05-29T16:06:27Z</time>
</trkpt>
<trkpt lat="49.438763" lon="10.450445">
<ele>375</ele>
<time>2019-05-29T16:06:32Z</time>
</trkpt>
<trkpt lat="49.43883" lon="10.450845">
<ele>375</ele>
<time>2019-05-29T16:06:37Z</time>
</trkpt>
<trkpt lat="49.438897" lon="10.451267">
<ele>375</ele>
<time>2019-05-29T16:06:42Z</time>
</trkpt>
<trkpt lat="49.438967" lon="10.451687">
<ele>375</ele>
<time>2019-05-29T16:06:47Z</time>
</trkpt>
<trkpt lat="49.43904" lon="10.452078">
<ele>375</ele>
<time>2019-05-29T16:06:52Z</time>
</trkpt>
<trkpt lat="49.439153" lon="10.45246">
<ele>375</ele>
<time>2019-05-29T16:06:57Z</time>
</trkpt>
<trkpt lat="49.439315" lon="10.452825">
<ele>375</ele>
<time>2019-05-29T16:07:02Z</time>
</trkpt>
<trkpt lat="49.439472" lon="10.453212">
<ele>374</ele>
<time>2019-05-29T16:07:07Z</time>
</trkpt>
<trkpt lat="49.439627" lon="10.453615">
<ele>373</ele>
<time>2019-05-29T16:07:12Z</time>
</trkpt>
<trkpt lat="49.439768" lon="10.454005">
<ele>373</ele>
<time>2019-05-29T16:07:17Z</time>
</trkpt>
<trkpt lat="49.439908" lon="10.4544">
<ele>373</ele>
<time>2019-05-29T16:07:22Z</time>
</trkpt>
<trkpt lat="49.44003" lon="10.454787">
<ele>373</ele>
<time>2019-05-29T16:07:27Z</time>
</trkpt>
<trkpt lat="49.440157" lon="10.455152">
<ele>373</ele>
<time>2019-05-29T16:07:32Z</time>
</trkpt>
<trkpt lat="49.440307" lon="10.455453">
<ele>373</ele>
<time>2019-05-29T16:07:37Z</time>
</trkpt>
<trkpt lat="49.440453" lon="10.455672">
<ele>373</ele>
<time>2019-05-29T16:07:42Z</time>
</trkpt>
<trkpt lat="49.440612" lon="10.45586">
<ele>373</ele>
<time>2019-05-29T16:07:47Z</time>
</trkpt>
<trkpt lat="49.440783" lon="10.45609">
<ele>373</ele>
<time>2019-05-29T16:07:52Z</time>
</trkpt>
<trkpt lat="49.440988" lon="10.456362">
<ele>373</ele>
<time>2019-05-29T16:07:57Z</time>
</trkpt>
<trkpt lat="49.441242" lon="10.4567">
<ele>373</ele>
<time>2019-05-29T16:08:02Z</time>
</trkpt>
<trkpt lat="49.441518" lon="10.457062">
<ele>371</ele>
<time>2019-05-29T16:08:07Z</time>
</trkpt>
<trkpt lat="49.441853" lon="10.457393">
<ele>369</ele>
<time>2019-05-29T16:08:12Z</time>
</trkpt>
<trkpt lat="49.442242" lon="10.457587">
<ele>368</ele>
<time>2019-05-29T16:08:17Z</time>
</trkpt>
<trkpt lat="49.442648" lon="10.457608">
<ele>367</ele>
<time>2019-05-29T16:08:22Z</time>
</trkpt>
<trkpt lat="49.443037" lon="10.45759">
<ele>367</ele>
<time>2019-05-29T16:08:27Z</time>
</trkpt>
<trkpt lat="49.443392" lon="10.45758">
<ele>367</ele>
<time>2019-05-29T16:08:32Z</time>
</trkpt>
<trkpt lat="49.44371" lon="10.45755">
<ele>367</ele>
<time>2019-05-29T16:08:37Z</time>
</trkpt>
<trkpt lat="49.443997" lon="10.457528">
<ele>367</ele>
<time>2019-05-29T16:08:42Z</time>
</trkpt>
<trkpt lat="49.444282" lon="10.457577">
<ele>367</ele>
<time>2019-05-29T16:08:47Z</time>
</trkpt>
<trkpt lat="49.444597" lon="10.457658">
<ele>367</ele>
<time>2019-05-29T16:08:52Z</time>
</trkpt>
<trkpt lat="49.444915" lon="10.457753">
<ele>366</ele>
<time>2019-05-29T16:08:57Z</time>
</trkpt>
<trkpt lat="49.445237" lon="10.457882">
<ele>365</ele>
<time>2019-05-29T16:09:02Z</time>
</trkpt>
<trkpt lat="49.445573" lon="10.458032">
<ele>364</ele>
<time>2019-05-29T16:09:07Z</time>
</trkpt>
<trkpt lat="49.445905" lon="10.458178">
<ele>364</ele>
<time>2019-05-29T16:09:12Z</time>
</trkpt>
<trkpt lat="49.446255" lon="10.458332">
<ele>362</ele>
<time>2019-05-29T16:09:17Z</time>
</trkpt>
<trkpt lat="49.446623" lon="10.45849">
<ele>361</ele>
<time>2019-05-29T16:09:22Z</time>
</trkpt>
<trkpt lat="49.446968" lon="10.458637">
<ele>359</ele>
<time>2019-05-29T16:09:27Z</time>
</trkpt>
<trkpt lat="49.447317" lon="10.458792">
<ele>359</ele>
<time>2019-05-29T16:09:32Z</time>
</trkpt>
<trkpt lat="49.447688" lon="10.458935">
<ele>357</ele>
<time>2019-05-29T16:09:37Z</time>
</trkpt>
<trkpt lat="49.448093" lon="10.45904">
<ele>356</ele>
<time>2019-05-29T16:09:42Z</time>
</trkpt>
<trkpt lat="49.448513" lon="10.45907">
<ele>353</ele>
<time>2019-05-29T16:09:47Z</time>
</trkpt>
<trkpt lat="49.448958" lon="10.458995">
<ele>351</ele>
<time>2019-05-29T16:09:52Z</time>
</trkpt>
<trkpt lat="49.449412" lon="10.458798">
<ele>348</ele>
<time>2019-05-29T16:09:57Z</time>
</trkpt>
<trkpt lat="49.4498" lon="10.458548">
<ele>347</ele>
<time>2019-05-29T16:10:02Z</time>
</trkpt>
<trkpt lat="49.450107" lon="10.458285">
<ele>347</ele>
<time>2019-05-29T16:10:07Z</time>
</trkpt>
<trkpt lat="49.450378" lon="10.458077">
<ele>346</ele>
<time>2019-05-29T16:10:12Z</time>
</trkpt>
<trkpt lat="49.450577" lon="10.457897">
<ele>346</ele>
<time>2019-05-29T16:10:17Z</time>
</trkpt>
<trkpt lat="49.450642" lon="10.457582">
<ele>346</ele>
<time>2019-05-29T16:10:22Z</time>
</trkpt>
<trkpt lat="49.45065" lon="10.457185">
<ele>346</ele>
<time>2019-05-29T16:10:27Z</time>
</trkpt>
<trkpt lat="49.450673" lon="10.456798">
<ele>346</ele>
<time>2019-05-29T16:10:32Z</time>
</trkpt>
<trkpt lat="49.45071" lon="10.4564">
<ele>346</ele>
<time>2019-05-29T16:10:37Z</time>
</trkpt>
<trkpt lat="49.450747" lon="10.456005">
<ele>346</ele>
<time>2019-05-29T16:10:42Z</time>
</trkpt>
<trkpt lat="49.450797" lon="10.455612">
<ele>347</ele>
<time>2019-05-29T16:10:47Z</time>
</trkpt>
<trkpt lat="49.450865" lon="10.455235">
<ele>348</ele>
<time>2019-05-29T16:10:52Z</time>
</trkpt>
<trkpt lat="49.450922" lon="10.45487">
<ele>348</ele>
<time>2019-05-29T16:10:57Z</time>
</trkpt>
<trkpt lat="49.450993" lon="10.454572">
<ele>349</ele>
<time>2019-05-29T16:11:02Z</time>
</trkpt>
<trkpt lat="49.451042" lon="10.454323">
<ele>350</ele>
<time>2019-05-29T16:11:07Z</time>
</trkpt>
<trkpt lat="49.451113" lon="10.454112">
<ele>351</ele>
<time>2019-05-29T16:11:12Z</time>
</trkpt>
<trkpt lat="49.451165" lon="10.453918">
<ele>352</ele>
<time>2019-05-29T16:11:17Z</time>
</trkpt>
<trkpt lat="49.451197" lon="10.453698">
<ele>353</ele>
<time>2019-05-29T16:11:22Z</time>
</trkpt>
<trkpt lat="49.451213" lon="10.453482">
<ele>354</ele>
<time>2019-05-29T16:11:27Z</time>
</trkpt>
<trkpt lat="49.451225" lon="10.453265">
<ele>355</ele>
<time>2019-05-29T16:11:32Z</time>
</trkpt>
<trkpt lat="49.45123" lon="10.453033">
<ele>356</ele>
<time>2019-05-29T16:11:37Z</time>
</trkpt>
<trkpt lat="49.451237" lon="10.452813">
<ele>357</ele>
<time>2019-05-29T16:11:42Z</time>
</trkpt>
<trkpt lat="49.451237" lon="10.452632">
<ele>357</ele>
<time>2019-05-29T16:11:47Z</time>
</trkpt>
<trkpt lat="49.451243" lon="10.452453">
<ele>358</ele>
<time>2019-05-29T16:11:52Z</time>
</trkpt>
<trkpt lat="49.451258" lon="10.452273">
<ele>359</ele>
<time>2019-05-29T16:11:57Z</time>
</trkpt>
<trkpt lat="49.451273" lon="10.452102">
<ele>360</ele>
<time>2019-05-29T16:12:02Z</time>
</trkpt>
<trkpt lat="49.451288" lon="10.451933">
<ele>360</ele>
<time>2019-05-29T16:12:07Z</time>
</trkpt>
<trkpt lat="49.451308" lon="10.45175">
<ele>361</ele>
<time>2019-05-29T16:12:12Z</time>
</trkpt>
<trkpt lat="49.45133" lon="10.45156">
<ele>362</ele>
<time>2019-05-29T16:12:17Z</time>
</trkpt>
<trkpt lat="49.451372" lon="10.451388">
<ele>363</ele>
<time>2019-05-29T16:12:22Z</time>
</trkpt>
<trkpt lat="49.451425" lon="10.451235">
<ele>364</ele>
<time>2019-05-29T16:12:27Z</time>
</trkpt>
<trkpt lat="49.45149" lon="10.451098">
<ele>365</ele>
<time>2019-05-29T16:12:32Z</time>
</trkpt>
<trkpt lat="49.451557" lon="10.450965">
<ele>365</ele>
<time>2019-05-29T16:12:37Z</time>
</trkpt>
<trkpt lat="49.451633" lon="10.450842">
<ele>366</ele>
<time>2019-05-29T16:12:42Z</time>
</trkpt>
<trkpt lat="49.451717" lon="10.450712">
<ele>367</ele>
<time>2019-05-29T16:12:47Z</time>
</trkpt>
<trkpt lat="49.451797" lon="10.45059">
<ele>368</ele>
<time>2019-05-29T16:12:52Z</time>
</trkpt>
<trkpt lat="49.451875" lon="10.450465">
<ele>369</ele>
<time>2019-05-29T16:12:57Z</time>
</trkpt>
<trkpt lat="49.45197" lon="10.450345">
<ele>370</ele>
<time>2019-05-29T16:13:02Z</time>
</trkpt>
<trkpt lat="49.452055" lon="10.450225">
<ele>371</ele>
<time>2019-05-29T16:13:07Z</time>
</trkpt>
<trkpt lat="49.45214" lon="10.450112">
<ele>371</ele>
<time>2019-05-29T16:13:12Z</time>
</trkpt>
<trkpt lat="49.452212" lon="10.449987">
<ele>372</ele>
<time>2019-05-29T16:13:17Z</time>
</trkpt>
<trkpt lat="49.4523" lon="10.449862">
<ele>372</ele>
<time>2019-05-29T16:13:22Z</time>
</trkpt>
<trkpt lat="49.452413" lon="10.449742">
<ele>373</ele>
<time>2019-05-29T16:13:27Z</time>
</trkpt>
<trkpt lat="49.452538" lon="10.449627">
<ele>374</ele>
<time>2019-05-29T16:13:32Z</time>
</trkpt>
<trkpt lat="49.452685" lon="10.449525">
<ele>374</ele>
<time>2019-05-29T16:13:37Z</time>
</trkpt>
<trkpt lat="49.452847" lon="10.449423">
<ele>374</ele>
<time>2019-05-29T16:13:42Z</time>
</trkpt>
<trkpt lat="49.453045" lon="10.449318">
<ele>374</ele>
<time>2019-05-29T16:13:47Z</time>
</trkpt>
<trkpt lat="49.453257" lon="10.449227">
<ele>375</ele>
<time>2019-05-29T16:13:52Z</time>
</trkpt>
<trkpt lat="49.453473" lon="10.449135">
<ele>375</ele>
<time>2019-05-29T16:13:57Z</time>
</trkpt>
<trkpt lat="49.453683" lon="10.44906">
<ele>375</ele>
<time>2019-05-29T16:14:02Z</time>
</trkpt>
<trkpt lat="49.453915" lon="10.448985">
<ele>375</ele>
<time>2019-05-29T16:14:07Z</time>
</trkpt>
<trkpt lat="49.454152" lon="10.44891">
<ele>375</ele>
<time>2019-05-29T16:14:12Z</time>
</trkpt>
<trkpt lat="49.454382" lon="10.448843">
<ele>375</ele>
<time>2019-05-29T16:14:17Z</time>
</trkpt>
<trkpt lat="49.454592" lon="10.448702">
<ele>375</ele>
<time>2019-05-29T16:14:22Z</time>
</trkpt>
<trkpt lat="49.454797" lon="10.448458">
<ele>375</ele>
<time>2019-05-29T16:14:27Z</time>
</trkpt>
<trkpt lat="49.45497" lon="10.448088">
<ele>375</ele>
<time>2019-05-29T16:14:32Z</time>
</trkpt>
<trkpt lat="49.455077" lon="10.447585">
<ele>374</ele>
<time>2019-05-29T16:14:37Z</time>
</trkpt>
<trkpt lat="49.455165" lon="10.446998">
<ele>372</ele>
<time>2019-05-29T16:14:42Z</time>
</trkpt>
<trkpt lat="49.455253" lon="10.44636">
<ele>370</ele>
<time>2019-05-29T16:14:47Z</time>
</trkpt>
<trkpt lat="49.455342" lon="10.445728">
<ele>368</ele>
<time>2019-05-29T16:14:52Z</time>
</trkpt>
<trkpt lat="49.45543" lon="10.445047">
<ele>366</ele>
<time>2019-05-29T16:14:57Z</time>
</trkpt>
<trkpt lat="49.455543" lon="10.444265">
<ele>363</ele>
<time>2019-05-29T16:15:02Z</time>
</trkpt>
<trkpt lat="49.455698" lon="10.443458">
<ele>359</ele>
<time>2019-05-29T16:15:07Z</time>
</trkpt>
<trkpt lat="49.455993" lon="10.44277">
<ele>356</ele>
<time>2019-05-29T16:15:12Z</time>
</trkpt>
<trkpt lat="49.45639" lon="10.442178">
<ele>354</ele>
<time>2019-05-29T16:15:17Z</time>
</trkpt>
<trkpt lat="49.456848" lon="10.441685">
<ele>351</ele>
<time>2019-05-29T16:15:22Z</time>
</trkpt>
<trkpt lat="49.457328" lon="10.441322">
<ele>349</ele>
<time>2019-05-29T16:15:27Z</time>
</trkpt>
<trkpt lat="49.457742" lon="10.440963">
<ele>346</ele>
<time>2019-05-29T16:15:32Z</time>
</trkpt>
<trkpt lat="49.458067" lon="10.44038">
<ele>345</ele>
<time>2019-05-29T16:15:37Z</time>
</trkpt>
<trkpt lat="49.458218" lon="10.439737">
<ele>341</ele>
<time>2019-05-29T16:15:42Z</time>
</trkpt>
<trkpt lat="49.458302" lon="10.439052">
<ele>339</ele>
<time>2019-05-29T16:15:47Z</time>
</trkpt>
<trkpt lat="49.458407" lon="10.43831">
<ele>337</ele>
<time>2019-05-29T16:15:52Z</time>
</trkpt>
<trkpt lat="49.458552" lon="10.43755">
<ele>334</ele>
<time>2019-05-29T16:15:57Z</time>
</trkpt>
<trkpt lat="49.458715" lon="10.436717">
<ele>332</ele>
<time>2019-05-29T16:16:02Z</time>
</trkpt>
<trkpt lat="49.458893" lon="10.435837">
<ele>328</ele>
<time>2019-05-29T16:16:07Z</time>
</trkpt>
<trkpt lat="49.45913" lon="10.434942">
<ele>326</ele>
<time>2019-05-29T16:16:12Z</time>
</trkpt>
<trkpt lat="49.459377" lon="10.434135">
<ele>322</ele>
<time>2019-05-29T16:16:17Z</time>
</trkpt>
<trkpt lat="49.459623" lon="10.433323">
<ele>318</ele>
<time>2019-05-29T16:16:22Z</time>
</trkpt>
<trkpt lat="49.459862" lon="10.432528">
<ele>316</ele>
<time>2019-05-29T16:16:27Z</time>
</trkpt>
<trkpt lat="49.46008" lon="10.431838">
<ele>314</ele>
<time>2019-05-29T16:16:32Z</time>
</trkpt>
<trkpt lat="49.46032" lon="10.431227">
<ele>314</ele>
<time>2019-05-29T16:16:37Z</time>
</trkpt>
<trkpt lat="49.46061" lon="10.430722">
<ele>314</ele>
<time>2019-05-29T16:16:42Z</time>
</trkpt>
<trkpt lat="49.460935" lon="10.430327">
<ele>313</ele>
<time>2019-05-29T16:16:47Z</time>
</trkpt>
<trkpt lat="49.461268" lon="10.429968">
<ele>312</ele>
<time>2019-05-29T16:16:52Z</time>
</trkpt>
<trkpt lat="49.461597" lon="10.429662">
<ele>312</ele>
<time>2019-05-29T16:16:57Z</time>
</trkpt>
<trkpt lat="49.461917" lon="10.429392">
<ele>312</ele>
<time>2019-05-29T16:17:02Z</time>
</trkpt>
<trkpt lat="49.462228" lon="10.429137">
<ele>312</ele>
<time>2019-05-29T16:17:07Z</time>
</trkpt>
<trkpt lat="49.462523" lon="10.428878">
<ele>311</ele>
<time>2019-05-29T16:17:12Z</time>
</trkpt>
<trkpt lat="49.462742" lon="10.428565">
<ele>310</ele>
<time>2019-05-29T16:17:17Z</time>
</trkpt>
<trkpt lat="49.462758" lon="10.428175">
<ele>310</ele>
<time>2019-05-29T16:17:22Z</time>
</trkpt>
<trkpt lat="49.462723" lon="10.427957">
<ele>309</ele>
<time>2019-05-29T16:17:27Z</time>
</trkpt>
<trkpt lat="49.462715" lon="10.427783">
<ele>309</ele>
<time>2019-05-29T16:17:32Z</time>
</trkpt>
<trkpt lat="49.462685" lon="10.42761">
<ele>309</ele>
<time>2019-05-29T16:17:37Z</time>
</trkpt>
<trkpt lat="49.462595" lon="10.427668">
<ele>309</ele>
<time>2019-05-29T16:17:42Z</time>
</trkpt>
<trkpt lat="49.462638" lon="10.427847">
<ele>309</ele>
<time>2019-05-29T16:17:47Z</time>
</trkpt>
<trkpt lat="49.4627" lon="10.428065">
<ele>309</ele>
<time>2019-05-29T16:17:52Z</time>
</trkpt>
<trkpt lat="49.462738" lon="10.428345">
<ele>309</ele>
<time>2019-05-29T16:17:57Z</time>
</trkpt>
<trkpt lat="49.462857" lon="10.428508">
<ele>309</ele>
<time>2019-05-29T16:18:02Z</time>
</trkpt>
<trkpt lat="49.463067" lon="10.428352">
<ele>309</ele>
<time>2019-05-29T16:18:07Z</time>
</trkpt>
<trkpt lat="49.463225" lon="10.428055">
<ele>309</ele>
<time>2019-05-29T16:18:12Z</time>
</trkpt>
<trkpt lat="49.463302" lon="10.42774">
<ele>309</ele>
<time>2019-05-29T16:18:17Z</time>
</trkpt>
<trkpt lat="49.463423" lon="10.427442">
<ele>310</ele>
<time>2019-05-29T16:18:22Z</time>
</trkpt>
<trkpt lat="49.463642" lon="10.427427">
<ele>311</ele>
<time>2019-05-29T16:18:27Z</time>
</trkpt>
<trkpt lat="49.463877" lon="10.42747">
<ele>312</ele>
<time>2019-05-29T16:18:32Z</time>
</trkpt>
<trkpt lat="49.464048" lon="10.427505">
<ele>312</ele>
<time>2019-05-29T16:18:37Z</time>
</trkpt>
<trkpt lat="49.464188" lon="10.427525">
<ele>312</ele>
<time>2019-05-29T16:18:42Z</time>
</trkpt>
<trkpt lat="49.464358" lon="10.42754">
<ele>312</ele>
<time>2019-05-29T16:18:47Z</time>
</trkpt>
<trkpt lat="49.464605" lon="10.427543">
<ele>313</ele>
<time>2019-05-29T16:18:52Z</time>
</trkpt>
<trkpt lat="49.464833" lon="10.427563">
<ele>313</ele>
<time>2019-05-29T16:18:57Z</time>
</trkpt>
<trkpt lat="49.465103" lon="10.4276">
<ele>313</ele>
<time>2019-05-29T16:19:02Z</time>
</trkpt>
<trkpt lat="49.465347" lon="10.42762">
<ele>313</ele>
<time>2019-05-29T16:19:07Z</time>
</trkpt>
<trkpt lat="49.465587" lon="10.42763">
<ele>313</ele>
<time>2019-05-29T16:19:12Z</time>
</trkpt>
<trkpt lat="49.465808" lon="10.427638">
<ele>313</ele>
<time>2019-05-29T16:19:17Z</time>
</trkpt>
<trkpt lat="49.46606" lon="10.427672">
<ele>313</ele>
<time>2019-05-29T16:19:22Z</time>
</trkpt>
<trkpt lat="49.46629" lon="10.42769">
<ele>313</ele>
<time>2019-05-29T16:19:27Z</time>
</trkpt>
<trkpt lat="49.466522" lon="10.427715">
<ele>313</ele>
<time>2019-05-29T16:19:32Z</time>
</trkpt>
<trkpt lat="49.466745" lon="10.427718">
<ele>313</ele>
<time>2019-05-29T16:19:37Z</time>
</trkpt>
<trkpt lat="49.466995" lon="10.427675">
<ele>313</ele>
<time>2019-05-29T16:19:42Z</time>
</trkpt>
<trkpt lat="49.467275" lon="10.427573">
<ele>313</ele>
<time>2019-05-29T16:19:47Z</time>
</trkpt>
<trkpt lat="49.467603" lon="10.42739">
<ele>311</ele>
<time>2019-05-29T16:19:52Z</time>
</trkpt>
<trkpt lat="49.46801" lon="10.427173">
<ele>308</ele>
<time>2019-05-29T16:19:57Z</time>
</trkpt>
<trkpt lat="49.468475" lon="10.426913">
<ele>306</ele>
<time>2019-05-29T16:20:02Z</time>
</trkpt>
<trkpt lat="49.46894" lon="10.42666">
<ele>305</ele>
<time>2019-05-29T16:20:07Z</time>
</trkpt>
<trkpt lat="49.469385" lon="10.426477">
<ele>303</ele>
<time>2019-05-29T16:20:12Z</time>
</trkpt>
<trkpt lat="49.469768" lon="10.426483">
<ele>303</ele>
<time>2019-05-29T16:20:17Z</time>
</trkpt>
<trkpt lat="49.470123" lon="10.426565">
<ele>302</ele>
<time>2019-05-29T16:20:22Z</time>
</trkpt>
<trkpt lat="49.470465" lon="10.4267">
<ele>301</ele>
<time>2019-05-29T16:20:27Z</time>
</trkpt>
<trkpt lat="49.470763" lon="10.426932">
<ele>301</ele>
<time>2019-05-29T16:20:32Z</time>
</trkpt>
<trkpt lat="49.471003" lon="10.427247">
<ele>301</ele>
<time>2019-05-29T16:20:37Z</time>
</trkpt>
<trkpt lat="49.47121" lon="10.427618">
<ele>301</ele>
<time>2019-05-29T16:20:42Z</time>
</trkpt>
<trkpt lat="49.47138" lon="10.427975">
<ele>301</ele>
<time>2019-05-29T16:20:47Z</time>
</trkpt>
<trkpt lat="49.471533" lon="10.428348">
<ele>301</ele>
<time>2019-05-29T16:20:52Z</time>
</trkpt>
<trkpt lat="49.47166" lon="10.428705">
<ele>301</ele>
<time>2019-05-29T16:20:57Z</time>
</trkpt>
<trkpt lat="49.4718" lon="10.429085">
<ele>301</ele>
<time>2019-05-29T16:21:02Z</time>
</trkpt>
<trkpt lat="49.471973" lon="10.429435">
<ele>301</ele>
<time>2019-05-29T16:21:07Z</time>
</trkpt>
<trkpt lat="49.472162" lon="10.42975">
<ele>301</ele>
<time>2019-05-29T16:21:12Z</time>
</trkpt>
<trkpt lat="49.47238" lon="10.430012">
<ele>301</ele>
<time>2019-05-29T16:21:17Z</time>
</trkpt>
<trkpt lat="49.472605" lon="10.430243">
<ele>301</ele>
<time>2019-05-29T16:21:22Z</time>
</trkpt>
<trkpt lat="49.472835" lon="10.430428">
<ele>301</ele>
<time>2019-05-29T16:21:27Z</time>
</trkpt>
<trkpt lat="49.47308" lon="10.430645">
<ele>301</ele>
<time>2019-05-29T16:21:32Z</time>
</trkpt>
<trkpt lat="49.473367" lon="10.430872">
<ele>300</ele>
<time>2019-05-29T16:21:37Z</time>
</trkpt>
<trkpt lat="49.473685" lon="10.431147">
<ele>299</ele>
<time>2019-05-29T16:21:42Z</time>
</trkpt>
<trkpt lat="49.473878" lon="10.431607">
<ele>298</ele>
<time>2019-05-29T16:21:47Z</time>
</trkpt>
<trkpt lat="49.474002" lon="10.432062">
<ele>297</ele>
<time>2019-05-29T16:21:52Z</time>
</trkpt>
<trkpt lat="49.474092" lon="10.432523">
<ele>296</ele>
<time>2019-05-29T16:21:57Z</time>
</trkpt>
<trkpt lat="49.474177" lon="10.432973">
<ele>296</ele>
<time>2019-05-29T16:22:02Z</time>
</trkpt>
<trkpt lat="49.47432" lon="10.433398">
<ele>296</ele>
<time>2019-05-29T16:22:07Z</time>
</trkpt>
<trkpt lat="49.474487" lon="10.433708">
<ele>296</ele>
<time>2019-05-29T16:22:12Z</time>
</trkpt>
<trkpt lat="49.474653" lon="10.434018">
<ele>296</ele>
<time>2019-05-29T16:22:17Z</time>
</trkpt>
<trkpt lat="49.474762" lon="10.434385">
<ele>296</ele>
<time>2019-05-29T16:22:22Z</time>
</trkpt>
<trkpt lat="49.47482" lon="10.434772">
<ele>296</ele>
<time>2019-05-29T16:22:27Z</time>
</trkpt>
<trkpt lat="49.474875" lon="10.435132">
<ele>296</ele>
<time>2019-05-29T16:22:32Z</time>
</trkpt>
<trkpt lat="49.474928" lon="10.435517">
<ele>297</ele>
<time>2019-05-29T16:22:37Z</time>
</trkpt>
<trkpt lat="49.474998" lon="10.43589">
<ele>297</ele>
<time>2019-05-29T16:22:42Z</time>
</trkpt>
<trkpt lat="49.475135" lon="10.436198">
<ele>297</ele>
<time>2019-05-29T16:22:47Z</time>
</trkpt>
<trkpt lat="49.475362" lon="10.43638">
<ele>297</ele>
<time>2019-05-29T16:22:52Z</time>
</trkpt>
<trkpt lat="49.475592" lon="10.43646">
<ele>297</ele>
<time>2019-05-29T16:22:57Z</time>
</trkpt>
<trkpt lat="49.475827" lon="10.436458">
<ele>297</ele>
<time>2019-05-29T16:23:02Z</time>
</trkpt>
<trkpt lat="49.476035" lon="10.436367">
<ele>297</ele>
<time>2019-05-29T16:23:07Z</time>
</trkpt>
<trkpt lat="49.476222" lon="10.436278">
<ele>297</ele>
<time>2019-05-29T16:23:12Z</time>
</trkpt>
<trkpt lat="49.476342" lon="10.43634">
<ele>297</ele>
<time>2019-05-29T16:23:17Z</time>
</trkpt>
<trkpt lat="49.47643" lon="10.436358">
<ele>297</ele>
<time>2019-05-29T16:23:22Z</time>
</trkpt>
<trkpt lat="49.476548" lon="10.43634">
<ele>297</ele>
<time>2019-05-29T16:23:27Z</time>
</trkpt>
<trkpt lat="49.47664" lon="10.436058">
<ele>297</ele>
<time>2019-05-29T16:23:32Z</time>
</trkpt>
<trkpt lat="49.47671" lon="10.43576">
<ele>297</ele>
<time>2019-05-29T16:23:37Z</time>
</trkpt>
<trkpt lat="49.476762" lon="10.43548">
<ele>297</ele>
<time>2019-05-29T16:23:42Z</time>
</trkpt>
<trkpt lat="49.476807" lon="10.43522">
<ele>297</ele>
<time>2019-05-29T16:23:47Z</time>
</trkpt>
<trkpt lat="49.476832" lon="10.435113">
<ele>297</ele>
<time>2019-05-29T16:23:52Z</time>
</trkpt>
<trkpt lat="49.476847" lon="10.435032">
<ele>297</ele>
<time>2019-05-29T16:23:57Z</time>
</trkpt>
<trkpt lat="49.476878" lon="10.434895">
<ele>297</ele>
<time>2019-05-29T16:24:02Z</time>
</trkpt>
<trkpt lat="49.476895" lon="10.434698">
<ele>297</ele>
<time>2019-05-29T16:24:07Z</time>
</trkpt>
<trkpt lat="49.47694" lon="10.434447">
<ele>297</ele>
<time>2019-05-29T16:24:12Z</time>
</trkpt>
<trkpt lat="49.476972" lon="10.434148">
<ele>297</ele>
<time>2019-05-29T16:24:17Z</time>
</trkpt>
<trkpt lat="49.477" lon="10.433872">
<ele>297</ele>
<time>2019-05-29T16:24:22Z</time>
</trkpt>
<trkpt lat="49.476973" lon="10.433637">
<ele>297</ele>
<time>2019-05-29T16:24:27Z</time>
</trkpt>
<trkpt lat="49.47713" lon="10.433598">
<ele>297</ele>
<time>2019-05-29T16:24:32Z</time>
</trkpt>
<trkpt lat="49.477335" lon="10.4336">
<ele>297</ele>
<time>2019-05-29T16:24:37Z</time>
</trkpt>
<trkpt lat="49.477503" lon="10.4336">
<ele>297</ele>
<time>2019-05-29T16:24:42Z</time>
</trkpt>
<trkpt lat="49.477677" lon="10.433603">
<ele>297</ele>
<time>2019-05-29T16:24:47Z</time>
</trkpt>
<trkpt lat="49.47788" lon="10.433577">
<ele>297</ele>
<time>2019-05-29T16:24:52Z</time>
</trkpt>
<trkpt lat="49.478063" lon="10.433622">
<ele>297</ele>
<time>2019-05-29T16:24:57Z</time>
</trkpt>
<trkpt lat="49.47823" lon="10.433643">
<ele>297</ele>
<time>2019-05-29T16:25:02Z</time>
</trkpt>
<trkpt lat="49.478435" lon="10.433717">
<ele>297</ele>
<time>2019-05-29T16:25:07Z</time>
</trkpt>
<trkpt lat="49.478675" lon="10.43389">
<ele>296</ele>
<time>2019-05-29T16:25:12Z</time>
</trkpt>
<trkpt lat="49.47889" lon="10.434035">
<ele>295</ele>
<time>2019-05-29T16:25:17Z</time>
</trkpt>
<trkpt lat="49.479165" lon="10.434227">
<ele>295</ele>
<time>2019-05-29T16:25:22Z</time>
</trkpt>
<trkpt lat="49.479445" lon="10.434432">
<ele>294</ele>
<time>2019-05-29T16:25:27Z</time>
</trkpt>
<trkpt lat="49.479538" lon="10.4345">
<ele>292</ele>
<time>2019-05-29T16:25:32Z</time>
</trkpt>
<trkpt lat="49.47958" lon="10.434528">
<ele>291</ele>
<time>2019-05-29T16:25:37Z</time>
</trkpt>
<trkpt lat="49.479707" lon="10.434587">
<ele>291</ele>
<time>2019-05-29T16:25:42Z</time>
</trkpt>
<trkpt lat="49.479887" lon="10.434607">
<ele>291</ele>
<time>2019-05-29T16:25:47Z</time>
</trkpt>
<trkpt lat="49.480013" lon="10.434462">
<ele>291</ele>
<time>2019-05-29T16:25:52Z</time>
</trkpt>
<trkpt lat="49.480088" lon="10.43426">
<ele>291</ele>
<time>2019-05-29T16:25:57Z</time>
</trkpt>
<trkpt lat="49.480193" lon="10.434062">
<ele>291</ele>
<time>2019-05-29T16:26:02Z</time>
</trkpt>
<trkpt lat="49.48034" lon="10.433895">
<ele>291</ele>
<time>2019-05-29T16:26:07Z</time>
</trkpt>
<trkpt lat="49.480527" lon="10.433717">
<ele>291</ele>
<time>2019-05-29T16:26:12Z</time>
</trkpt>
<trkpt lat="49.48068" lon="10.433467">
<ele>291</ele>
<time>2019-05-29T16:26:17Z</time>
</trkpt>
<trkpt lat="49.480767" lon="10.433118">
<ele>290</ele>
<time>2019-05-29T16:26:22Z</time>
</trkpt>
<trkpt lat="49.480823" lon="10.432665">
<ele>290</ele>
<time>2019-05-29T16:26:27Z</time>
</trkpt>
<trkpt lat="49.480888" lon="10.432223">
<ele>290</ele>
<time>2019-05-29T16:26:32Z</time>
</trkpt>
<trkpt lat="49.480945" lon="10.431805">
<ele>290</ele>
<time>2019-05-29T16:26:37Z</time>
</trkpt>
<trkpt lat="49.481112" lon="10.431513">
<ele>290</ele>
<time>2019-05-29T16:26:42Z</time>
</trkpt>
<trkpt lat="49.481327" lon="10.431283">
<ele>290</ele>
<time>2019-05-29T16:26:47Z</time>
</trkpt>
<trkpt lat="49.481548" lon="10.431065">
<ele>291</ele>
<time>2019-05-29T16:26:52Z</time>
</trkpt>
<trkpt lat="49.481757" lon="10.43088">
<ele>291</ele>
<time>2019-05-29T16:26:57Z</time>
</trkpt>
<trkpt lat="49.481988" lon="10.430822">
<ele>292</ele>
<time>2019-05-29T16:27:02Z</time>
</trkpt>
<trkpt lat="49.482233" lon="10.430795">
<ele>292</ele>
<time>2019-05-29T16:27:07Z</time>
</trkpt>
<trkpt lat="49.482482" lon="10.430772">
<ele>293</ele>
<time>2019-05-29T16:27:12Z</time>
</trkpt>
<trkpt lat="49.482718" lon="10.430747">
<ele>293</ele>
<time>2019-05-29T16:27:17Z</time>
</trkpt>
<trkpt lat="49.482952" lon="10.430723">
<ele>293</ele>
<time>2019-05-29T16:27:22Z</time>
</trkpt>
<trkpt lat="49.48318" lon="10.430703">
<ele>293</ele>
<time>2019-05-29T16:27:27Z</time>
</trkpt>
<trkpt lat="49.483428" lon="10.430682">
<ele>293</ele>
<time>2019-05-29T16:27:32Z</time>
</trkpt>
<trkpt lat="49.483675" lon="10.430652">
<ele>293</ele>
<time>2019-05-29T16:27:37Z</time>
</trkpt>
<trkpt lat="49.483917" lon="10.430622">
<ele>293</ele>
<time>2019-05-29T16:27:42Z</time>
</trkpt>
<trkpt lat="49.484157" lon="10.43059">
<ele>293</ele>
<time>2019-05-29T16:27:47Z</time>
</trkpt>
<trkpt lat="49.484405" lon="10.430563">
<ele>293</ele>
<time>2019-05-29T16:27:52Z</time>
</trkpt>
<trkpt lat="49.484665" lon="10.430537">
<ele>293</ele>
<time>2019-05-29T16:27:57Z</time>
</trkpt>
<trkpt lat="49.484938" lon="10.43051">
<ele>292</ele>
<time>2019-05-29T16:28:02Z</time>
</trkpt>
<trkpt lat="49.485238" lon="10.430485">
<ele>291</ele>
<time>2019-05-29T16:28:07Z</time>
</trkpt>
<trkpt lat="49.485555" lon="10.430448">
<ele>289</ele>
<time>2019-05-29T16:28:12Z</time>
</trkpt>
<trkpt lat="49.48577" lon="10.430177">
<ele>289</ele>
<time>2019-05-29T16:28:17Z</time>
</trkpt>
<trkpt lat="49.485785" lon="10.42974">
<ele>289</ele>
<time>2019-05-29T16:28:22Z</time>
</trkpt>
<trkpt lat="49.485792" lon="10.429305">
<ele>289</ele>
<time>2019-05-29T16:28:27Z</time>
</trkpt>
<trkpt lat="49.485793" lon="10.428895">
<ele>289</ele>
<time>2019-05-29T16:28:32Z</time>
</trkpt>
<trkpt lat="49.485798" lon="10.428503">
<ele>289</ele>
<time>2019-05-29T16:28:37Z</time>
</trkpt>
<trkpt lat="49.485805" lon="10.428092">
<ele>289</ele>
<time>2019-05-29T16:28:42Z</time>
</trkpt>
<trkpt lat="49.485808" lon="10.427658">
<ele>289</ele>
<time>2019-05-29T16:28:47Z</time>
</trkpt>
<trkpt lat="49.485797" lon="10.427238">
<ele>289</ele>
<time>2019-05-29T16:28:52Z</time>
</trkpt>
<trkpt lat="49.485787" lon="10.426807">
<ele>290</ele>
<time>2019-05-29T16:28:57Z</time>
</trkpt>
<trkpt lat="49.485777" lon="10.42642">
<ele>290</ele>
<time>2019-05-29T16:29:02Z</time>
</trkpt>
<trkpt lat="49.485772" lon="10.425993">
<ele>290</ele>
<time>2019-05-29T16:29:07Z</time>
</trkpt>
<trkpt lat="49.485768" lon="10.425558">
<ele>290</ele>
<time>2019-05-29T16:29:12Z</time>
</trkpt>
<trkpt lat="49.485755" lon="10.425145">
<ele>290</ele>
<time>2019-05-29T16:29:17Z</time>
</trkpt>
<trkpt lat="49.485743" lon="10.424743">
<ele>291</ele>
<time>2019-05-29T16:29:22Z</time>
</trkpt>
<trkpt lat="49.485735" lon="10.424352">
<ele>291</ele>
<time>2019-05-29T16:29:27Z</time>
</trkpt>
<trkpt lat="49.485732" lon="10.423948">
<ele>291</ele>
<time>2019-05-29T16:29:32Z</time>
</trkpt>
<trkpt lat="49.48573" lon="10.423525">
<ele>291</ele>
<time>2019-05-29T16:29:37Z</time>
</trkpt>
<trkpt lat="49.485723" lon="10.423085">
<ele>291</ele>
<time>2019-05-29T16:29:42Z</time>
</trkpt>
<trkpt lat="49.485713" lon="10.422633">
<ele>291</ele>
<time>2019-05-29T16:29:47Z</time>
</trkpt>
<trkpt lat="49.48571" lon="10.422187">
<ele>291</ele>
<time>2019-05-29T16:29:52Z</time>
</trkpt>
<trkpt lat="49.485702" lon="10.421758">
<ele>291</ele>
<time>2019-05-29T16:29:57Z</time>
</trkpt>
<trkpt lat="49.485693" lon="10.421333">
<ele>291</ele>
<time>2019-05-29T16:30:02Z</time>
</trkpt>
<trkpt lat="49.48568" lon="10.420918">
<ele>290</ele>
<time>2019-05-29T16:30:07Z</time>
</trkpt>
<trkpt lat="49.485672" lon="10.420515">
<ele>290</ele>
<time>2019-05-29T16:30:12Z</time>
</trkpt>
<trkpt lat="49.485665" lon="10.420128">
<ele>290</ele>
<time>2019-05-29T16:30:17Z</time>
</trkpt>
<trkpt lat="49.485708" lon="10.41976">
<ele>290</ele>
<time>2019-05-29T16:30:22Z</time>
</trkpt>
<trkpt lat="49.485982" lon="10.41966">
<ele>290</ele>
<time>2019-05-29T16:30:27Z</time>
</trkpt>
<trkpt lat="49.486287" lon="10.419645">
<ele>290</ele>
<time>2019-05-29T16:30:32Z</time>
</trkpt>
<trkpt lat="49.486602" lon="10.419627">
<ele>289</ele>
<time>2019-05-29T16:30:37Z</time>
</trkpt>
<trkpt lat="49.486937" lon="10.419608">
<ele>289</ele>
<time>2019-05-29T16:30:42Z</time>
</trkpt>
<trkpt lat="49.487263" lon="10.419578">
<ele>289</ele>
<time>2019-05-29T16:30:47Z</time>
</trkpt>
<trkpt lat="49.487587" lon="10.419535">
<ele>288</ele>
<time>2019-05-29T16:30:52Z</time>
</trkpt>
<trkpt lat="49.487903" lon="10.41944">
<ele>288</ele>
<time>2019-05-29T16:30:57Z</time>
</trkpt>
<trkpt lat="49.488198" lon="10.419327">
<ele>288</ele>
<time>2019-05-29T16:31:02Z</time>
</trkpt>
<trkpt lat="49.488475" lon="10.41922">
<ele>288</ele>
<time>2019-05-29T16:31:07Z</time>
</trkpt>
<trkpt lat="49.488727" lon="10.419125">
<ele>288</ele>
<time>2019-05-29T16:31:12Z</time>
</trkpt>
<trkpt lat="49.488967" lon="10.419027">
<ele>288</ele>
<time>2019-05-29T16:31:17Z</time>
</trkpt>
<trkpt lat="49.489192" lon="10.418938">
<ele>288</ele>
<time>2019-05-29T16:31:22Z</time>
</trkpt>
<trkpt lat="49.489398" lon="10.418857">
<ele>288</ele>
<time>2019-05-29T16:31:27Z</time>
</trkpt>
<trkpt lat="49.489593" lon="10.418778">
<ele>289</ele>
<time>2019-05-29T16:31:32Z</time>
</trkpt>
<trkpt lat="49.489792" lon="10.41871">
<ele>289</ele>
<time>2019-05-29T16:31:37Z</time>
</trkpt>
<trkpt lat="49.490013" lon="10.418622">
<ele>289</ele>
<time>2019-05-29T16:31:42Z</time>
</trkpt>
<trkpt lat="49.490252" lon="10.418535">
<ele>289</ele>
<time>2019-05-29T16:31:47Z</time>
</trkpt>
<trkpt lat="49.490548" lon="10.418423">
<ele>289</ele>
<time>2019-05-29T16:31:52Z</time>
</trkpt>
<trkpt lat="49.49092" lon="10.418275">
<ele>285</ele>
<time>2019-05-29T16:31:57Z</time>
</trkpt>
<trkpt lat="49.491352" lon="10.418105">
<ele>283</ele>
<time>2019-05-29T16:32:02Z</time>
</trkpt>
<trkpt lat="49.491785" lon="10.417932">
<ele>280</ele>
<time>2019-05-29T16:32:07Z</time>
</trkpt>
<trkpt lat="49.492148" lon="10.417733">
<ele>280</ele>
<time>2019-05-29T16:32:12Z</time>
</trkpt>
<trkpt lat="49.49247" lon="10.417487">
<ele>280</ele>
<time>2019-05-29T16:32:17Z</time>
</trkpt>
<trkpt lat="49.492765" lon="10.417205">
<ele>280</ele>
<time>2019-05-29T16:32:22Z</time>
</trkpt>
<trkpt lat="49.493043" lon="10.416935">
<ele>280</ele>
<time>2019-05-29T16:32:27Z</time>
</trkpt>
<trkpt lat="49.493332" lon="10.416675">
<ele>280</ele>
<time>2019-05-29T16:32:32Z</time>
</trkpt>
<trkpt lat="49.493593" lon="10.41644">
<ele>279</ele>
<time>2019-05-29T16:32:37Z</time>
</trkpt>
<trkpt lat="49.493823" lon="10.4162">
<ele>279</ele>
<time>2019-05-29T16:32:42Z</time>
</trkpt>
<trkpt lat="49.494018" lon="10.415973">
<ele>279</ele>
<time>2019-05-29T16:32:47Z</time>
</trkpt>
<trkpt lat="49.494163" lon="10.41577">
<ele>279</ele>
<time>2019-05-29T16:32:52Z</time>
</trkpt>
<trkpt lat="49.494267" lon="10.415545">
<ele>279</ele>
<time>2019-05-29T16:32:57Z</time>
</trkpt>
<trkpt lat="49.494398" lon="10.415325">
<ele>279</ele>
<time>2019-05-29T16:33:02Z</time>
</trkpt>
<trkpt lat="49.494603" lon="10.415103">
<ele>279</ele>
<time>2019-05-29T16:33:07Z</time>
</trkpt>
<trkpt lat="49.494773" lon="10.414845">
<ele>279</ele>
<time>2019-05-29T16:33:12Z</time>
</trkpt>
<trkpt lat="49.494952" lon="10.414542">
<ele>279</ele>
<time>2019-05-29T16:33:17Z</time>
</trkpt>
<trkpt lat="49.495118" lon="10.414295">
<ele>279</ele>
<time>2019-05-29T16:33:22Z</time>
</trkpt>
<trkpt lat="49.495302" lon="10.414128">
<ele>280</ele>
<time>2019-05-29T16:33:27Z</time>
</trkpt>
<trkpt lat="49.495502" lon="10.413998">
<ele>280</ele>
<time>2019-05-29T16:33:32Z</time>
</trkpt>
<trkpt lat="49.495695" lon="10.413842">
<ele>281</ele>
<time>2019-05-29T16:33:37Z</time>
</trkpt>
<trkpt lat="49.495865" lon="10.413665">
<ele>281</ele>
<time>2019-05-29T16:33:42Z</time>
</trkpt>
<trkpt lat="49.49611" lon="10.413523">
<ele>281</ele>
<time>2019-05-29T16:33:47Z</time>
</trkpt>
<trkpt lat="49.496317" lon="10.41341">
<ele>281</ele>
<time>2019-05-29T16:33:52Z</time>
</trkpt>
<trkpt lat="49.496515" lon="10.413265">
<ele>282</ele>
<time>2019-05-29T16:33:57Z</time>
</trkpt>
<trkpt lat="49.496712" lon="10.413157">
<ele>282</ele>
<time>2019-05-29T16:34:02Z</time>
</trkpt>
<trkpt lat="49.496967" lon="10.413065">
<ele>283</ele>
<time>2019-05-29T16:34:07Z</time>
</trkpt>
<trkpt lat="49.497187" lon="10.412963">
<ele>283</ele>
<time>2019-05-29T16:34:12Z</time>
</trkpt>
<trkpt lat="49.4974" lon="10.41286">
<ele>283</ele>
<time>2019-05-29T16:34:17Z</time>
</trkpt>
<trkpt lat="49.49759" lon="10.412758">
<ele>284</ele>
<time>2019-05-29T16:34:22Z</time>
</trkpt>
<trkpt lat="49.49781" lon="10.412672">
<ele>285</ele>
<time>2019-05-29T16:34:27Z</time>
</trkpt>
<trkpt lat="49.498023" lon="10.412577">
<ele>285</ele>
<time>2019-05-29T16:34:32Z</time>
</trkpt>
<trkpt lat="49.498235" lon="10.412478">
<ele>285</ele>
<time>2019-05-29T16:34:37Z</time>
</trkpt>
<trkpt lat="49.498433" lon="10.412378">
<ele>285</ele>
<time>2019-05-29T16:34:42Z</time>
</trkpt>
<trkpt lat="49.498645" lon="10.412297">
<ele>285</ele>
<time>2019-05-29T16:34:47Z</time>
</trkpt>
<trkpt lat="49.498877" lon="10.412195">
<ele>286</ele>
<time>2019-05-29T16:34:52Z</time>
</trkpt>
<trkpt lat="49.499088" lon="10.41208">
<ele>286</ele>
<time>2019-05-29T16:34:57Z</time>
</trkpt>
<trkpt lat="49.499275" lon="10.411993">
<ele>286</ele>
<time>2019-05-29T16:35:02Z</time>
</trkpt>
<trkpt lat="49.49946" lon="10.411932">
<ele>286</ele>
<time>2019-05-29T16:35:07Z</time>
</trkpt>
<trkpt lat="49.499572" lon="10.41194">
<ele>286</ele>
<time>2019-05-29T16:35:12Z</time>
</trkpt>
<trkpt lat="49.499603" lon="10.411953">
<ele>286</ele>
<time>2019-05-29T16:35:17Z</time>
</trkpt>
<trkpt lat="49.499715" lon="10.412133">
<ele>286</ele>
<time>2019-05-29T16:35:22Z</time>
</trkpt>
<trkpt lat="49.499762" lon="10.412278">
<ele>286</ele>
<time>2019-05-29T16:35:27Z</time>
</trkpt>
<trkpt lat="49.499813" lon="10.41238">
<ele>286</ele>
<time>2019-05-29T16:35:32Z</time>
</trkpt>
<trkpt lat="49.499925" lon="10.412505">
<ele>286</ele>
<time>2019-05-29T16:35:37Z</time>
</trkpt>
<trkpt lat="49.500118" lon="10.412403">
<ele>286</ele>
<time>2019-05-29T16:35:42Z</time>
</trkpt>
<trkpt lat="49.50036" lon="10.412325">
<ele>286</ele>
<time>2019-05-29T16:35:47Z</time>
</trkpt>
<trkpt lat="49.50062" lon="10.412247">
<ele>286</ele>
<time>2019-05-29T16:35:52Z</time>
</trkpt>
<trkpt lat="49.500903" lon="10.412158">
<ele>285</ele>
<time>2019-05-29T16:35:57Z</time>
</trkpt>
<trkpt lat="49.501187" lon="10.412065">
<ele>285</ele>
<time>2019-05-29T16:36:02Z</time>
</trkpt>
<trkpt lat="49.50146" lon="10.411988">
<ele>285</ele>
<time>2019-05-29T16:36:07Z</time>
</trkpt>
<trkpt lat="49.501718" lon="10.411947">
<ele>285</ele>
<time>2019-05-29T16:36:12Z</time>
</trkpt>
<trkpt lat="49.501998" lon="10.411895">
<ele>286</ele>
<time>2019-05-29T16:36:17Z</time>
</trkpt>
<trkpt lat="49.502278" lon="10.411873">
<ele>286</ele>
<time>2019-05-29T16:36:22Z</time>
</trkpt>
<trkpt lat="49.502528" lon="10.411878">
<ele>286</ele>
<time>2019-05-29T16:36:27Z</time>
</trkpt>
<trkpt lat="49.50281" lon="10.411997">
<ele>286</ele>
<time>2019-05-29T16:36:32Z</time>
</trkpt>
<trkpt lat="49.503077" lon="10.412133">
<ele>286</ele>
<time>2019-05-29T16:36:37Z</time>
</trkpt>
<trkpt lat="49.503353" lon="10.412265">
<ele>286</ele>
<time>2019-05-29T16:36:42Z</time>
</trkpt>
<trkpt lat="49.503607" lon="10.412407">
<ele>286</ele>
<time>2019-05-29T16:36:47Z</time>
</trkpt>
<trkpt lat="49.50392" lon="10.41254">
<ele>286</ele>
<time>2019-05-29T16:36:52Z</time>
</trkpt>
<trkpt lat="49.504207" lon="10.4127">
<ele>286</ele>
<time>2019-05-29T16:36:57Z</time>
</trkpt>
<trkpt lat="49.50447" lon="10.412822">
<ele>285</ele>
<time>2019-05-29T16:37:02Z</time>
</trkpt>
<trkpt lat="49.50469" lon="10.412925">
<ele>285</ele>
<time>2019-05-29T16:37:07Z</time>
</trkpt>
<trkpt lat="49.504892" lon="10.413007">
<ele>285</ele>
<time>2019-05-29T16:37:12Z</time>
</trkpt>
<trkpt lat="49.50506" lon="10.412923">
<ele>285</ele>
<time>2019-05-29T16:37:17Z</time>
</trkpt>
<trkpt lat="49.505237" lon="10.41273">
<ele>284</ele>
<time>2019-05-29T16:37:22Z</time>
</trkpt>
<trkpt lat="49.505402" lon="10.412563">
<ele>284</ele>
<time>2019-05-29T16:37:27Z</time>
</trkpt>
<trkpt lat="49.505535" lon="10.412463">
<ele>284</ele>
<time>2019-05-29T16:37:32Z</time>
</trkpt>
<trkpt lat="49.505628" lon="10.41241">
<ele>284</ele>
<time>2019-05-29T16:37:37Z</time>
</trkpt>
<trkpt lat="49.505595" lon="10.412178">
<ele>284</ele>
<time>2019-05-29T16:37:42Z</time>
</trkpt>
<trkpt lat="49.505548" lon="10.411903">
<ele>284</ele>
<time>2019-05-29T16:37:47Z</time>
</trkpt>
<trkpt lat="49.505523" lon="10.411612">
<ele>284</ele>
<time>2019-05-29T16:37:52Z</time>
</trkpt>
<trkpt lat="49.505518" lon="10.411277">
<ele>284</ele>
<time>2019-05-29T16:37:57Z</time>
</trkpt>
<trkpt lat="49.505532" lon="10.410957">
<ele>284</ele>
<time>2019-05-29T16:38:02Z</time>
</trkpt>
<trkpt lat="49.505607" lon="10.410628">
<ele>284</ele>
<time>2019-05-29T16:38:07Z</time>
</trkpt>
<trkpt lat="49.50571" lon="10.41032">
<ele>285</ele>
<time>2019-05-29T16:38:12Z</time>
</trkpt>
<trkpt lat="49.505843" lon="10.409988">
<ele>285</ele>
<time>2019-05-29T16:38:17Z</time>
</trkpt>
<trkpt lat="49.505977" lon="10.409677">
<ele>285</ele>
<time>2019-05-29T16:38:22Z</time>
</trkpt>
<trkpt lat="49.506172" lon="10.409343">
<ele>285</ele>
<time>2019-05-29T16:38:27Z</time>
</trkpt>
<trkpt lat="49.506348" lon="10.409052">
<ele>285</ele>
<time>2019-05-29T16:38:32Z</time>
</trkpt>
<trkpt lat="49.506535" lon="10.4088">
<ele>285</ele>
<time>2019-05-29T16:38:37Z</time>
</trkpt>
<trkpt lat="49.50672" lon="10.408507">
<ele>285</ele>
<time>2019-05-29T16:38:42Z</time>
</trkpt>
<trkpt lat="49.506928" lon="10.40821">
<ele>286</ele>
<time>2019-05-29T16:38:47Z</time>
</trkpt>
<trkpt lat="49.507107" lon="10.407922">
<ele>286</ele>
<time>2019-05-29T16:38:52Z</time>
</trkpt>
<trkpt lat="49.507298" lon="10.407632">
<ele>286</ele>
<time>2019-05-29T16:38:57Z</time>
</trkpt>
<trkpt lat="49.50747" lon="10.407345">
<ele>286</ele>
<time>2019-05-29T16:39:02Z</time>
</trkpt>
<trkpt lat="49.507635" lon="10.407082">
<ele>287</ele>
<time>2019-05-29T16:39:07Z</time>
</trkpt>
<trkpt lat="49.507798" lon="10.406822">
<ele>287</ele>
<time>2019-05-29T16:39:12Z</time>
</trkpt>
<trkpt lat="49.507943" lon="10.40657">
<ele>288</ele>
<time>2019-05-29T16:39:17Z</time>
</trkpt>
<trkpt lat="49.5081" lon="10.406322">
<ele>288</ele>
<time>2019-05-29T16:39:22Z</time>
</trkpt>
<trkpt lat="49.50823" lon="10.40612">
<ele>288</ele>
<time>2019-05-29T16:39:27Z</time>
</trkpt>
<trkpt lat="49.50832" lon="10.406012">
<ele>288</ele>
<time>2019-05-29T16:39:32Z</time>
</trkpt>
<trkpt lat="49.508417" lon="10.405943">
<ele>289</ele>
<time>2019-05-29T16:39:37Z</time>
</trkpt>
<trkpt lat="49.508468" lon="10.406037">
<ele>289</ele>
<time>2019-05-29T16:39:42Z</time>
</trkpt>
<trkpt lat="49.508508" lon="10.406295">
<ele>289</ele>
<time>2019-05-29T16:39:47Z</time>
</trkpt>
<trkpt lat="49.50857" lon="10.406545">
<ele>289</ele>
<time>2019-05-29T16:39:52Z</time>
</trkpt>
<trkpt lat="49.508623" lon="10.40673">
<ele>288</ele>
<time>2019-05-29T16:39:57Z</time>
</trkpt>
<trkpt lat="49.508688" lon="10.40686">
<ele>288</ele>
<time>2019-05-29T16:40:02Z</time>
</trkpt>
<trkpt lat="49.508717" lon="10.406863">
<ele>288</ele>
<time>2019-05-29T16:40:07Z</time>
</trkpt>
<trkpt lat="49.508708" lon="10.406873">
<ele>288</ele>
<time>2019-05-29T16:40:12Z</time>
</trkpt>
<trkpt lat="49.5087" lon="10.406872">
<ele>288</ele>
<time>2019-05-29T16:40:17Z</time>
</trkpt>
<trkpt lat="49.508705" lon="10.40687">
<ele>288</ele>
<time>2019-05-29T16:40:22Z</time>
</trkpt>
<trkpt lat="49.508705" lon="10.406875">
<ele>288</ele>
<time>2019-05-29T16:40:27Z</time>
</trkpt>
<trkpt lat="49.5087" lon="10.406878">
<ele>288</ele>
<time>2019-05-29T16:40:37Z</time>
</trkpt>
<trkpt lat="49.508702" lon="10.406877">
<ele>288</ele>
<time>2019-05-29T16:40:42Z</time>
</trkpt>
<trkpt lat="49.508702" lon="10.406878">
<ele>288</ele>
<time>2019-05-29T16:40:47Z</time>
</trkpt>
<trkpt lat="49.508703" lon="10.40688">
<ele>288</ele>
<time>2019-05-29T16:40:52Z</time>
</trkpt>
<trkpt lat="49.508705" lon="10.406882">
<ele>288</ele>
<time>2019-05-29T16:40:57Z</time>
</trkpt>
<trkpt lat="49.508705" lon="10.40688">
<ele>288</ele>
<time>2019-05-29T16:41:02Z</time>
</trkpt>
<trkpt lat="49.508705" lon="10.406882">
<ele>288</ele>
<time>2019-05-29T16:41:07Z</time>
</trkpt>
<trkpt lat="49.508712" lon="10.406883">
<ele>288</ele>
<time>2019-05-29T16:41:12Z</time>
</trkpt>
<trkpt lat="49.50871" lon="10.40689">
<ele>288</ele>
<time>2019-05-29T16:41:17Z</time>
</trkpt>
<trkpt lat="49.508707" lon="10.406898">
<ele>288</ele>
<time>2019-05-29T16:41:22Z</time>
</trkpt>
<trkpt lat="49.508705" lon="10.406907">
<ele>288</ele>
<time>2019-05-29T16:41:27Z</time>
</trkpt>
<trkpt lat="49.508703" lon="10.406908">
<ele>288</ele>
<time>2019-05-29T16:41:32Z</time>
</trkpt>
<trkpt lat="49.508703" lon="10.40691">
<ele>288</ele>
<time>2019-05-29T16:41:37Z</time>
</trkpt>
<trkpt lat="49.508703" lon="10.406912">
<ele>288</ele>
<time>2019-05-29T16:41:42Z</time>
</trkpt>
<trkpt lat="49.508703" lon="10.406913">
<ele>288</ele>
<time>2019-05-29T16:41:57Z</time>
</trkpt>
<trkpt lat="49.508703" lon="10.406915">
<ele>288</ele>
<time>2019-05-29T16:42:07Z</time>
</trkpt>
<trkpt lat="49.508703" lon="10.406917">
<ele>288</ele>
<time>2019-05-29T16:42:12Z</time>
</trkpt>
<trkpt lat="49.508707" lon="10.40691">
<ele>288</ele>
<time>2019-05-29T16:42:17Z</time>
</trkpt>
<trkpt lat="49.508707" lon="10.40691">
<ele>288</ele>
</trkpt>
</trkseg>
</trk>
</gpx>